<?xml version="1.0" encoding="UTF-8" standalone="no" ?>
<gpx xmlns="http://www.topografix.com/GPX/1/1" xmlns:xsi="http://www.w3.org/2001/XMLSchema-instance" xsi:schemaLocation="http://www.topografix.com/GPX/1/1 http://www.topografix.com/GPX/1/1/gpx.xsd" version="1.1" creator="VisuGPX - https://www.visugpx.com">
  <metadata>
    <name>lundi 2015 02 23</name>
    <desc><![CDATA[rando du lundi]]></desc>
  </metadata>
  <trk>
    <name><![CDATA[23/02/2015 20:19]]></name>
    <desc><![CDATA[]]></desc>
    <trkseg>
      <trkpt lat="48.8573" lon="2.34715">
        <ele>115.1</ele>
        <time>2015-02-23T19:19:16.264Z</time>
      </trkpt>
      <trkpt lat="48.8573" lon="2.34712">
        <ele>114.7</ele>
        <time>2015-02-23T19:19:53.203Z</time>
      </trkpt>
      <trkpt lat="48.8573" lon="2.34711">
        <ele>114.5</ele>
        <time>2015-02-23T19:19:54.253Z</time>
      </trkpt>
      <trkpt lat="48.8573" lon="2.3471">
        <ele>114.3</ele>
        <time>2015-02-23T19:19:55.277Z</time>
      </trkpt>
      <trkpt lat="48.8573" lon="2.3471">
        <ele>114</ele>
        <time>2015-02-23T19:19:56.200Z</time>
      </trkpt>
      <trkpt lat="48.85726" lon="2.34698">
        <ele>111.8</ele>
        <time>2015-02-23T19:20:02.203Z</time>
      </trkpt>
      <trkpt lat="48.85723" lon="2.34698">
        <ele>111.5</ele>
        <time>2015-02-23T19:20:03.185Z</time>
      </trkpt>
      <trkpt lat="48.85718" lon="2.34708">
        <ele>99.3</ele>
        <time>2015-02-23T19:20:09.368Z</time>
      </trkpt>
      <trkpt lat="48.85717" lon="2.34709">
        <ele>98.9</ele>
        <time>2015-02-23T19:20:10.261Z</time>
      </trkpt>
      <trkpt lat="48.85716" lon="2.34709">
        <ele>98.6</ele>
        <time>2015-02-23T19:20:11.298Z</time>
      </trkpt>
      <trkpt lat="48.85716" lon="2.34709">
        <ele>98.2</ele>
        <time>2015-02-23T19:20:17.283Z</time>
      </trkpt>
      <trkpt lat="48.85718" lon="2.34711">
        <ele>95.5</ele>
        <time>2015-02-23T19:20:18.285Z</time>
      </trkpt>
      <trkpt lat="48.85715" lon="2.34724">
        <ele>94.6</ele>
        <time>2015-02-23T19:20:23.201Z</time>
      </trkpt>
      <trkpt lat="48.85714" lon="2.34727">
        <ele>94.7</ele>
        <time>2015-02-23T19:20:24.228Z</time>
      </trkpt>
      <trkpt lat="48.85711" lon="2.34736">
        <ele>94.3</ele>
        <time>2015-02-23T19:20:26.264Z</time>
      </trkpt>
      <trkpt lat="48.8571" lon="2.34741">
        <ele>94.1</ele>
        <time>2015-02-23T19:20:27.388Z</time>
      </trkpt>
      <trkpt lat="48.85707" lon="2.34751">
        <ele>93.4</ele>
        <time>2015-02-23T19:20:29.224Z</time>
      </trkpt>
      <trkpt lat="48.85705" lon="2.34756">
        <ele>93.1</ele>
        <time>2015-02-23T19:20:30.273Z</time>
      </trkpt>
      <trkpt lat="48.85702" lon="2.34767">
        <ele>92.7</ele>
        <time>2015-02-23T19:20:32.221Z</time>
      </trkpt>
      <trkpt lat="48.85701" lon="2.34773">
        <ele>92.4</ele>
        <time>2015-02-23T19:20:33.299Z</time>
      </trkpt>
      <trkpt lat="48.85698" lon="2.34785">
        <ele>91.6</ele>
        <time>2015-02-23T19:20:35.225Z</time>
      </trkpt>
      <trkpt lat="48.85699" lon="2.34793">
        <ele>91.6</ele>
        <time>2015-02-23T19:20:36.230Z</time>
      </trkpt>
      <trkpt lat="48.85699" lon="2.34801">
        <ele>91.5</ele>
        <time>2015-02-23T19:20:37.321Z</time>
      </trkpt>
      <trkpt lat="48.85698" lon="2.34808">
        <ele>91.5</ele>
        <time>2015-02-23T19:20:38.209Z</time>
      </trkpt>
      <trkpt lat="48.85696" lon="2.34821">
        <ele>91.8</ele>
        <time>2015-02-23T19:20:40.219Z</time>
      </trkpt>
      <trkpt lat="48.85695" lon="2.34827">
        <ele>91.8</ele>
        <time>2015-02-23T19:20:41.229Z</time>
      </trkpt>
      <trkpt lat="48.85692" lon="2.34839">
        <ele>91.9</ele>
        <time>2015-02-23T19:20:43.307Z</time>
      </trkpt>
      <trkpt lat="48.85691" lon="2.34844">
        <ele>91.9</ele>
        <time>2015-02-23T19:20:44.208Z</time>
      </trkpt>
      <trkpt lat="48.85687" lon="2.34856">
        <ele>92.2</ele>
        <time>2015-02-23T19:20:46.258Z</time>
      </trkpt>
      <trkpt lat="48.85685" lon="2.34861">
        <ele>92.2</ele>
        <time>2015-02-23T19:20:47.191Z</time>
      </trkpt>
      <trkpt lat="48.85681" lon="2.34872">
        <ele>92.3</ele>
        <time>2015-02-23T19:20:49.262Z</time>
      </trkpt>
      <trkpt lat="48.8568" lon="2.34878">
        <ele>92.3</ele>
        <time>2015-02-23T19:20:50.267Z</time>
      </trkpt>
      <trkpt lat="48.85677" lon="2.34889">
        <ele>92.2</ele>
        <time>2015-02-23T19:20:53.270Z</time>
      </trkpt>
      <trkpt lat="48.85675" lon="2.34894">
        <ele>92.1</ele>
        <time>2015-02-23T19:20:53.355Z</time>
      </trkpt>
      <trkpt lat="48.85672" lon="2.34903">
        <ele>92.3</ele>
        <time>2015-02-23T19:20:55.235Z</time>
      </trkpt>
      <trkpt lat="48.8567" lon="2.34908">
        <ele>92.4</ele>
        <time>2015-02-23T19:20:56.170Z</time>
      </trkpt>
      <trkpt lat="48.85666" lon="2.34918">
        <ele>92.6</ele>
        <time>2015-02-23T19:20:58.312Z</time>
      </trkpt>
      <trkpt lat="48.85665" lon="2.34924">
        <ele>92.9</ele>
        <time>2015-02-23T19:20:59.201Z</time>
      </trkpt>
      <trkpt lat="48.8566" lon="2.34934">
        <ele>92.9</ele>
        <time>2015-02-23T19:21:01.233Z</time>
      </trkpt>
      <trkpt lat="48.85658" lon="2.34939">
        <ele>92.9</ele>
        <time>2015-02-23T19:21:02.242Z</time>
      </trkpt>
      <trkpt lat="48.85653" lon="2.34946">
        <ele>92.8</ele>
        <time>2015-02-23T19:21:04.197Z</time>
      </trkpt>
      <trkpt lat="48.85651" lon="2.3495">
        <ele>92.9</ele>
        <time>2015-02-23T19:21:05.217Z</time>
      </trkpt>
      <trkpt lat="48.85648" lon="2.34955">
        <ele>93</ele>
        <time>2015-02-23T19:21:06.225Z</time>
      </trkpt>
      <trkpt lat="48.85645" lon="2.3496">
        <ele>93.3</ele>
        <time>2015-02-23T19:21:07.235Z</time>
      </trkpt>
      <trkpt lat="48.85642" lon="2.34966">
        <ele>93.4</ele>
        <time>2015-02-23T19:21:08.410Z</time>
      </trkpt>
      <trkpt lat="48.85639" lon="2.34974">
        <ele>93.7</ele>
        <time>2015-02-23T19:21:09.273Z</time>
      </trkpt>
      <trkpt lat="48.85636" lon="2.34981">
        <ele>93.9</ele>
        <time>2015-02-23T19:21:10.192Z</time>
      </trkpt>
      <trkpt lat="48.85634" lon="2.34987">
        <ele>94</ele>
        <time>2015-02-23T19:21:11.165Z</time>
      </trkpt>
      <trkpt lat="48.85632" lon="2.34994">
        <ele>94</ele>
        <time>2015-02-23T19:21:12.179Z</time>
      </trkpt>
      <trkpt lat="48.85629" lon="2.35001">
        <ele>94.1</ele>
        <time>2015-02-23T19:21:13.213Z</time>
      </trkpt>
      <trkpt lat="48.85627" lon="2.35008">
        <ele>94.1</ele>
        <time>2015-02-23T19:21:14.216Z</time>
      </trkpt>
      <trkpt lat="48.85624" lon="2.35016">
        <ele>93.9</ele>
        <time>2015-02-23T19:21:15.236Z</time>
      </trkpt>
      <trkpt lat="48.85621" lon="2.35025">
        <ele>93.6</ele>
        <time>2015-02-23T19:21:16.243Z</time>
      </trkpt>
      <trkpt lat="48.85618" lon="2.35032">
        <ele>93.4</ele>
        <time>2015-02-23T19:21:17.251Z</time>
      </trkpt>
      <trkpt lat="48.85615" lon="2.3504">
        <ele>93</ele>
        <time>2015-02-23T19:21:18.255Z</time>
      </trkpt>
      <trkpt lat="48.85614" lon="2.35047">
        <ele>92.3</ele>
        <time>2015-02-23T19:21:19.260Z</time>
      </trkpt>
      <trkpt lat="48.85612" lon="2.35053">
        <ele>92</ele>
        <time>2015-02-23T19:21:20.285Z</time>
      </trkpt>
      <trkpt lat="48.85609" lon="2.35059">
        <ele>91.9</ele>
        <time>2015-02-23T19:21:21.467Z</time>
      </trkpt>
      <trkpt lat="48.85607" lon="2.35065">
        <ele>91.9</ele>
        <time>2015-02-23T19:21:22.185Z</time>
      </trkpt>
      <trkpt lat="48.85604" lon="2.35071">
        <ele>91.6</ele>
        <time>2015-02-23T19:21:23.203Z</time>
      </trkpt>
      <trkpt lat="48.856" lon="2.35081">
        <ele>91</ele>
        <time>2015-02-23T19:21:25.240Z</time>
      </trkpt>
      <trkpt lat="48.85598" lon="2.35083">
        <ele>90.9</ele>
        <time>2015-02-23T19:21:26.291Z</time>
      </trkpt>
      <trkpt lat="48.85595" lon="2.35095">
        <ele>91.3</ele>
        <time>2015-02-23T19:21:30.233Z</time>
      </trkpt>
      <trkpt lat="48.85593" lon="2.35099">
        <ele>91.6</ele>
        <time>2015-02-23T19:21:31.276Z</time>
      </trkpt>
      <trkpt lat="48.85589" lon="2.35108">
        <ele>91.9</ele>
        <time>2015-02-23T19:21:33.274Z</time>
      </trkpt>
      <trkpt lat="48.85587" lon="2.35114">
        <ele>91.9</ele>
        <time>2015-02-23T19:21:34.191Z</time>
      </trkpt>
      <trkpt lat="48.85583" lon="2.35124">
        <ele>92.1</ele>
        <time>2015-02-23T19:21:36.207Z</time>
      </trkpt>
      <trkpt lat="48.85581" lon="2.3513">
        <ele>92.1</ele>
        <time>2015-02-23T19:21:37.342Z</time>
      </trkpt>
      <trkpt lat="48.85576" lon="2.35141">
        <ele>91.9</ele>
        <time>2015-02-23T19:21:39.242Z</time>
      </trkpt>
      <trkpt lat="48.85574" lon="2.35146">
        <ele>91.8</ele>
        <time>2015-02-23T19:21:40.260Z</time>
      </trkpt>
      <trkpt lat="48.85572" lon="2.35152">
        <ele>91.8</ele>
        <time>2015-02-23T19:21:41.282Z</time>
      </trkpt>
      <trkpt lat="48.85569" lon="2.35159">
        <ele>91.9</ele>
        <time>2015-02-23T19:21:42.285Z</time>
      </trkpt>
      <trkpt lat="48.85567" lon="2.35166">
        <ele>92.1</ele>
        <time>2015-02-23T19:21:43.300Z</time>
      </trkpt>
      <trkpt lat="48.85564" lon="2.35172">
        <ele>92.2</ele>
        <time>2015-02-23T19:21:44.211Z</time>
      </trkpt>
      <trkpt lat="48.85562" lon="2.35179">
        <ele>92.3</ele>
        <time>2015-02-23T19:21:45.213Z</time>
      </trkpt>
      <trkpt lat="48.85559" lon="2.35185">
        <ele>92.3</ele>
        <time>2015-02-23T19:21:46.219Z</time>
      </trkpt>
      <trkpt lat="48.85557" lon="2.35191">
        <ele>92.4</ele>
        <time>2015-02-23T19:21:47.226Z</time>
      </trkpt>
      <trkpt lat="48.85554" lon="2.35198">
        <ele>92.6</ele>
        <time>2015-02-23T19:21:48.233Z</time>
      </trkpt>
      <trkpt lat="48.85552" lon="2.35205">
        <ele>92.6</ele>
        <time>2015-02-23T19:21:49.301Z</time>
      </trkpt>
      <trkpt lat="48.85551" lon="2.35212">
        <ele>92.8</ele>
        <time>2015-02-23T19:21:50.194Z</time>
      </trkpt>
      <trkpt lat="48.85549" lon="2.35222">
        <ele>92.4</ele>
        <time>2015-02-23T19:21:52.301Z</time>
      </trkpt>
      <trkpt lat="48.85548" lon="2.35227">
        <ele>92.3</ele>
        <time>2015-02-23T19:21:53.228Z</time>
      </trkpt>
      <trkpt lat="48.85545" lon="2.35236">
        <ele>92.1</ele>
        <time>2015-02-23T19:21:55.294Z</time>
      </trkpt>
      <trkpt lat="48.85544" lon="2.3524">
        <ele>92</ele>
        <time>2015-02-23T19:21:56.218Z</time>
      </trkpt>
      <trkpt lat="48.85541" lon="2.35253">
        <ele>92</ele>
        <time>2015-02-23T19:21:59.251Z</time>
      </trkpt>
      <trkpt lat="48.85539" lon="2.35257">
        <ele>92</ele>
        <time>2015-02-23T19:22:00.285Z</time>
      </trkpt>
      <trkpt lat="48.85535" lon="2.35264">
        <ele>91.9</ele>
        <time>2015-02-23T19:22:02.202Z</time>
      </trkpt>
      <trkpt lat="48.85533" lon="2.35268">
        <ele>91.7</ele>
        <time>2015-02-23T19:22:03.212Z</time>
      </trkpt>
      <trkpt lat="48.85528" lon="2.35279">
        <ele>91.6</ele>
        <time>2015-02-23T19:22:06.215Z</time>
      </trkpt>
      <trkpt lat="48.85527" lon="2.35281">
        <ele>91.6</ele>
        <time>2015-02-23T19:22:07.251Z</time>
      </trkpt>
      <trkpt lat="48.85519" lon="2.35283">
        <ele>89.9</ele>
        <time>2015-02-23T19:22:12.216Z</time>
      </trkpt>
      <trkpt lat="48.85518" lon="2.35284">
        <ele>89.8</ele>
        <time>2015-02-23T19:22:13.254Z</time>
      </trkpt>
      <trkpt lat="48.8551" lon="2.35291">
        <ele>89.3</ele>
        <time>2015-02-23T19:22:18.214Z</time>
      </trkpt>
      <trkpt lat="48.85507" lon="2.3529">
        <ele>88.9</ele>
        <time>2015-02-23T19:22:19.249Z</time>
      </trkpt>
      <trkpt lat="48.85498" lon="2.3529">
        <ele>89.4</ele>
        <time>2015-02-23T19:22:22.217Z</time>
      </trkpt>
      <trkpt lat="48.85496" lon="2.35292">
        <ele>89.3</ele>
        <time>2015-02-23T19:22:23.248Z</time>
      </trkpt>
      <trkpt lat="48.85492" lon="2.35302">
        <ele>88.7</ele>
        <time>2015-02-23T19:22:27.235Z</time>
      </trkpt>
      <trkpt lat="48.85491" lon="2.35306">
        <ele>88.7</ele>
        <time>2015-02-23T19:22:28.291Z</time>
      </trkpt>
      <trkpt lat="48.85486" lon="2.35315">
        <ele>88.4</ele>
        <time>2015-02-23T19:22:31.286Z</time>
      </trkpt>
      <trkpt lat="48.85485" lon="2.35319">
        <ele>88.3</ele>
        <time>2015-02-23T19:22:32.296Z</time>
      </trkpt>
      <trkpt lat="48.8548" lon="2.3533">
        <ele>87.8</ele>
        <time>2015-02-23T19:22:35.206Z</time>
      </trkpt>
      <trkpt lat="48.85478" lon="2.35332">
        <ele>87.8</ele>
        <time>2015-02-23T19:22:36.228Z</time>
      </trkpt>
      <trkpt lat="48.8547" lon="2.35339">
        <ele>87.7</ele>
        <time>2015-02-23T19:22:39.258Z</time>
      </trkpt>
      <trkpt lat="48.85468" lon="2.35342">
        <ele>87.6</ele>
        <time>2015-02-23T19:22:40.246Z</time>
      </trkpt>
      <trkpt lat="48.85465" lon="2.35352">
        <ele>88</ele>
        <time>2015-02-23T19:22:43.314Z</time>
      </trkpt>
      <trkpt lat="48.85464" lon="2.35356">
        <ele>87.9</ele>
        <time>2015-02-23T19:22:44.232Z</time>
      </trkpt>
      <trkpt lat="48.85459" lon="2.35365">
        <ele>87.8</ele>
        <time>2015-02-23T19:22:48.255Z</time>
      </trkpt>
      <trkpt lat="48.85459" lon="2.35367">
        <ele>87.9</ele>
        <time>2015-02-23T19:22:49.346Z</time>
      </trkpt>
      <trkpt lat="48.85454" lon="2.35375">
        <ele>87.6</ele>
        <time>2015-02-23T19:22:52.203Z</time>
      </trkpt>
      <trkpt lat="48.85452" lon="2.35377">
        <ele>87.6</ele>
        <time>2015-02-23T19:22:53.238Z</time>
      </trkpt>
      <trkpt lat="48.85447" lon="2.35388">
        <ele>87.6</ele>
        <time>2015-02-23T19:22:56.245Z</time>
      </trkpt>
      <trkpt lat="48.85446" lon="2.35391">
        <ele>87.7</ele>
        <time>2015-02-23T19:22:57.240Z</time>
      </trkpt>
      <trkpt lat="48.85442" lon="2.35403">
        <ele>88.1</ele>
        <time>2015-02-23T19:23:01.245Z</time>
      </trkpt>
      <trkpt lat="48.85442" lon="2.35405">
        <ele>87.6</ele>
        <time>2015-02-23T19:23:02.249Z</time>
      </trkpt>
      <trkpt lat="48.85439" lon="2.35418">
        <ele>87.2</ele>
        <time>2015-02-23T19:23:07.264Z</time>
      </trkpt>
      <trkpt lat="48.85438" lon="2.3542">
        <ele>86.7</ele>
        <time>2015-02-23T19:23:08.375Z</time>
      </trkpt>
      <trkpt lat="48.85433" lon="2.35428">
        <ele>85.6</ele>
        <time>2015-02-23T19:23:11.218Z</time>
      </trkpt>
      <trkpt lat="48.85431" lon="2.35432">
        <ele>85.3</ele>
        <time>2015-02-23T19:23:12.222Z</time>
      </trkpt>
      <trkpt lat="48.85427" lon="2.35439">
        <ele>85.5</ele>
        <time>2015-02-23T19:23:14.266Z</time>
      </trkpt>
      <trkpt lat="48.85425" lon="2.35443">
        <ele>85.7</ele>
        <time>2015-02-23T19:23:15.275Z</time>
      </trkpt>
      <trkpt lat="48.85419" lon="2.35451">
        <ele>85.7</ele>
        <time>2015-02-23T19:23:17.206Z</time>
      </trkpt>
      <trkpt lat="48.85416" lon="2.35455">
        <ele>85.7</ele>
        <time>2015-02-23T19:23:18.215Z</time>
      </trkpt>
      <trkpt lat="48.85411" lon="2.3546">
        <ele>85.3</ele>
        <time>2015-02-23T19:23:19.234Z</time>
      </trkpt>
      <trkpt lat="48.85407" lon="2.35465">
        <ele>85.1</ele>
        <time>2015-02-23T19:23:20.243Z</time>
      </trkpt>
      <trkpt lat="48.85404" lon="2.35472">
        <ele>84.9</ele>
        <time>2015-02-23T19:23:21.257Z</time>
      </trkpt>
      <trkpt lat="48.85402" lon="2.35479">
        <ele>84.7</ele>
        <time>2015-02-23T19:23:22.267Z</time>
      </trkpt>
      <trkpt lat="48.854" lon="2.35486">
        <ele>84.7</ele>
        <time>2015-02-23T19:23:23.284Z</time>
      </trkpt>
      <trkpt lat="48.85399" lon="2.35493">
        <ele>84.9</ele>
        <time>2015-02-23T19:23:24.287Z</time>
      </trkpt>
      <trkpt lat="48.85396" lon="2.35499">
        <ele>85.1</ele>
        <time>2015-02-23T19:23:25.296Z</time>
      </trkpt>
      <trkpt lat="48.85394" lon="2.35506">
        <ele>85.2</ele>
        <time>2015-02-23T19:23:26.196Z</time>
      </trkpt>
      <trkpt lat="48.85392" lon="2.35513">
        <ele>85.3</ele>
        <time>2015-02-23T19:23:27.196Z</time>
      </trkpt>
      <trkpt lat="48.8539" lon="2.3552">
        <ele>85.3</ele>
        <time>2015-02-23T19:23:28.214Z</time>
      </trkpt>
      <trkpt lat="48.85388" lon="2.35528">
        <ele>85.1</ele>
        <time>2015-02-23T19:23:29.214Z</time>
      </trkpt>
      <trkpt lat="48.85386" lon="2.35535">
        <ele>84.8</ele>
        <time>2015-02-23T19:23:30.229Z</time>
      </trkpt>
      <trkpt lat="48.85383" lon="2.35542">
        <ele>84.5</ele>
        <time>2015-02-23T19:23:31.243Z</time>
      </trkpt>
      <trkpt lat="48.85381" lon="2.35549">
        <ele>84.3</ele>
        <time>2015-02-23T19:23:32.250Z</time>
      </trkpt>
      <trkpt lat="48.85379" lon="2.35556">
        <ele>84.2</ele>
        <time>2015-02-23T19:23:33.284Z</time>
      </trkpt>
      <trkpt lat="48.85377" lon="2.35563">
        <ele>84.1</ele>
        <time>2015-02-23T19:23:34.194Z</time>
      </trkpt>
      <trkpt lat="48.85374" lon="2.35575">
        <ele>84.4</ele>
        <time>2015-02-23T19:23:36.209Z</time>
      </trkpt>
      <trkpt lat="48.85373" lon="2.35582">
        <ele>84.5</ele>
        <time>2015-02-23T19:23:37.266Z</time>
      </trkpt>
      <trkpt lat="48.85369" lon="2.35593">
        <ele>84.1</ele>
        <time>2015-02-23T19:23:39.214Z</time>
      </trkpt>
      <trkpt lat="48.85368" lon="2.35599">
        <ele>84.3</ele>
        <time>2015-02-23T19:23:40.380Z</time>
      </trkpt>
      <trkpt lat="48.85365" lon="2.35609">
        <ele>84.2</ele>
        <time>2015-02-23T19:23:42.222Z</time>
      </trkpt>
      <trkpt lat="48.85365" lon="2.35614">
        <ele>84.3</ele>
        <time>2015-02-23T19:23:43.271Z</time>
      </trkpt>
      <trkpt lat="48.85361" lon="2.35624">
        <ele>84</ele>
        <time>2015-02-23T19:23:45.215Z</time>
      </trkpt>
      <trkpt lat="48.8536" lon="2.35628">
        <ele>83.8</ele>
        <time>2015-02-23T19:23:46.242Z</time>
      </trkpt>
      <trkpt lat="48.85357" lon="2.35637">
        <ele>83.4</ele>
        <time>2015-02-23T19:23:48.261Z</time>
      </trkpt>
      <trkpt lat="48.85356" lon="2.35642">
        <ele>83.4</ele>
        <time>2015-02-23T19:23:49.277Z</time>
      </trkpt>
      <trkpt lat="48.85352" lon="2.35652">
        <ele>83.3</ele>
        <time>2015-02-23T19:23:51.310Z</time>
      </trkpt>
      <trkpt lat="48.85351" lon="2.35657">
        <ele>83.5</ele>
        <time>2015-02-23T19:23:52.278Z</time>
      </trkpt>
      <trkpt lat="48.85347" lon="2.35669">
        <ele>83.7</ele>
        <time>2015-02-23T19:23:54.265Z</time>
      </trkpt>
      <trkpt lat="48.85346" lon="2.35674">
        <ele>83.8</ele>
        <time>2015-02-23T19:23:55.231Z</time>
      </trkpt>
      <trkpt lat="48.85342" lon="2.35684">
        <ele>84</ele>
        <time>2015-02-23T19:23:57.220Z</time>
      </trkpt>
      <trkpt lat="48.85341" lon="2.35689">
        <ele>84.3</ele>
        <time>2015-02-23T19:23:58.236Z</time>
      </trkpt>
      <trkpt lat="48.85338" lon="2.357">
        <ele>84.4</ele>
        <time>2015-02-23T19:24:00.190Z</time>
      </trkpt>
      <trkpt lat="48.85337" lon="2.35705">
        <ele>84.1</ele>
        <time>2015-02-23T19:24:01.274Z</time>
      </trkpt>
      <trkpt lat="48.85334" lon="2.35716">
        <ele>84.7</ele>
        <time>2015-02-23T19:24:03.291Z</time>
      </trkpt>
      <trkpt lat="48.85335" lon="2.35726">
        <ele>86.4</ele>
        <time>2015-02-23T19:24:04.304Z</time>
      </trkpt>
      <trkpt lat="48.85332" lon="2.35736">
        <ele>86.4</ele>
        <time>2015-02-23T19:24:06.261Z</time>
      </trkpt>
      <trkpt lat="48.8533" lon="2.35741">
        <ele>86.4</ele>
        <time>2015-02-23T19:24:07.320Z</time>
      </trkpt>
      <trkpt lat="48.85328" lon="2.35749">
        <ele>86.4</ele>
        <time>2015-02-23T19:24:09.216Z</time>
      </trkpt>
      <trkpt lat="48.85326" lon="2.35753">
        <ele>86.4</ele>
        <time>2015-02-23T19:24:10.239Z</time>
      </trkpt>
      <trkpt lat="48.85325" lon="2.35758">
        <ele>86.3</ele>
        <time>2015-02-23T19:24:11.210Z</time>
      </trkpt>
      <trkpt lat="48.85319" lon="2.35789">
        <ele>86</ele>
        <time>2015-02-23T19:24:19.247Z</time>
      </trkpt>
      <trkpt lat="48.85315" lon="2.35796">
        <ele>85.5</ele>
        <time>2015-02-23T19:24:20.764Z</time>
      </trkpt>
      <trkpt lat="48.85313" lon="2.358">
        <ele>85.3</ele>
        <time>2015-02-23T19:24:21.279Z</time>
      </trkpt>
      <trkpt lat="48.8531" lon="2.35806">
        <ele>85.2</ele>
        <time>2015-02-23T19:24:22.211Z</time>
      </trkpt>
      <trkpt lat="48.85307" lon="2.35811">
        <ele>85.5</ele>
        <time>2015-02-23T19:24:23.224Z</time>
      </trkpt>
      <trkpt lat="48.85302" lon="2.35821">
        <ele>87</ele>
        <time>2015-02-23T19:24:25.248Z</time>
      </trkpt>
      <trkpt lat="48.853" lon="2.35826">
        <ele>87.4</ele>
        <time>2015-02-23T19:24:26.244Z</time>
      </trkpt>
      <trkpt lat="48.85295" lon="2.35836">
        <ele>87.8</ele>
        <time>2015-02-23T19:24:28.274Z</time>
      </trkpt>
      <trkpt lat="48.85292" lon="2.35842">
        <ele>87.9</ele>
        <time>2015-02-23T19:24:29.353Z</time>
      </trkpt>
      <trkpt lat="48.85288" lon="2.35847">
        <ele>87.7</ele>
        <time>2015-02-23T19:24:30.955Z</time>
      </trkpt>
      <trkpt lat="48.85285" lon="2.35852">
        <ele>87.8</ele>
        <time>2015-02-23T19:24:31.246Z</time>
      </trkpt>
      <trkpt lat="48.8528" lon="2.35861">
        <ele>87.5</ele>
        <time>2015-02-23T19:24:33.254Z</time>
      </trkpt>
      <trkpt lat="48.85278" lon="2.35866">
        <ele>86.9</ele>
        <time>2015-02-23T19:24:34.174Z</time>
      </trkpt>
      <trkpt lat="48.85273" lon="2.35875">
        <ele>85.8</ele>
        <time>2015-02-23T19:24:36.181Z</time>
      </trkpt>
      <trkpt lat="48.85271" lon="2.35879">
        <ele>85.7</ele>
        <time>2015-02-23T19:24:37.294Z</time>
      </trkpt>
      <trkpt lat="48.85268" lon="2.35888">
        <ele>84.8</ele>
        <time>2015-02-23T19:24:39.231Z</time>
      </trkpt>
      <trkpt lat="48.85265" lon="2.35893">
        <ele>84.4</ele>
        <time>2015-02-23T19:24:40.221Z</time>
      </trkpt>
      <trkpt lat="48.85262" lon="2.35903">
        <ele>84.3</ele>
        <time>2015-02-23T19:24:42.235Z</time>
      </trkpt>
      <trkpt lat="48.8526" lon="2.35907">
        <ele>84.3</ele>
        <time>2015-02-23T19:24:43.296Z</time>
      </trkpt>
      <trkpt lat="48.85256" lon="2.35915">
        <ele>85</ele>
        <time>2015-02-23T19:24:45.248Z</time>
      </trkpt>
      <trkpt lat="48.85256" lon="2.3592">
        <ele>85.6</ele>
        <time>2015-02-23T19:24:46.269Z</time>
      </trkpt>
      <trkpt lat="48.85254" lon="2.35932">
        <ele>87.6</ele>
        <time>2015-02-23T19:24:50.474Z</time>
      </trkpt>
      <trkpt lat="48.85253" lon="2.35934">
        <ele>87.7</ele>
        <time>2015-02-23T19:24:51.245Z</time>
      </trkpt>
      <trkpt lat="48.8525" lon="2.35946">
        <ele>86.5</ele>
        <time>2015-02-23T19:24:55.287Z</time>
      </trkpt>
      <trkpt lat="48.85248" lon="2.3595">
        <ele>86.5</ele>
        <time>2015-02-23T19:24:56.217Z</time>
      </trkpt>
      <trkpt lat="48.85244" lon="2.3596">
        <ele>85.9</ele>
        <time>2015-02-23T19:24:59.241Z</time>
      </trkpt>
      <trkpt lat="48.85242" lon="2.35964">
        <ele>85.9</ele>
        <time>2015-02-23T19:25:00.221Z</time>
      </trkpt>
      <trkpt lat="48.85238" lon="2.35973">
        <ele>85.4</ele>
        <time>2015-02-23T19:25:02.351Z</time>
      </trkpt>
      <trkpt lat="48.85236" lon="2.35978">
        <ele>85.2</ele>
        <time>2015-02-23T19:25:03.224Z</time>
      </trkpt>
      <trkpt lat="48.85232" lon="2.35986">
        <ele>84.4</ele>
        <time>2015-02-23T19:25:05.251Z</time>
      </trkpt>
      <trkpt lat="48.8523" lon="2.3599">
        <ele>84.3</ele>
        <time>2015-02-23T19:25:06.254Z</time>
      </trkpt>
      <trkpt lat="48.85227" lon="2.35999">
        <ele>84.3</ele>
        <time>2015-02-23T19:25:08.283Z</time>
      </trkpt>
      <trkpt lat="48.85225" lon="2.36004">
        <ele>84.1</ele>
        <time>2015-02-23T19:25:09.296Z</time>
      </trkpt>
      <trkpt lat="48.85222" lon="2.36013">
        <ele>83.9</ele>
        <time>2015-02-23T19:25:11.190Z</time>
      </trkpt>
      <trkpt lat="48.8522" lon="2.36018">
        <ele>83.9</ele>
        <time>2015-02-23T19:25:12.217Z</time>
      </trkpt>
      <trkpt lat="48.85217" lon="2.36027">
        <ele>84.2</ele>
        <time>2015-02-23T19:25:14.243Z</time>
      </trkpt>
      <trkpt lat="48.85215" lon="2.36032">
        <ele>84.1</ele>
        <time>2015-02-23T19:25:15.250Z</time>
      </trkpt>
      <trkpt lat="48.85212" lon="2.36043">
        <ele>84.1</ele>
        <time>2015-02-23T19:25:17.303Z</time>
      </trkpt>
      <trkpt lat="48.85209" lon="2.36048">
        <ele>84.2</ele>
        <time>2015-02-23T19:25:18.219Z</time>
      </trkpt>
      <trkpt lat="48.85205" lon="2.36056">
        <ele>84.4</ele>
        <time>2015-02-23T19:25:20.260Z</time>
      </trkpt>
      <trkpt lat="48.85203" lon="2.3606">
        <ele>84.4</ele>
        <time>2015-02-23T19:25:21.254Z</time>
      </trkpt>
      <trkpt lat="48.85199" lon="2.36068">
        <ele>84.5</ele>
        <time>2015-02-23T19:25:23.286Z</time>
      </trkpt>
      <trkpt lat="48.85197" lon="2.36071">
        <ele>84.4</ele>
        <time>2015-02-23T19:25:24.302Z</time>
      </trkpt>
      <trkpt lat="48.85189" lon="2.36079">
        <ele>84.1</ele>
        <time>2015-02-23T19:25:27.242Z</time>
      </trkpt>
      <trkpt lat="48.85187" lon="2.36083">
        <ele>83.8</ele>
        <time>2015-02-23T19:25:28.260Z</time>
      </trkpt>
      <trkpt lat="48.85181" lon="2.36087">
        <ele>83.7</ele>
        <time>2015-02-23T19:25:30.282Z</time>
      </trkpt>
      <trkpt lat="48.85178" lon="2.36089">
        <ele>83.6</ele>
        <time>2015-02-23T19:25:31.306Z</time>
      </trkpt>
      <trkpt lat="48.8517" lon="2.36093">
        <ele>84.1</ele>
        <time>2015-02-23T19:25:34.263Z</time>
      </trkpt>
      <trkpt lat="48.85166" lon="2.36093">
        <ele>84.3</ele>
        <time>2015-02-23T19:25:35.200Z</time>
      </trkpt>
      <trkpt lat="48.85161" lon="2.36095">
        <ele>84.4</ele>
        <time>2015-02-23T19:25:37.245Z</time>
      </trkpt>
      <trkpt lat="48.85157" lon="2.36096">
        <ele>84.5</ele>
        <time>2015-02-23T19:25:38.283Z</time>
      </trkpt>
      <trkpt lat="48.8515" lon="2.36101">
        <ele>85.1</ele>
        <time>2015-02-23T19:25:40.220Z</time>
      </trkpt>
      <trkpt lat="48.85147" lon="2.36102">
        <ele>85.1</ele>
        <time>2015-02-23T19:25:41.249Z</time>
      </trkpt>
      <trkpt lat="48.85141" lon="2.36104">
        <ele>85.1</ele>
        <time>2015-02-23T19:25:43.293Z</time>
      </trkpt>
      <trkpt lat="48.85138" lon="2.36105">
        <ele>85.4</ele>
        <time>2015-02-23T19:25:44.189Z</time>
      </trkpt>
      <trkpt lat="48.85131" lon="2.36106">
        <ele>85.7</ele>
        <time>2015-02-23T19:25:46.217Z</time>
      </trkpt>
      <trkpt lat="48.85127" lon="2.36106">
        <ele>85.5</ele>
        <time>2015-02-23T19:25:47.217Z</time>
      </trkpt>
      <trkpt lat="48.85119" lon="2.36106">
        <ele>85.6</ele>
        <time>2015-02-23T19:25:49.274Z</time>
      </trkpt>
      <trkpt lat="48.85115" lon="2.36106">
        <ele>85.7</ele>
        <time>2015-02-23T19:25:50.265Z</time>
      </trkpt>
      <trkpt lat="48.85108" lon="2.36106">
        <ele>85.9</ele>
        <time>2015-02-23T19:25:52.409Z</time>
      </trkpt>
      <trkpt lat="48.85104" lon="2.36106">
        <ele>85.9</ele>
        <time>2015-02-23T19:25:53.214Z</time>
      </trkpt>
      <trkpt lat="48.85097" lon="2.36106">
        <ele>85.8</ele>
        <time>2015-02-23T19:25:55.291Z</time>
      </trkpt>
      <trkpt lat="48.85094" lon="2.36105">
        <ele>86.2</ele>
        <time>2015-02-23T19:25:56.310Z</time>
      </trkpt>
      <trkpt lat="48.85088" lon="2.36105">
        <ele>86.3</ele>
        <time>2015-02-23T19:25:58.257Z</time>
      </trkpt>
      <trkpt lat="48.85084" lon="2.36104">
        <ele>86.3</ele>
        <time>2015-02-23T19:25:59.292Z</time>
      </trkpt>
      <trkpt lat="48.85067" lon="2.36098">
        <ele>86.3</ele>
        <time>2015-02-23T19:26:04.213Z</time>
      </trkpt>
      <trkpt lat="48.8506" lon="2.36097">
        <ele>86.5</ele>
        <time>2015-02-23T19:26:07.608Z</time>
      </trkpt>
      <trkpt lat="48.85057" lon="2.36097">
        <ele>86.7</ele>
        <time>2015-02-23T19:26:08.306Z</time>
      </trkpt>
      <trkpt lat="48.85049" lon="2.361">
        <ele>87.2</ele>
        <time>2015-02-23T19:26:10.225Z</time>
      </trkpt>
      <trkpt lat="48.85046" lon="2.36101">
        <ele>87.5</ele>
        <time>2015-02-23T19:26:11.299Z</time>
      </trkpt>
      <trkpt lat="48.8504" lon="2.36102">
        <ele>87.9</ele>
        <time>2015-02-23T19:26:13.230Z</time>
      </trkpt>
      <trkpt lat="48.85037" lon="2.36102">
        <ele>87.8</ele>
        <time>2015-02-23T19:26:14.244Z</time>
      </trkpt>
      <trkpt lat="48.8503" lon="2.36102">
        <ele>87.2</ele>
        <time>2015-02-23T19:26:16.177Z</time>
      </trkpt>
      <trkpt lat="48.85026" lon="2.36102">
        <ele>87.2</ele>
        <time>2015-02-23T19:26:17.191Z</time>
      </trkpt>
      <trkpt lat="48.8502" lon="2.36102">
        <ele>88</ele>
        <time>2015-02-23T19:26:19.209Z</time>
      </trkpt>
      <trkpt lat="48.85016" lon="2.36102">
        <ele>88.6</ele>
        <time>2015-02-23T19:26:20.224Z</time>
      </trkpt>
      <trkpt lat="48.85008" lon="2.36104">
        <ele>88.9</ele>
        <time>2015-02-23T19:26:22.266Z</time>
      </trkpt>
      <trkpt lat="48.85004" lon="2.36105">
        <ele>90.3</ele>
        <time>2015-02-23T19:26:23.279Z</time>
      </trkpt>
      <trkpt lat="48.84997" lon="2.36107">
        <ele>91.4</ele>
        <time>2015-02-23T19:26:25.204Z</time>
      </trkpt>
      <trkpt lat="48.84993" lon="2.36108">
        <ele>91.6</ele>
        <time>2015-02-23T19:26:26.214Z</time>
      </trkpt>
      <trkpt lat="48.84986" lon="2.3611">
        <ele>93.3</ele>
        <time>2015-02-23T19:26:28.182Z</time>
      </trkpt>
      <trkpt lat="48.84983" lon="2.36111">
        <ele>93.6</ele>
        <time>2015-02-23T19:26:29.200Z</time>
      </trkpt>
      <trkpt lat="48.84976" lon="2.36115">
        <ele>93.3</ele>
        <time>2015-02-23T19:26:31.235Z</time>
      </trkpt>
      <trkpt lat="48.84974" lon="2.36116">
        <ele>92.7</ele>
        <time>2015-02-23T19:26:32.249Z</time>
      </trkpt>
      <trkpt lat="48.84966" lon="2.3612">
        <ele>90.2</ele>
        <time>2015-02-23T19:26:35.188Z</time>
      </trkpt>
      <trkpt lat="48.84963" lon="2.36121">
        <ele>90.4</ele>
        <time>2015-02-23T19:26:36.220Z</time>
      </trkpt>
      <trkpt lat="48.84958" lon="2.36125">
        <ele>90.2</ele>
        <time>2015-02-23T19:26:38.170Z</time>
      </trkpt>
      <trkpt lat="48.84954" lon="2.36127">
        <ele>90</ele>
        <time>2015-02-23T19:26:39.182Z</time>
      </trkpt>
      <trkpt lat="48.84947" lon="2.36132">
        <ele>90</ele>
        <time>2015-02-23T19:26:42.155Z</time>
      </trkpt>
      <trkpt lat="48.84945" lon="2.36133">
        <ele>90</ele>
        <time>2015-02-23T19:26:43.182Z</time>
      </trkpt>
      <trkpt lat="48.84937" lon="2.36136">
        <ele>90</ele>
        <time>2015-02-23T19:26:50.259Z</time>
      </trkpt>
      <trkpt lat="48.84935" lon="2.36137">
        <ele>89.8</ele>
        <time>2015-02-23T19:26:51.256Z</time>
      </trkpt>
      <trkpt lat="48.84931" lon="2.36146">
        <ele>89.7</ele>
        <time>2015-02-23T19:26:55.234Z</time>
      </trkpt>
      <trkpt lat="48.84929" lon="2.36149">
        <ele>89.4</ele>
        <time>2015-02-23T19:26:56.228Z</time>
      </trkpt>
      <trkpt lat="48.84924" lon="2.36153">
        <ele>91.1</ele>
        <time>2015-02-23T19:26:59.196Z</time>
      </trkpt>
      <trkpt lat="48.84922" lon="2.36153">
        <ele>91.4</ele>
        <time>2015-02-23T19:27:00.202Z</time>
      </trkpt>
      <trkpt lat="48.84921" lon="2.36154">
        <ele>91.6</ele>
        <time>2015-02-23T19:27:01.300Z</time>
      </trkpt>
      <trkpt lat="48.84916" lon="2.36163">
        <ele>90.7</ele>
        <time>2015-02-23T19:27:06.248Z</time>
      </trkpt>
      <trkpt lat="48.84915" lon="2.36165">
        <ele>91.3</ele>
        <time>2015-02-23T19:27:07.365Z</time>
      </trkpt>
      <trkpt lat="48.84915" lon="2.36169">
        <ele>88.8</ele>
        <time>2015-02-23T19:27:11.277Z</time>
      </trkpt>
      <trkpt lat="48.84915" lon="2.36169">
        <ele>87.9</ele>
        <time>2015-02-23T19:27:12.200Z</time>
      </trkpt>
      <trkpt lat="48.84915" lon="2.36169">
        <ele>87</ele>
        <time>2015-02-23T19:27:13.232Z</time>
      </trkpt>
      <trkpt lat="48.84916" lon="2.36169">
        <ele>86.7</ele>
        <time>2015-02-23T19:27:14.245Z</time>
      </trkpt>
      <trkpt lat="48.84924" lon="2.36168">
        <ele>82.1</ele>
        <time>2015-02-23T19:27:30.220Z</time>
      </trkpt>
      <trkpt lat="48.84924" lon="2.36168">
        <ele>82</ele>
        <time>2015-02-23T19:27:31.233Z</time>
      </trkpt>
      <trkpt lat="48.84924" lon="2.36168">
        <ele>81.7</ele>
        <time>2015-02-23T19:27:32.190Z</time>
      </trkpt>
      <trkpt lat="48.84925" lon="2.36167">
        <ele>81.7</ele>
        <time>2015-02-23T19:27:33.192Z</time>
      </trkpt>
      <trkpt lat="48.84925" lon="2.36168">
        <ele>82.2</ele>
        <time>2015-02-23T19:27:36.318Z</time>
      </trkpt>
      <trkpt lat="48.84926" lon="2.36167">
        <ele>82.4</ele>
        <time>2015-02-23T19:27:37.243Z</time>
      </trkpt>
      <trkpt lat="48.84923" lon="2.3618">
        <ele>82.3</ele>
        <time>2015-02-23T19:27:43.237Z</time>
      </trkpt>
      <trkpt lat="48.84922" lon="2.36182">
        <ele>82.8</ele>
        <time>2015-02-23T19:27:44.235Z</time>
      </trkpt>
      <trkpt lat="48.84914" lon="2.36189">
        <ele>83.4</ele>
        <time>2015-02-23T19:27:47.274Z</time>
      </trkpt>
      <trkpt lat="48.84912" lon="2.36192">
        <ele>83.5</ele>
        <time>2015-02-23T19:27:48.205Z</time>
      </trkpt>
      <trkpt lat="48.84909" lon="2.362">
        <ele>84.6</ele>
        <time>2015-02-23T19:27:50.193Z</time>
      </trkpt>
      <trkpt lat="48.84908" lon="2.36204">
        <ele>85</ele>
        <time>2015-02-23T19:27:51.202Z</time>
      </trkpt>
      <trkpt lat="48.84904" lon="2.36213">
        <ele>85.9</ele>
        <time>2015-02-23T19:27:53.194Z</time>
      </trkpt>
      <trkpt lat="48.84902" lon="2.36217">
        <ele>86.3</ele>
        <time>2015-02-23T19:27:54.265Z</time>
      </trkpt>
      <trkpt lat="48.84895" lon="2.36224">
        <ele>86.7</ele>
        <time>2015-02-23T19:27:57.216Z</time>
      </trkpt>
      <trkpt lat="48.84893" lon="2.36227">
        <ele>86.8</ele>
        <time>2015-02-23T19:27:58.212Z</time>
      </trkpt>
      <trkpt lat="48.84886" lon="2.36233">
        <ele>88.2</ele>
        <time>2015-02-23T19:28:01.271Z</time>
      </trkpt>
      <trkpt lat="48.84884" lon="2.36237">
        <ele>88</ele>
        <time>2015-02-23T19:28:02.281Z</time>
      </trkpt>
      <trkpt lat="48.84879" lon="2.36244">
        <ele>88.3</ele>
        <time>2015-02-23T19:28:04.243Z</time>
      </trkpt>
      <trkpt lat="48.84877" lon="2.36247">
        <ele>88.2</ele>
        <time>2015-02-23T19:28:05.276Z</time>
      </trkpt>
      <trkpt lat="48.84872" lon="2.36254">
        <ele>88.4</ele>
        <time>2015-02-23T19:28:07.243Z</time>
      </trkpt>
      <trkpt lat="48.84871" lon="2.36258">
        <ele>89</ele>
        <time>2015-02-23T19:28:08.280Z</time>
      </trkpt>
      <trkpt lat="48.84865" lon="2.36268">
        <ele>90.2</ele>
        <time>2015-02-23T19:28:11.185Z</time>
      </trkpt>
      <trkpt lat="48.84862" lon="2.36271">
        <ele>90.4</ele>
        <time>2015-02-23T19:28:12.242Z</time>
      </trkpt>
      <trkpt lat="48.84856" lon="2.36281">
        <ele>91.2</ele>
        <time>2015-02-23T19:28:15.185Z</time>
      </trkpt>
      <trkpt lat="48.84855" lon="2.36284">
        <ele>91.3</ele>
        <time>2015-02-23T19:28:16.194Z</time>
      </trkpt>
      <trkpt lat="48.84849" lon="2.36292">
        <ele>91</ele>
        <time>2015-02-23T19:28:19.329Z</time>
      </trkpt>
      <trkpt lat="48.84847" lon="2.36295">
        <ele>91.2</ele>
        <time>2015-02-23T19:28:20.217Z</time>
      </trkpt>
      <trkpt lat="48.84842" lon="2.36302">
        <ele>91.6</ele>
        <time>2015-02-23T19:28:22.295Z</time>
      </trkpt>
      <trkpt lat="48.84839" lon="2.36306">
        <ele>91.5</ele>
        <time>2015-02-23T19:28:23.217Z</time>
      </trkpt>
      <trkpt lat="48.84832" lon="2.36315">
        <ele>91</ele>
        <time>2015-02-23T19:28:26.268Z</time>
      </trkpt>
      <trkpt lat="48.8483" lon="2.36319">
        <ele>90.9</ele>
        <time>2015-02-23T19:28:27.293Z</time>
      </trkpt>
      <trkpt lat="48.84827" lon="2.36327">
        <ele>90.6</ele>
        <time>2015-02-23T19:28:29.265Z</time>
      </trkpt>
      <trkpt lat="48.84824" lon="2.3633">
        <ele>90.5</ele>
        <time>2015-02-23T19:28:30.348Z</time>
      </trkpt>
      <trkpt lat="48.84819" lon="2.36335">
        <ele>90.5</ele>
        <time>2015-02-23T19:28:32.213Z</time>
      </trkpt>
      <trkpt lat="48.84817" lon="2.36338">
        <ele>90.5</ele>
        <time>2015-02-23T19:28:33.212Z</time>
      </trkpt>
      <trkpt lat="48.8481" lon="2.36346">
        <ele>90.4</ele>
        <time>2015-02-23T19:28:36.228Z</time>
      </trkpt>
      <trkpt lat="48.84808" lon="2.3635">
        <ele>90.5</ele>
        <time>2015-02-23T19:28:37.284Z</time>
      </trkpt>
      <trkpt lat="48.84803" lon="2.3636">
        <ele>90.5</ele>
        <time>2015-02-23T19:28:40.202Z</time>
      </trkpt>
      <trkpt lat="48.84801" lon="2.36363">
        <ele>90.6</ele>
        <time>2015-02-23T19:28:41.221Z</time>
      </trkpt>
      <trkpt lat="48.84798" lon="2.36372">
        <ele>91</ele>
        <time>2015-02-23T19:28:44.263Z</time>
      </trkpt>
      <trkpt lat="48.84797" lon="2.36377">
        <ele>91.3</ele>
        <time>2015-02-23T19:28:45.286Z</time>
      </trkpt>
      <trkpt lat="48.84794" lon="2.36389">
        <ele>91.9</ele>
        <time>2015-02-23T19:28:49.365Z</time>
      </trkpt>
      <trkpt lat="48.84793" lon="2.36392">
        <ele>92.1</ele>
        <time>2015-02-23T19:28:50.204Z</time>
      </trkpt>
      <trkpt lat="48.84787" lon="2.36398">
        <ele>91.8</ele>
        <time>2015-02-23T19:28:53.286Z</time>
      </trkpt>
      <trkpt lat="48.84785" lon="2.36402">
        <ele>91.8</ele>
        <time>2015-02-23T19:28:54.242Z</time>
      </trkpt>
      <trkpt lat="48.84782" lon="2.36408">
        <ele>91.8</ele>
        <time>2015-02-23T19:28:56.274Z</time>
      </trkpt>
      <trkpt lat="48.84779" lon="2.36413">
        <ele>91.7</ele>
        <time>2015-02-23T19:28:57.283Z</time>
      </trkpt>
      <trkpt lat="48.84774" lon="2.36419">
        <ele>91.6</ele>
        <time>2015-02-23T19:28:59.192Z</time>
      </trkpt>
      <trkpt lat="48.84772" lon="2.36421">
        <ele>91.5</ele>
        <time>2015-02-23T19:29:00.233Z</time>
      </trkpt>
      <trkpt lat="48.84765" lon="2.36429">
        <ele>91.4</ele>
        <time>2015-02-23T19:29:03.190Z</time>
      </trkpt>
      <trkpt lat="48.84764" lon="2.36433">
        <ele>91.1</ele>
        <time>2015-02-23T19:29:04.158Z</time>
      </trkpt>
      <trkpt lat="48.84757" lon="2.36442">
        <ele>90.6</ele>
        <time>2015-02-23T19:29:07.278Z</time>
      </trkpt>
      <trkpt lat="48.84755" lon="2.36445">
        <ele>90.2</ele>
        <time>2015-02-23T19:29:08.162Z</time>
      </trkpt>
      <trkpt lat="48.84752" lon="2.36456">
        <ele>87.1</ele>
        <time>2015-02-23T19:29:10.180Z</time>
      </trkpt>
      <trkpt lat="48.84751" lon="2.3646">
        <ele>87.1</ele>
        <time>2015-02-23T19:29:11.239Z</time>
      </trkpt>
      <trkpt lat="48.84746" lon="2.36467">
        <ele>86.7</ele>
        <time>2015-02-23T19:29:14.178Z</time>
      </trkpt>
      <trkpt lat="48.84743" lon="2.3647">
        <ele>87</ele>
        <time>2015-02-23T19:29:15.191Z</time>
      </trkpt>
      <trkpt lat="48.84736" lon="2.36477">
        <ele>87.4</ele>
        <time>2015-02-23T19:29:18.208Z</time>
      </trkpt>
      <trkpt lat="48.84733" lon="2.3648">
        <ele>87.9</ele>
        <time>2015-02-23T19:29:19.274Z</time>
      </trkpt>
      <trkpt lat="48.84733" lon="2.36481">
        <ele>88</ele>
        <time>2015-02-23T19:29:20.200Z</time>
      </trkpt>
      <trkpt lat="48.84734" lon="2.3648">
        <ele>87.6</ele>
        <time>2015-02-23T19:29:21.193Z</time>
      </trkpt>
      <trkpt lat="48.84735" lon="2.3648">
        <ele>87.3</ele>
        <time>2015-02-23T19:29:22.209Z</time>
      </trkpt>
      <trkpt lat="48.84741" lon="2.36489">
        <ele>84.3</ele>
        <time>2015-02-23T19:29:42.216Z</time>
      </trkpt>
      <trkpt lat="48.84742" lon="2.36492">
        <ele>84.2</ele>
        <time>2015-02-23T19:29:43.260Z</time>
      </trkpt>
      <trkpt lat="48.84743" lon="2.36505">
        <ele>83.7</ele>
        <time>2015-02-23T19:29:46.220Z</time>
      </trkpt>
      <trkpt lat="48.84745" lon="2.36509">
        <ele>83.2</ele>
        <time>2015-02-23T19:29:47.219Z</time>
      </trkpt>
      <trkpt lat="48.84747" lon="2.36522">
        <ele>82.3</ele>
        <time>2015-02-23T19:29:51.238Z</time>
      </trkpt>
      <trkpt lat="48.84746" lon="2.36525">
        <ele>82.5</ele>
        <time>2015-02-23T19:29:52.243Z</time>
      </trkpt>
      <trkpt lat="48.84744" lon="2.36536">
        <ele>82.8</ele>
        <time>2015-02-23T19:29:55.230Z</time>
      </trkpt>
      <trkpt lat="48.84743" lon="2.3654">
        <ele>82.9</ele>
        <time>2015-02-23T19:29:56.199Z</time>
      </trkpt>
      <trkpt lat="48.84739" lon="2.36551">
        <ele>83.7</ele>
        <time>2015-02-23T19:30:01.321Z</time>
      </trkpt>
      <trkpt lat="48.84738" lon="2.36554">
        <ele>83.9</ele>
        <time>2015-02-23T19:30:02.194Z</time>
      </trkpt>
      <trkpt lat="48.84734" lon="2.36565">
        <ele>84.5</ele>
        <time>2015-02-23T19:30:07.328Z</time>
      </trkpt>
      <trkpt lat="48.84732" lon="2.36568">
        <ele>84.5</ele>
        <time>2015-02-23T19:30:08.215Z</time>
      </trkpt>
      <trkpt lat="48.84726" lon="2.36576">
        <ele>84.8</ele>
        <time>2015-02-23T19:30:11.262Z</time>
      </trkpt>
      <trkpt lat="48.84724" lon="2.36579">
        <ele>84.9</ele>
        <time>2015-02-23T19:30:12.275Z</time>
      </trkpt>
      <trkpt lat="48.84718" lon="2.36586">
        <ele>84.8</ele>
        <time>2015-02-23T19:30:15.266Z</time>
      </trkpt>
      <trkpt lat="48.84716" lon="2.36589">
        <ele>84.9</ele>
        <time>2015-02-23T19:30:16.357Z</time>
      </trkpt>
      <trkpt lat="48.84709" lon="2.36596">
        <ele>85.1</ele>
        <time>2015-02-23T19:30:19.300Z</time>
      </trkpt>
      <trkpt lat="48.84707" lon="2.36599">
        <ele>85.1</ele>
        <time>2015-02-23T19:30:20.215Z</time>
      </trkpt>
      <trkpt lat="48.84701" lon="2.36606">
        <ele>85.1</ele>
        <time>2015-02-23T19:30:23.289Z</time>
      </trkpt>
      <trkpt lat="48.84699" lon="2.36608">
        <ele>85.2</ele>
        <time>2015-02-23T19:30:24.306Z</time>
      </trkpt>
      <trkpt lat="48.84692" lon="2.36614">
        <ele>85.4</ele>
        <time>2015-02-23T19:30:27.264Z</time>
      </trkpt>
      <trkpt lat="48.84691" lon="2.36616">
        <ele>85.6</ele>
        <time>2015-02-23T19:30:28.287Z</time>
      </trkpt>
      <trkpt lat="48.84685" lon="2.36621">
        <ele>85.9</ele>
        <time>2015-02-23T19:30:31.274Z</time>
      </trkpt>
      <trkpt lat="48.84682" lon="2.36623">
        <ele>86</ele>
        <time>2015-02-23T19:30:32.215Z</time>
      </trkpt>
      <trkpt lat="48.84675" lon="2.36628">
        <ele>86</ele>
        <time>2015-02-23T19:30:36.298Z</time>
      </trkpt>
      <trkpt lat="48.84673" lon="2.36629">
        <ele>86.3</ele>
        <time>2015-02-23T19:30:37.292Z</time>
      </trkpt>
      <trkpt lat="48.84666" lon="2.36634">
        <ele>87.2</ele>
        <time>2015-02-23T19:30:40.269Z</time>
      </trkpt>
      <trkpt lat="48.84663" lon="2.36635">
        <ele>87.4</ele>
        <time>2015-02-23T19:30:41.192Z</time>
      </trkpt>
      <trkpt lat="48.84654" lon="2.36639">
        <ele>88</ele>
        <time>2015-02-23T19:30:44.216Z</time>
      </trkpt>
      <trkpt lat="48.84651" lon="2.36641">
        <ele>88.2</ele>
        <time>2015-02-23T19:30:45.181Z</time>
      </trkpt>
      <trkpt lat="48.84646" lon="2.36647">
        <ele>88.7</ele>
        <time>2015-02-23T19:30:47.250Z</time>
      </trkpt>
      <trkpt lat="48.84643" lon="2.36648">
        <ele>88.8</ele>
        <time>2015-02-23T19:30:48.270Z</time>
      </trkpt>
      <trkpt lat="48.84638" lon="2.3665">
        <ele>88.8</ele>
        <time>2015-02-23T19:30:50.203Z</time>
      </trkpt>
      <trkpt lat="48.84635" lon="2.36652">
        <ele>88.9</ele>
        <time>2015-02-23T19:30:51.277Z</time>
      </trkpt>
      <trkpt lat="48.84627" lon="2.36655">
        <ele>89</ele>
        <time>2015-02-23T19:30:53.241Z</time>
      </trkpt>
      <trkpt lat="48.84624" lon="2.36657">
        <ele>89.1</ele>
        <time>2015-02-23T19:30:54.262Z</time>
      </trkpt>
      <trkpt lat="48.84617" lon="2.36657">
        <ele>89.1</ele>
        <time>2015-02-23T19:30:56.216Z</time>
      </trkpt>
      <trkpt lat="48.84613" lon="2.36656">
        <ele>89</ele>
        <time>2015-02-23T19:30:57.269Z</time>
      </trkpt>
      <trkpt lat="48.84605" lon="2.3666">
        <ele>88.6</ele>
        <time>2015-02-23T19:31:00.259Z</time>
      </trkpt>
      <trkpt lat="48.84604" lon="2.36663">
        <ele>88.5</ele>
        <time>2015-02-23T19:31:01.271Z</time>
      </trkpt>
      <trkpt lat="48.846" lon="2.36671">
        <ele>88.3</ele>
        <time>2015-02-23T19:31:03.215Z</time>
      </trkpt>
      <trkpt lat="48.84598" lon="2.36674">
        <ele>88.3</ele>
        <time>2015-02-23T19:31:04.249Z</time>
      </trkpt>
      <trkpt lat="48.84592" lon="2.36684">
        <ele>88.4</ele>
        <time>2015-02-23T19:31:07.338Z</time>
      </trkpt>
      <trkpt lat="48.8459" lon="2.36687">
        <ele>88.2</ele>
        <time>2015-02-23T19:31:08.213Z</time>
      </trkpt>
      <trkpt lat="48.84581" lon="2.3669">
        <ele>88.6</ele>
        <time>2015-02-23T19:31:12.218Z</time>
      </trkpt>
      <trkpt lat="48.84579" lon="2.3669">
        <ele>88.8</ele>
        <time>2015-02-23T19:31:13.417Z</time>
      </trkpt>
      <trkpt lat="48.84571" lon="2.36688">
        <ele>89.1</ele>
        <time>2015-02-23T19:31:16.216Z</time>
      </trkpt>
      <trkpt lat="48.84568" lon="2.36686">
        <ele>89.1</ele>
        <time>2015-02-23T19:31:17.242Z</time>
      </trkpt>
      <trkpt lat="48.8456" lon="2.36681">
        <ele>89.2</ele>
        <time>2015-02-23T19:31:20.294Z</time>
      </trkpt>
      <trkpt lat="48.84557" lon="2.36678">
        <ele>89.1</ele>
        <time>2015-02-23T19:31:21.178Z</time>
      </trkpt>
      <trkpt lat="48.84553" lon="2.36673">
        <ele>89</ele>
        <time>2015-02-23T19:31:23.301Z</time>
      </trkpt>
      <trkpt lat="48.8455" lon="2.3667">
        <ele>89</ele>
        <time>2015-02-23T19:31:24.180Z</time>
      </trkpt>
      <trkpt lat="48.84546" lon="2.36663">
        <ele>88.9</ele>
        <time>2015-02-23T19:31:26.245Z</time>
      </trkpt>
      <trkpt lat="48.84543" lon="2.3666">
        <ele>89</ele>
        <time>2015-02-23T19:31:27.273Z</time>
      </trkpt>
      <trkpt lat="48.84538" lon="2.36653">
        <ele>89.3</ele>
        <time>2015-02-23T19:31:29.202Z</time>
      </trkpt>
      <trkpt lat="48.84536" lon="2.36649">
        <ele>89.2</ele>
        <time>2015-02-23T19:31:30.253Z</time>
      </trkpt>
      <trkpt lat="48.8453" lon="2.3664">
        <ele>89.2</ele>
        <time>2015-02-23T19:31:33.285Z</time>
      </trkpt>
      <trkpt lat="48.84528" lon="2.36636">
        <ele>89</ele>
        <time>2015-02-23T19:31:34.209Z</time>
      </trkpt>
      <trkpt lat="48.84523" lon="2.36629">
        <ele>88.9</ele>
        <time>2015-02-23T19:31:36.212Z</time>
      </trkpt>
      <trkpt lat="48.84521" lon="2.36625">
        <ele>88.9</ele>
        <time>2015-02-23T19:31:37.259Z</time>
      </trkpt>
      <trkpt lat="48.84517" lon="2.36617">
        <ele>88.9</ele>
        <time>2015-02-23T19:31:39.206Z</time>
      </trkpt>
      <trkpt lat="48.84515" lon="2.36613">
        <ele>88.9</ele>
        <time>2015-02-23T19:31:40.211Z</time>
      </trkpt>
      <trkpt lat="48.84511" lon="2.36606">
        <ele>89</ele>
        <time>2015-02-23T19:31:42.241Z</time>
      </trkpt>
      <trkpt lat="48.84509" lon="2.36602">
        <ele>88.9</ele>
        <time>2015-02-23T19:31:43.351Z</time>
      </trkpt>
      <trkpt lat="48.84506" lon="2.36594">
        <ele>88.9</ele>
        <time>2015-02-23T19:31:45.250Z</time>
      </trkpt>
      <trkpt lat="48.84503" lon="2.36591">
        <ele>88.8</ele>
        <time>2015-02-23T19:31:46.181Z</time>
      </trkpt>
      <trkpt lat="48.845" lon="2.36583">
        <ele>89</ele>
        <time>2015-02-23T19:31:48.260Z</time>
      </trkpt>
      <trkpt lat="48.84498" lon="2.36579">
        <ele>89.2</ele>
        <time>2015-02-23T19:31:49.299Z</time>
      </trkpt>
      <trkpt lat="48.84494" lon="2.36572">
        <ele>89.3</ele>
        <time>2015-02-23T19:31:51.182Z</time>
      </trkpt>
      <trkpt lat="48.84492" lon="2.36569">
        <ele>89.3</ele>
        <time>2015-02-23T19:31:52.250Z</time>
      </trkpt>
      <trkpt lat="48.84487" lon="2.36558">
        <ele>89.5</ele>
        <time>2015-02-23T19:31:55.303Z</time>
      </trkpt>
      <trkpt lat="48.84485" lon="2.36555">
        <ele>89.5</ele>
        <time>2015-02-23T19:31:56.217Z</time>
      </trkpt>
      <trkpt lat="48.8448" lon="2.36549">
        <ele>89.4</ele>
        <time>2015-02-23T19:31:58.240Z</time>
      </trkpt>
      <trkpt lat="48.84478" lon="2.36546">
        <ele>89.3</ele>
        <time>2015-02-23T19:31:59.177Z</time>
      </trkpt>
      <trkpt lat="48.84472" lon="2.36536">
        <ele>89.2</ele>
        <time>2015-02-23T19:32:02.257Z</time>
      </trkpt>
      <trkpt lat="48.84469" lon="2.36533">
        <ele>89.1</ele>
        <time>2015-02-23T19:32:03.268Z</time>
      </trkpt>
      <trkpt lat="48.84463" lon="2.36523">
        <ele>88.7</ele>
        <time>2015-02-23T19:32:06.241Z</time>
      </trkpt>
      <trkpt lat="48.84461" lon="2.3652">
        <ele>88.8</ele>
        <time>2015-02-23T19:32:07.276Z</time>
      </trkpt>
      <trkpt lat="48.84457" lon="2.36513">
        <ele>88.8</ele>
        <time>2015-02-23T19:32:09.243Z</time>
      </trkpt>
      <trkpt lat="48.84455" lon="2.3651">
        <ele>88.7</ele>
        <time>2015-02-23T19:32:10.256Z</time>
      </trkpt>
      <trkpt lat="48.84451" lon="2.36499">
        <ele>89.1</ele>
        <time>2015-02-23T19:32:13.284Z</time>
      </trkpt>
      <trkpt lat="48.8445" lon="2.36496">
        <ele>89.1</ele>
        <time>2015-02-23T19:32:14.294Z</time>
      </trkpt>
      <trkpt lat="48.84449" lon="2.36486">
        <ele>89.1</ele>
        <time>2015-02-23T19:32:17.331Z</time>
      </trkpt>
      <trkpt lat="48.8445" lon="2.36482">
        <ele>88.1</ele>
        <time>2015-02-23T19:32:18.264Z</time>
      </trkpt>
      <trkpt lat="48.84454" lon="2.3647">
        <ele>86.2</ele>
        <time>2015-02-23T19:32:21.262Z</time>
      </trkpt>
      <trkpt lat="48.84456" lon="2.36468">
        <ele>86.2</ele>
        <time>2015-02-23T19:32:22.203Z</time>
      </trkpt>
      <trkpt lat="48.84461" lon="2.36462">
        <ele>86</ele>
        <time>2015-02-23T19:32:24.341Z</time>
      </trkpt>
      <trkpt lat="48.84463" lon="2.36458">
        <ele>85.9</ele>
        <time>2015-02-23T19:32:25.393Z</time>
      </trkpt>
      <trkpt lat="48.84469" lon="2.36453">
        <ele>85.9</ele>
        <time>2015-02-23T19:32:27.202Z</time>
      </trkpt>
      <trkpt lat="48.84472" lon="2.3645">
        <ele>85.8</ele>
        <time>2015-02-23T19:32:28.353Z</time>
      </trkpt>
      <trkpt lat="48.84477" lon="2.36446">
        <ele>86</ele>
        <time>2015-02-23T19:32:30.197Z</time>
      </trkpt>
      <trkpt lat="48.8448" lon="2.36444">
        <ele>86</ele>
        <time>2015-02-23T19:32:31.290Z</time>
      </trkpt>
      <trkpt lat="48.84486" lon="2.36435">
        <ele>85.6</ele>
        <time>2015-02-23T19:32:35.211Z</time>
      </trkpt>
      <trkpt lat="48.84488" lon="2.36432">
        <ele>84.7</ele>
        <time>2015-02-23T19:32:36.206Z</time>
      </trkpt>
      <trkpt lat="48.84491" lon="2.36422">
        <ele>84.2</ele>
        <time>2015-02-23T19:32:39.298Z</time>
      </trkpt>
      <trkpt lat="48.84491" lon="2.36418">
        <ele>84.3</ele>
        <time>2015-02-23T19:32:40.235Z</time>
      </trkpt>
      <trkpt lat="48.84494" lon="2.36406">
        <ele>84.2</ele>
        <time>2015-02-23T19:32:43.297Z</time>
      </trkpt>
      <trkpt lat="48.84495" lon="2.36404">
        <ele>84.2</ele>
        <time>2015-02-23T19:32:44.203Z</time>
      </trkpt>
      <trkpt lat="48.84501" lon="2.36396">
        <ele>84.1</ele>
        <time>2015-02-23T19:32:48.273Z</time>
      </trkpt>
      <trkpt lat="48.84504" lon="2.36394">
        <ele>84.4</ele>
        <time>2015-02-23T19:32:49.268Z</time>
      </trkpt>
      <trkpt lat="48.8451" lon="2.36388">
        <ele>84.8</ele>
        <time>2015-02-23T19:32:51.217Z</time>
      </trkpt>
      <trkpt lat="48.84513" lon="2.36386">
        <ele>84.9</ele>
        <time>2015-02-23T19:32:52.240Z</time>
      </trkpt>
      <trkpt lat="48.84519" lon="2.36377">
        <ele>85.2</ele>
        <time>2015-02-23T19:32:54.289Z</time>
      </trkpt>
      <trkpt lat="48.84522" lon="2.36373">
        <ele>85.3</ele>
        <time>2015-02-23T19:32:55.294Z</time>
      </trkpt>
      <trkpt lat="48.84526" lon="2.36364">
        <ele>85.3</ele>
        <time>2015-02-23T19:32:57.201Z</time>
      </trkpt>
      <trkpt lat="48.84529" lon="2.3636">
        <ele>85.4</ele>
        <time>2015-02-23T19:32:58.211Z</time>
      </trkpt>
      <trkpt lat="48.84534" lon="2.3635">
        <ele>85.7</ele>
        <time>2015-02-23T19:33:00.241Z</time>
      </trkpt>
      <trkpt lat="48.84537" lon="2.36345">
        <ele>85.8</ele>
        <time>2015-02-23T19:33:01.249Z</time>
      </trkpt>
      <trkpt lat="48.84543" lon="2.36335">
        <ele>86.1</ele>
        <time>2015-02-23T19:33:03.325Z</time>
      </trkpt>
      <trkpt lat="48.84546" lon="2.3633">
        <ele>86.3</ele>
        <time>2015-02-23T19:33:04.197Z</time>
      </trkpt>
      <trkpt lat="48.84549" lon="2.36325">
        <ele>86.3</ele>
        <time>2015-02-23T19:33:05.219Z</time>
      </trkpt>
      <trkpt lat="48.84553" lon="2.36319">
        <ele>86.3</ele>
        <time>2015-02-23T19:33:06.213Z</time>
      </trkpt>
      <trkpt lat="48.84557" lon="2.36313">
        <ele>86.4</ele>
        <time>2015-02-23T19:33:07.271Z</time>
      </trkpt>
      <trkpt lat="48.84561" lon="2.36308">
        <ele>86.7</ele>
        <time>2015-02-23T19:33:08.278Z</time>
      </trkpt>
      <trkpt lat="48.84567" lon="2.36303">
        <ele>87</ele>
        <time>2015-02-23T19:33:09.283Z</time>
      </trkpt>
      <trkpt lat="48.84572" lon="2.36297">
        <ele>87.1</ele>
        <time>2015-02-23T19:33:10.176Z</time>
      </trkpt>
      <trkpt lat="48.84578" lon="2.3629">
        <ele>87.3</ele>
        <time>2015-02-23T19:33:11.269Z</time>
      </trkpt>
      <trkpt lat="48.84585" lon="2.36283">
        <ele>87.2</ele>
        <time>2015-02-23T19:33:12.215Z</time>
      </trkpt>
      <trkpt lat="48.8459" lon="2.36276">
        <ele>87.3</ele>
        <time>2015-02-23T19:33:13.254Z</time>
      </trkpt>
      <trkpt lat="48.84596" lon="2.36269">
        <ele>87.3</ele>
        <time>2015-02-23T19:33:14.253Z</time>
      </trkpt>
      <trkpt lat="48.84601" lon="2.36262">
        <ele>87.4</ele>
        <time>2015-02-23T19:33:15.260Z</time>
      </trkpt>
      <trkpt lat="48.84606" lon="2.36255">
        <ele>87.3</ele>
        <time>2015-02-23T19:33:16.197Z</time>
      </trkpt>
      <trkpt lat="48.84611" lon="2.36247">
        <ele>87.4</ele>
        <time>2015-02-23T19:33:17.198Z</time>
      </trkpt>
      <trkpt lat="48.84615" lon="2.36238">
        <ele>87.4</ele>
        <time>2015-02-23T19:33:18.204Z</time>
      </trkpt>
      <trkpt lat="48.84619" lon="2.3623">
        <ele>87.4</ele>
        <time>2015-02-23T19:33:19.244Z</time>
      </trkpt>
      <trkpt lat="48.84623" lon="2.36222">
        <ele>87.4</ele>
        <time>2015-02-23T19:33:20.254Z</time>
      </trkpt>
      <trkpt lat="48.84627" lon="2.36213">
        <ele>87.4</ele>
        <time>2015-02-23T19:33:21.278Z</time>
      </trkpt>
      <trkpt lat="48.84632" lon="2.36207">
        <ele>87.3</ele>
        <time>2015-02-23T19:33:22.176Z</time>
      </trkpt>
      <trkpt lat="48.84636" lon="2.362">
        <ele>87.3</ele>
        <time>2015-02-23T19:33:23.205Z</time>
      </trkpt>
      <trkpt lat="48.8464" lon="2.36193">
        <ele>87.4</ele>
        <time>2015-02-23T19:33:24.226Z</time>
      </trkpt>
      <trkpt lat="48.84645" lon="2.36187">
        <ele>87.4</ele>
        <time>2015-02-23T19:33:25.242Z</time>
      </trkpt>
      <trkpt lat="48.84649" lon="2.36181">
        <ele>87.5</ele>
        <time>2015-02-23T19:33:26.253Z</time>
      </trkpt>
      <trkpt lat="48.84653" lon="2.36177">
        <ele>87.6</ele>
        <time>2015-02-23T19:33:27.257Z</time>
      </trkpt>
      <trkpt lat="48.84657" lon="2.36172">
        <ele>87.5</ele>
        <time>2015-02-23T19:33:28.228Z</time>
      </trkpt>
      <trkpt lat="48.84661" lon="2.36167">
        <ele>87.5</ele>
        <time>2015-02-23T19:33:29.198Z</time>
      </trkpt>
      <trkpt lat="48.84665" lon="2.36162">
        <ele>87.7</ele>
        <time>2015-02-23T19:33:30.202Z</time>
      </trkpt>
      <trkpt lat="48.84669" lon="2.36157">
        <ele>87.6</ele>
        <time>2015-02-23T19:33:31.354Z</time>
      </trkpt>
      <trkpt lat="48.84673" lon="2.36151">
        <ele>87.5</ele>
        <time>2015-02-23T19:33:32.258Z</time>
      </trkpt>
      <trkpt lat="48.84677" lon="2.36146">
        <ele>87.4</ele>
        <time>2015-02-23T19:33:33.275Z</time>
      </trkpt>
      <trkpt lat="48.84681" lon="2.36141">
        <ele>87.4</ele>
        <time>2015-02-23T19:33:34.287Z</time>
      </trkpt>
      <trkpt lat="48.84685" lon="2.36136">
        <ele>87.4</ele>
        <time>2015-02-23T19:33:35.197Z</time>
      </trkpt>
      <trkpt lat="48.84689" lon="2.36131">
        <ele>87.4</ele>
        <time>2015-02-23T19:33:36.228Z</time>
      </trkpt>
      <trkpt lat="48.84694" lon="2.36125">
        <ele>87.3</ele>
        <time>2015-02-23T19:33:37.237Z</time>
      </trkpt>
      <trkpt lat="48.84698" lon="2.36118">
        <ele>87.2</ele>
        <time>2015-02-23T19:33:38.250Z</time>
      </trkpt>
      <trkpt lat="48.84702" lon="2.36105">
        <ele>87.3</ele>
        <time>2015-02-23T19:33:39.189Z</time>
      </trkpt>
      <trkpt lat="48.84706" lon="2.36097">
        <ele>87.2</ele>
        <time>2015-02-23T19:33:40.212Z</time>
      </trkpt>
      <trkpt lat="48.84711" lon="2.3609">
        <ele>87.2</ele>
        <time>2015-02-23T19:33:41.235Z</time>
      </trkpt>
      <trkpt lat="48.84716" lon="2.36082">
        <ele>87.2</ele>
        <time>2015-02-23T19:33:42.271Z</time>
      </trkpt>
      <trkpt lat="48.84724" lon="2.3607">
        <ele>87.1</ele>
        <time>2015-02-23T19:33:43.297Z</time>
      </trkpt>
      <trkpt lat="48.84727" lon="2.36063">
        <ele>87.2</ele>
        <time>2015-02-23T19:33:44.200Z</time>
      </trkpt>
      <trkpt lat="48.84731" lon="2.36056">
        <ele>87.1</ele>
        <time>2015-02-23T19:33:45.208Z</time>
      </trkpt>
      <trkpt lat="48.84735" lon="2.3605">
        <ele>87.3</ele>
        <time>2015-02-23T19:33:46.226Z</time>
      </trkpt>
      <trkpt lat="48.84739" lon="2.36043">
        <ele>87.4</ele>
        <time>2015-02-23T19:33:47.256Z</time>
      </trkpt>
      <trkpt lat="48.84745" lon="2.36037">
        <ele>87.5</ele>
        <time>2015-02-23T19:33:48.274Z</time>
      </trkpt>
      <trkpt lat="48.8475" lon="2.3603">
        <ele>87.8</ele>
        <time>2015-02-23T19:33:49.287Z</time>
      </trkpt>
      <trkpt lat="48.84755" lon="2.36023">
        <ele>88</ele>
        <time>2015-02-23T19:33:50.295Z</time>
      </trkpt>
      <trkpt lat="48.8476" lon="2.36015">
        <ele>88.3</ele>
        <time>2015-02-23T19:33:51.210Z</time>
      </trkpt>
      <trkpt lat="48.84765" lon="2.36009">
        <ele>88.6</ele>
        <time>2015-02-23T19:33:52.220Z</time>
      </trkpt>
      <trkpt lat="48.84771" lon="2.36001">
        <ele>88.9</ele>
        <time>2015-02-23T19:33:53.265Z</time>
      </trkpt>
      <trkpt lat="48.84776" lon="2.35994">
        <ele>89.3</ele>
        <time>2015-02-23T19:33:54.270Z</time>
      </trkpt>
      <trkpt lat="48.84781" lon="2.35986">
        <ele>89.5</ele>
        <time>2015-02-23T19:33:55.279Z</time>
      </trkpt>
      <trkpt lat="48.84785" lon="2.35978">
        <ele>89.5</ele>
        <time>2015-02-23T19:33:56.284Z</time>
      </trkpt>
      <trkpt lat="48.84789" lon="2.35971">
        <ele>89.6</ele>
        <time>2015-02-23T19:33:57.192Z</time>
      </trkpt>
      <trkpt lat="48.84793" lon="2.35963">
        <ele>89.6</ele>
        <time>2015-02-23T19:33:58.205Z</time>
      </trkpt>
      <trkpt lat="48.84798" lon="2.35957">
        <ele>89.6</ele>
        <time>2015-02-23T19:33:59.222Z</time>
      </trkpt>
      <trkpt lat="48.84804" lon="2.3595">
        <ele>89.5</ele>
        <time>2015-02-23T19:34:00.255Z</time>
      </trkpt>
      <trkpt lat="48.84809" lon="2.35942">
        <ele>89.6</ele>
        <time>2015-02-23T19:34:01.277Z</time>
      </trkpt>
      <trkpt lat="48.84814" lon="2.35933">
        <ele>90</ele>
        <time>2015-02-23T19:34:02.210Z</time>
      </trkpt>
      <trkpt lat="48.84819" lon="2.35924">
        <ele>90.3</ele>
        <time>2015-02-23T19:34:03.259Z</time>
      </trkpt>
      <trkpt lat="48.84824" lon="2.35916">
        <ele>90.6</ele>
        <time>2015-02-23T19:34:04.293Z</time>
      </trkpt>
      <trkpt lat="48.84829" lon="2.35906">
        <ele>91.1</ele>
        <time>2015-02-23T19:34:05.198Z</time>
      </trkpt>
      <trkpt lat="48.84833" lon="2.35898">
        <ele>91.2</ele>
        <time>2015-02-23T19:34:06.204Z</time>
      </trkpt>
      <trkpt lat="48.84838" lon="2.35889">
        <ele>91.4</ele>
        <time>2015-02-23T19:34:07.253Z</time>
      </trkpt>
      <trkpt lat="48.84843" lon="2.35881">
        <ele>91.6</ele>
        <time>2015-02-23T19:34:08.195Z</time>
      </trkpt>
      <trkpt lat="48.84848" lon="2.35872">
        <ele>91.9</ele>
        <time>2015-02-23T19:34:09.196Z</time>
      </trkpt>
      <trkpt lat="48.84851" lon="2.35862">
        <ele>91.3</ele>
        <time>2015-02-23T19:34:10.248Z</time>
      </trkpt>
      <trkpt lat="48.84856" lon="2.35854">
        <ele>91.2</ele>
        <time>2015-02-23T19:34:11.255Z</time>
      </trkpt>
      <trkpt lat="48.84861" lon="2.35846">
        <ele>91.3</ele>
        <time>2015-02-23T19:34:12.260Z</time>
      </trkpt>
      <trkpt lat="48.84866" lon="2.35838">
        <ele>91.2</ele>
        <time>2015-02-23T19:34:13.266Z</time>
      </trkpt>
      <trkpt lat="48.84872" lon="2.3583">
        <ele>91</ele>
        <time>2015-02-23T19:34:14.198Z</time>
      </trkpt>
      <trkpt lat="48.84873" lon="2.35823">
        <ele>90.4</ele>
        <time>2015-02-23T19:34:15.199Z</time>
      </trkpt>
      <trkpt lat="48.84878" lon="2.35815">
        <ele>90.3</ele>
        <time>2015-02-23T19:34:16.228Z</time>
      </trkpt>
      <trkpt lat="48.84886" lon="2.35807">
        <ele>88.6</ele>
        <time>2015-02-23T19:34:17.234Z</time>
      </trkpt>
      <trkpt lat="48.84893" lon="2.35801">
        <ele>87.6</ele>
        <time>2015-02-23T19:34:18.244Z</time>
      </trkpt>
      <trkpt lat="48.849" lon="2.35794">
        <ele>86.8</ele>
        <time>2015-02-23T19:34:19.328Z</time>
      </trkpt>
      <trkpt lat="48.84906" lon="2.35788">
        <ele>86.3</ele>
        <time>2015-02-23T19:34:20.206Z</time>
      </trkpt>
      <trkpt lat="48.84912" lon="2.35781">
        <ele>85.6</ele>
        <time>2015-02-23T19:34:21.195Z</time>
      </trkpt>
      <trkpt lat="48.84916" lon="2.35775">
        <ele>85.2</ele>
        <time>2015-02-23T19:34:22.210Z</time>
      </trkpt>
      <trkpt lat="48.8492" lon="2.35769">
        <ele>85</ele>
        <time>2015-02-23T19:34:23.297Z</time>
      </trkpt>
      <trkpt lat="48.84924" lon="2.35764">
        <ele>84.9</ele>
        <time>2015-02-23T19:34:24.203Z</time>
      </trkpt>
      <trkpt lat="48.84927" lon="2.35759">
        <ele>84.9</ele>
        <time>2015-02-23T19:34:25.242Z</time>
      </trkpt>
      <trkpt lat="48.8493" lon="2.35753">
        <ele>84.9</ele>
        <time>2015-02-23T19:34:26.253Z</time>
      </trkpt>
      <trkpt lat="48.84934" lon="2.35746">
        <ele>85</ele>
        <time>2015-02-23T19:34:27.259Z</time>
      </trkpt>
      <trkpt lat="48.84938" lon="2.3574">
        <ele>85.3</ele>
        <time>2015-02-23T19:34:28.200Z</time>
      </trkpt>
      <trkpt lat="48.84941" lon="2.35735">
        <ele>85.3</ele>
        <time>2015-02-23T19:34:29.194Z</time>
      </trkpt>
      <trkpt lat="48.84947" lon="2.35726">
        <ele>85.5</ele>
        <time>2015-02-23T19:34:31.220Z</time>
      </trkpt>
      <trkpt lat="48.84948" lon="2.35722">
        <ele>85.5</ele>
        <time>2015-02-23T19:34:32.232Z</time>
      </trkpt>
      <trkpt lat="48.84944" lon="2.35714">
        <ele>82.1</ele>
        <time>2015-02-23T19:35:01.314Z</time>
      </trkpt>
      <trkpt lat="48.84939" lon="2.35711">
        <ele>82.5</ele>
        <time>2015-02-23T19:35:02.181Z</time>
      </trkpt>
      <trkpt lat="48.84938" lon="2.35711">
        <ele>82.5</ele>
        <time>2015-02-23T19:35:03.197Z</time>
      </trkpt>
      <trkpt lat="48.84938" lon="2.35711">
        <ele>82.5</ele>
        <time>2015-02-23T19:35:14.307Z</time>
      </trkpt>
      <trkpt lat="48.84938" lon="2.35705">
        <ele>83.1</ele>
        <time>2015-02-23T19:35:15.197Z</time>
      </trkpt>
      <trkpt lat="48.84941" lon="2.35693">
        <ele>82.8</ele>
        <time>2015-02-23T19:35:18.198Z</time>
      </trkpt>
      <trkpt lat="48.84941" lon="2.35689">
        <ele>82.6</ele>
        <time>2015-02-23T19:35:19.234Z</time>
      </trkpt>
      <trkpt lat="48.84943" lon="2.35677">
        <ele>82.7</ele>
        <time>2015-02-23T19:35:21.216Z</time>
      </trkpt>
      <trkpt lat="48.84944" lon="2.35671">
        <ele>82.7</ele>
        <time>2015-02-23T19:35:22.212Z</time>
      </trkpt>
      <trkpt lat="48.84946" lon="2.35664">
        <ele>82.8</ele>
        <time>2015-02-23T19:35:23.270Z</time>
      </trkpt>
      <trkpt lat="48.84948" lon="2.35658">
        <ele>83</ele>
        <time>2015-02-23T19:35:24.281Z</time>
      </trkpt>
      <trkpt lat="48.84953" lon="2.35647">
        <ele>83.2</ele>
        <time>2015-02-23T19:35:26.238Z</time>
      </trkpt>
      <trkpt lat="48.84956" lon="2.35642">
        <ele>83.1</ele>
        <time>2015-02-23T19:35:27.245Z</time>
      </trkpt>
      <trkpt lat="48.84961" lon="2.35632">
        <ele>83</ele>
        <time>2015-02-23T19:35:29.204Z</time>
      </trkpt>
      <trkpt lat="48.84963" lon="2.35628">
        <ele>83.1</ele>
        <time>2015-02-23T19:35:30.225Z</time>
      </trkpt>
      <trkpt lat="48.84968" lon="2.35618">
        <ele>82.9</ele>
        <time>2015-02-23T19:35:32.259Z</time>
      </trkpt>
      <trkpt lat="48.8497" lon="2.35612">
        <ele>83</ele>
        <time>2015-02-23T19:35:33.288Z</time>
      </trkpt>
      <trkpt lat="48.84971" lon="2.35605">
        <ele>83.2</ele>
        <time>2015-02-23T19:35:34.213Z</time>
      </trkpt>
      <trkpt lat="48.84973" lon="2.35599">
        <ele>83.3</ele>
        <time>2015-02-23T19:35:35.223Z</time>
      </trkpt>
      <trkpt lat="48.84975" lon="2.35592">
        <ele>83.4</ele>
        <time>2015-02-23T19:35:36.229Z</time>
      </trkpt>
      <trkpt lat="48.84978" lon="2.35586">
        <ele>82.8</ele>
        <time>2015-02-23T19:35:37.251Z</time>
      </trkpt>
      <trkpt lat="48.8498" lon="2.35579">
        <ele>82.2</ele>
        <time>2015-02-23T19:35:38.218Z</time>
      </trkpt>
      <trkpt lat="48.84983" lon="2.35574">
        <ele>82</ele>
        <time>2015-02-23T19:35:39.225Z</time>
      </trkpt>
      <trkpt lat="48.84986" lon="2.35562">
        <ele>81.3</ele>
        <time>2015-02-23T19:35:41.257Z</time>
      </trkpt>
      <trkpt lat="48.84987" lon="2.35555">
        <ele>81.2</ele>
        <time>2015-02-23T19:35:42.285Z</time>
      </trkpt>
      <trkpt lat="48.84989" lon="2.35549">
        <ele>81.1</ele>
        <time>2015-02-23T19:35:43.298Z</time>
      </trkpt>
      <trkpt lat="48.84992" lon="2.35543">
        <ele>80.6</ele>
        <time>2015-02-23T19:35:44.198Z</time>
      </trkpt>
      <trkpt lat="48.84994" lon="2.35537">
        <ele>80.3</ele>
        <time>2015-02-23T19:35:45.215Z</time>
      </trkpt>
      <trkpt lat="48.84996" lon="2.35531">
        <ele>80.2</ele>
        <time>2015-02-23T19:35:46.255Z</time>
      </trkpt>
      <trkpt lat="48.85" lon="2.35519">
        <ele>80.4</ele>
        <time>2015-02-23T19:35:48.272Z</time>
      </trkpt>
      <trkpt lat="48.85002" lon="2.35513">
        <ele>80.2</ele>
        <time>2015-02-23T19:35:49.283Z</time>
      </trkpt>
      <trkpt lat="48.85004" lon="2.355">
        <ele>80.2</ele>
        <time>2015-02-23T19:35:51.225Z</time>
      </trkpt>
      <trkpt lat="48.85005" lon="2.35493">
        <ele>80.5</ele>
        <time>2015-02-23T19:35:52.218Z</time>
      </trkpt>
      <trkpt lat="48.85008" lon="2.35486">
        <ele>80.7</ele>
        <time>2015-02-23T19:35:53.201Z</time>
      </trkpt>
      <trkpt lat="48.8501" lon="2.3548">
        <ele>80.5</ele>
        <time>2015-02-23T19:35:54.205Z</time>
      </trkpt>
      <trkpt lat="48.85012" lon="2.35473">
        <ele>80.1</ele>
        <time>2015-02-23T19:35:55.348Z</time>
      </trkpt>
      <trkpt lat="48.85014" lon="2.35467">
        <ele>80</ele>
        <time>2015-02-23T19:35:56.217Z</time>
      </trkpt>
      <trkpt lat="48.85016" lon="2.3546">
        <ele>80</ele>
        <time>2015-02-23T19:35:57.214Z</time>
      </trkpt>
      <trkpt lat="48.85018" lon="2.35453">
        <ele>79.8</ele>
        <time>2015-02-23T19:35:58.232Z</time>
      </trkpt>
      <trkpt lat="48.8502" lon="2.35445">
        <ele>79.5</ele>
        <time>2015-02-23T19:35:59.288Z</time>
      </trkpt>
      <trkpt lat="48.85023" lon="2.35439">
        <ele>79.4</ele>
        <time>2015-02-23T19:36:00.207Z</time>
      </trkpt>
      <trkpt lat="48.85026" lon="2.35432">
        <ele>79.3</ele>
        <time>2015-02-23T19:36:01.259Z</time>
      </trkpt>
      <trkpt lat="48.85029" lon="2.35426">
        <ele>79.4</ele>
        <time>2015-02-23T19:36:02.247Z</time>
      </trkpt>
      <trkpt lat="48.85033" lon="2.3542">
        <ele>79.5</ele>
        <time>2015-02-23T19:36:03.259Z</time>
      </trkpt>
      <trkpt lat="48.85037" lon="2.35414">
        <ele>79.4</ele>
        <time>2015-02-23T19:36:04.266Z</time>
      </trkpt>
      <trkpt lat="48.85041" lon="2.35408">
        <ele>79.4</ele>
        <time>2015-02-23T19:36:05.273Z</time>
      </trkpt>
      <trkpt lat="48.85045" lon="2.35402">
        <ele>79.4</ele>
        <time>2015-02-23T19:36:06.198Z</time>
      </trkpt>
      <trkpt lat="48.8505" lon="2.35396">
        <ele>79.4</ele>
        <time>2015-02-23T19:36:07.290Z</time>
      </trkpt>
      <trkpt lat="48.85054" lon="2.35391">
        <ele>79.5</ele>
        <time>2015-02-23T19:36:08.199Z</time>
      </trkpt>
      <trkpt lat="48.85058" lon="2.35386">
        <ele>79.5</ele>
        <time>2015-02-23T19:36:09.219Z</time>
      </trkpt>
      <trkpt lat="48.85062" lon="2.35381">
        <ele>79.4</ele>
        <time>2015-02-23T19:36:10.212Z</time>
      </trkpt>
      <trkpt lat="48.85066" lon="2.35375">
        <ele>79.4</ele>
        <time>2015-02-23T19:36:11.281Z</time>
      </trkpt>
      <trkpt lat="48.85067" lon="2.35369">
        <ele>78.6</ele>
        <time>2015-02-23T19:36:12.294Z</time>
      </trkpt>
      <trkpt lat="48.85069" lon="2.35363">
        <ele>77.9</ele>
        <time>2015-02-23T19:36:13.215Z</time>
      </trkpt>
      <trkpt lat="48.85074" lon="2.35358">
        <ele>77.8</ele>
        <time>2015-02-23T19:36:14.230Z</time>
      </trkpt>
      <trkpt lat="48.85079" lon="2.35352">
        <ele>77.7</ele>
        <time>2015-02-23T19:36:15.277Z</time>
      </trkpt>
      <trkpt lat="48.85084" lon="2.35346">
        <ele>77.6</ele>
        <time>2015-02-23T19:36:16.198Z</time>
      </trkpt>
      <trkpt lat="48.85089" lon="2.35341">
        <ele>77.4</ele>
        <time>2015-02-23T19:36:17.279Z</time>
      </trkpt>
      <trkpt lat="48.85094" lon="2.35336">
        <ele>77.2</ele>
        <time>2015-02-23T19:36:18.342Z</time>
      </trkpt>
      <trkpt lat="48.85098" lon="2.35331">
        <ele>77</ele>
        <time>2015-02-23T19:36:19.234Z</time>
      </trkpt>
      <trkpt lat="48.85101" lon="2.35325">
        <ele>77</ele>
        <time>2015-02-23T19:36:20.245Z</time>
      </trkpt>
      <trkpt lat="48.85104" lon="2.35319">
        <ele>77</ele>
        <time>2015-02-23T19:36:21.176Z</time>
      </trkpt>
      <trkpt lat="48.85108" lon="2.35313">
        <ele>77</ele>
        <time>2015-02-23T19:36:22.214Z</time>
      </trkpt>
      <trkpt lat="48.8511" lon="2.35305">
        <ele>76.8</ele>
        <time>2015-02-23T19:36:23.197Z</time>
      </trkpt>
      <trkpt lat="48.85113" lon="2.35299">
        <ele>76.7</ele>
        <time>2015-02-23T19:36:24.244Z</time>
      </trkpt>
      <trkpt lat="48.85112" lon="2.35292">
        <ele>76.1</ele>
        <time>2015-02-23T19:36:25.270Z</time>
      </trkpt>
      <trkpt lat="48.85108" lon="2.35285">
        <ele>75</ele>
        <time>2015-02-23T19:36:26.285Z</time>
      </trkpt>
      <trkpt lat="48.85109" lon="2.35277">
        <ele>74.8</ele>
        <time>2015-02-23T19:36:27.180Z</time>
      </trkpt>
      <trkpt lat="48.8511" lon="2.3527">
        <ele>74.7</ele>
        <time>2015-02-23T19:36:28.225Z</time>
      </trkpt>
      <trkpt lat="48.85113" lon="2.35258">
        <ele>75</ele>
        <time>2015-02-23T19:36:30.198Z</time>
      </trkpt>
      <trkpt lat="48.85113" lon="2.35251">
        <ele>74.9</ele>
        <time>2015-02-23T19:36:31.240Z</time>
      </trkpt>
      <trkpt lat="48.85111" lon="2.35244">
        <ele>74.7</ele>
        <time>2015-02-23T19:36:32.210Z</time>
      </trkpt>
      <trkpt lat="48.85111" lon="2.35237">
        <ele>74.5</ele>
        <time>2015-02-23T19:36:33.208Z</time>
      </trkpt>
      <trkpt lat="48.85111" lon="2.35223">
        <ele>75.6</ele>
        <time>2015-02-23T19:36:35.387Z</time>
      </trkpt>
      <trkpt lat="48.85113" lon="2.35217">
        <ele>75.6</ele>
        <time>2015-02-23T19:36:36.201Z</time>
      </trkpt>
      <trkpt lat="48.85116" lon="2.35204">
        <ele>75.7</ele>
        <time>2015-02-23T19:36:38.239Z</time>
      </trkpt>
      <trkpt lat="48.85117" lon="2.35199">
        <ele>76.1</ele>
        <time>2015-02-23T19:36:39.228Z</time>
      </trkpt>
      <trkpt lat="48.85118" lon="2.35189">
        <ele>76.8</ele>
        <time>2015-02-23T19:36:41.287Z</time>
      </trkpt>
      <trkpt lat="48.85119" lon="2.35184">
        <ele>77.3</ele>
        <time>2015-02-23T19:36:42.297Z</time>
      </trkpt>
      <trkpt lat="48.8512" lon="2.35176">
        <ele>78.3</ele>
        <time>2015-02-23T19:36:44.318Z</time>
      </trkpt>
      <trkpt lat="48.85122" lon="2.35171">
        <ele>78.3</ele>
        <time>2015-02-23T19:36:45.210Z</time>
      </trkpt>
      <trkpt lat="48.85125" lon="2.35161">
        <ele>78.4</ele>
        <time>2015-02-23T19:36:47.258Z</time>
      </trkpt>
      <trkpt lat="48.85126" lon="2.35156">
        <ele>78.2</ele>
        <time>2015-02-23T19:36:48.215Z</time>
      </trkpt>
      <trkpt lat="48.8513" lon="2.35145">
        <ele>78.1</ele>
        <time>2015-02-23T19:36:50.210Z</time>
      </trkpt>
      <trkpt lat="48.85132" lon="2.35139">
        <ele>78.1</ele>
        <time>2015-02-23T19:36:51.245Z</time>
      </trkpt>
      <trkpt lat="48.85135" lon="2.35133">
        <ele>78.2</ele>
        <time>2015-02-23T19:36:52.193Z</time>
      </trkpt>
      <trkpt lat="48.85138" lon="2.35127">
        <ele>78.3</ele>
        <time>2015-02-23T19:36:53.193Z</time>
      </trkpt>
      <trkpt lat="48.85143" lon="2.35122">
        <ele>78.4</ele>
        <time>2015-02-23T19:36:54.209Z</time>
      </trkpt>
      <trkpt lat="48.85147" lon="2.35116">
        <ele>78.4</ele>
        <time>2015-02-23T19:36:55.323Z</time>
      </trkpt>
      <trkpt lat="48.85152" lon="2.35111">
        <ele>78.4</ele>
        <time>2015-02-23T19:36:56.198Z</time>
      </trkpt>
      <trkpt lat="48.85157" lon="2.35105">
        <ele>78.2</ele>
        <time>2015-02-23T19:36:57.202Z</time>
      </trkpt>
      <trkpt lat="48.85161" lon="2.35099">
        <ele>78.3</ele>
        <time>2015-02-23T19:36:58.238Z</time>
      </trkpt>
      <trkpt lat="48.85164" lon="2.35092">
        <ele>78.2</ele>
        <time>2015-02-23T19:36:59.267Z</time>
      </trkpt>
      <trkpt lat="48.85168" lon="2.35086">
        <ele>78.1</ele>
        <time>2015-02-23T19:37:00.180Z</time>
      </trkpt>
      <trkpt lat="48.85171" lon="2.3508">
        <ele>77.9</ele>
        <time>2015-02-23T19:37:01.312Z</time>
      </trkpt>
      <trkpt lat="48.85173" lon="2.35074">
        <ele>77.9</ele>
        <time>2015-02-23T19:37:02.196Z</time>
      </trkpt>
      <trkpt lat="48.85176" lon="2.35067">
        <ele>77.9</ele>
        <time>2015-02-23T19:37:03.193Z</time>
      </trkpt>
      <trkpt lat="48.85177" lon="2.3506">
        <ele>78</ele>
        <time>2015-02-23T19:37:04.228Z</time>
      </trkpt>
      <trkpt lat="48.85179" lon="2.35052">
        <ele>77.9</ele>
        <time>2015-02-23T19:37:05.236Z</time>
      </trkpt>
      <trkpt lat="48.85181" lon="2.35043">
        <ele>78</ele>
        <time>2015-02-23T19:37:06.258Z</time>
      </trkpt>
      <trkpt lat="48.85184" lon="2.35036">
        <ele>78.2</ele>
        <time>2015-02-23T19:37:07.264Z</time>
      </trkpt>
      <trkpt lat="48.85186" lon="2.35028">
        <ele>78.4</ele>
        <time>2015-02-23T19:37:08.271Z</time>
      </trkpt>
      <trkpt lat="48.85189" lon="2.35021">
        <ele>78.6</ele>
        <time>2015-02-23T19:37:09.287Z</time>
      </trkpt>
      <trkpt lat="48.8519" lon="2.35013">
        <ele>78.7</ele>
        <time>2015-02-23T19:37:10.206Z</time>
      </trkpt>
      <trkpt lat="48.85192" lon="2.35006">
        <ele>78.8</ele>
        <time>2015-02-23T19:37:11.201Z</time>
      </trkpt>
      <trkpt lat="48.85193" lon="2.34997">
        <ele>79.2</ele>
        <time>2015-02-23T19:37:12.206Z</time>
      </trkpt>
      <trkpt lat="48.85194" lon="2.34989">
        <ele>79.4</ele>
        <time>2015-02-23T19:37:13.242Z</time>
      </trkpt>
      <trkpt lat="48.85195" lon="2.34981">
        <ele>79.1</ele>
        <time>2015-02-23T19:37:14.241Z</time>
      </trkpt>
      <trkpt lat="48.85197" lon="2.34974">
        <ele>79.1</ele>
        <time>2015-02-23T19:37:15.261Z</time>
      </trkpt>
      <trkpt lat="48.85198" lon="2.34966">
        <ele>79</ele>
        <time>2015-02-23T19:37:16.210Z</time>
      </trkpt>
      <trkpt lat="48.852" lon="2.34958">
        <ele>79.1</ele>
        <time>2015-02-23T19:37:17.215Z</time>
      </trkpt>
      <trkpt lat="48.85203" lon="2.34951">
        <ele>79.1</ele>
        <time>2015-02-23T19:37:18.258Z</time>
      </trkpt>
      <trkpt lat="48.85205" lon="2.34945">
        <ele>79.3</ele>
        <time>2015-02-23T19:37:19.354Z</time>
      </trkpt>
      <trkpt lat="48.85209" lon="2.3494">
        <ele>79.5</ele>
        <time>2015-02-23T19:37:20.172Z</time>
      </trkpt>
      <trkpt lat="48.85213" lon="2.34935">
        <ele>79.5</ele>
        <time>2015-02-23T19:37:21.181Z</time>
      </trkpt>
      <trkpt lat="48.85215" lon="2.34929">
        <ele>79.7</ele>
        <time>2015-02-23T19:37:22.188Z</time>
      </trkpt>
      <trkpt lat="48.85218" lon="2.34923">
        <ele>80</ele>
        <time>2015-02-23T19:37:23.213Z</time>
      </trkpt>
      <trkpt lat="48.85221" lon="2.34917">
        <ele>80.2</ele>
        <time>2015-02-23T19:37:24.282Z</time>
      </trkpt>
      <trkpt lat="48.85224" lon="2.3491">
        <ele>80.3</ele>
        <time>2015-02-23T19:37:25.281Z</time>
      </trkpt>
      <trkpt lat="48.85226" lon="2.34902">
        <ele>80.3</ele>
        <time>2015-02-23T19:37:26.169Z</time>
      </trkpt>
      <trkpt lat="48.85228" lon="2.34895">
        <ele>80.2</ele>
        <time>2015-02-23T19:37:27.178Z</time>
      </trkpt>
      <trkpt lat="48.8523" lon="2.34888">
        <ele>80.3</ele>
        <time>2015-02-23T19:37:28.231Z</time>
      </trkpt>
      <trkpt lat="48.85233" lon="2.34882">
        <ele>80.4</ele>
        <time>2015-02-23T19:37:29.242Z</time>
      </trkpt>
      <trkpt lat="48.85235" lon="2.34875">
        <ele>80.2</ele>
        <time>2015-02-23T19:37:30.260Z</time>
      </trkpt>
      <trkpt lat="48.85237" lon="2.34867">
        <ele>80.3</ele>
        <time>2015-02-23T19:37:31.267Z</time>
      </trkpt>
      <trkpt lat="48.8524" lon="2.3486">
        <ele>80.4</ele>
        <time>2015-02-23T19:37:32.296Z</time>
      </trkpt>
      <trkpt lat="48.85243" lon="2.34853">
        <ele>80.3</ele>
        <time>2015-02-23T19:37:33.205Z</time>
      </trkpt>
      <trkpt lat="48.85246" lon="2.34846">
        <ele>80.4</ele>
        <time>2015-02-23T19:37:34.240Z</time>
      </trkpt>
      <trkpt lat="48.85248" lon="2.34839">
        <ele>80.6</ele>
        <time>2015-02-23T19:37:35.252Z</time>
      </trkpt>
      <trkpt lat="48.85251" lon="2.34831">
        <ele>80.5</ele>
        <time>2015-02-23T19:37:36.270Z</time>
      </trkpt>
      <trkpt lat="48.85252" lon="2.34823">
        <ele>80.4</ele>
        <time>2015-02-23T19:37:37.321Z</time>
      </trkpt>
      <trkpt lat="48.85255" lon="2.34816">
        <ele>80.4</ele>
        <time>2015-02-23T19:37:38.190Z</time>
      </trkpt>
      <trkpt lat="48.85257" lon="2.34807">
        <ele>80.1</ele>
        <time>2015-02-23T19:37:39.192Z</time>
      </trkpt>
      <trkpt lat="48.8526" lon="2.348">
        <ele>80</ele>
        <time>2015-02-23T19:37:40.202Z</time>
      </trkpt>
      <trkpt lat="48.85263" lon="2.34793">
        <ele>80</ele>
        <time>2015-02-23T19:37:41.236Z</time>
      </trkpt>
      <trkpt lat="48.85265" lon="2.34787">
        <ele>80.1</ele>
        <time>2015-02-23T19:37:42.269Z</time>
      </trkpt>
      <trkpt lat="48.85268" lon="2.3478">
        <ele>80.1</ele>
        <time>2015-02-23T19:37:43.278Z</time>
      </trkpt>
      <trkpt lat="48.85271" lon="2.34773">
        <ele>79.8</ele>
        <time>2015-02-23T19:37:44.288Z</time>
      </trkpt>
      <trkpt lat="48.85274" lon="2.34767">
        <ele>79.6</ele>
        <time>2015-02-23T19:37:45.265Z</time>
      </trkpt>
      <trkpt lat="48.85278" lon="2.3476">
        <ele>79.8</ele>
        <time>2015-02-23T19:37:46.194Z</time>
      </trkpt>
      <trkpt lat="48.85282" lon="2.34755">
        <ele>79.9</ele>
        <time>2015-02-23T19:37:47.197Z</time>
      </trkpt>
      <trkpt lat="48.85285" lon="2.34749">
        <ele>79.8</ele>
        <time>2015-02-23T19:37:48.203Z</time>
      </trkpt>
      <trkpt lat="48.85289" lon="2.34743">
        <ele>79.8</ele>
        <time>2015-02-23T19:37:49.236Z</time>
      </trkpt>
      <trkpt lat="48.85291" lon="2.34736">
        <ele>79.7</ele>
        <time>2015-02-23T19:37:50.243Z</time>
      </trkpt>
      <trkpt lat="48.85294" lon="2.3473">
        <ele>79.7</ele>
        <time>2015-02-23T19:37:51.252Z</time>
      </trkpt>
      <trkpt lat="48.85299" lon="2.3472">
        <ele>79.8</ele>
        <time>2015-02-23T19:37:53.193Z</time>
      </trkpt>
      <trkpt lat="48.853" lon="2.34714">
        <ele>79.7</ele>
        <time>2015-02-23T19:37:54.258Z</time>
      </trkpt>
      <trkpt lat="48.85303" lon="2.34704">
        <ele>79.7</ele>
        <time>2015-02-23T19:37:56.193Z</time>
      </trkpt>
      <trkpt lat="48.85304" lon="2.34698">
        <ele>80</ele>
        <time>2015-02-23T19:37:57.205Z</time>
      </trkpt>
      <trkpt lat="48.85308" lon="2.34688">
        <ele>80.2</ele>
        <time>2015-02-23T19:37:59.243Z</time>
      </trkpt>
      <trkpt lat="48.8531" lon="2.34683">
        <ele>80.4</ele>
        <time>2015-02-23T19:38:00.175Z</time>
      </trkpt>
      <trkpt lat="48.85314" lon="2.34674">
        <ele>80.7</ele>
        <time>2015-02-23T19:38:02.194Z</time>
      </trkpt>
      <trkpt lat="48.85316" lon="2.3467">
        <ele>80.8</ele>
        <time>2015-02-23T19:38:03.204Z</time>
      </trkpt>
      <trkpt lat="48.85321" lon="2.34658">
        <ele>81</ele>
        <time>2015-02-23T19:38:05.239Z</time>
      </trkpt>
      <trkpt lat="48.85323" lon="2.34652">
        <ele>81</ele>
        <time>2015-02-23T19:38:06.210Z</time>
      </trkpt>
      <trkpt lat="48.85325" lon="2.34646">
        <ele>81</ele>
        <time>2015-02-23T19:38:07.259Z</time>
      </trkpt>
      <trkpt lat="48.85327" lon="2.3464">
        <ele>81.2</ele>
        <time>2015-02-23T19:38:08.222Z</time>
      </trkpt>
      <trkpt lat="48.85329" lon="2.34633">
        <ele>81.2</ele>
        <time>2015-02-23T19:38:09.200Z</time>
      </trkpt>
      <trkpt lat="48.85332" lon="2.34627">
        <ele>81.2</ele>
        <time>2015-02-23T19:38:10.214Z</time>
      </trkpt>
      <trkpt lat="48.85334" lon="2.3462">
        <ele>81.4</ele>
        <time>2015-02-23T19:38:11.214Z</time>
      </trkpt>
      <trkpt lat="48.85337" lon="2.34613">
        <ele>81.4</ele>
        <time>2015-02-23T19:38:12.218Z</time>
      </trkpt>
      <trkpt lat="48.85339" lon="2.34606">
        <ele>81.5</ele>
        <time>2015-02-23T19:38:13.238Z</time>
      </trkpt>
      <trkpt lat="48.85341" lon="2.346">
        <ele>81.6</ele>
        <time>2015-02-23T19:38:14.247Z</time>
      </trkpt>
      <trkpt lat="48.85345" lon="2.34594">
        <ele>81.6</ele>
        <time>2015-02-23T19:38:15.282Z</time>
      </trkpt>
      <trkpt lat="48.85348" lon="2.34589">
        <ele>81.7</ele>
        <time>2015-02-23T19:38:16.210Z</time>
      </trkpt>
      <trkpt lat="48.85352" lon="2.34583">
        <ele>81.7</ele>
        <time>2015-02-23T19:38:17.228Z</time>
      </trkpt>
      <trkpt lat="48.85356" lon="2.34577">
        <ele>81.7</ele>
        <time>2015-02-23T19:38:18.238Z</time>
      </trkpt>
      <trkpt lat="48.85359" lon="2.3457">
        <ele>81.7</ele>
        <time>2015-02-23T19:38:19.250Z</time>
      </trkpt>
      <trkpt lat="48.85362" lon="2.34564">
        <ele>81.7</ele>
        <time>2015-02-23T19:38:20.290Z</time>
      </trkpt>
      <trkpt lat="48.85366" lon="2.34557">
        <ele>81.8</ele>
        <time>2015-02-23T19:38:21.194Z</time>
      </trkpt>
      <trkpt lat="48.85368" lon="2.3455">
        <ele>81.8</ele>
        <time>2015-02-23T19:38:22.210Z</time>
      </trkpt>
      <trkpt lat="48.8537" lon="2.34543">
        <ele>81.7</ele>
        <time>2015-02-23T19:38:23.200Z</time>
      </trkpt>
      <trkpt lat="48.85373" lon="2.34537">
        <ele>81.7</ele>
        <time>2015-02-23T19:38:24.198Z</time>
      </trkpt>
      <trkpt lat="48.85376" lon="2.3453">
        <ele>81.5</ele>
        <time>2015-02-23T19:38:25.234Z</time>
      </trkpt>
      <trkpt lat="48.85379" lon="2.34523">
        <ele>81.5</ele>
        <time>2015-02-23T19:38:26.273Z</time>
      </trkpt>
      <trkpt lat="48.85381" lon="2.34517">
        <ele>81.7</ele>
        <time>2015-02-23T19:38:27.189Z</time>
      </trkpt>
      <trkpt lat="48.85383" lon="2.34511">
        <ele>81.8</ele>
        <time>2015-02-23T19:38:28.200Z</time>
      </trkpt>
      <trkpt lat="48.85385" lon="2.34499">
        <ele>82.1</ele>
        <time>2015-02-23T19:38:30.223Z</time>
      </trkpt>
      <trkpt lat="48.85386" lon="2.34494">
        <ele>82.2</ele>
        <time>2015-02-23T19:38:31.288Z</time>
      </trkpt>
      <trkpt lat="48.85389" lon="2.34486">
        <ele>82.2</ele>
        <time>2015-02-23T19:38:33.196Z</time>
      </trkpt>
      <trkpt lat="48.85391" lon="2.34483">
        <ele>82.4</ele>
        <time>2015-02-23T19:38:34.190Z</time>
      </trkpt>
      <trkpt lat="48.85389" lon="2.34473">
        <ele>82</ele>
        <time>2015-02-23T19:38:37.251Z</time>
      </trkpt>
      <trkpt lat="48.85387" lon="2.34469">
        <ele>81.7</ele>
        <time>2015-02-23T19:38:38.223Z</time>
      </trkpt>
      <trkpt lat="48.85384" lon="2.34463">
        <ele>81.3</ele>
        <time>2015-02-23T19:38:41.329Z</time>
      </trkpt>
      <trkpt lat="48.85382" lon="2.34461">
        <ele>80.9</ele>
        <time>2015-02-23T19:38:42.276Z</time>
      </trkpt>
      <trkpt lat="48.85382" lon="2.3446">
        <ele>81.1</ele>
        <time>2015-02-23T19:38:52.210Z</time>
      </trkpt>
      <trkpt lat="48.85379" lon="2.34454">
        <ele>81.1</ele>
        <time>2015-02-23T19:38:53.260Z</time>
      </trkpt>
      <trkpt lat="48.85382" lon="2.34443">
        <ele>81.4</ele>
        <time>2015-02-23T19:39:00.182Z</time>
      </trkpt>
      <trkpt lat="48.85383" lon="2.34441">
        <ele>81.5</ele>
        <time>2015-02-23T19:39:01.326Z</time>
      </trkpt>
      <trkpt lat="48.85387" lon="2.34429">
        <ele>81.6</ele>
        <time>2015-02-23T19:39:07.319Z</time>
      </trkpt>
      <trkpt lat="48.85387" lon="2.34426">
        <ele>81.5</ele>
        <time>2015-02-23T19:39:08.281Z</time>
      </trkpt>
      <trkpt lat="48.85391" lon="2.34414">
        <ele>80.9</ele>
        <time>2015-02-23T19:39:12.278Z</time>
      </trkpt>
      <trkpt lat="48.85391" lon="2.34411">
        <ele>81</ele>
        <time>2015-02-23T19:39:13.364Z</time>
      </trkpt>
      <trkpt lat="48.85395" lon="2.34401">
        <ele>80.8</ele>
        <time>2015-02-23T19:39:16.225Z</time>
      </trkpt>
      <trkpt lat="48.85397" lon="2.34397">
        <ele>80.8</ele>
        <time>2015-02-23T19:39:17.277Z</time>
      </trkpt>
      <trkpt lat="48.85402" lon="2.34388">
        <ele>80.8</ele>
        <time>2015-02-23T19:39:20.204Z</time>
      </trkpt>
      <trkpt lat="48.85405" lon="2.34383">
        <ele>80.6</ele>
        <time>2015-02-23T19:39:21.297Z</time>
      </trkpt>
      <trkpt lat="48.85411" lon="2.34373">
        <ele>80.7</ele>
        <time>2015-02-23T19:39:23.252Z</time>
      </trkpt>
      <trkpt lat="48.85414" lon="2.34367">
        <ele>80.6</ele>
        <time>2015-02-23T19:39:24.264Z</time>
      </trkpt>
      <trkpt lat="48.85418" lon="2.34361">
        <ele>80.7</ele>
        <time>2015-02-23T19:39:25.290Z</time>
      </trkpt>
      <trkpt lat="48.85422" lon="2.34355">
        <ele>80.9</ele>
        <time>2015-02-23T19:39:26.183Z</time>
      </trkpt>
      <trkpt lat="48.85425" lon="2.34348">
        <ele>81</ele>
        <time>2015-02-23T19:39:27.201Z</time>
      </trkpt>
      <trkpt lat="48.85429" lon="2.34341">
        <ele>81.1</ele>
        <time>2015-02-23T19:39:28.216Z</time>
      </trkpt>
      <trkpt lat="48.85433" lon="2.34334">
        <ele>81.1</ele>
        <time>2015-02-23T19:39:29.226Z</time>
      </trkpt>
      <trkpt lat="48.85437" lon="2.34327">
        <ele>81.1</ele>
        <time>2015-02-23T19:39:30.182Z</time>
      </trkpt>
      <trkpt lat="48.85441" lon="2.34321">
        <ele>80.4</ele>
        <time>2015-02-23T19:39:31.304Z</time>
      </trkpt>
      <trkpt lat="48.85443" lon="2.34314">
        <ele>80.2</ele>
        <time>2015-02-23T19:39:32.189Z</time>
      </trkpt>
      <trkpt lat="48.85446" lon="2.34308">
        <ele>80.1</ele>
        <time>2015-02-23T19:39:33.216Z</time>
      </trkpt>
      <trkpt lat="48.85449" lon="2.34303">
        <ele>80</ele>
        <time>2015-02-23T19:39:34.229Z</time>
      </trkpt>
      <trkpt lat="48.85453" lon="2.34292">
        <ele>79.8</ele>
        <time>2015-02-23T19:39:36.215Z</time>
      </trkpt>
      <trkpt lat="48.85455" lon="2.34288">
        <ele>79.9</ele>
        <time>2015-02-23T19:39:37.254Z</time>
      </trkpt>
      <trkpt lat="48.8546" lon="2.34278">
        <ele>79.9</ele>
        <time>2015-02-23T19:39:39.204Z</time>
      </trkpt>
      <trkpt lat="48.85462" lon="2.34273">
        <ele>80</ele>
        <time>2015-02-23T19:39:40.204Z</time>
      </trkpt>
      <trkpt lat="48.85467" lon="2.34263">
        <ele>79.8</ele>
        <time>2015-02-23T19:39:42.205Z</time>
      </trkpt>
      <trkpt lat="48.85469" lon="2.34257">
        <ele>79.8</ele>
        <time>2015-02-23T19:39:43.355Z</time>
      </trkpt>
      <trkpt lat="48.85472" lon="2.34251">
        <ele>79.9</ele>
        <time>2015-02-23T19:39:44.208Z</time>
      </trkpt>
      <trkpt lat="48.85475" lon="2.34246">
        <ele>79.9</ele>
        <time>2015-02-23T19:39:45.210Z</time>
      </trkpt>
      <trkpt lat="48.85479" lon="2.34242">
        <ele>79.9</ele>
        <time>2015-02-23T19:39:46.239Z</time>
      </trkpt>
      <trkpt lat="48.85483" lon="2.34236">
        <ele>79.9</ele>
        <time>2015-02-23T19:39:47.241Z</time>
      </trkpt>
      <trkpt lat="48.85486" lon="2.34231">
        <ele>79.8</ele>
        <time>2015-02-23T19:39:48.282Z</time>
      </trkpt>
      <trkpt lat="48.8549" lon="2.34226">
        <ele>79.7</ele>
        <time>2015-02-23T19:39:49.299Z</time>
      </trkpt>
      <trkpt lat="48.85493" lon="2.34221">
        <ele>79.9</ele>
        <time>2015-02-23T19:39:50.274Z</time>
      </trkpt>
      <trkpt lat="48.85497" lon="2.34216">
        <ele>79.9</ele>
        <time>2015-02-23T19:39:51.245Z</time>
      </trkpt>
      <trkpt lat="48.85504" lon="2.34208">
        <ele>80.1</ele>
        <time>2015-02-23T19:39:53.270Z</time>
      </trkpt>
      <trkpt lat="48.85507" lon="2.34203">
        <ele>80.1</ele>
        <time>2015-02-23T19:39:54.194Z</time>
      </trkpt>
      <trkpt lat="48.85513" lon="2.34193">
        <ele>80.3</ele>
        <time>2015-02-23T19:39:56.263Z</time>
      </trkpt>
      <trkpt lat="48.85516" lon="2.34188">
        <ele>80.3</ele>
        <time>2015-02-23T19:39:57.328Z</time>
      </trkpt>
      <trkpt lat="48.85519" lon="2.34182">
        <ele>80.3</ele>
        <time>2015-02-23T19:39:58.355Z</time>
      </trkpt>
      <trkpt lat="48.85522" lon="2.34177">
        <ele>80.3</ele>
        <time>2015-02-23T19:39:59.201Z</time>
      </trkpt>
      <trkpt lat="48.85527" lon="2.34169">
        <ele>80.5</ele>
        <time>2015-02-23T19:40:01.744Z</time>
      </trkpt>
      <trkpt lat="48.85529" lon="2.34165">
        <ele>80.6</ele>
        <time>2015-02-23T19:40:02.259Z</time>
      </trkpt>
      <trkpt lat="48.85534" lon="2.34155">
        <ele>80.9</ele>
        <time>2015-02-23T19:40:04.195Z</time>
      </trkpt>
      <trkpt lat="48.85537" lon="2.3415">
        <ele>80.8</ele>
        <time>2015-02-23T19:40:05.205Z</time>
      </trkpt>
      <trkpt lat="48.85544" lon="2.34141">
        <ele>80.8</ele>
        <time>2015-02-23T19:40:07.235Z</time>
      </trkpt>
      <trkpt lat="48.85547" lon="2.34137">
        <ele>80.9</ele>
        <time>2015-02-23T19:40:08.247Z</time>
      </trkpt>
      <trkpt lat="48.85553" lon="2.34128">
        <ele>81</ele>
        <time>2015-02-23T19:40:10.228Z</time>
      </trkpt>
      <trkpt lat="48.85556" lon="2.34123">
        <ele>81</ele>
        <time>2015-02-23T19:40:11.220Z</time>
      </trkpt>
      <trkpt lat="48.85562" lon="2.34115">
        <ele>80.8</ele>
        <time>2015-02-23T19:40:13.248Z</time>
      </trkpt>
      <trkpt lat="48.85565" lon="2.3411">
        <ele>80.9</ele>
        <time>2015-02-23T19:40:14.205Z</time>
      </trkpt>
      <trkpt lat="48.8557" lon="2.34101">
        <ele>81</ele>
        <time>2015-02-23T19:40:16.216Z</time>
      </trkpt>
      <trkpt lat="48.85573" lon="2.34098">
        <ele>81</ele>
        <time>2015-02-23T19:40:17.235Z</time>
      </trkpt>
      <trkpt lat="48.85578" lon="2.3409">
        <ele>80.9</ele>
        <time>2015-02-23T19:40:19.293Z</time>
      </trkpt>
      <trkpt lat="48.85581" lon="2.34086">
        <ele>80.6</ele>
        <time>2015-02-23T19:40:20.207Z</time>
      </trkpt>
      <trkpt lat="48.85585" lon="2.34078">
        <ele>80.4</ele>
        <time>2015-02-23T19:40:22.259Z</time>
      </trkpt>
      <trkpt lat="48.85587" lon="2.34075">
        <ele>80</ele>
        <time>2015-02-23T19:40:23.280Z</time>
      </trkpt>
      <trkpt lat="48.85592" lon="2.34068">
        <ele>79.3</ele>
        <time>2015-02-23T19:40:25.311Z</time>
      </trkpt>
      <trkpt lat="48.85594" lon="2.34064">
        <ele>79.1</ele>
        <time>2015-02-23T19:40:26.237Z</time>
      </trkpt>
      <trkpt lat="48.85597" lon="2.34053">
        <ele>78.6</ele>
        <time>2015-02-23T19:40:29.284Z</time>
      </trkpt>
      <trkpt lat="48.85599" lon="2.3405">
        <ele>78.9</ele>
        <time>2015-02-23T19:40:30.314Z</time>
      </trkpt>
      <trkpt lat="48.85604" lon="2.34043">
        <ele>79.2</ele>
        <time>2015-02-23T19:40:32.852Z</time>
      </trkpt>
      <trkpt lat="48.85607" lon="2.34037">
        <ele>79.3</ele>
        <time>2015-02-23T19:40:33.274Z</time>
      </trkpt>
      <trkpt lat="48.85614" lon="2.34031">
        <ele>79.8</ele>
        <time>2015-02-23T19:40:35.206Z</time>
      </trkpt>
      <trkpt lat="48.85618" lon="2.34028">
        <ele>80.1</ele>
        <time>2015-02-23T19:40:36.234Z</time>
      </trkpt>
      <trkpt lat="48.85624" lon="2.34022">
        <ele>79.7</ele>
        <time>2015-02-23T19:40:38.265Z</time>
      </trkpt>
      <trkpt lat="48.85627" lon="2.34017">
        <ele>79.8</ele>
        <time>2015-02-23T19:40:39.271Z</time>
      </trkpt>
      <trkpt lat="48.85633" lon="2.34008">
        <ele>79.3</ele>
        <time>2015-02-23T19:40:41.287Z</time>
      </trkpt>
      <trkpt lat="48.85636" lon="2.34004">
        <ele>79.3</ele>
        <time>2015-02-23T19:40:42.294Z</time>
      </trkpt>
      <trkpt lat="48.85642" lon="2.33996">
        <ele>79.2</ele>
        <time>2015-02-23T19:40:44.301Z</time>
      </trkpt>
      <trkpt lat="48.85645" lon="2.33991">
        <ele>78.9</ele>
        <time>2015-02-23T19:40:45.229Z</time>
      </trkpt>
      <trkpt lat="48.85651" lon="2.33981">
        <ele>78.3</ele>
        <time>2015-02-23T19:40:48.014Z</time>
      </trkpt>
      <trkpt lat="48.85654" lon="2.33975">
        <ele>78.1</ele>
        <time>2015-02-23T19:40:48.240Z</time>
      </trkpt>
      <trkpt lat="48.85657" lon="2.33969">
        <ele>77.8</ele>
        <time>2015-02-23T19:40:49.252Z</time>
      </trkpt>
      <trkpt lat="48.85659" lon="2.33963">
        <ele>77.5</ele>
        <time>2015-02-23T19:40:50.265Z</time>
      </trkpt>
      <trkpt lat="48.85662" lon="2.33957">
        <ele>77.3</ele>
        <time>2015-02-23T19:40:51.204Z</time>
      </trkpt>
      <trkpt lat="48.85665" lon="2.33951">
        <ele>77</ele>
        <time>2015-02-23T19:40:52.216Z</time>
      </trkpt>
      <trkpt lat="48.85668" lon="2.33945">
        <ele>76.7</ele>
        <time>2015-02-23T19:40:53.179Z</time>
      </trkpt>
      <trkpt lat="48.85671" lon="2.33939">
        <ele>76.6</ele>
        <time>2015-02-23T19:40:54.190Z</time>
      </trkpt>
      <trkpt lat="48.85674" lon="2.33933">
        <ele>76.7</ele>
        <time>2015-02-23T19:40:55.250Z</time>
      </trkpt>
      <trkpt lat="48.85677" lon="2.33926">
        <ele>76.9</ele>
        <time>2015-02-23T19:40:56.266Z</time>
      </trkpt>
      <trkpt lat="48.8568" lon="2.33921">
        <ele>76.8</ele>
        <time>2015-02-23T19:40:57.287Z</time>
      </trkpt>
      <trkpt lat="48.85683" lon="2.33915">
        <ele>76.8</ele>
        <time>2015-02-23T19:40:58.203Z</time>
      </trkpt>
      <trkpt lat="48.85686" lon="2.3391">
        <ele>76.7</ele>
        <time>2015-02-23T19:40:59.203Z</time>
      </trkpt>
      <trkpt lat="48.85689" lon="2.33905">
        <ele>76.8</ele>
        <time>2015-02-23T19:41:00.268Z</time>
      </trkpt>
      <trkpt lat="48.85696" lon="2.33896">
        <ele>76.8</ele>
        <time>2015-02-23T19:41:02.185Z</time>
      </trkpt>
      <trkpt lat="48.85699" lon="2.33892">
        <ele>76.7</ele>
        <time>2015-02-23T19:41:03.303Z</time>
      </trkpt>
      <trkpt lat="48.85706" lon="2.33884">
        <ele>76.7</ele>
        <time>2015-02-23T19:41:05.201Z</time>
      </trkpt>
      <trkpt lat="48.8571" lon="2.3388">
        <ele>76.7</ele>
        <time>2015-02-23T19:41:06.213Z</time>
      </trkpt>
      <trkpt lat="48.85717" lon="2.33873">
        <ele>76.7</ele>
        <time>2015-02-23T19:41:08.247Z</time>
      </trkpt>
      <trkpt lat="48.85721" lon="2.33869">
        <ele>76.6</ele>
        <time>2015-02-23T19:41:09.191Z</time>
      </trkpt>
      <trkpt lat="48.85726" lon="2.33861">
        <ele>76.2</ele>
        <time>2015-02-23T19:41:11.192Z</time>
      </trkpt>
      <trkpt lat="48.85727" lon="2.33855">
        <ele>75.4</ele>
        <time>2015-02-23T19:41:12.205Z</time>
      </trkpt>
      <trkpt lat="48.8573" lon="2.3385">
        <ele>75.6</ele>
        <time>2015-02-23T19:41:13.235Z</time>
      </trkpt>
      <trkpt lat="48.85734" lon="2.33845">
        <ele>76.1</ele>
        <time>2015-02-23T19:41:14.249Z</time>
      </trkpt>
      <trkpt lat="48.85737" lon="2.3384">
        <ele>76.2</ele>
        <time>2015-02-23T19:41:15.269Z</time>
      </trkpt>
      <trkpt lat="48.8574" lon="2.33835">
        <ele>76.5</ele>
        <time>2015-02-23T19:41:16.170Z</time>
      </trkpt>
      <trkpt lat="48.85747" lon="2.33827">
        <ele>76.8</ele>
        <time>2015-02-23T19:41:18.608Z</time>
      </trkpt>
      <trkpt lat="48.8575" lon="2.33822">
        <ele>76.8</ele>
        <time>2015-02-23T19:41:19.276Z</time>
      </trkpt>
      <trkpt lat="48.85755" lon="2.33813">
        <ele>76.8</ele>
        <time>2015-02-23T19:41:21.811Z</time>
      </trkpt>
      <trkpt lat="48.85757" lon="2.33807">
        <ele>76.8</ele>
        <time>2015-02-23T19:41:22.223Z</time>
      </trkpt>
      <trkpt lat="48.85758" lon="2.338">
        <ele>76.9</ele>
        <time>2015-02-23T19:41:23.263Z</time>
      </trkpt>
      <trkpt lat="48.8576" lon="2.33794">
        <ele>77.1</ele>
        <time>2015-02-23T19:41:24.273Z</time>
      </trkpt>
      <trkpt lat="48.85762" lon="2.33787">
        <ele>77.2</ele>
        <time>2015-02-23T19:41:25.406Z</time>
      </trkpt>
      <trkpt lat="48.85764" lon="2.33781">
        <ele>77.3</ele>
        <time>2015-02-23T19:41:26.200Z</time>
      </trkpt>
      <trkpt lat="48.85766" lon="2.33774">
        <ele>77.5</ele>
        <time>2015-02-23T19:41:27.209Z</time>
      </trkpt>
      <trkpt lat="48.85768" lon="2.33768">
        <ele>77.5</ele>
        <time>2015-02-23T19:41:28.213Z</time>
      </trkpt>
      <trkpt lat="48.8577" lon="2.33761">
        <ele>77.5</ele>
        <time>2015-02-23T19:41:29.221Z</time>
      </trkpt>
      <trkpt lat="48.85771" lon="2.33755">
        <ele>77.6</ele>
        <time>2015-02-23T19:41:30.241Z</time>
      </trkpt>
      <trkpt lat="48.85772" lon="2.33748">
        <ele>77.7</ele>
        <time>2015-02-23T19:41:31.868Z</time>
      </trkpt>
      <trkpt lat="48.85773" lon="2.33741">
        <ele>77.9</ele>
        <time>2015-02-23T19:41:32.276Z</time>
      </trkpt>
      <trkpt lat="48.85775" lon="2.33735">
        <ele>78.1</ele>
        <time>2015-02-23T19:41:33.193Z</time>
      </trkpt>
      <trkpt lat="48.85776" lon="2.33728">
        <ele>78.7</ele>
        <time>2015-02-23T19:41:34.194Z</time>
      </trkpt>
      <trkpt lat="48.85777" lon="2.33721">
        <ele>79.1</ele>
        <time>2015-02-23T19:41:35.211Z</time>
      </trkpt>
      <trkpt lat="48.85778" lon="2.33714">
        <ele>79.1</ele>
        <time>2015-02-23T19:41:36.224Z</time>
      </trkpt>
      <trkpt lat="48.8578" lon="2.33707">
        <ele>79.1</ele>
        <time>2015-02-23T19:41:37.251Z</time>
      </trkpt>
      <trkpt lat="48.85781" lon="2.337">
        <ele>79</ele>
        <time>2015-02-23T19:41:38.257Z</time>
      </trkpt>
      <trkpt lat="48.85782" lon="2.33693">
        <ele>78.7</ele>
        <time>2015-02-23T19:41:39.266Z</time>
      </trkpt>
      <trkpt lat="48.85783" lon="2.33686">
        <ele>78.9</ele>
        <time>2015-02-23T19:41:40.282Z</time>
      </trkpt>
      <trkpt lat="48.85784" lon="2.3368">
        <ele>79</ele>
        <time>2015-02-23T19:41:41.968Z</time>
      </trkpt>
      <trkpt lat="48.85785" lon="2.33673">
        <ele>79.1</ele>
        <time>2015-02-23T19:41:42.219Z</time>
      </trkpt>
      <trkpt lat="48.85786" lon="2.33666">
        <ele>79.1</ele>
        <time>2015-02-23T19:41:43.285Z</time>
      </trkpt>
      <trkpt lat="48.85788" lon="2.33659">
        <ele>79.2</ele>
        <time>2015-02-23T19:41:44.196Z</time>
      </trkpt>
      <trkpt lat="48.85791" lon="2.33646">
        <ele>79</ele>
        <time>2015-02-23T19:41:47.177Z</time>
      </trkpt>
      <trkpt lat="48.85792" lon="2.33639">
        <ele>79</ele>
        <time>2015-02-23T19:41:47.233Z</time>
      </trkpt>
      <trkpt lat="48.85792" lon="2.33629">
        <ele>79.2</ele>
        <time>2015-02-23T19:41:48.250Z</time>
      </trkpt>
      <trkpt lat="48.85791" lon="2.33622">
        <ele>79.1</ele>
        <time>2015-02-23T19:41:49.264Z</time>
      </trkpt>
      <trkpt lat="48.85791" lon="2.33609">
        <ele>79</ele>
        <time>2015-02-23T19:41:51.219Z</time>
      </trkpt>
      <trkpt lat="48.85791" lon="2.33603">
        <ele>78.9</ele>
        <time>2015-02-23T19:41:52.207Z</time>
      </trkpt>
      <trkpt lat="48.8579" lon="2.33591">
        <ele>79</ele>
        <time>2015-02-23T19:41:54.252Z</time>
      </trkpt>
      <trkpt lat="48.8579" lon="2.33584">
        <ele>79</ele>
        <time>2015-02-23T19:41:55.212Z</time>
      </trkpt>
      <trkpt lat="48.8579" lon="2.33577">
        <ele>79.2</ele>
        <time>2015-02-23T19:41:56.238Z</time>
      </trkpt>
      <trkpt lat="48.8579" lon="2.3357">
        <ele>79.5</ele>
        <time>2015-02-23T19:41:57.247Z</time>
      </trkpt>
      <trkpt lat="48.8579" lon="2.33563">
        <ele>79.6</ele>
        <time>2015-02-23T19:41:58.271Z</time>
      </trkpt>
      <trkpt lat="48.85789" lon="2.33556">
        <ele>79.7</ele>
        <time>2015-02-23T19:41:59.277Z</time>
      </trkpt>
      <trkpt lat="48.85789" lon="2.33548">
        <ele>79.8</ele>
        <time>2015-02-23T19:42:00.173Z</time>
      </trkpt>
      <trkpt lat="48.85789" lon="2.33541">
        <ele>79.9</ele>
        <time>2015-02-23T19:42:01.234Z</time>
      </trkpt>
      <trkpt lat="48.85789" lon="2.33534">
        <ele>79.9</ele>
        <time>2015-02-23T19:42:02.244Z</time>
      </trkpt>
      <trkpt lat="48.85789" lon="2.33526">
        <ele>79.9</ele>
        <time>2015-02-23T19:42:03.251Z</time>
      </trkpt>
      <trkpt lat="48.8579" lon="2.33519">
        <ele>79.9</ele>
        <time>2015-02-23T19:42:04.271Z</time>
      </trkpt>
      <trkpt lat="48.8579" lon="2.33512">
        <ele>80</ele>
        <time>2015-02-23T19:42:05.302Z</time>
      </trkpt>
      <trkpt lat="48.85789" lon="2.33504">
        <ele>80.2</ele>
        <time>2015-02-23T19:42:06.207Z</time>
      </trkpt>
      <trkpt lat="48.8579" lon="2.33498">
        <ele>80</ele>
        <time>2015-02-23T19:42:07.245Z</time>
      </trkpt>
      <trkpt lat="48.85791" lon="2.33491">
        <ele>79.9</ele>
        <time>2015-02-23T19:42:08.257Z</time>
      </trkpt>
      <trkpt lat="48.85793" lon="2.33485">
        <ele>79.8</ele>
        <time>2015-02-23T19:42:09.262Z</time>
      </trkpt>
      <trkpt lat="48.85795" lon="2.33474">
        <ele>79.7</ele>
        <time>2015-02-23T19:42:11.189Z</time>
      </trkpt>
      <trkpt lat="48.85796" lon="2.33468">
        <ele>79.7</ele>
        <time>2015-02-23T19:42:12.207Z</time>
      </trkpt>
      <trkpt lat="48.85796" lon="2.33457">
        <ele>79.7</ele>
        <time>2015-02-23T19:42:14.189Z</time>
      </trkpt>
      <trkpt lat="48.85796" lon="2.3345">
        <ele>79.7</ele>
        <time>2015-02-23T19:42:15.310Z</time>
      </trkpt>
      <trkpt lat="48.85797" lon="2.33438">
        <ele>79.7</ele>
        <time>2015-02-23T19:42:17.192Z</time>
      </trkpt>
      <trkpt lat="48.85798" lon="2.33432">
        <ele>79.9</ele>
        <time>2015-02-23T19:42:18.207Z</time>
      </trkpt>
      <trkpt lat="48.85801" lon="2.33426">
        <ele>79.9</ele>
        <time>2015-02-23T19:42:19.330Z</time>
      </trkpt>
      <trkpt lat="48.85805" lon="2.33422">
        <ele>80</ele>
        <time>2015-02-23T19:42:20.286Z</time>
      </trkpt>
      <trkpt lat="48.85808" lon="2.33418">
        <ele>80</ele>
        <time>2015-02-23T19:42:21.200Z</time>
      </trkpt>
      <trkpt lat="48.85812" lon="2.33413">
        <ele>80.1</ele>
        <time>2015-02-23T19:42:22.204Z</time>
      </trkpt>
      <trkpt lat="48.85818" lon="2.33406">
        <ele>79.9</ele>
        <time>2015-02-23T19:42:24.234Z</time>
      </trkpt>
      <trkpt lat="48.85821" lon="2.33403">
        <ele>80</ele>
        <time>2015-02-23T19:42:25.264Z</time>
      </trkpt>
      <trkpt lat="48.85826" lon="2.33394">
        <ele>79.9</ele>
        <time>2015-02-23T19:42:27.187Z</time>
      </trkpt>
      <trkpt lat="48.85828" lon="2.33389">
        <ele>79.7</ele>
        <time>2015-02-23T19:42:28.207Z</time>
      </trkpt>
      <trkpt lat="48.85832" lon="2.33378">
        <ele>79.2</ele>
        <time>2015-02-23T19:42:30.226Z</time>
      </trkpt>
      <trkpt lat="48.85833" lon="2.33372">
        <ele>79</ele>
        <time>2015-02-23T19:42:31.266Z</time>
      </trkpt>
      <trkpt lat="48.85836" lon="2.33362">
        <ele>78.7</ele>
        <time>2015-02-23T19:42:33.185Z</time>
      </trkpt>
      <trkpt lat="48.85838" lon="2.33356">
        <ele>78.5</ele>
        <time>2015-02-23T19:42:34.203Z</time>
      </trkpt>
      <trkpt lat="48.8584" lon="2.33343">
        <ele>78.4</ele>
        <time>2015-02-23T19:42:36.253Z</time>
      </trkpt>
      <trkpt lat="48.85842" lon="2.33337">
        <ele>78.4</ele>
        <time>2015-02-23T19:42:37.271Z</time>
      </trkpt>
      <trkpt lat="48.85846" lon="2.33325">
        <ele>78.6</ele>
        <time>2015-02-23T19:42:39.205Z</time>
      </trkpt>
      <trkpt lat="48.85848" lon="2.3332">
        <ele>78.7</ele>
        <time>2015-02-23T19:42:40.210Z</time>
      </trkpt>
      <trkpt lat="48.8585" lon="2.33309">
        <ele>79</ele>
        <time>2015-02-23T19:42:42.251Z</time>
      </trkpt>
      <trkpt lat="48.85851" lon="2.33304">
        <ele>79.1</ele>
        <time>2015-02-23T19:42:43.279Z</time>
      </trkpt>
      <trkpt lat="48.85854" lon="2.33292">
        <ele>78.9</ele>
        <time>2015-02-23T19:42:46.198Z</time>
      </trkpt>
      <trkpt lat="48.85855" lon="2.33288">
        <ele>79</ele>
        <time>2015-02-23T19:42:47.209Z</time>
      </trkpt>
      <trkpt lat="48.85854" lon="2.33279">
        <ele>79.1</ele>
        <time>2015-02-23T19:42:49.311Z</time>
      </trkpt>
      <trkpt lat="48.85854" lon="2.33274">
        <ele>79</ele>
        <time>2015-02-23T19:42:50.244Z</time>
      </trkpt>
      <trkpt lat="48.85856" lon="2.33262">
        <ele>79.2</ele>
        <time>2015-02-23T19:42:53.198Z</time>
      </trkpt>
      <trkpt lat="48.85857" lon="2.33258">
        <ele>79.3</ele>
        <time>2015-02-23T19:42:54.200Z</time>
      </trkpt>
      <trkpt lat="48.8586" lon="2.33248">
        <ele>79.3</ele>
        <time>2015-02-23T19:42:56.262Z</time>
      </trkpt>
      <trkpt lat="48.85861" lon="2.33242">
        <ele>79.2</ele>
        <time>2015-02-23T19:42:57.283Z</time>
      </trkpt>
      <trkpt lat="48.85864" lon="2.3323">
        <ele>79.2</ele>
        <time>2015-02-23T19:42:59.551Z</time>
      </trkpt>
      <trkpt lat="48.85866" lon="2.33224">
        <ele>79.1</ele>
        <time>2015-02-23T19:43:00.213Z</time>
      </trkpt>
      <trkpt lat="48.85869" lon="2.33212">
        <ele>79.2</ele>
        <time>2015-02-23T19:43:02.201Z</time>
      </trkpt>
      <trkpt lat="48.8587" lon="2.33207">
        <ele>79.1</ele>
        <time>2015-02-23T19:43:03.296Z</time>
      </trkpt>
      <trkpt lat="48.85875" lon="2.33195">
        <ele>79.2</ele>
        <time>2015-02-23T19:43:05.256Z</time>
      </trkpt>
      <trkpt lat="48.85876" lon="2.3319">
        <ele>79</ele>
        <time>2015-02-23T19:43:06.236Z</time>
      </trkpt>
      <trkpt lat="48.8588" lon="2.33179">
        <ele>78.5</ele>
        <time>2015-02-23T19:43:08.261Z</time>
      </trkpt>
      <trkpt lat="48.85882" lon="2.33174">
        <ele>78.4</ele>
        <time>2015-02-23T19:43:09.276Z</time>
      </trkpt>
      <trkpt lat="48.85884" lon="2.33167">
        <ele>78.2</ele>
        <time>2015-02-23T19:43:10.164Z</time>
      </trkpt>
      <trkpt lat="48.85887" lon="2.33161">
        <ele>78.2</ele>
        <time>2015-02-23T19:43:11.293Z</time>
      </trkpt>
      <trkpt lat="48.85889" lon="2.33155">
        <ele>78.3</ele>
        <time>2015-02-23T19:43:12.231Z</time>
      </trkpt>
      <trkpt lat="48.85891" lon="2.33148">
        <ele>78.3</ele>
        <time>2015-02-23T19:43:13.239Z</time>
      </trkpt>
      <trkpt lat="48.85894" lon="2.33143">
        <ele>78.1</ele>
        <time>2015-02-23T19:43:15.017Z</time>
      </trkpt>
      <trkpt lat="48.85896" lon="2.33137">
        <ele>78</ele>
        <time>2015-02-23T19:43:15.251Z</time>
      </trkpt>
      <trkpt lat="48.85899" lon="2.33131">
        <ele>78</ele>
        <time>2015-02-23T19:43:16.261Z</time>
      </trkpt>
      <trkpt lat="48.85901" lon="2.33125">
        <ele>78</ele>
        <time>2015-02-23T19:43:17.272Z</time>
      </trkpt>
      <trkpt lat="48.85904" lon="2.33119">
        <ele>78</ele>
        <time>2015-02-23T19:43:18.275Z</time>
      </trkpt>
      <trkpt lat="48.85906" lon="2.33113">
        <ele>77.9</ele>
        <time>2015-02-23T19:43:19.281Z</time>
      </trkpt>
      <trkpt lat="48.85909" lon="2.33106">
        <ele>77.7</ele>
        <time>2015-02-23T19:43:20.200Z</time>
      </trkpt>
      <trkpt lat="48.85911" lon="2.33099">
        <ele>77.7</ele>
        <time>2015-02-23T19:43:21.219Z</time>
      </trkpt>
      <trkpt lat="48.85913" lon="2.33091">
        <ele>77.6</ele>
        <time>2015-02-23T19:43:22.248Z</time>
      </trkpt>
      <trkpt lat="48.85915" lon="2.33084">
        <ele>77.4</ele>
        <time>2015-02-23T19:43:23.246Z</time>
      </trkpt>
      <trkpt lat="48.85917" lon="2.33077">
        <ele>77.4</ele>
        <time>2015-02-23T19:43:24.257Z</time>
      </trkpt>
      <trkpt lat="48.85919" lon="2.3307">
        <ele>77.5</ele>
        <time>2015-02-23T19:43:25.336Z</time>
      </trkpt>
      <trkpt lat="48.85921" lon="2.33063">
        <ele>77.6</ele>
        <time>2015-02-23T19:43:26.178Z</time>
      </trkpt>
      <trkpt lat="48.85923" lon="2.33057">
        <ele>77.8</ele>
        <time>2015-02-23T19:43:27.183Z</time>
      </trkpt>
      <trkpt lat="48.85927" lon="2.33045">
        <ele>78.1</ele>
        <time>2015-02-23T19:43:29.201Z</time>
      </trkpt>
      <trkpt lat="48.8593" lon="2.33039">
        <ele>78.2</ele>
        <time>2015-02-23T19:43:30.230Z</time>
      </trkpt>
      <trkpt lat="48.85934" lon="2.33028">
        <ele>78.3</ele>
        <time>2015-02-23T19:43:32.173Z</time>
      </trkpt>
      <trkpt lat="48.85936" lon="2.33022">
        <ele>78.3</ele>
        <time>2015-02-23T19:43:33.197Z</time>
      </trkpt>
      <trkpt lat="48.85939" lon="2.3301">
        <ele>78.3</ele>
        <time>2015-02-23T19:43:35.247Z</time>
      </trkpt>
      <trkpt lat="48.8594" lon="2.33005">
        <ele>78.3</ele>
        <time>2015-02-23T19:43:36.256Z</time>
      </trkpt>
      <trkpt lat="48.85943" lon="2.32996">
        <ele>78.4</ele>
        <time>2015-02-23T19:43:38.211Z</time>
      </trkpt>
      <trkpt lat="48.85944" lon="2.32991">
        <ele>78.4</ele>
        <time>2015-02-23T19:43:39.228Z</time>
      </trkpt>
      <trkpt lat="48.85946" lon="2.32981">
        <ele>78.5</ele>
        <time>2015-02-23T19:43:41.203Z</time>
      </trkpt>
      <trkpt lat="48.85947" lon="2.32976">
        <ele>78.6</ele>
        <time>2015-02-23T19:43:42.194Z</time>
      </trkpt>
      <trkpt lat="48.8595" lon="2.32966">
        <ele>78.7</ele>
        <time>2015-02-23T19:43:45.173Z</time>
      </trkpt>
      <trkpt lat="48.85951" lon="2.32962">
        <ele>78.7</ele>
        <time>2015-02-23T19:43:46.183Z</time>
      </trkpt>
      <trkpt lat="48.85953" lon="2.32949">
        <ele>78.3</ele>
        <time>2015-02-23T19:43:51.252Z</time>
      </trkpt>
      <trkpt lat="48.85953" lon="2.32948">
        <ele>78.2</ele>
        <time>2015-02-23T19:43:52.249Z</time>
      </trkpt>
      <trkpt lat="48.85955" lon="2.32935">
        <ele>78.6</ele>
        <time>2015-02-23T19:44:04.226Z</time>
      </trkpt>
      <trkpt lat="48.85957" lon="2.32933">
        <ele>78.5</ele>
        <time>2015-02-23T19:44:05.221Z</time>
      </trkpt>
      <trkpt lat="48.85962" lon="2.32924">
        <ele>78.3</ele>
        <time>2015-02-23T19:44:09.057Z</time>
      </trkpt>
      <trkpt lat="48.85964" lon="2.3292">
        <ele>78.4</ele>
        <time>2015-02-23T19:44:09.186Z</time>
      </trkpt>
      <trkpt lat="48.85966" lon="2.32911">
        <ele>78.1</ele>
        <time>2015-02-23T19:44:11.213Z</time>
      </trkpt>
      <trkpt lat="48.85968" lon="2.32907">
        <ele>78</ele>
        <time>2015-02-23T19:44:12.241Z</time>
      </trkpt>
      <trkpt lat="48.85972" lon="2.32896">
        <ele>78.1</ele>
        <time>2015-02-23T19:44:14.170Z</time>
      </trkpt>
      <trkpt lat="48.85974" lon="2.3289">
        <ele>78.1</ele>
        <time>2015-02-23T19:44:15.267Z</time>
      </trkpt>
      <trkpt lat="48.85978" lon="2.32879">
        <ele>78.2</ele>
        <time>2015-02-23T19:44:17.181Z</time>
      </trkpt>
      <trkpt lat="48.8598" lon="2.32873">
        <ele>78.2</ele>
        <time>2015-02-23T19:44:18.209Z</time>
      </trkpt>
      <trkpt lat="48.85984" lon="2.32862">
        <ele>78.2</ele>
        <time>2015-02-23T19:44:20.282Z</time>
      </trkpt>
      <trkpt lat="48.85986" lon="2.32856">
        <ele>78.3</ele>
        <time>2015-02-23T19:44:21.303Z</time>
      </trkpt>
      <trkpt lat="48.8599" lon="2.32845">
        <ele>78.5</ele>
        <time>2015-02-23T19:44:23.212Z</time>
      </trkpt>
      <trkpt lat="48.85991" lon="2.32839">
        <ele>78.6</ele>
        <time>2015-02-23T19:44:24.228Z</time>
      </trkpt>
      <trkpt lat="48.85994" lon="2.32829">
        <ele>78.7</ele>
        <time>2015-02-23T19:44:26.647Z</time>
      </trkpt>
      <trkpt lat="48.85995" lon="2.32824">
        <ele>78.7</ele>
        <time>2015-02-23T19:44:27.278Z</time>
      </trkpt>
      <trkpt lat="48.85998" lon="2.32815">
        <ele>78.5</ele>
        <time>2015-02-23T19:44:29.198Z</time>
      </trkpt>
      <trkpt lat="48.86" lon="2.3281">
        <ele>78.3</ele>
        <time>2015-02-23T19:44:30.280Z</time>
      </trkpt>
      <trkpt lat="48.86005" lon="2.32801">
        <ele>78.3</ele>
        <time>2015-02-23T19:44:33.227Z</time>
      </trkpt>
      <trkpt lat="48.86006" lon="2.32798">
        <ele>78.2</ele>
        <time>2015-02-23T19:44:34.227Z</time>
      </trkpt>
      <trkpt lat="48.86012" lon="2.32789">
        <ele>78.1</ele>
        <time>2015-02-23T19:44:39.245Z</time>
      </trkpt>
      <trkpt lat="48.86013" lon="2.32785">
        <ele>78</ele>
        <time>2015-02-23T19:44:40.264Z</time>
      </trkpt>
      <trkpt lat="48.86016" lon="2.32777">
        <ele>77.7</ele>
        <time>2015-02-23T19:44:42.257Z</time>
      </trkpt>
      <trkpt lat="48.86018" lon="2.32772">
        <ele>77.7</ele>
        <time>2015-02-23T19:44:43.209Z</time>
      </trkpt>
      <trkpt lat="48.86023" lon="2.32761">
        <ele>77.5</ele>
        <time>2015-02-23T19:44:45.223Z</time>
      </trkpt>
      <trkpt lat="48.86026" lon="2.32755">
        <ele>77.3</ele>
        <time>2015-02-23T19:44:46.235Z</time>
      </trkpt>
      <trkpt lat="48.86029" lon="2.32749">
        <ele>77.3</ele>
        <time>2015-02-23T19:44:47.252Z</time>
      </trkpt>
      <trkpt lat="48.86032" lon="2.32742">
        <ele>77.3</ele>
        <time>2015-02-23T19:44:48.265Z</time>
      </trkpt>
      <trkpt lat="48.86036" lon="2.32734">
        <ele>77.2</ele>
        <time>2015-02-23T19:44:49.311Z</time>
      </trkpt>
      <trkpt lat="48.86039" lon="2.32726">
        <ele>77.1</ele>
        <time>2015-02-23T19:44:50.185Z</time>
      </trkpt>
      <trkpt lat="48.86042" lon="2.32718">
        <ele>77</ele>
        <time>2015-02-23T19:44:52.083Z</time>
      </trkpt>
      <trkpt lat="48.86046" lon="2.3271">
        <ele>76.9</ele>
        <time>2015-02-23T19:44:52.232Z</time>
      </trkpt>
      <trkpt lat="48.86049" lon="2.32702">
        <ele>76.9</ele>
        <time>2015-02-23T19:44:53.202Z</time>
      </trkpt>
      <trkpt lat="48.86051" lon="2.32694">
        <ele>76.9</ele>
        <time>2015-02-23T19:44:54.206Z</time>
      </trkpt>
      <trkpt lat="48.86054" lon="2.32686">
        <ele>77</ele>
        <time>2015-02-23T19:44:55.278Z</time>
      </trkpt>
      <trkpt lat="48.86056" lon="2.32678">
        <ele>76.7</ele>
        <time>2015-02-23T19:44:56.292Z</time>
      </trkpt>
      <trkpt lat="48.86058" lon="2.32671">
        <ele>76.8</ele>
        <time>2015-02-23T19:44:57.208Z</time>
      </trkpt>
      <trkpt lat="48.8606" lon="2.32664">
        <ele>76.6</ele>
        <time>2015-02-23T19:44:58.227Z</time>
      </trkpt>
      <trkpt lat="48.86064" lon="2.32653">
        <ele>76.5</ele>
        <time>2015-02-23T19:45:00.248Z</time>
      </trkpt>
      <trkpt lat="48.86066" lon="2.32647">
        <ele>76.5</ele>
        <time>2015-02-23T19:45:01.263Z</time>
      </trkpt>
      <trkpt lat="48.86069" lon="2.32636">
        <ele>76.4</ele>
        <time>2015-02-23T19:45:03.270Z</time>
      </trkpt>
      <trkpt lat="48.86071" lon="2.32631">
        <ele>76.2</ele>
        <time>2015-02-23T19:45:04.271Z</time>
      </trkpt>
      <trkpt lat="48.86074" lon="2.3262">
        <ele>75.9</ele>
        <time>2015-02-23T19:45:06.273Z</time>
      </trkpt>
      <trkpt lat="48.86076" lon="2.32615">
        <ele>75.6</ele>
        <time>2015-02-23T19:45:07.308Z</time>
      </trkpt>
      <trkpt lat="48.8608" lon="2.32605">
        <ele>75.3</ele>
        <time>2015-02-23T19:45:09.200Z</time>
      </trkpt>
      <trkpt lat="48.86083" lon="2.326">
        <ele>75.3</ele>
        <time>2015-02-23T19:45:10.209Z</time>
      </trkpt>
      <trkpt lat="48.86087" lon="2.32589">
        <ele>75.3</ele>
        <time>2015-02-23T19:45:12.267Z</time>
      </trkpt>
      <trkpt lat="48.86089" lon="2.32583">
        <ele>75.3</ele>
        <time>2015-02-23T19:45:13.275Z</time>
      </trkpt>
      <trkpt lat="48.86093" lon="2.32572">
        <ele>75.5</ele>
        <time>2015-02-23T19:45:15.193Z</time>
      </trkpt>
      <trkpt lat="48.86096" lon="2.32565">
        <ele>75.9</ele>
        <time>2015-02-23T19:45:16.196Z</time>
      </trkpt>
      <trkpt lat="48.86098" lon="2.32559">
        <ele>76</ele>
        <time>2015-02-23T19:45:17.206Z</time>
      </trkpt>
      <trkpt lat="48.86099" lon="2.32552">
        <ele>75.4</ele>
        <time>2015-02-23T19:45:18.229Z</time>
      </trkpt>
      <trkpt lat="48.86102" lon="2.3254">
        <ele>75.1</ele>
        <time>2015-02-23T19:45:20.269Z</time>
      </trkpt>
      <trkpt lat="48.86104" lon="2.32534">
        <ele>75.2</ele>
        <time>2015-02-23T19:45:21.278Z</time>
      </trkpt>
      <trkpt lat="48.86108" lon="2.32523">
        <ele>75.3</ele>
        <time>2015-02-23T19:45:23.234Z</time>
      </trkpt>
      <trkpt lat="48.8611" lon="2.32517">
        <ele>75.2</ele>
        <time>2015-02-23T19:45:24.243Z</time>
      </trkpt>
      <trkpt lat="48.86114" lon="2.32505">
        <ele>75.1</ele>
        <time>2015-02-23T19:45:26.263Z</time>
      </trkpt>
      <trkpt lat="48.86116" lon="2.32499">
        <ele>75.1</ele>
        <time>2015-02-23T19:45:27.274Z</time>
      </trkpt>
      <trkpt lat="48.86118" lon="2.32492">
        <ele>74.9</ele>
        <time>2015-02-23T19:45:28.256Z</time>
      </trkpt>
      <trkpt lat="48.8612" lon="2.32485">
        <ele>74.7</ele>
        <time>2015-02-23T19:45:29.196Z</time>
      </trkpt>
      <trkpt lat="48.86122" lon="2.32478">
        <ele>74.9</ele>
        <time>2015-02-23T19:45:30.193Z</time>
      </trkpt>
      <trkpt lat="48.86124" lon="2.32469">
        <ele>75.3</ele>
        <time>2015-02-23T19:45:31.233Z</time>
      </trkpt>
      <trkpt lat="48.86125" lon="2.3246">
        <ele>75.6</ele>
        <time>2015-02-23T19:45:32.262Z</time>
      </trkpt>
      <trkpt lat="48.86126" lon="2.32453">
        <ele>75.7</ele>
        <time>2015-02-23T19:45:33.175Z</time>
      </trkpt>
      <trkpt lat="48.86128" lon="2.32446">
        <ele>75.7</ele>
        <time>2015-02-23T19:45:34.180Z</time>
      </trkpt>
      <trkpt lat="48.8613" lon="2.3244">
        <ele>75.7</ele>
        <time>2015-02-23T19:45:35.183Z</time>
      </trkpt>
      <trkpt lat="48.86133" lon="2.32428">
        <ele>75.6</ele>
        <time>2015-02-23T19:45:37.257Z</time>
      </trkpt>
      <trkpt lat="48.86135" lon="2.32421">
        <ele>75.7</ele>
        <time>2015-02-23T19:45:38.186Z</time>
      </trkpt>
      <trkpt lat="48.86137" lon="2.32415">
        <ele>75.8</ele>
        <time>2015-02-23T19:45:39.202Z</time>
      </trkpt>
      <trkpt lat="48.86139" lon="2.32409">
        <ele>75.9</ele>
        <time>2015-02-23T19:45:40.218Z</time>
      </trkpt>
      <trkpt lat="48.86142" lon="2.32397">
        <ele>75.8</ele>
        <time>2015-02-23T19:45:42.245Z</time>
      </trkpt>
      <trkpt lat="48.86143" lon="2.3239">
        <ele>75.7</ele>
        <time>2015-02-23T19:45:43.271Z</time>
      </trkpt>
      <trkpt lat="48.86146" lon="2.32379">
        <ele>75.6</ele>
        <time>2015-02-23T19:45:46.422Z</time>
      </trkpt>
      <trkpt lat="48.86148" lon="2.32373">
        <ele>75.5</ele>
        <time>2015-02-23T19:45:46.471Z</time>
      </trkpt>
      <trkpt lat="48.8615" lon="2.32366">
        <ele>75.5</ele>
        <time>2015-02-23T19:45:47.195Z</time>
      </trkpt>
      <trkpt lat="48.86152" lon="2.3236">
        <ele>75.3</ele>
        <time>2015-02-23T19:45:48.195Z</time>
      </trkpt>
      <trkpt lat="48.86155" lon="2.32349">
        <ele>75.2</ele>
        <time>2015-02-23T19:45:50.259Z</time>
      </trkpt>
      <trkpt lat="48.86158" lon="2.32343">
        <ele>75.2</ele>
        <time>2015-02-23T19:45:51.174Z</time>
      </trkpt>
      <trkpt lat="48.86162" lon="2.32333">
        <ele>75.4</ele>
        <time>2015-02-23T19:45:53.874Z</time>
      </trkpt>
      <trkpt lat="48.86163" lon="2.32328">
        <ele>75.3</ele>
        <time>2015-02-23T19:45:54.204Z</time>
      </trkpt>
      <trkpt lat="48.86167" lon="2.32318">
        <ele>75.3</ele>
        <time>2015-02-23T19:45:56.635Z</time>
      </trkpt>
      <trkpt lat="48.86168" lon="2.32313">
        <ele>75.1</ele>
        <time>2015-02-23T19:45:57.237Z</time>
      </trkpt>
      <trkpt lat="48.86172" lon="2.32303">
        <ele>74.6</ele>
        <time>2015-02-23T19:45:59.264Z</time>
      </trkpt>
      <trkpt lat="48.86173" lon="2.32298">
        <ele>74.8</ele>
        <time>2015-02-23T19:46:00.186Z</time>
      </trkpt>
      <trkpt lat="48.86177" lon="2.32288">
        <ele>74.5</ele>
        <time>2015-02-23T19:46:02.965Z</time>
      </trkpt>
      <trkpt lat="48.86179" lon="2.32283">
        <ele>74.3</ele>
        <time>2015-02-23T19:46:03.165Z</time>
      </trkpt>
      <trkpt lat="48.86184" lon="2.32273">
        <ele>73.9</ele>
        <time>2015-02-23T19:46:05.231Z</time>
      </trkpt>
      <trkpt lat="48.86186" lon="2.32267">
        <ele>74</ele>
        <time>2015-02-23T19:46:06.240Z</time>
      </trkpt>
      <trkpt lat="48.8619" lon="2.32256">
        <ele>74.3</ele>
        <time>2015-02-23T19:46:08.161Z</time>
      </trkpt>
      <trkpt lat="48.86192" lon="2.32251">
        <ele>74.3</ele>
        <time>2015-02-23T19:46:09.213Z</time>
      </trkpt>
      <trkpt lat="48.86196" lon="2.32241">
        <ele>73.9</ele>
        <time>2015-02-23T19:46:11.789Z</time>
      </trkpt>
      <trkpt lat="48.86199" lon="2.32236">
        <ele>73.9</ele>
        <time>2015-02-23T19:46:12.163Z</time>
      </trkpt>
      <trkpt lat="48.86204" lon="2.32226">
        <ele>74</ele>
        <time>2015-02-23T19:46:14.166Z</time>
      </trkpt>
      <trkpt lat="48.86206" lon="2.3222">
        <ele>74.1</ele>
        <time>2015-02-23T19:46:15.220Z</time>
      </trkpt>
      <trkpt lat="48.8621" lon="2.32209">
        <ele>74</ele>
        <time>2015-02-23T19:46:17.206Z</time>
      </trkpt>
      <trkpt lat="48.86211" lon="2.32203">
        <ele>74.1</ele>
        <time>2015-02-23T19:46:18.245Z</time>
      </trkpt>
      <trkpt lat="48.86214" lon="2.32193">
        <ele>74</ele>
        <time>2015-02-23T19:46:20.269Z</time>
      </trkpt>
      <trkpt lat="48.86216" lon="2.32187">
        <ele>74.1</ele>
        <time>2015-02-23T19:46:21.304Z</time>
      </trkpt>
      <trkpt lat="48.86218" lon="2.32181">
        <ele>74.1</ele>
        <time>2015-02-23T19:46:22.194Z</time>
      </trkpt>
      <trkpt lat="48.8622" lon="2.32175">
        <ele>74.2</ele>
        <time>2015-02-23T19:46:23.210Z</time>
      </trkpt>
      <trkpt lat="48.86222" lon="2.32168">
        <ele>74</ele>
        <time>2015-02-23T19:46:24.234Z</time>
      </trkpt>
      <trkpt lat="48.86223" lon="2.32161">
        <ele>74</ele>
        <time>2015-02-23T19:46:25.233Z</time>
      </trkpt>
      <trkpt lat="48.86224" lon="2.32154">
        <ele>74.1</ele>
        <time>2015-02-23T19:46:26.721Z</time>
      </trkpt>
      <trkpt lat="48.86225" lon="2.32146">
        <ele>74.1</ele>
        <time>2015-02-23T19:46:27.160Z</time>
      </trkpt>
      <trkpt lat="48.86227" lon="2.32139">
        <ele>74</ele>
        <time>2015-02-23T19:46:28.224Z</time>
      </trkpt>
      <trkpt lat="48.86228" lon="2.32133">
        <ele>73.9</ele>
        <time>2015-02-23T19:46:29.226Z</time>
      </trkpt>
      <trkpt lat="48.86229" lon="2.32126">
        <ele>73.9</ele>
        <time>2015-02-23T19:46:30.189Z</time>
      </trkpt>
      <trkpt lat="48.8623" lon="2.3212">
        <ele>73.7</ele>
        <time>2015-02-23T19:46:31.267Z</time>
      </trkpt>
      <trkpt lat="48.86232" lon="2.32113">
        <ele>73.5</ele>
        <time>2015-02-23T19:46:32.269Z</time>
      </trkpt>
      <trkpt lat="48.86233" lon="2.32106">
        <ele>73.3</ele>
        <time>2015-02-23T19:46:33.284Z</time>
      </trkpt>
      <trkpt lat="48.86234" lon="2.321">
        <ele>73.1</ele>
        <time>2015-02-23T19:46:34.191Z</time>
      </trkpt>
      <trkpt lat="48.86236" lon="2.32093">
        <ele>72.9</ele>
        <time>2015-02-23T19:46:35.246Z</time>
      </trkpt>
      <trkpt lat="48.86239" lon="2.32081">
        <ele>72.4</ele>
        <time>2015-02-23T19:46:37.284Z</time>
      </trkpt>
      <trkpt lat="48.8624" lon="2.32074">
        <ele>72.4</ele>
        <time>2015-02-23T19:46:38.178Z</time>
      </trkpt>
      <trkpt lat="48.86242" lon="2.32068">
        <ele>72.4</ele>
        <time>2015-02-23T19:46:39.170Z</time>
      </trkpt>
      <trkpt lat="48.86244" lon="2.32061">
        <ele>72.4</ele>
        <time>2015-02-23T19:46:40.223Z</time>
      </trkpt>
      <trkpt lat="48.86245" lon="2.32055">
        <ele>72.3</ele>
        <time>2015-02-23T19:46:41.861Z</time>
      </trkpt>
      <trkpt lat="48.86247" lon="2.32048">
        <ele>72.1</ele>
        <time>2015-02-23T19:46:42.256Z</time>
      </trkpt>
      <trkpt lat="48.8625" lon="2.32043">
        <ele>72.1</ele>
        <time>2015-02-23T19:46:43.271Z</time>
      </trkpt>
      <trkpt lat="48.86252" lon="2.32037">
        <ele>72.1</ele>
        <time>2015-02-23T19:46:44.277Z</time>
      </trkpt>
      <trkpt lat="48.86254" lon="2.32031">
        <ele>72.1</ele>
        <time>2015-02-23T19:46:45.188Z</time>
      </trkpt>
      <trkpt lat="48.86256" lon="2.32024">
        <ele>72</ele>
        <time>2015-02-23T19:46:46.197Z</time>
      </trkpt>
      <trkpt lat="48.86258" lon="2.32017">
        <ele>72</ele>
        <time>2015-02-23T19:46:47.218Z</time>
      </trkpt>
      <trkpt lat="48.86259" lon="2.32011">
        <ele>71.9</ele>
        <time>2015-02-23T19:46:48.226Z</time>
      </trkpt>
      <trkpt lat="48.86262" lon="2.32004">
        <ele>72.2</ele>
        <time>2015-02-23T19:46:49.244Z</time>
      </trkpt>
      <trkpt lat="48.86264" lon="2.31996">
        <ele>72.3</ele>
        <time>2015-02-23T19:46:50.338Z</time>
      </trkpt>
      <trkpt lat="48.86266" lon="2.31989">
        <ele>72.1</ele>
        <time>2015-02-23T19:46:52.100Z</time>
      </trkpt>
      <trkpt lat="48.86268" lon="2.31982">
        <ele>72.5</ele>
        <time>2015-02-23T19:46:52.197Z</time>
      </trkpt>
      <trkpt lat="48.8627" lon="2.31975">
        <ele>72.7</ele>
        <time>2015-02-23T19:46:53.230Z</time>
      </trkpt>
      <trkpt lat="48.86272" lon="2.31967">
        <ele>72.7</ele>
        <time>2015-02-23T19:46:54.245Z</time>
      </trkpt>
      <trkpt lat="48.86275" lon="2.31961">
        <ele>72.8</ele>
        <time>2015-02-23T19:46:55.234Z</time>
      </trkpt>
      <trkpt lat="48.86278" lon="2.31954">
        <ele>72.7</ele>
        <time>2015-02-23T19:46:56.260Z</time>
      </trkpt>
      <trkpt lat="48.8628" lon="2.31948">
        <ele>72.7</ele>
        <time>2015-02-23T19:46:57.428Z</time>
      </trkpt>
      <trkpt lat="48.86298" lon="2.31893">
        <ele>73.2</ele>
        <time>2015-02-23T19:47:05.215Z</time>
      </trkpt>
      <trkpt lat="48.86302" lon="2.31881">
        <ele>72.9</ele>
        <time>2015-02-23T19:47:07.219Z</time>
      </trkpt>
      <trkpt lat="48.86303" lon="2.31875">
        <ele>72.6</ele>
        <time>2015-02-23T19:47:08.230Z</time>
      </trkpt>
      <trkpt lat="48.86306" lon="2.31864">
        <ele>72.2</ele>
        <time>2015-02-23T19:47:10.261Z</time>
      </trkpt>
      <trkpt lat="48.86308" lon="2.31858">
        <ele>72.7</ele>
        <time>2015-02-23T19:47:11.275Z</time>
      </trkpt>
      <trkpt lat="48.86311" lon="2.31846">
        <ele>72.6</ele>
        <time>2015-02-23T19:47:13.249Z</time>
      </trkpt>
      <trkpt lat="48.86313" lon="2.31839">
        <ele>72.7</ele>
        <time>2015-02-23T19:47:14.261Z</time>
      </trkpt>
      <trkpt lat="48.86314" lon="2.31833">
        <ele>72.7</ele>
        <time>2015-02-23T19:47:15.276Z</time>
      </trkpt>
      <trkpt lat="48.86316" lon="2.31827">
        <ele>73.4</ele>
        <time>2015-02-23T19:47:16.165Z</time>
      </trkpt>
      <trkpt lat="48.86319" lon="2.31814">
        <ele>73.5</ele>
        <time>2015-02-23T19:47:18.210Z</time>
      </trkpt>
      <trkpt lat="48.8632" lon="2.31809">
        <ele>73</ele>
        <time>2015-02-23T19:47:19.260Z</time>
      </trkpt>
      <trkpt lat="48.86322" lon="2.31796">
        <ele>72.9</ele>
        <time>2015-02-23T19:47:21.169Z</time>
      </trkpt>
      <trkpt lat="48.86323" lon="2.3179">
        <ele>72.4</ele>
        <time>2015-02-23T19:47:22.203Z</time>
      </trkpt>
      <trkpt lat="48.86324" lon="2.31777">
        <ele>72.3</ele>
        <time>2015-02-23T19:47:24.234Z</time>
      </trkpt>
      <trkpt lat="48.86324" lon="2.3177">
        <ele>72.7</ele>
        <time>2015-02-23T19:47:25.219Z</time>
      </trkpt>
      <trkpt lat="48.86324" lon="2.31757">
        <ele>72.6</ele>
        <time>2015-02-23T19:47:27.189Z</time>
      </trkpt>
      <trkpt lat="48.86324" lon="2.3175">
        <ele>73.1</ele>
        <time>2015-02-23T19:47:28.313Z</time>
      </trkpt>
      <trkpt lat="48.86324" lon="2.31738">
        <ele>73.3</ele>
        <time>2015-02-23T19:47:30.993Z</time>
      </trkpt>
      <trkpt lat="48.86324" lon="2.31732">
        <ele>73.5</ele>
        <time>2015-02-23T19:47:31.255Z</time>
      </trkpt>
      <trkpt lat="48.86323" lon="2.31718">
        <ele>72.9</ele>
        <time>2015-02-23T19:47:33.276Z</time>
      </trkpt>
      <trkpt lat="48.86323" lon="2.31712">
        <ele>72.7</ele>
        <time>2015-02-23T19:47:34.310Z</time>
      </trkpt>
      <trkpt lat="48.86322" lon="2.31698">
        <ele>73</ele>
        <time>2015-02-23T19:47:36.203Z</time>
      </trkpt>
      <trkpt lat="48.86322" lon="2.31692">
        <ele>73.1</ele>
        <time>2015-02-23T19:47:37.278Z</time>
      </trkpt>
      <trkpt lat="48.86321" lon="2.31678">
        <ele>73.4</ele>
        <time>2015-02-23T19:47:39.169Z</time>
      </trkpt>
      <trkpt lat="48.86321" lon="2.31672">
        <ele>73.5</ele>
        <time>2015-02-23T19:47:40.274Z</time>
      </trkpt>
      <trkpt lat="48.8632" lon="2.31658">
        <ele>72.9</ele>
        <time>2015-02-23T19:47:42.222Z</time>
      </trkpt>
      <trkpt lat="48.8632" lon="2.31652">
        <ele>73.1</ele>
        <time>2015-02-23T19:47:43.244Z</time>
      </trkpt>
      <trkpt lat="48.8632" lon="2.31639">
        <ele>73.1</ele>
        <time>2015-02-23T19:47:45.264Z</time>
      </trkpt>
      <trkpt lat="48.8632" lon="2.31633">
        <ele>73.3</ele>
        <time>2015-02-23T19:47:46.175Z</time>
      </trkpt>
      <trkpt lat="48.86319" lon="2.3162">
        <ele>73.6</ele>
        <time>2015-02-23T19:47:48.204Z</time>
      </trkpt>
      <trkpt lat="48.86319" lon="2.31614">
        <ele>73.5</ele>
        <time>2015-02-23T19:47:49.264Z</time>
      </trkpt>
      <trkpt lat="48.86319" lon="2.31602">
        <ele>73.5</ele>
        <time>2015-02-23T19:47:51.332Z</time>
      </trkpt>
      <trkpt lat="48.86319" lon="2.31597">
        <ele>73.4</ele>
        <time>2015-02-23T19:47:52.230Z</time>
      </trkpt>
      <trkpt lat="48.86318" lon="2.31587">
        <ele>73.3</ele>
        <time>2015-02-23T19:47:54.217Z</time>
      </trkpt>
      <trkpt lat="48.86318" lon="2.31582">
        <ele>73.6</ele>
        <time>2015-02-23T19:47:55.305Z</time>
      </trkpt>
      <trkpt lat="48.86319" lon="2.31572">
        <ele>73.6</ele>
        <time>2015-02-23T19:47:57.220Z</time>
      </trkpt>
      <trkpt lat="48.86319" lon="2.31567">
        <ele>73.7</ele>
        <time>2015-02-23T19:47:58.241Z</time>
      </trkpt>
      <trkpt lat="48.86319" lon="2.31556">
        <ele>73.8</ele>
        <time>2015-02-23T19:48:00.168Z</time>
      </trkpt>
      <trkpt lat="48.86318" lon="2.3155">
        <ele>73.7</ele>
        <time>2015-02-23T19:48:01.238Z</time>
      </trkpt>
      <trkpt lat="48.86318" lon="2.31539">
        <ele>74</ele>
        <time>2015-02-23T19:48:03.199Z</time>
      </trkpt>
      <trkpt lat="48.86318" lon="2.31534">
        <ele>74.1</ele>
        <time>2015-02-23T19:48:04.202Z</time>
      </trkpt>
      <trkpt lat="48.86317" lon="2.31523">
        <ele>74.2</ele>
        <time>2015-02-23T19:48:06.667Z</time>
      </trkpt>
      <trkpt lat="48.86317" lon="2.31517">
        <ele>74.3</ele>
        <time>2015-02-23T19:48:07.250Z</time>
      </trkpt>
      <trkpt lat="48.86317" lon="2.31507">
        <ele>74.3</ele>
        <time>2015-02-23T19:48:09.185Z</time>
      </trkpt>
      <trkpt lat="48.86318" lon="2.31501">
        <ele>74.1</ele>
        <time>2015-02-23T19:48:10.228Z</time>
      </trkpt>
      <trkpt lat="48.86317" lon="2.31489">
        <ele>74</ele>
        <time>2015-02-23T19:48:12.245Z</time>
      </trkpt>
      <trkpt lat="48.86317" lon="2.31483">
        <ele>73.9</ele>
        <time>2015-02-23T19:48:13.240Z</time>
      </trkpt>
      <trkpt lat="48.86316" lon="2.31471">
        <ele>74</ele>
        <time>2015-02-23T19:48:15.278Z</time>
      </trkpt>
      <trkpt lat="48.86316" lon="2.31465">
        <ele>74.1</ele>
        <time>2015-02-23T19:48:16.228Z</time>
      </trkpt>
      <trkpt lat="48.86316" lon="2.31452">
        <ele>74.3</ele>
        <time>2015-02-23T19:48:18.262Z</time>
      </trkpt>
      <trkpt lat="48.86316" lon="2.31446">
        <ele>74.4</ele>
        <time>2015-02-23T19:48:19.287Z</time>
      </trkpt>
      <trkpt lat="48.86315" lon="2.31433">
        <ele>74.7</ele>
        <time>2015-02-23T19:48:21.232Z</time>
      </trkpt>
      <trkpt lat="48.86315" lon="2.31427">
        <ele>74.8</ele>
        <time>2015-02-23T19:48:22.250Z</time>
      </trkpt>
      <trkpt lat="48.86314" lon="2.31414">
        <ele>75</ele>
        <time>2015-02-23T19:48:24.211Z</time>
      </trkpt>
      <trkpt lat="48.86314" lon="2.31408">
        <ele>75.1</ele>
        <time>2015-02-23T19:48:25.211Z</time>
      </trkpt>
      <trkpt lat="48.86315" lon="2.31398">
        <ele>75.4</ele>
        <time>2015-02-23T19:48:27.198Z</time>
      </trkpt>
      <trkpt lat="48.86315" lon="2.31394">
        <ele>75.5</ele>
        <time>2015-02-23T19:48:28.192Z</time>
      </trkpt>
      <trkpt lat="48.86317" lon="2.31389">
        <ele>75.6</ele>
        <time>2015-02-23T19:48:29.216Z</time>
      </trkpt>
      <trkpt lat="48.86326" lon="2.31318">
        <ele>75.2</ele>
        <time>2015-02-23T19:48:43.243Z</time>
      </trkpt>
      <trkpt lat="48.86323" lon="2.31303">
        <ele>74.9</ele>
        <time>2015-02-23T19:48:44.150Z</time>
      </trkpt>
      <trkpt lat="48.86321" lon="2.31291">
        <ele>74.5</ele>
        <time>2015-02-23T19:48:45.160Z</time>
      </trkpt>
      <trkpt lat="48.86319" lon="2.31282">
        <ele>74</ele>
        <time>2015-02-23T19:48:46.194Z</time>
      </trkpt>
      <trkpt lat="48.86318" lon="2.31272">
        <ele>73.2</ele>
        <time>2015-02-23T19:48:47.243Z</time>
      </trkpt>
      <trkpt lat="48.86316" lon="2.31263">
        <ele>72.6</ele>
        <time>2015-02-23T19:48:48.256Z</time>
      </trkpt>
      <trkpt lat="48.86315" lon="2.31256">
        <ele>72.6</ele>
        <time>2015-02-23T19:48:49.259Z</time>
      </trkpt>
      <trkpt lat="48.86314" lon="2.31249">
        <ele>72.6</ele>
        <time>2015-02-23T19:48:50.157Z</time>
      </trkpt>
      <trkpt lat="48.86313" lon="2.31235">
        <ele>72.3</ele>
        <time>2015-02-23T19:48:52.187Z</time>
      </trkpt>
      <trkpt lat="48.86312" lon="2.31228">
        <ele>72.4</ele>
        <time>2015-02-23T19:48:53.249Z</time>
      </trkpt>
      <trkpt lat="48.86311" lon="2.31214">
        <ele>73.6</ele>
        <time>2015-02-23T19:48:55.227Z</time>
      </trkpt>
      <trkpt lat="48.86311" lon="2.31209">
        <ele>73.9</ele>
        <time>2015-02-23T19:48:56.243Z</time>
      </trkpt>
      <trkpt lat="48.8631" lon="2.31195">
        <ele>73.9</ele>
        <time>2015-02-23T19:48:58.201Z</time>
      </trkpt>
      <trkpt lat="48.86309" lon="2.31189">
        <ele>74</ele>
        <time>2015-02-23T19:48:59.214Z</time>
      </trkpt>
      <trkpt lat="48.86308" lon="2.31175">
        <ele>74.2</ele>
        <time>2015-02-23T19:49:01.222Z</time>
      </trkpt>
      <trkpt lat="48.86308" lon="2.31168">
        <ele>74.5</ele>
        <time>2015-02-23T19:49:02.244Z</time>
      </trkpt>
      <trkpt lat="48.86307" lon="2.31155">
        <ele>75.2</ele>
        <time>2015-02-23T19:49:04.180Z</time>
      </trkpt>
      <trkpt lat="48.86307" lon="2.31148">
        <ele>75.1</ele>
        <time>2015-02-23T19:49:05.200Z</time>
      </trkpt>
      <trkpt lat="48.86306" lon="2.31135">
        <ele>75.7</ele>
        <time>2015-02-23T19:49:07.329Z</time>
      </trkpt>
      <trkpt lat="48.86307" lon="2.31128">
        <ele>76.6</ele>
        <time>2015-02-23T19:49:08.194Z</time>
      </trkpt>
      <trkpt lat="48.86307" lon="2.31115">
        <ele>77</ele>
        <time>2015-02-23T19:49:10.209Z</time>
      </trkpt>
      <trkpt lat="48.86306" lon="2.31107">
        <ele>77</ele>
        <time>2015-02-23T19:49:11.221Z</time>
      </trkpt>
      <trkpt lat="48.86306" lon="2.31101">
        <ele>76.8</ele>
        <time>2015-02-23T19:49:12.265Z</time>
      </trkpt>
      <trkpt lat="48.86305" lon="2.31093">
        <ele>76.8</ele>
        <time>2015-02-23T19:49:13.258Z</time>
      </trkpt>
      <trkpt lat="48.86304" lon="2.31086">
        <ele>76.7</ele>
        <time>2015-02-23T19:49:14.262Z</time>
      </trkpt>
      <trkpt lat="48.86303" lon="2.31078">
        <ele>76.8</ele>
        <time>2015-02-23T19:49:15.269Z</time>
      </trkpt>
      <trkpt lat="48.86302" lon="2.31071">
        <ele>76.9</ele>
        <time>2015-02-23T19:49:16.176Z</time>
      </trkpt>
      <trkpt lat="48.86302" lon="2.31064">
        <ele>77.1</ele>
        <time>2015-02-23T19:49:17.187Z</time>
      </trkpt>
      <trkpt lat="48.86301" lon="2.31051">
        <ele>77.1</ele>
        <time>2015-02-23T19:49:19.235Z</time>
      </trkpt>
      <trkpt lat="48.863" lon="2.31043">
        <ele>77.1</ele>
        <time>2015-02-23T19:49:20.207Z</time>
      </trkpt>
      <trkpt lat="48.863" lon="2.31036">
        <ele>77.2</ele>
        <time>2015-02-23T19:49:21.196Z</time>
      </trkpt>
      <trkpt lat="48.863" lon="2.31029">
        <ele>77.1</ele>
        <time>2015-02-23T19:49:22.258Z</time>
      </trkpt>
      <trkpt lat="48.863" lon="2.31022">
        <ele>76.8</ele>
        <time>2015-02-23T19:49:23.182Z</time>
      </trkpt>
      <trkpt lat="48.863" lon="2.31014">
        <ele>76.5</ele>
        <time>2015-02-23T19:49:24.189Z</time>
      </trkpt>
      <trkpt lat="48.863" lon="2.31007">
        <ele>76.4</ele>
        <time>2015-02-23T19:49:25.241Z</time>
      </trkpt>
      <trkpt lat="48.863" lon="2.31001">
        <ele>76.1</ele>
        <time>2015-02-23T19:49:26.197Z</time>
      </trkpt>
      <trkpt lat="48.863" lon="2.30988">
        <ele>76</ele>
        <time>2015-02-23T19:49:28.256Z</time>
      </trkpt>
      <trkpt lat="48.863" lon="2.30982">
        <ele>75.9</ele>
        <time>2015-02-23T19:49:29.277Z</time>
      </trkpt>
      <trkpt lat="48.86299" lon="2.30968">
        <ele>75.7</ele>
        <time>2015-02-23T19:49:31.265Z</time>
      </trkpt>
      <trkpt lat="48.863" lon="2.30962">
        <ele>75.7</ele>
        <time>2015-02-23T19:49:32.181Z</time>
      </trkpt>
      <trkpt lat="48.863" lon="2.30949">
        <ele>75.8</ele>
        <time>2015-02-23T19:49:34.235Z</time>
      </trkpt>
      <trkpt lat="48.863" lon="2.30943">
        <ele>76.1</ele>
        <time>2015-02-23T19:49:35.279Z</time>
      </trkpt>
      <trkpt lat="48.863" lon="2.30931">
        <ele>76.3</ele>
        <time>2015-02-23T19:49:37.225Z</time>
      </trkpt>
      <trkpt lat="48.863" lon="2.30925">
        <ele>76.5</ele>
        <time>2015-02-23T19:49:38.223Z</time>
      </trkpt>
      <trkpt lat="48.863" lon="2.30913">
        <ele>76.3</ele>
        <time>2015-02-23T19:49:40.260Z</time>
      </trkpt>
      <trkpt lat="48.863" lon="2.30907">
        <ele>75.9</ele>
        <time>2015-02-23T19:49:41.196Z</time>
      </trkpt>
      <trkpt lat="48.863" lon="2.30895">
        <ele>76.3</ele>
        <time>2015-02-23T19:49:43.230Z</time>
      </trkpt>
      <trkpt lat="48.863" lon="2.30889">
        <ele>76.3</ele>
        <time>2015-02-23T19:49:44.177Z</time>
      </trkpt>
      <trkpt lat="48.86299" lon="2.30876">
        <ele>76</ele>
        <time>2015-02-23T19:49:46.224Z</time>
      </trkpt>
      <trkpt lat="48.86299" lon="2.30869">
        <ele>76</ele>
        <time>2015-02-23T19:49:47.251Z</time>
      </trkpt>
      <trkpt lat="48.86299" lon="2.30856">
        <ele>76.3</ele>
        <time>2015-02-23T19:49:49.232Z</time>
      </trkpt>
      <trkpt lat="48.86299" lon="2.3085">
        <ele>76.1</ele>
        <time>2015-02-23T19:49:50.325Z</time>
      </trkpt>
      <trkpt lat="48.863" lon="2.30837">
        <ele>76.3</ele>
        <time>2015-02-23T19:49:52.223Z</time>
      </trkpt>
      <trkpt lat="48.863" lon="2.30831">
        <ele>76.3</ele>
        <time>2015-02-23T19:49:53.227Z</time>
      </trkpt>
      <trkpt lat="48.86299" lon="2.30818">
        <ele>76.2</ele>
        <time>2015-02-23T19:49:55.267Z</time>
      </trkpt>
      <trkpt lat="48.86298" lon="2.30811">
        <ele>76.1</ele>
        <time>2015-02-23T19:49:56.283Z</time>
      </trkpt>
      <trkpt lat="48.86298" lon="2.30798">
        <ele>76.2</ele>
        <time>2015-02-23T19:49:59.230Z</time>
      </trkpt>
      <trkpt lat="48.86297" lon="2.30791">
        <ele>76.2</ele>
        <time>2015-02-23T19:49:59.284Z</time>
      </trkpt>
      <trkpt lat="48.86296" lon="2.30778">
        <ele>76.4</ele>
        <time>2015-02-23T19:50:01.245Z</time>
      </trkpt>
      <trkpt lat="48.86296" lon="2.30772">
        <ele>76.6</ele>
        <time>2015-02-23T19:50:02.277Z</time>
      </trkpt>
      <trkpt lat="48.86295" lon="2.30761">
        <ele>77</ele>
        <time>2015-02-23T19:50:04.268Z</time>
      </trkpt>
      <trkpt lat="48.86294" lon="2.30755">
        <ele>77</ele>
        <time>2015-02-23T19:50:05.241Z</time>
      </trkpt>
      <trkpt lat="48.86294" lon="2.30745">
        <ele>76.9</ele>
        <time>2015-02-23T19:50:07.261Z</time>
      </trkpt>
      <trkpt lat="48.86294" lon="2.30739">
        <ele>77.2</ele>
        <time>2015-02-23T19:50:08.290Z</time>
      </trkpt>
      <trkpt lat="48.86293" lon="2.30727">
        <ele>77.3</ele>
        <time>2015-02-23T19:50:10.217Z</time>
      </trkpt>
      <trkpt lat="48.86292" lon="2.30722">
        <ele>77.5</ele>
        <time>2015-02-23T19:50:11.235Z</time>
      </trkpt>
      <trkpt lat="48.86292" lon="2.3071">
        <ele>77.8</ele>
        <time>2015-02-23T19:50:14.393Z</time>
      </trkpt>
      <trkpt lat="48.86292" lon="2.30705">
        <ele>77.9</ele>
        <time>2015-02-23T19:50:14.433Z</time>
      </trkpt>
      <trkpt lat="48.86291" lon="2.30694">
        <ele>77.7</ele>
        <time>2015-02-23T19:50:16.457Z</time>
      </trkpt>
      <trkpt lat="48.86291" lon="2.30688">
        <ele>77.6</ele>
        <time>2015-02-23T19:50:17.193Z</time>
      </trkpt>
      <trkpt lat="48.86291" lon="2.30677">
        <ele>77.5</ele>
        <time>2015-02-23T19:50:19.230Z</time>
      </trkpt>
      <trkpt lat="48.86291" lon="2.3067">
        <ele>77.3</ele>
        <time>2015-02-23T19:50:20.227Z</time>
      </trkpt>
      <trkpt lat="48.86291" lon="2.30658">
        <ele>77.4</ele>
        <time>2015-02-23T19:50:22.241Z</time>
      </trkpt>
      <trkpt lat="48.8629" lon="2.30652">
        <ele>77.5</ele>
        <time>2015-02-23T19:50:23.265Z</time>
      </trkpt>
      <trkpt lat="48.8629" lon="2.3064">
        <ele>77.5</ele>
        <time>2015-02-23T19:50:25.284Z</time>
      </trkpt>
      <trkpt lat="48.8629" lon="2.30633">
        <ele>77.4</ele>
        <time>2015-02-23T19:50:26.310Z</time>
      </trkpt>
      <trkpt lat="48.86289" lon="2.30621">
        <ele>77.3</ele>
        <time>2015-02-23T19:50:28.236Z</time>
      </trkpt>
      <trkpt lat="48.8629" lon="2.30615">
        <ele>77.1</ele>
        <time>2015-02-23T19:50:29.247Z</time>
      </trkpt>
      <trkpt lat="48.8629" lon="2.30603">
        <ele>76.9</ele>
        <time>2015-02-23T19:50:31.759Z</time>
      </trkpt>
      <trkpt lat="48.8629" lon="2.30596">
        <ele>76.9</ele>
        <time>2015-02-23T19:50:32.221Z</time>
      </trkpt>
      <trkpt lat="48.86291" lon="2.30585">
        <ele>77</ele>
        <time>2015-02-23T19:50:34.261Z</time>
      </trkpt>
      <trkpt lat="48.86291" lon="2.30579">
        <ele>77</ele>
        <time>2015-02-23T19:50:35.220Z</time>
      </trkpt>
      <trkpt lat="48.86291" lon="2.30569">
        <ele>76.9</ele>
        <time>2015-02-23T19:50:37.199Z</time>
      </trkpt>
      <trkpt lat="48.8629" lon="2.30565">
        <ele>76.7</ele>
        <time>2015-02-23T19:50:38.249Z</time>
      </trkpt>
      <trkpt lat="48.8629" lon="2.30553">
        <ele>76.7</ele>
        <time>2015-02-23T19:50:41.971Z</time>
      </trkpt>
      <trkpt lat="48.8629" lon="2.3055">
        <ele>76.9</ele>
        <time>2015-02-23T19:50:42.201Z</time>
      </trkpt>
      <trkpt lat="48.86292" lon="2.30539">
        <ele>76.5</ele>
        <time>2015-02-23T19:50:47.044Z</time>
      </trkpt>
      <trkpt lat="48.86292" lon="2.30536">
        <ele>76.3</ele>
        <time>2015-02-23T19:50:47.203Z</time>
      </trkpt>
      <trkpt lat="48.86294" lon="2.30523">
        <ele>76.1</ele>
        <time>2015-02-23T19:50:52.122Z</time>
      </trkpt>
      <trkpt lat="48.86295" lon="2.30519">
        <ele>76.1</ele>
        <time>2015-02-23T19:50:52.194Z</time>
      </trkpt>
      <trkpt lat="48.86295" lon="2.3051">
        <ele>76</ele>
        <time>2015-02-23T19:50:54.222Z</time>
      </trkpt>
      <trkpt lat="48.86294" lon="2.30505">
        <ele>76</ele>
        <time>2015-02-23T19:50:55.237Z</time>
      </trkpt>
      <trkpt lat="48.86294" lon="2.30495">
        <ele>75.9</ele>
        <time>2015-02-23T19:50:57.245Z</time>
      </trkpt>
      <trkpt lat="48.86294" lon="2.3049">
        <ele>75.9</ele>
        <time>2015-02-23T19:50:58.184Z</time>
      </trkpt>
      <trkpt lat="48.86293" lon="2.30479">
        <ele>75.6</ele>
        <time>2015-02-23T19:51:00.204Z</time>
      </trkpt>
      <trkpt lat="48.86293" lon="2.30474">
        <ele>75.7</ele>
        <time>2015-02-23T19:51:01.260Z</time>
      </trkpt>
      <trkpt lat="48.86292" lon="2.30462">
        <ele>75.6</ele>
        <time>2015-02-23T19:51:03.183Z</time>
      </trkpt>
      <trkpt lat="48.86292" lon="2.30456">
        <ele>75.6</ele>
        <time>2015-02-23T19:51:04.185Z</time>
      </trkpt>
      <trkpt lat="48.86292" lon="2.30443">
        <ele>75.3</ele>
        <time>2015-02-23T19:51:07.357Z</time>
      </trkpt>
      <trkpt lat="48.86292" lon="2.30437">
        <ele>75.5</ele>
        <time>2015-02-23T19:51:07.391Z</time>
      </trkpt>
      <trkpt lat="48.86292" lon="2.30425">
        <ele>75.3</ele>
        <time>2015-02-23T19:51:09.187Z</time>
      </trkpt>
      <trkpt lat="48.86292" lon="2.30419">
        <ele>75.3</ele>
        <time>2015-02-23T19:51:10.219Z</time>
      </trkpt>
      <trkpt lat="48.86292" lon="2.30409">
        <ele>75.4</ele>
        <time>2015-02-23T19:51:12.374Z</time>
      </trkpt>
      <trkpt lat="48.86292" lon="2.30404">
        <ele>75.2</ele>
        <time>2015-02-23T19:51:13.273Z</time>
      </trkpt>
      <trkpt lat="48.86292" lon="2.30394">
        <ele>75</ele>
        <time>2015-02-23T19:51:15.221Z</time>
      </trkpt>
      <trkpt lat="48.86292" lon="2.30389">
        <ele>75</ele>
        <time>2015-02-23T19:51:16.220Z</time>
      </trkpt>
      <trkpt lat="48.86291" lon="2.3038">
        <ele>75.4</ele>
        <time>2015-02-23T19:51:18.193Z</time>
      </trkpt>
      <trkpt lat="48.86291" lon="2.30375">
        <ele>75.7</ele>
        <time>2015-02-23T19:51:19.228Z</time>
      </trkpt>
      <trkpt lat="48.86292" lon="2.30364">
        <ele>76.1</ele>
        <time>2015-02-23T19:51:21.406Z</time>
      </trkpt>
      <trkpt lat="48.86292" lon="2.30358">
        <ele>75.9</ele>
        <time>2015-02-23T19:51:22.168Z</time>
      </trkpt>
      <trkpt lat="48.86291" lon="2.30345">
        <ele>75.7</ele>
        <time>2015-02-23T19:51:24.274Z</time>
      </trkpt>
      <trkpt lat="48.86291" lon="2.30338">
        <ele>75.7</ele>
        <time>2015-02-23T19:51:25.270Z</time>
      </trkpt>
      <trkpt lat="48.86291" lon="2.30326">
        <ele>75.7</ele>
        <time>2015-02-23T19:51:27.232Z</time>
      </trkpt>
      <trkpt lat="48.86292" lon="2.3032">
        <ele>75.7</ele>
        <time>2015-02-23T19:51:28.290Z</time>
      </trkpt>
      <trkpt lat="48.86292" lon="2.30312">
        <ele>75.7</ele>
        <time>2015-02-23T19:51:29.284Z</time>
      </trkpt>
      <trkpt lat="48.86291" lon="2.30305">
        <ele>75.8</ele>
        <time>2015-02-23T19:51:30.190Z</time>
      </trkpt>
      <trkpt lat="48.86291" lon="2.30298">
        <ele>75.8</ele>
        <time>2015-02-23T19:51:31.553Z</time>
      </trkpt>
      <trkpt lat="48.86292" lon="2.3029">
        <ele>75.9</ele>
        <time>2015-02-23T19:51:32.181Z</time>
      </trkpt>
      <trkpt lat="48.86292" lon="2.30277">
        <ele>75.8</ele>
        <time>2015-02-23T19:51:34.157Z</time>
      </trkpt>
      <trkpt lat="48.86292" lon="2.30269">
        <ele>75.7</ele>
        <time>2015-02-23T19:51:35.167Z</time>
      </trkpt>
      <trkpt lat="48.86292" lon="2.30262">
        <ele>75.7</ele>
        <time>2015-02-23T19:51:36.675Z</time>
      </trkpt>
      <trkpt lat="48.86291" lon="2.30254">
        <ele>75.7</ele>
        <time>2015-02-23T19:51:37.230Z</time>
      </trkpt>
      <trkpt lat="48.86291" lon="2.30246">
        <ele>75.8</ele>
        <time>2015-02-23T19:51:38.254Z</time>
      </trkpt>
      <trkpt lat="48.8629" lon="2.30239">
        <ele>76</ele>
        <time>2015-02-23T19:51:39.257Z</time>
      </trkpt>
      <trkpt lat="48.86289" lon="2.30227">
        <ele>76.2</ele>
        <time>2015-02-23T19:51:40.158Z</time>
      </trkpt>
      <trkpt lat="48.86288" lon="2.30219">
        <ele>76.5</ele>
        <time>2015-02-23T19:51:41.179Z</time>
      </trkpt>
      <trkpt lat="48.86288" lon="2.30208">
        <ele>76.4</ele>
        <time>2015-02-23T19:51:43.282Z</time>
      </trkpt>
      <trkpt lat="48.86288" lon="2.30205">
        <ele>76.4</ele>
        <time>2015-02-23T19:51:44.329Z</time>
      </trkpt>
      <trkpt lat="48.86288" lon="2.30201">
        <ele>76.4</ele>
        <time>2015-02-23T19:51:45.249Z</time>
      </trkpt>
      <trkpt lat="48.86288" lon="2.30177">
        <ele>76.3</ele>
        <time>2015-02-23T19:51:52.223Z</time>
      </trkpt>
      <trkpt lat="48.86289" lon="2.30171">
        <ele>76.3</ele>
        <time>2015-02-23T19:51:53.238Z</time>
      </trkpt>
      <trkpt lat="48.8629" lon="2.30163">
        <ele>76.3</ele>
        <time>2015-02-23T19:51:54.269Z</time>
      </trkpt>
      <trkpt lat="48.86289" lon="2.30155">
        <ele>76.4</ele>
        <time>2015-02-23T19:51:55.229Z</time>
      </trkpt>
      <trkpt lat="48.86288" lon="2.30146">
        <ele>76.4</ele>
        <time>2015-02-23T19:51:56.237Z</time>
      </trkpt>
      <trkpt lat="48.86287" lon="2.30138">
        <ele>76.4</ele>
        <time>2015-02-23T19:51:57.302Z</time>
      </trkpt>
      <trkpt lat="48.86286" lon="2.30131">
        <ele>76.4</ele>
        <time>2015-02-23T19:51:58.220Z</time>
      </trkpt>
      <trkpt lat="48.86286" lon="2.30118">
        <ele>76.7</ele>
        <time>2015-02-23T19:52:00.253Z</time>
      </trkpt>
      <trkpt lat="48.86285" lon="2.30113">
        <ele>76.9</ele>
        <time>2015-02-23T19:52:01.259Z</time>
      </trkpt>
      <trkpt lat="48.86284" lon="2.30103">
        <ele>77.1</ele>
        <time>2015-02-23T19:52:03.299Z</time>
      </trkpt>
      <trkpt lat="48.86284" lon="2.30098">
        <ele>77.1</ele>
        <time>2015-02-23T19:52:04.195Z</time>
      </trkpt>
      <trkpt lat="48.86283" lon="2.30087">
        <ele>77.5</ele>
        <time>2015-02-23T19:52:06.959Z</time>
      </trkpt>
      <trkpt lat="48.86282" lon="2.30082">
        <ele>77.5</ele>
        <time>2015-02-23T19:52:07.254Z</time>
      </trkpt>
      <trkpt lat="48.8628" lon="2.30069">
        <ele>77.5</ele>
        <time>2015-02-23T19:52:10.315Z</time>
      </trkpt>
      <trkpt lat="48.8628" lon="2.30066">
        <ele>77.4</ele>
        <time>2015-02-23T19:52:11.185Z</time>
      </trkpt>
      <trkpt lat="48.86278" lon="2.30054">
        <ele>77.1</ele>
        <time>2015-02-23T19:52:15.228Z</time>
      </trkpt>
      <trkpt lat="48.86278" lon="2.30051">
        <ele>77.1</ele>
        <time>2015-02-23T19:52:16.243Z</time>
      </trkpt>
      <trkpt lat="48.86276" lon="2.3004">
        <ele>77.3</ele>
        <time>2015-02-23T19:52:20.280Z</time>
      </trkpt>
      <trkpt lat="48.86276" lon="2.30036">
        <ele>77.6</ele>
        <time>2015-02-23T19:52:21.312Z</time>
      </trkpt>
      <trkpt lat="48.86275" lon="2.30025">
        <ele>77.9</ele>
        <time>2015-02-23T19:52:24.157Z</time>
      </trkpt>
      <trkpt lat="48.86274" lon="2.30021">
        <ele>78.1</ele>
        <time>2015-02-23T19:52:25.284Z</time>
      </trkpt>
      <trkpt lat="48.86272" lon="2.30009">
        <ele>78.5</ele>
        <time>2015-02-23T19:52:29.258Z</time>
      </trkpt>
      <trkpt lat="48.86271" lon="2.30006">
        <ele>78.5</ele>
        <time>2015-02-23T19:52:30.176Z</time>
      </trkpt>
      <trkpt lat="48.86269" lon="2.29996">
        <ele>78.5</ele>
        <time>2015-02-23T19:52:34.195Z</time>
      </trkpt>
      <trkpt lat="48.86268" lon="2.29993">
        <ele>78.8</ele>
        <time>2015-02-23T19:52:35.212Z</time>
      </trkpt>
      <trkpt lat="48.86264" lon="2.29981">
        <ele>78.5</ele>
        <time>2015-02-23T19:52:40.272Z</time>
      </trkpt>
      <trkpt lat="48.86263" lon="2.29979">
        <ele>78.4</ele>
        <time>2015-02-23T19:52:41.151Z</time>
      </trkpt>
      <trkpt lat="48.86258" lon="2.29969">
        <ele>78</ele>
        <time>2015-02-23T19:52:45.624Z</time>
      </trkpt>
      <trkpt lat="48.86256" lon="2.29965">
        <ele>78</ele>
        <time>2015-02-23T19:52:46.254Z</time>
      </trkpt>
      <trkpt lat="48.86256" lon="2.29964">
        <ele>78.2</ele>
        <time>2015-02-23T19:52:47.182Z</time>
      </trkpt>
      <trkpt lat="48.86255" lon="2.29963">
        <ele>78.2</ele>
        <time>2015-02-23T19:52:48.244Z</time>
      </trkpt>
      <trkpt lat="48.86254" lon="2.29963">
        <ele>78.8</ele>
        <time>2015-02-23T19:53:12.215Z</time>
      </trkpt>
      <trkpt lat="48.86248" lon="2.29966">
        <ele>80.6</ele>
        <time>2015-02-23T19:53:13.227Z</time>
      </trkpt>
      <trkpt lat="48.86244" lon="2.29955">
        <ele>83.4</ele>
        <time>2015-02-23T19:53:59.230Z</time>
      </trkpt>
      <trkpt lat="48.86242" lon="2.29953">
        <ele>83.3</ele>
        <time>2015-02-23T19:54:00.268Z</time>
      </trkpt>
      <trkpt lat="48.86236" lon="2.29943">
        <ele>83.4</ele>
        <time>2015-02-23T19:54:04.146Z</time>
      </trkpt>
      <trkpt lat="48.86234" lon="2.2994">
        <ele>83.5</ele>
        <time>2015-02-23T19:54:05.174Z</time>
      </trkpt>
      <trkpt lat="48.86228" lon="2.29931">
        <ele>83.6</ele>
        <time>2015-02-23T19:54:08.222Z</time>
      </trkpt>
      <trkpt lat="48.86227" lon="2.29927">
        <ele>83.6</ele>
        <time>2015-02-23T19:54:09.244Z</time>
      </trkpt>
      <trkpt lat="48.86223" lon="2.29918">
        <ele>83.6</ele>
        <time>2015-02-23T19:54:11.161Z</time>
      </trkpt>
      <trkpt lat="48.86222" lon="2.29913">
        <ele>83.7</ele>
        <time>2015-02-23T19:54:12.204Z</time>
      </trkpt>
      <trkpt lat="48.86219" lon="2.29902">
        <ele>83.7</ele>
        <time>2015-02-23T19:54:14.165Z</time>
      </trkpt>
      <trkpt lat="48.86218" lon="2.29896">
        <ele>83.5</ele>
        <time>2015-02-23T19:54:15.177Z</time>
      </trkpt>
      <trkpt lat="48.86215" lon="2.29887">
        <ele>83.5</ele>
        <time>2015-02-23T19:54:17.242Z</time>
      </trkpt>
      <trkpt lat="48.86213" lon="2.29882">
        <ele>83.5</ele>
        <time>2015-02-23T19:54:18.195Z</time>
      </trkpt>
      <trkpt lat="48.8621" lon="2.29874">
        <ele>83.8</ele>
        <time>2015-02-23T19:54:20.220Z</time>
      </trkpt>
      <trkpt lat="48.86208" lon="2.2987">
        <ele>84</ele>
        <time>2015-02-23T19:54:21.229Z</time>
      </trkpt>
      <trkpt lat="48.86204" lon="2.29862">
        <ele>84.5</ele>
        <time>2015-02-23T19:54:23.265Z</time>
      </trkpt>
      <trkpt lat="48.86203" lon="2.29858">
        <ele>84.5</ele>
        <time>2015-02-23T19:54:24.178Z</time>
      </trkpt>
      <trkpt lat="48.862" lon="2.2985">
        <ele>84.5</ele>
        <time>2015-02-23T19:54:26.218Z</time>
      </trkpt>
      <trkpt lat="48.86199" lon="2.29845">
        <ele>84.6</ele>
        <time>2015-02-23T19:54:27.226Z</time>
      </trkpt>
      <trkpt lat="48.86196" lon="2.29835">
        <ele>84.8</ele>
        <time>2015-02-23T19:54:29.168Z</time>
      </trkpt>
      <trkpt lat="48.86195" lon="2.2983">
        <ele>84.8</ele>
        <time>2015-02-23T19:54:30.177Z</time>
      </trkpt>
      <trkpt lat="48.86192" lon="2.29821">
        <ele>84.4</ele>
        <time>2015-02-23T19:54:32.239Z</time>
      </trkpt>
      <trkpt lat="48.86191" lon="2.29817">
        <ele>84.5</ele>
        <time>2015-02-23T19:54:33.215Z</time>
      </trkpt>
      <trkpt lat="48.86189" lon="2.29808">
        <ele>84.2</ele>
        <time>2015-02-23T19:54:35.171Z</time>
      </trkpt>
      <trkpt lat="48.86187" lon="2.29803">
        <ele>84.2</ele>
        <time>2015-02-23T19:54:36.174Z</time>
      </trkpt>
      <trkpt lat="48.86182" lon="2.29792">
        <ele>84.7</ele>
        <time>2015-02-23T19:54:38.217Z</time>
      </trkpt>
      <trkpt lat="48.86181" lon="2.29788">
        <ele>84.5</ele>
        <time>2015-02-23T19:54:39.227Z</time>
      </trkpt>
      <trkpt lat="48.86179" lon="2.29775">
        <ele>84</ele>
        <time>2015-02-23T19:54:44.196Z</time>
      </trkpt>
      <trkpt lat="48.8618" lon="2.29773">
        <ele>83.5</ele>
        <time>2015-02-23T19:54:45.208Z</time>
      </trkpt>
      <trkpt lat="48.86186" lon="2.29764">
        <ele>80.3</ele>
        <time>2015-02-23T19:54:50.206Z</time>
      </trkpt>
      <trkpt lat="48.86187" lon="2.29762">
        <ele>79.3</ele>
        <time>2015-02-23T19:54:51.160Z</time>
      </trkpt>
      <trkpt lat="48.86192" lon="2.29752">
        <ele>79.1</ele>
        <time>2015-02-23T19:55:00.339Z</time>
      </trkpt>
      <trkpt lat="48.86194" lon="2.2975">
        <ele>79</ele>
        <time>2015-02-23T19:55:01.310Z</time>
      </trkpt>
      <trkpt lat="48.86199" lon="2.29745">
        <ele>78.9</ele>
        <time>2015-02-23T19:55:04.170Z</time>
      </trkpt>
      <trkpt lat="48.86201" lon="2.29742">
        <ele>78.9</ele>
        <time>2015-02-23T19:55:05.181Z</time>
      </trkpt>
      <trkpt lat="48.86208" lon="2.29737">
        <ele>78.8</ele>
        <time>2015-02-23T19:55:08.229Z</time>
      </trkpt>
      <trkpt lat="48.8621" lon="2.29735">
        <ele>78.8</ele>
        <time>2015-02-23T19:55:09.239Z</time>
      </trkpt>
      <trkpt lat="48.86218" lon="2.29728">
        <ele>79</ele>
        <time>2015-02-23T19:55:12.191Z</time>
      </trkpt>
      <trkpt lat="48.8622" lon="2.29726">
        <ele>79.2</ele>
        <time>2015-02-23T19:55:13.201Z</time>
      </trkpt>
      <trkpt lat="48.86227" lon="2.2972">
        <ele>79.3</ele>
        <time>2015-02-23T19:55:16.249Z</time>
      </trkpt>
      <trkpt lat="48.86229" lon="2.29719">
        <ele>79.2</ele>
        <time>2015-02-23T19:55:17.268Z</time>
      </trkpt>
      <trkpt lat="48.86236" lon="2.29712">
        <ele>79.8</ele>
        <time>2015-02-23T19:55:21.258Z</time>
      </trkpt>
      <trkpt lat="48.86238" lon="2.2971">
        <ele>80.2</ele>
        <time>2015-02-23T19:55:22.153Z</time>
      </trkpt>
      <trkpt lat="48.86245" lon="2.29703">
        <ele>81.5</ele>
        <time>2015-02-23T19:55:26.176Z</time>
      </trkpt>
      <trkpt lat="48.86246" lon="2.29701">
        <ele>82.3</ele>
        <time>2015-02-23T19:55:27.176Z</time>
      </trkpt>
      <trkpt lat="48.86254" lon="2.29695">
        <ele>84.2</ele>
        <time>2015-02-23T19:55:32.174Z</time>
      </trkpt>
      <trkpt lat="48.86256" lon="2.29694">
        <ele>84.6</ele>
        <time>2015-02-23T19:55:33.187Z</time>
      </trkpt>
      <trkpt lat="48.86261" lon="2.2969">
        <ele>84.7</ele>
        <time>2015-02-23T19:55:36.158Z</time>
      </trkpt>
      <trkpt lat="48.86264" lon="2.29687">
        <ele>83.8</ele>
        <time>2015-02-23T19:55:37.218Z</time>
      </trkpt>
      <trkpt lat="48.8627" lon="2.29683">
        <ele>83.1</ele>
        <time>2015-02-23T19:55:39.241Z</time>
      </trkpt>
      <trkpt lat="48.86273" lon="2.29681">
        <ele>82.9</ele>
        <time>2015-02-23T19:55:40.265Z</time>
      </trkpt>
      <trkpt lat="48.8628" lon="2.29674">
        <ele>82.3</ele>
        <time>2015-02-23T19:55:43.213Z</time>
      </trkpt>
      <trkpt lat="48.86282" lon="2.29672">
        <ele>82.1</ele>
        <time>2015-02-23T19:55:44.222Z</time>
      </trkpt>
      <trkpt lat="48.86288" lon="2.29665">
        <ele>82.3</ele>
        <time>2015-02-23T19:55:47.249Z</time>
      </trkpt>
      <trkpt lat="48.8629" lon="2.29663">
        <ele>82.2</ele>
        <time>2015-02-23T19:55:48.196Z</time>
      </trkpt>
      <trkpt lat="48.86298" lon="2.29657">
        <ele>82</ele>
        <time>2015-02-23T19:55:52.176Z</time>
      </trkpt>
      <trkpt lat="48.86299" lon="2.29655">
        <ele>82</ele>
        <time>2015-02-23T19:55:53.200Z</time>
      </trkpt>
      <trkpt lat="48.86306" lon="2.2965">
        <ele>82.5</ele>
        <time>2015-02-23T19:55:57.207Z</time>
      </trkpt>
      <trkpt lat="48.86308" lon="2.29649">
        <ele>82.7</ele>
        <time>2015-02-23T19:55:58.188Z</time>
      </trkpt>
      <trkpt lat="48.86308" lon="2.29649">
        <ele>83.1</ele>
        <time>2015-02-23T19:55:59.206Z</time>
      </trkpt>
      <trkpt lat="48.86308" lon="2.29649">
        <ele>83.2</ele>
        <time>2015-02-23T19:56:00.235Z</time>
      </trkpt>
      <trkpt lat="48.86309" lon="2.29649">
        <ele>83.5</ele>
        <time>2015-02-23T19:56:01.276Z</time>
      </trkpt>
      <trkpt lat="48.86309" lon="2.29649">
        <ele>83.6</ele>
        <time>2015-02-23T19:56:02.159Z</time>
      </trkpt>
      <trkpt lat="48.8631" lon="2.29649">
        <ele>83.9</ele>
        <time>2015-02-23T19:56:04.211Z</time>
      </trkpt>
      <trkpt lat="48.86311" lon="2.29649">
        <ele>84</ele>
        <time>2015-02-23T19:56:05.229Z</time>
      </trkpt>
      <trkpt lat="48.86311" lon="2.2965">
        <ele>84.1</ele>
        <time>2015-02-23T19:56:06.262Z</time>
      </trkpt>
      <trkpt lat="48.86312" lon="2.2965">
        <ele>84.2</ele>
        <time>2015-02-23T19:56:07.286Z</time>
      </trkpt>
      <trkpt lat="48.86319" lon="2.29643">
        <ele>84.4</ele>
        <time>2015-02-23T19:56:16.177Z</time>
      </trkpt>
      <trkpt lat="48.8632" lon="2.29642">
        <ele>84.3</ele>
        <time>2015-02-23T19:56:17.283Z</time>
      </trkpt>
      <trkpt lat="48.86322" lon="2.2964">
        <ele>84.4</ele>
        <time>2015-02-23T19:56:21.509Z</time>
      </trkpt>
      <trkpt lat="48.86322" lon="2.2964">
        <ele>84.3</ele>
        <time>2015-02-23T19:56:22.251Z</time>
      </trkpt>
      <trkpt lat="48.86322" lon="2.2964">
        <ele>84.2</ele>
        <time>2015-02-23T19:56:55.214Z</time>
      </trkpt>
      <trkpt lat="48.86322" lon="2.29646">
        <ele>83.3</ele>
        <time>2015-02-23T19:56:56.213Z</time>
      </trkpt>
      <trkpt lat="48.8633" lon="2.29653">
        <ele>82.8</ele>
        <time>2015-02-23T19:57:05.202Z</time>
      </trkpt>
      <trkpt lat="48.86331" lon="2.29652">
        <ele>82.9</ele>
        <time>2015-02-23T19:57:06.215Z</time>
      </trkpt>
      <trkpt lat="48.86337" lon="2.29642">
        <ele>82.4</ele>
        <time>2015-02-23T19:57:12.254Z</time>
      </trkpt>
      <trkpt lat="48.86339" lon="2.2964">
        <ele>82.4</ele>
        <time>2015-02-23T19:57:13.278Z</time>
      </trkpt>
      <trkpt lat="48.86347" lon="2.29637">
        <ele>82.7</ele>
        <time>2015-02-23T19:57:17.186Z</time>
      </trkpt>
      <trkpt lat="48.86349" lon="2.29636">
        <ele>83</ele>
        <time>2015-02-23T19:57:18.196Z</time>
      </trkpt>
      <trkpt lat="48.86355" lon="2.2963">
        <ele>81.7</ele>
        <time>2015-02-23T19:57:20.229Z</time>
      </trkpt>
      <trkpt lat="48.86357" lon="2.29628">
        <ele>81.4</ele>
        <time>2015-02-23T19:57:21.271Z</time>
      </trkpt>
      <trkpt lat="48.86365" lon="2.29624">
        <ele>82.1</ele>
        <time>2015-02-23T19:57:26.219Z</time>
      </trkpt>
      <trkpt lat="48.86366" lon="2.29623">
        <ele>82.4</ele>
        <time>2015-02-23T19:57:27.138Z</time>
      </trkpt>
      <trkpt lat="48.86374" lon="2.29624">
        <ele>83.5</ele>
        <time>2015-02-23T19:57:31.213Z</time>
      </trkpt>
      <trkpt lat="48.86376" lon="2.29623">
        <ele>83.9</ele>
        <time>2015-02-23T19:57:32.243Z</time>
      </trkpt>
      <trkpt lat="48.86383" lon="2.29616">
        <ele>85.7</ele>
        <time>2015-02-23T19:57:36.164Z</time>
      </trkpt>
      <trkpt lat="48.86384" lon="2.29615">
        <ele>86</ele>
        <time>2015-02-23T19:57:37.177Z</time>
      </trkpt>
      <trkpt lat="48.86389" lon="2.29609">
        <ele>87.5</ele>
        <time>2015-02-23T19:57:41.194Z</time>
      </trkpt>
      <trkpt lat="48.86393" lon="2.29607">
        <ele>87.9</ele>
        <time>2015-02-23T19:57:42.228Z</time>
      </trkpt>
      <trkpt lat="48.86402" lon="2.29603">
        <ele>88.7</ele>
        <time>2015-02-23T19:57:45.166Z</time>
      </trkpt>
      <trkpt lat="48.86404" lon="2.29603">
        <ele>89</ele>
        <time>2015-02-23T19:57:46.213Z</time>
      </trkpt>
      <trkpt lat="48.86412" lon="2.29602">
        <ele>89.3</ele>
        <time>2015-02-23T19:57:50.216Z</time>
      </trkpt>
      <trkpt lat="48.86414" lon="2.29602">
        <ele>89.4</ele>
        <time>2015-02-23T19:57:51.159Z</time>
      </trkpt>
      <trkpt lat="48.8642" lon="2.29598">
        <ele>90.7</ele>
        <time>2015-02-23T19:57:57.262Z</time>
      </trkpt>
      <trkpt lat="48.86422" lon="2.29598">
        <ele>90.8</ele>
        <time>2015-02-23T19:57:58.365Z</time>
      </trkpt>
      <trkpt lat="48.86426" lon="2.29595">
        <ele>91.1</ele>
        <time>2015-02-23T19:58:02.190Z</time>
      </trkpt>
      <trkpt lat="48.86427" lon="2.29594">
        <ele>91.1</ele>
        <time>2015-02-23T19:58:03.188Z</time>
      </trkpt>
      <trkpt lat="48.86428" lon="2.29594">
        <ele>91.1</ele>
        <time>2015-02-23T19:58:04.208Z</time>
      </trkpt>
      <trkpt lat="48.86434" lon="2.29592">
        <ele>91.9</ele>
        <time>2015-02-23T19:58:14.149Z</time>
      </trkpt>
      <trkpt lat="48.86438" lon="2.2959">
        <ele>92.1</ele>
        <time>2015-02-23T19:58:15.166Z</time>
      </trkpt>
      <trkpt lat="48.8644" lon="2.29587">
        <ele>92.3</ele>
        <time>2015-02-23T19:58:18.212Z</time>
      </trkpt>
      <trkpt lat="48.86441" lon="2.29586">
        <ele>92.6</ele>
        <time>2015-02-23T19:58:19.217Z</time>
      </trkpt>
      <trkpt lat="48.86443" lon="2.29584">
        <ele>92.8</ele>
        <time>2015-02-23T19:58:20.233Z</time>
      </trkpt>
      <trkpt lat="48.86449" lon="2.29577">
        <ele>92.9</ele>
        <time>2015-02-23T19:58:26.588Z</time>
      </trkpt>
      <trkpt lat="48.86451" lon="2.29576">
        <ele>92.8</ele>
        <time>2015-02-23T19:58:27.167Z</time>
      </trkpt>
      <trkpt lat="48.86451" lon="2.29576">
        <ele>92.8</ele>
        <time>2015-02-23T19:58:33.218Z</time>
      </trkpt>
      <trkpt lat="48.86459" lon="2.29567">
        <ele>89.1</ele>
        <time>2015-02-23T19:58:34.232Z</time>
      </trkpt>
      <trkpt lat="48.86463" lon="2.29566">
        <ele>88.8</ele>
        <time>2015-02-23T19:58:37.276Z</time>
      </trkpt>
      <trkpt lat="48.86465" lon="2.29568">
        <ele>88.2</ele>
        <time>2015-02-23T19:58:38.167Z</time>
      </trkpt>
      <trkpt lat="48.86465" lon="2.29568">
        <ele>88</ele>
        <time>2015-02-23T19:59:24.210Z</time>
      </trkpt>
      <trkpt lat="48.86475" lon="2.29571">
        <ele>90.8</ele>
        <time>2015-02-23T19:59:25.211Z</time>
      </trkpt>
      <trkpt lat="48.86479" lon="2.29581">
        <ele>90.4</ele>
        <time>2015-02-23T19:59:30.162Z</time>
      </trkpt>
      <trkpt lat="48.86479" lon="2.29585">
        <ele>90.5</ele>
        <time>2015-02-23T19:59:31.221Z</time>
      </trkpt>
      <trkpt lat="48.86478" lon="2.29598">
        <ele>90.8</ele>
        <time>2015-02-23T19:59:34.174Z</time>
      </trkpt>
      <trkpt lat="48.86478" lon="2.29603">
        <ele>90.9</ele>
        <time>2015-02-23T19:59:35.298Z</time>
      </trkpt>
      <trkpt lat="48.86478" lon="2.29613">
        <ele>90.9</ele>
        <time>2015-02-23T19:59:37.231Z</time>
      </trkpt>
      <trkpt lat="48.86478" lon="2.29619">
        <ele>90.9</ele>
        <time>2015-02-23T19:59:38.234Z</time>
      </trkpt>
      <trkpt lat="48.86478" lon="2.29625">
        <ele>90.8</ele>
        <time>2015-02-23T19:59:39.241Z</time>
      </trkpt>
      <trkpt lat="48.86479" lon="2.29633">
        <ele>90.6</ele>
        <time>2015-02-23T19:59:40.344Z</time>
      </trkpt>
      <trkpt lat="48.86478" lon="2.29646">
        <ele>90.8</ele>
        <time>2015-02-23T19:59:42.161Z</time>
      </trkpt>
      <trkpt lat="48.86479" lon="2.29652">
        <ele>90.8</ele>
        <time>2015-02-23T19:59:43.234Z</time>
      </trkpt>
      <trkpt lat="48.86479" lon="2.29659">
        <ele>90.9</ele>
        <time>2015-02-23T19:59:44.245Z</time>
      </trkpt>
      <trkpt lat="48.86479" lon="2.29666">
        <ele>91</ele>
        <time>2015-02-23T19:59:45.259Z</time>
      </trkpt>
      <trkpt lat="48.86479" lon="2.29674">
        <ele>91</ele>
        <time>2015-02-23T19:59:46.842Z</time>
      </trkpt>
      <trkpt lat="48.86479" lon="2.29681">
        <ele>91.2</ele>
        <time>2015-02-23T19:59:47.229Z</time>
      </trkpt>
      <trkpt lat="48.86478" lon="2.29688">
        <ele>91.4</ele>
        <time>2015-02-23T19:59:48.235Z</time>
      </trkpt>
      <trkpt lat="48.86477" lon="2.29695">
        <ele>91.5</ele>
        <time>2015-02-23T19:59:49.251Z</time>
      </trkpt>
      <trkpt lat="48.86476" lon="2.29701">
        <ele>91.5</ele>
        <time>2015-02-23T19:59:50.164Z</time>
      </trkpt>
      <trkpt lat="48.86475" lon="2.29709">
        <ele>91.5</ele>
        <time>2015-02-23T19:59:51.169Z</time>
      </trkpt>
      <trkpt lat="48.86474" lon="2.29716">
        <ele>91.7</ele>
        <time>2015-02-23T19:59:52.178Z</time>
      </trkpt>
      <trkpt lat="48.86473" lon="2.29723">
        <ele>91.8</ele>
        <time>2015-02-23T19:59:53.189Z</time>
      </trkpt>
      <trkpt lat="48.86473" lon="2.29731">
        <ele>91.9</ele>
        <time>2015-02-23T19:59:54.199Z</time>
      </trkpt>
      <trkpt lat="48.86472" lon="2.29738">
        <ele>92</ele>
        <time>2015-02-23T19:59:55.199Z</time>
      </trkpt>
      <trkpt lat="48.8647" lon="2.29745">
        <ele>92.3</ele>
        <time>2015-02-23T19:59:56.928Z</time>
      </trkpt>
      <trkpt lat="48.86469" lon="2.29751">
        <ele>92.6</ele>
        <time>2015-02-23T19:59:57.237Z</time>
      </trkpt>
      <trkpt lat="48.86467" lon="2.29758">
        <ele>92.8</ele>
        <time>2015-02-23T19:59:58.145Z</time>
      </trkpt>
      <trkpt lat="48.86465" lon="2.29764">
        <ele>93</ele>
        <time>2015-02-23T19:59:59.156Z</time>
      </trkpt>
      <trkpt lat="48.86464" lon="2.29771">
        <ele>93.2</ele>
        <time>2015-02-23T20:00:00.156Z</time>
      </trkpt>
      <trkpt lat="48.86462" lon="2.29778">
        <ele>93.2</ele>
        <time>2015-02-23T20:00:01.229Z</time>
      </trkpt>
      <trkpt lat="48.86461" lon="2.29785">
        <ele>93.3</ele>
        <time>2015-02-23T20:00:02.293Z</time>
      </trkpt>
      <trkpt lat="48.86461" lon="2.29793">
        <ele>93.4</ele>
        <time>2015-02-23T20:00:03.155Z</time>
      </trkpt>
      <trkpt lat="48.86462" lon="2.29802">
        <ele>93.3</ele>
        <time>2015-02-23T20:00:04.163Z</time>
      </trkpt>
      <trkpt lat="48.86462" lon="2.2981">
        <ele>93.2</ele>
        <time>2015-02-23T20:00:05.160Z</time>
      </trkpt>
      <trkpt lat="48.86462" lon="2.29818">
        <ele>93.2</ele>
        <time>2015-02-23T20:00:06.177Z</time>
      </trkpt>
      <trkpt lat="48.86461" lon="2.29827">
        <ele>93.2</ele>
        <time>2015-02-23T20:00:07.191Z</time>
      </trkpt>
      <trkpt lat="48.8646" lon="2.29835">
        <ele>93.4</ele>
        <time>2015-02-23T20:00:08.272Z</time>
      </trkpt>
      <trkpt lat="48.86459" lon="2.29844">
        <ele>93.6</ele>
        <time>2015-02-23T20:00:09.136Z</time>
      </trkpt>
      <trkpt lat="48.86458" lon="2.29853">
        <ele>93.9</ele>
        <time>2015-02-23T20:00:10.178Z</time>
      </trkpt>
      <trkpt lat="48.86457" lon="2.29861">
        <ele>94.2</ele>
        <time>2015-02-23T20:00:11.182Z</time>
      </trkpt>
      <trkpt lat="48.86457" lon="2.29869">
        <ele>94.4</ele>
        <time>2015-02-23T20:00:12.209Z</time>
      </trkpt>
      <trkpt lat="48.86456" lon="2.29877">
        <ele>94.7</ele>
        <time>2015-02-23T20:00:13.223Z</time>
      </trkpt>
      <trkpt lat="48.86459" lon="2.29883">
        <ele>92.9</ele>
        <time>2015-02-23T20:00:14.157Z</time>
      </trkpt>
      <trkpt lat="48.86459" lon="2.2989">
        <ele>93.1</ele>
        <time>2015-02-23T20:00:15.170Z</time>
      </trkpt>
      <trkpt lat="48.86458" lon="2.29903">
        <ele>93.4</ele>
        <time>2015-02-23T20:00:17.173Z</time>
      </trkpt>
      <trkpt lat="48.86458" lon="2.29909">
        <ele>93.3</ele>
        <time>2015-02-23T20:00:18.179Z</time>
      </trkpt>
      <trkpt lat="48.86458" lon="2.29921">
        <ele>93.2</ele>
        <time>2015-02-23T20:00:20.222Z</time>
      </trkpt>
      <trkpt lat="48.86459" lon="2.29927">
        <ele>93.1</ele>
        <time>2015-02-23T20:00:21.233Z</time>
      </trkpt>
      <trkpt lat="48.86459" lon="2.29939">
        <ele>93.3</ele>
        <time>2015-02-23T20:00:23.258Z</time>
      </trkpt>
      <trkpt lat="48.86459" lon="2.29945">
        <ele>93.5</ele>
        <time>2015-02-23T20:00:24.168Z</time>
      </trkpt>
      <trkpt lat="48.86458" lon="2.29957">
        <ele>93.6</ele>
        <time>2015-02-23T20:00:26.194Z</time>
      </trkpt>
      <trkpt lat="48.86458" lon="2.29962">
        <ele>93.6</ele>
        <time>2015-02-23T20:00:27.245Z</time>
      </trkpt>
      <trkpt lat="48.86459" lon="2.29973">
        <ele>93.9</ele>
        <time>2015-02-23T20:00:29.157Z</time>
      </trkpt>
      <trkpt lat="48.86459" lon="2.29979">
        <ele>94</ele>
        <time>2015-02-23T20:00:30.174Z</time>
      </trkpt>
      <trkpt lat="48.86459" lon="2.2999">
        <ele>94.3</ele>
        <time>2015-02-23T20:00:32.219Z</time>
      </trkpt>
      <trkpt lat="48.86461" lon="2.29995">
        <ele>94.4</ele>
        <time>2015-02-23T20:00:33.233Z</time>
      </trkpt>
      <trkpt lat="48.86459" lon="2.30007">
        <ele>94.9</ele>
        <time>2015-02-23T20:00:36.184Z</time>
      </trkpt>
      <trkpt lat="48.86458" lon="2.3001">
        <ele>95.3</ele>
        <time>2015-02-23T20:00:37.204Z</time>
      </trkpt>
      <trkpt lat="48.86455" lon="2.30018">
        <ele>95.7</ele>
        <time>2015-02-23T20:00:39.160Z</time>
      </trkpt>
      <trkpt lat="48.86454" lon="2.30023">
        <ele>95.9</ele>
        <time>2015-02-23T20:00:40.172Z</time>
      </trkpt>
      <trkpt lat="48.86451" lon="2.30033">
        <ele>95.9</ele>
        <time>2015-02-23T20:00:42.174Z</time>
      </trkpt>
      <trkpt lat="48.8645" lon="2.30039">
        <ele>96</ele>
        <time>2015-02-23T20:00:43.205Z</time>
      </trkpt>
      <trkpt lat="48.86448" lon="2.3005">
        <ele>95.8</ele>
        <time>2015-02-23T20:00:45.132Z</time>
      </trkpt>
      <trkpt lat="48.86446" lon="2.30055">
        <ele>95.6</ele>
        <time>2015-02-23T20:00:46.223Z</time>
      </trkpt>
      <trkpt lat="48.86443" lon="2.30064">
        <ele>95.3</ele>
        <time>2015-02-23T20:00:48.179Z</time>
      </trkpt>
      <trkpt lat="48.86442" lon="2.30068">
        <ele>95</ele>
        <time>2015-02-23T20:00:49.209Z</time>
      </trkpt>
      <trkpt lat="48.86442" lon="2.30081">
        <ele>91.8</ele>
        <time>2015-02-23T20:00:54.154Z</time>
      </trkpt>
      <trkpt lat="48.86443" lon="2.30086">
        <ele>91</ele>
        <time>2015-02-23T20:00:55.193Z</time>
      </trkpt>
      <trkpt lat="48.86439" lon="2.30098">
        <ele>89.1</ele>
        <time>2015-02-23T20:00:58.243Z</time>
      </trkpt>
      <trkpt lat="48.86438" lon="2.30102">
        <ele>88.7</ele>
        <time>2015-02-23T20:00:59.170Z</time>
      </trkpt>
      <trkpt lat="48.86432" lon="2.30111">
        <ele>88</ele>
        <time>2015-02-23T20:01:02.221Z</time>
      </trkpt>
      <trkpt lat="48.86429" lon="2.30114">
        <ele>87.9</ele>
        <time>2015-02-23T20:01:03.244Z</time>
      </trkpt>
      <trkpt lat="48.86424" lon="2.30121">
        <ele>87.1</ele>
        <time>2015-02-23T20:01:06.174Z</time>
      </trkpt>
      <trkpt lat="48.86421" lon="2.30123">
        <ele>87.1</ele>
        <time>2015-02-23T20:01:07.205Z</time>
      </trkpt>
      <trkpt lat="48.86414" lon="2.30129">
        <ele>85.4</ele>
        <time>2015-02-23T20:01:15.165Z</time>
      </trkpt>
      <trkpt lat="48.86413" lon="2.30131">
        <ele>85.3</ele>
        <time>2015-02-23T20:01:16.177Z</time>
      </trkpt>
      <trkpt lat="48.86408" lon="2.3014">
        <ele>85.1</ele>
        <time>2015-02-23T20:01:20.172Z</time>
      </trkpt>
      <trkpt lat="48.86407" lon="2.30142">
        <ele>85.1</ele>
        <time>2015-02-23T20:01:21.183Z</time>
      </trkpt>
      <trkpt lat="48.864" lon="2.30145">
        <ele>85.6</ele>
        <time>2015-02-23T20:01:24.245Z</time>
      </trkpt>
      <trkpt lat="48.86397" lon="2.30146">
        <ele>85.7</ele>
        <time>2015-02-23T20:01:25.256Z</time>
      </trkpt>
      <trkpt lat="48.86391" lon="2.30146">
        <ele>85.5</ele>
        <time>2015-02-23T20:01:27.158Z</time>
      </trkpt>
      <trkpt lat="48.86388" lon="2.30146">
        <ele>85.5</ele>
        <time>2015-02-23T20:01:28.172Z</time>
      </trkpt>
      <trkpt lat="48.86382" lon="2.30147">
        <ele>85.4</ele>
        <time>2015-02-23T20:01:30.191Z</time>
      </trkpt>
      <trkpt lat="48.86379" lon="2.30148">
        <ele>85.4</ele>
        <time>2015-02-23T20:01:31.210Z</time>
      </trkpt>
      <trkpt lat="48.86373" lon="2.30149">
        <ele>85.3</ele>
        <time>2015-02-23T20:01:33.156Z</time>
      </trkpt>
      <trkpt lat="48.8637" lon="2.3015">
        <ele>85.4</ele>
        <time>2015-02-23T20:01:34.191Z</time>
      </trkpt>
      <trkpt lat="48.86363" lon="2.3015">
        <ele>85.3</ele>
        <time>2015-02-23T20:01:36.133Z</time>
      </trkpt>
      <trkpt lat="48.8636" lon="2.30151">
        <ele>85.4</ele>
        <time>2015-02-23T20:01:37.172Z</time>
      </trkpt>
      <trkpt lat="48.86354" lon="2.30151">
        <ele>85.4</ele>
        <time>2015-02-23T20:01:39.227Z</time>
      </trkpt>
      <trkpt lat="48.86351" lon="2.30151">
        <ele>85.5</ele>
        <time>2015-02-23T20:01:40.201Z</time>
      </trkpt>
      <trkpt lat="48.86344" lon="2.30151">
        <ele>85.5</ele>
        <time>2015-02-23T20:01:42.226Z</time>
      </trkpt>
      <trkpt lat="48.86341" lon="2.30152">
        <ele>85.5</ele>
        <time>2015-02-23T20:01:43.244Z</time>
      </trkpt>
      <trkpt lat="48.86335" lon="2.30153">
        <ele>85.7</ele>
        <time>2015-02-23T20:01:45.159Z</time>
      </trkpt>
      <trkpt lat="48.86332" lon="2.30153">
        <ele>85.6</ele>
        <time>2015-02-23T20:01:46.180Z</time>
      </trkpt>
      <trkpt lat="48.86325" lon="2.30154">
        <ele>85.5</ele>
        <time>2015-02-23T20:01:48.216Z</time>
      </trkpt>
      <trkpt lat="48.86322" lon="2.30154">
        <ele>85.4</ele>
        <time>2015-02-23T20:01:49.223Z</time>
      </trkpt>
      <trkpt lat="48.86314" lon="2.30154">
        <ele>85.1</ele>
        <time>2015-02-23T20:01:52.131Z</time>
      </trkpt>
      <trkpt lat="48.86311" lon="2.30155">
        <ele>85</ele>
        <time>2015-02-23T20:01:53.167Z</time>
      </trkpt>
      <trkpt lat="48.86303" lon="2.30157">
        <ele>84.8</ele>
        <time>2015-02-23T20:01:56.168Z</time>
      </trkpt>
      <trkpt lat="48.863" lon="2.30158">
        <ele>84.7</ele>
        <time>2015-02-23T20:01:57.172Z</time>
      </trkpt>
      <trkpt lat="48.86292" lon="2.3016">
        <ele>84.9</ele>
        <time>2015-02-23T20:02:00.168Z</time>
      </trkpt>
      <trkpt lat="48.86288" lon="2.30161">
        <ele>85</ele>
        <time>2015-02-23T20:02:01.225Z</time>
      </trkpt>
      <trkpt lat="48.86282" lon="2.30162">
        <ele>85.1</ele>
        <time>2015-02-23T20:02:03.245Z</time>
      </trkpt>
      <trkpt lat="48.86279" lon="2.30162">
        <ele>85</ele>
        <time>2015-02-23T20:02:04.257Z</time>
      </trkpt>
      <trkpt lat="48.86271" lon="2.30159">
        <ele>85</ele>
        <time>2015-02-23T20:02:07.206Z</time>
      </trkpt>
      <trkpt lat="48.86269" lon="2.30158">
        <ele>85.1</ele>
        <time>2015-02-23T20:02:08.230Z</time>
      </trkpt>
      <trkpt lat="48.8626" lon="2.30156">
        <ele>85.4</ele>
        <time>2015-02-23T20:02:11.171Z</time>
      </trkpt>
      <trkpt lat="48.86257" lon="2.30156">
        <ele>85.4</ele>
        <time>2015-02-23T20:02:12.176Z</time>
      </trkpt>
      <trkpt lat="48.86249" lon="2.30156">
        <ele>85.7</ele>
        <time>2015-02-23T20:02:15.261Z</time>
      </trkpt>
      <trkpt lat="48.86246" lon="2.30156">
        <ele>85.7</ele>
        <time>2015-02-23T20:02:16.166Z</time>
      </trkpt>
      <trkpt lat="48.86239" lon="2.30156">
        <ele>85.9</ele>
        <time>2015-02-23T20:02:18.212Z</time>
      </trkpt>
      <trkpt lat="48.86236" lon="2.30156">
        <ele>86.1</ele>
        <time>2015-02-23T20:02:19.229Z</time>
      </trkpt>
      <trkpt lat="48.86228" lon="2.30156">
        <ele>86.4</ele>
        <time>2015-02-23T20:02:21.153Z</time>
      </trkpt>
      <trkpt lat="48.86224" lon="2.30156">
        <ele>86.4</ele>
        <time>2015-02-23T20:02:22.165Z</time>
      </trkpt>
      <trkpt lat="48.86216" lon="2.30155">
        <ele>86.5</ele>
        <time>2015-02-23T20:02:24.200Z</time>
      </trkpt>
      <trkpt lat="48.86212" lon="2.30154">
        <ele>86.6</ele>
        <time>2015-02-23T20:02:25.212Z</time>
      </trkpt>
      <trkpt lat="48.86204" lon="2.30153">
        <ele>86.9</ele>
        <time>2015-02-23T20:02:27.235Z</time>
      </trkpt>
      <trkpt lat="48.862" lon="2.30152">
        <ele>86.9</ele>
        <time>2015-02-23T20:02:28.249Z</time>
      </trkpt>
      <trkpt lat="48.86194" lon="2.30151">
        <ele>87.2</ele>
        <time>2015-02-23T20:02:30.154Z</time>
      </trkpt>
      <trkpt lat="48.8619" lon="2.30151">
        <ele>87.3</ele>
        <time>2015-02-23T20:02:31.230Z</time>
      </trkpt>
      <trkpt lat="48.86183" lon="2.30149">
        <ele>87.3</ele>
        <time>2015-02-23T20:02:33.145Z</time>
      </trkpt>
      <trkpt lat="48.86179" lon="2.30149">
        <ele>87.5</ele>
        <time>2015-02-23T20:02:34.223Z</time>
      </trkpt>
      <trkpt lat="48.86172" lon="2.30147">
        <ele>87.9</ele>
        <time>2015-02-23T20:02:36.253Z</time>
      </trkpt>
      <trkpt lat="48.86169" lon="2.30146">
        <ele>88</ele>
        <time>2015-02-23T20:02:37.294Z</time>
      </trkpt>
      <trkpt lat="48.86164" lon="2.30144">
        <ele>88.4</ele>
        <time>2015-02-23T20:02:39.175Z</time>
      </trkpt>
      <trkpt lat="48.8616" lon="2.30144">
        <ele>88.5</ele>
        <time>2015-02-23T20:02:40.189Z</time>
      </trkpt>
      <trkpt lat="48.86154" lon="2.30143">
        <ele>88.9</ele>
        <time>2015-02-23T20:02:42.258Z</time>
      </trkpt>
      <trkpt lat="48.8615" lon="2.30142">
        <ele>89</ele>
        <time>2015-02-23T20:02:43.279Z</time>
      </trkpt>
      <trkpt lat="48.86144" lon="2.30138">
        <ele>88.9</ele>
        <time>2015-02-23T20:02:45.162Z</time>
      </trkpt>
      <trkpt lat="48.86141" lon="2.30137">
        <ele>88.8</ele>
        <time>2015-02-23T20:02:46.209Z</time>
      </trkpt>
      <trkpt lat="48.86134" lon="2.30133">
        <ele>88.8</ele>
        <time>2015-02-23T20:02:48.153Z</time>
      </trkpt>
      <trkpt lat="48.86129" lon="2.30131">
        <ele>88.9</ele>
        <time>2015-02-23T20:02:49.269Z</time>
      </trkpt>
      <trkpt lat="48.86122" lon="2.30129">
        <ele>89</ele>
        <time>2015-02-23T20:02:51.156Z</time>
      </trkpt>
      <trkpt lat="48.86119" lon="2.30127">
        <ele>89.1</ele>
        <time>2015-02-23T20:02:52.166Z</time>
      </trkpt>
      <trkpt lat="48.8611" lon="2.30124">
        <ele>89.3</ele>
        <time>2015-02-23T20:02:54.238Z</time>
      </trkpt>
      <trkpt lat="48.86106" lon="2.30121">
        <ele>89.3</ele>
        <time>2015-02-23T20:02:55.257Z</time>
      </trkpt>
      <trkpt lat="48.861" lon="2.30111">
        <ele>88.8</ele>
        <time>2015-02-23T20:02:57.156Z</time>
      </trkpt>
      <trkpt lat="48.86099" lon="2.30106">
        <ele>88.5</ele>
        <time>2015-02-23T20:02:58.169Z</time>
      </trkpt>
      <trkpt lat="48.86096" lon="2.30096">
        <ele>88.3</ele>
        <time>2015-02-23T20:03:00.196Z</time>
      </trkpt>
      <trkpt lat="48.86094" lon="2.30091">
        <ele>88.1</ele>
        <time>2015-02-23T20:03:01.224Z</time>
      </trkpt>
      <trkpt lat="48.8609" lon="2.30081">
        <ele>87.7</ele>
        <time>2015-02-23T20:03:03.159Z</time>
      </trkpt>
      <trkpt lat="48.86088" lon="2.30076">
        <ele>87.6</ele>
        <time>2015-02-23T20:03:04.163Z</time>
      </trkpt>
      <trkpt lat="48.86085" lon="2.30067">
        <ele>87.5</ele>
        <time>2015-02-23T20:03:06.191Z</time>
      </trkpt>
      <trkpt lat="48.86084" lon="2.30062">
        <ele>87.4</ele>
        <time>2015-02-23T20:03:07.211Z</time>
      </trkpt>
      <trkpt lat="48.86081" lon="2.30052">
        <ele>87</ele>
        <time>2015-02-23T20:03:09.132Z</time>
      </trkpt>
      <trkpt lat="48.86079" lon="2.30046">
        <ele>86.6</ele>
        <time>2015-02-23T20:03:10.149Z</time>
      </trkpt>
      <trkpt lat="48.86076" lon="2.30035">
        <ele>85.9</ele>
        <time>2015-02-23T20:03:12.188Z</time>
      </trkpt>
      <trkpt lat="48.86074" lon="2.30029">
        <ele>85.7</ele>
        <time>2015-02-23T20:03:13.208Z</time>
      </trkpt>
      <trkpt lat="48.8607" lon="2.30018">
        <ele>85.2</ele>
        <time>2015-02-23T20:03:15.144Z</time>
      </trkpt>
      <trkpt lat="48.86069" lon="2.30013">
        <ele>85</ele>
        <time>2015-02-23T20:03:16.157Z</time>
      </trkpt>
      <trkpt lat="48.86069" lon="2.30002">
        <ele>84.2</ele>
        <time>2015-02-23T20:03:18.185Z</time>
      </trkpt>
      <trkpt lat="48.86068" lon="2.29997">
        <ele>84.2</ele>
        <time>2015-02-23T20:03:19.207Z</time>
      </trkpt>
      <trkpt lat="48.86066" lon="2.29985">
        <ele>84.1</ele>
        <time>2015-02-23T20:03:21.146Z</time>
      </trkpt>
      <trkpt lat="48.86065" lon="2.29978">
        <ele>83.9</ele>
        <time>2015-02-23T20:03:22.190Z</time>
      </trkpt>
      <trkpt lat="48.86064" lon="2.2997">
        <ele>83.7</ele>
        <time>2015-02-23T20:03:23.142Z</time>
      </trkpt>
      <trkpt lat="48.86062" lon="2.29964">
        <ele>83.7</ele>
        <time>2015-02-23T20:03:24.140Z</time>
      </trkpt>
      <trkpt lat="48.8606" lon="2.29952">
        <ele>83.2</ele>
        <time>2015-02-23T20:03:26.167Z</time>
      </trkpt>
      <trkpt lat="48.86059" lon="2.29947">
        <ele>83</ele>
        <time>2015-02-23T20:03:27.186Z</time>
      </trkpt>
      <trkpt lat="48.86059" lon="2.29941">
        <ele>82.7</ele>
        <time>2015-02-23T20:03:28.135Z</time>
      </trkpt>
      <trkpt lat="48.86058" lon="2.29933">
        <ele>83.1</ele>
        <time>2015-02-23T20:03:29.130Z</time>
      </trkpt>
      <trkpt lat="48.86057" lon="2.29919">
        <ele>82.7</ele>
        <time>2015-02-23T20:03:31.176Z</time>
      </trkpt>
      <trkpt lat="48.86057" lon="2.29909">
        <ele>82.5</ele>
        <time>2015-02-23T20:03:32.179Z</time>
      </trkpt>
      <trkpt lat="48.86056" lon="2.29896">
        <ele>82.4</ele>
        <time>2015-02-23T20:03:34.200Z</time>
      </trkpt>
      <trkpt lat="48.86056" lon="2.2989">
        <ele>82.8</ele>
        <time>2015-02-23T20:03:35.218Z</time>
      </trkpt>
      <trkpt lat="48.86053" lon="2.29877">
        <ele>83.1</ele>
        <time>2015-02-23T20:03:37.196Z</time>
      </trkpt>
      <trkpt lat="48.86052" lon="2.29871">
        <ele>83.3</ele>
        <time>2015-02-23T20:03:38.213Z</time>
      </trkpt>
      <trkpt lat="48.8605" lon="2.29858">
        <ele>83.6</ele>
        <time>2015-02-23T20:03:40.127Z</time>
      </trkpt>
      <trkpt lat="48.86049" lon="2.29851">
        <ele>83.9</ele>
        <time>2015-02-23T20:03:41.158Z</time>
      </trkpt>
      <trkpt lat="48.86046" lon="2.29838">
        <ele>84.6</ele>
        <time>2015-02-23T20:03:43.219Z</time>
      </trkpt>
      <trkpt lat="48.86043" lon="2.29831">
        <ele>85.4</ele>
        <time>2015-02-23T20:03:44.244Z</time>
      </trkpt>
      <trkpt lat="48.86041" lon="2.29823">
        <ele>86.5</ele>
        <time>2015-02-23T20:03:45.176Z</time>
      </trkpt>
      <trkpt lat="48.86038" lon="2.29814">
        <ele>87.7</ele>
        <time>2015-02-23T20:03:46.173Z</time>
      </trkpt>
      <trkpt lat="48.86036" lon="2.29802">
        <ele>88.3</ele>
        <time>2015-02-23T20:03:48.184Z</time>
      </trkpt>
      <trkpt lat="48.86034" lon="2.29797">
        <ele>88.3</ele>
        <time>2015-02-23T20:03:49.207Z</time>
      </trkpt>
      <trkpt lat="48.86031" lon="2.29785">
        <ele>89.6</ele>
        <time>2015-02-23T20:03:51.156Z</time>
      </trkpt>
      <trkpt lat="48.86029" lon="2.2978">
        <ele>90.4</ele>
        <time>2015-02-23T20:03:52.164Z</time>
      </trkpt>
      <trkpt lat="48.86025" lon="2.2977">
        <ele>91</ele>
        <time>2015-02-23T20:03:54.186Z</time>
      </trkpt>
      <trkpt lat="48.86025" lon="2.29766">
        <ele>91.3</ele>
        <time>2015-02-23T20:03:55.209Z</time>
      </trkpt>
      <trkpt lat="48.86022" lon="2.29757">
        <ele>91.7</ele>
        <time>2015-02-23T20:03:57.234Z</time>
      </trkpt>
      <trkpt lat="48.86021" lon="2.29753">
        <ele>91.7</ele>
        <time>2015-02-23T20:03:58.134Z</time>
      </trkpt>
      <trkpt lat="48.86019" lon="2.29742">
        <ele>92</ele>
        <time>2015-02-23T20:04:01.175Z</time>
      </trkpt>
      <trkpt lat="48.86018" lon="2.29738">
        <ele>92.1</ele>
        <time>2015-02-23T20:04:02.185Z</time>
      </trkpt>
      <trkpt lat="48.86016" lon="2.29726">
        <ele>92.5</ele>
        <time>2015-02-23T20:04:05.227Z</time>
      </trkpt>
      <trkpt lat="48.86014" lon="2.29723">
        <ele>92.6</ele>
        <time>2015-02-23T20:04:06.172Z</time>
      </trkpt>
      <trkpt lat="48.86009" lon="2.29713">
        <ele>92.7</ele>
        <time>2015-02-23T20:04:09.225Z</time>
      </trkpt>
      <trkpt lat="48.86006" lon="2.29709">
        <ele>92.5</ele>
        <time>2015-02-23T20:04:10.202Z</time>
      </trkpt>
      <trkpt lat="48.86" lon="2.297">
        <ele>92.4</ele>
        <time>2015-02-23T20:04:13.280Z</time>
      </trkpt>
      <trkpt lat="48.85998" lon="2.29696">
        <ele>92.9</ele>
        <time>2015-02-23T20:04:14.133Z</time>
      </trkpt>
      <trkpt lat="48.85991" lon="2.29687">
        <ele>93.9</ele>
        <time>2015-02-23T20:04:18.161Z</time>
      </trkpt>
      <trkpt lat="48.8599" lon="2.29685">
        <ele>94.1</ele>
        <time>2015-02-23T20:04:19.270Z</time>
      </trkpt>
      <trkpt lat="48.85983" lon="2.29684">
        <ele>93.5</ele>
        <time>2015-02-23T20:04:24.256Z</time>
      </trkpt>
      <trkpt lat="48.8598" lon="2.29685">
        <ele>93.4</ele>
        <time>2015-02-23T20:04:25.215Z</time>
      </trkpt>
      <trkpt lat="48.85972" lon="2.29689">
        <ele>92.9</ele>
        <time>2015-02-23T20:04:28.238Z</time>
      </trkpt>
      <trkpt lat="48.8597" lon="2.2969">
        <ele>92.9</ele>
        <time>2015-02-23T20:04:29.249Z</time>
      </trkpt>
      <trkpt lat="48.85965" lon="2.29696">
        <ele>93</ele>
        <time>2015-02-23T20:04:31.205Z</time>
      </trkpt>
      <trkpt lat="48.85962" lon="2.29699">
        <ele>92.9</ele>
        <time>2015-02-23T20:04:32.200Z</time>
      </trkpt>
      <trkpt lat="48.85957" lon="2.29708">
        <ele>92.8</ele>
        <time>2015-02-23T20:04:34.234Z</time>
      </trkpt>
      <trkpt lat="48.85955" lon="2.29712">
        <ele>92.5</ele>
        <time>2015-02-23T20:04:35.168Z</time>
      </trkpt>
      <trkpt lat="48.8595" lon="2.2972">
        <ele>92.3</ele>
        <time>2015-02-23T20:04:37.194Z</time>
      </trkpt>
      <trkpt lat="48.85948" lon="2.29724">
        <ele>92</ele>
        <time>2015-02-23T20:04:38.193Z</time>
      </trkpt>
      <trkpt lat="48.85943" lon="2.29731">
        <ele>92</ele>
        <time>2015-02-23T20:04:40.187Z</time>
      </trkpt>
      <trkpt lat="48.8594" lon="2.29735">
        <ele>92.2</ele>
        <time>2015-02-23T20:04:41.200Z</time>
      </trkpt>
      <trkpt lat="48.85937" lon="2.29743">
        <ele>92.4</ele>
        <time>2015-02-23T20:04:43.244Z</time>
      </trkpt>
      <trkpt lat="48.85935" lon="2.29748">
        <ele>92.1</ele>
        <time>2015-02-23T20:04:44.165Z</time>
      </trkpt>
      <trkpt lat="48.85931" lon="2.29758">
        <ele>91.3</ele>
        <time>2015-02-23T20:04:46.151Z</time>
      </trkpt>
      <trkpt lat="48.85929" lon="2.29763">
        <ele>91.1</ele>
        <time>2015-02-23T20:04:47.214Z</time>
      </trkpt>
      <trkpt lat="48.85924" lon="2.29769">
        <ele>91.2</ele>
        <time>2015-02-23T20:04:49.236Z</time>
      </trkpt>
      <trkpt lat="48.85921" lon="2.29772">
        <ele>91.1</ele>
        <time>2015-02-23T20:04:50.253Z</time>
      </trkpt>
      <trkpt lat="48.85913" lon="2.29779">
        <ele>91.1</ele>
        <time>2015-02-23T20:04:53.172Z</time>
      </trkpt>
      <trkpt lat="48.85911" lon="2.29783">
        <ele>91.1</ele>
        <time>2015-02-23T20:04:54.186Z</time>
      </trkpt>
      <trkpt lat="48.85906" lon="2.29791">
        <ele>91</ele>
        <time>2015-02-23T20:04:56.209Z</time>
      </trkpt>
      <trkpt lat="48.85903" lon="2.29795">
        <ele>91.1</ele>
        <time>2015-02-23T20:04:57.224Z</time>
      </trkpt>
      <trkpt lat="48.85896" lon="2.29801">
        <ele>91.4</ele>
        <time>2015-02-23T20:04:59.153Z</time>
      </trkpt>
      <trkpt lat="48.85893" lon="2.29804">
        <ele>91.5</ele>
        <time>2015-02-23T20:05:00.202Z</time>
      </trkpt>
      <trkpt lat="48.85888" lon="2.2981">
        <ele>91.7</ele>
        <time>2015-02-23T20:05:02.150Z</time>
      </trkpt>
      <trkpt lat="48.85885" lon="2.29814">
        <ele>91.7</ele>
        <time>2015-02-23T20:05:03.153Z</time>
      </trkpt>
      <trkpt lat="48.8588" lon="2.29823">
        <ele>91.8</ele>
        <time>2015-02-23T20:05:05.175Z</time>
      </trkpt>
      <trkpt lat="48.85878" lon="2.29829">
        <ele>91.8</ele>
        <time>2015-02-23T20:05:06.196Z</time>
      </trkpt>
      <trkpt lat="48.85873" lon="2.29838">
        <ele>91.4</ele>
        <time>2015-02-23T20:05:08.128Z</time>
      </trkpt>
      <trkpt lat="48.85871" lon="2.29841">
        <ele>91.3</ele>
        <time>2015-02-23T20:05:09.169Z</time>
      </trkpt>
      <trkpt lat="48.85865" lon="2.29849">
        <ele>91.2</ele>
        <time>2015-02-23T20:05:11.177Z</time>
      </trkpt>
      <trkpt lat="48.85863" lon="2.29852">
        <ele>91.2</ele>
        <time>2015-02-23T20:05:12.194Z</time>
      </trkpt>
      <trkpt lat="48.85859" lon="2.2986">
        <ele>91.4</ele>
        <time>2015-02-23T20:05:14.228Z</time>
      </trkpt>
      <trkpt lat="48.85857" lon="2.29864">
        <ele>91.3</ele>
        <time>2015-02-23T20:05:15.171Z</time>
      </trkpt>
      <trkpt lat="48.85852" lon="2.29871">
        <ele>91.4</ele>
        <time>2015-02-23T20:05:17.160Z</time>
      </trkpt>
      <trkpt lat="48.85849" lon="2.29875">
        <ele>91.4</ele>
        <time>2015-02-23T20:05:18.213Z</time>
      </trkpt>
      <trkpt lat="48.85843" lon="2.29882">
        <ele>91.1</ele>
        <time>2015-02-23T20:05:20.228Z</time>
      </trkpt>
      <trkpt lat="48.8584" lon="2.29885">
        <ele>90.7</ele>
        <time>2015-02-23T20:05:21.243Z</time>
      </trkpt>
      <trkpt lat="48.85834" lon="2.2989">
        <ele>90.7</ele>
        <time>2015-02-23T20:05:23.161Z</time>
      </trkpt>
      <trkpt lat="48.85831" lon="2.29892">
        <ele>90.9</ele>
        <time>2015-02-23T20:05:24.171Z</time>
      </trkpt>
      <trkpt lat="48.85826" lon="2.29899">
        <ele>91.3</ele>
        <time>2015-02-23T20:05:26.243Z</time>
      </trkpt>
      <trkpt lat="48.85823" lon="2.29903">
        <ele>91.3</ele>
        <time>2015-02-23T20:05:27.255Z</time>
      </trkpt>
      <trkpt lat="48.85817" lon="2.29909">
        <ele>91.3</ele>
        <time>2015-02-23T20:05:29.154Z</time>
      </trkpt>
      <trkpt lat="48.85814" lon="2.29912">
        <ele>91.4</ele>
        <time>2015-02-23T20:05:30.171Z</time>
      </trkpt>
      <trkpt lat="48.85808" lon="2.29919">
        <ele>91.7</ele>
        <time>2015-02-23T20:05:32.217Z</time>
      </trkpt>
      <trkpt lat="48.85805" lon="2.29922">
        <ele>91.8</ele>
        <time>2015-02-23T20:05:33.225Z</time>
      </trkpt>
      <trkpt lat="48.858" lon="2.29929">
        <ele>92</ele>
        <time>2015-02-23T20:05:35.152Z</time>
      </trkpt>
      <trkpt lat="48.85797" lon="2.29933">
        <ele>92.2</ele>
        <time>2015-02-23T20:05:36.154Z</time>
      </trkpt>
      <trkpt lat="48.85791" lon="2.29942">
        <ele>92.1</ele>
        <time>2015-02-23T20:05:38.147Z</time>
      </trkpt>
      <trkpt lat="48.85789" lon="2.29947">
        <ele>91.6</ele>
        <time>2015-02-23T20:05:39.178Z</time>
      </trkpt>
      <trkpt lat="48.85788" lon="2.29956">
        <ele>90</ele>
        <time>2015-02-23T20:05:40.190Z</time>
      </trkpt>
      <trkpt lat="48.85786" lon="2.29962">
        <ele>89.8</ele>
        <time>2015-02-23T20:05:41.199Z</time>
      </trkpt>
      <trkpt lat="48.85782" lon="2.29971">
        <ele>89.6</ele>
        <time>2015-02-23T20:05:43.213Z</time>
      </trkpt>
      <trkpt lat="48.85779" lon="2.29975">
        <ele>89.5</ele>
        <time>2015-02-23T20:05:44.220Z</time>
      </trkpt>
      <trkpt lat="48.85775" lon="2.29984">
        <ele>88.5</ele>
        <time>2015-02-23T20:05:46.249Z</time>
      </trkpt>
      <trkpt lat="48.85772" lon="2.29989">
        <ele>89.1</ele>
        <time>2015-02-23T20:05:47.163Z</time>
      </trkpt>
      <trkpt lat="48.85768" lon="2.29999">
        <ele>89.7</ele>
        <time>2015-02-23T20:05:49.188Z</time>
      </trkpt>
      <trkpt lat="48.85766" lon="2.30003">
        <ele>90</ele>
        <time>2015-02-23T20:05:50.241Z</time>
      </trkpt>
      <trkpt lat="48.85761" lon="2.30011">
        <ele>90.6</ele>
        <time>2015-02-23T20:05:52.156Z</time>
      </trkpt>
      <trkpt lat="48.85757" lon="2.30018">
        <ele>93.9</ele>
        <time>2015-02-23T20:05:53.167Z</time>
      </trkpt>
      <trkpt lat="48.85752" lon="2.30025">
        <ele>94.3</ele>
        <time>2015-02-23T20:05:55.199Z</time>
      </trkpt>
      <trkpt lat="48.8575" lon="2.30029">
        <ele>94.5</ele>
        <time>2015-02-23T20:05:56.214Z</time>
      </trkpt>
      <trkpt lat="48.85745" lon="2.30039">
        <ele>94.9</ele>
        <time>2015-02-23T20:05:58.151Z</time>
      </trkpt>
      <trkpt lat="48.85743" lon="2.30044">
        <ele>95.1</ele>
        <time>2015-02-23T20:05:59.171Z</time>
      </trkpt>
      <trkpt lat="48.85737" lon="2.30051">
        <ele>95.2</ele>
        <time>2015-02-23T20:06:01.204Z</time>
      </trkpt>
      <trkpt lat="48.85735" lon="2.30053">
        <ele>95.1</ele>
        <time>2015-02-23T20:06:02.217Z</time>
      </trkpt>
      <trkpt lat="48.8573" lon="2.30057">
        <ele>95</ele>
        <time>2015-02-23T20:06:04.149Z</time>
      </trkpt>
      <trkpt lat="48.85728" lon="2.30061">
        <ele>95</ele>
        <time>2015-02-23T20:06:05.175Z</time>
      </trkpt>
      <trkpt lat="48.85722" lon="2.30069">
        <ele>95</ele>
        <time>2015-02-23T20:06:07.234Z</time>
      </trkpt>
      <trkpt lat="48.85719" lon="2.30074">
        <ele>94.9</ele>
        <time>2015-02-23T20:06:08.239Z</time>
      </trkpt>
      <trkpt lat="48.85716" lon="2.3008">
        <ele>94.7</ele>
        <time>2015-02-23T20:06:09.137Z</time>
      </trkpt>
      <trkpt lat="48.85713" lon="2.30086">
        <ele>94.6</ele>
        <time>2015-02-23T20:06:10.141Z</time>
      </trkpt>
      <trkpt lat="48.85711" lon="2.30092">
        <ele>94.4</ele>
        <time>2015-02-23T20:06:11.155Z</time>
      </trkpt>
      <trkpt lat="48.8571" lon="2.30099">
        <ele>94.3</ele>
        <time>2015-02-23T20:06:12.177Z</time>
      </trkpt>
      <trkpt lat="48.85708" lon="2.30106">
        <ele>94.2</ele>
        <time>2015-02-23T20:06:13.201Z</time>
      </trkpt>
      <trkpt lat="48.85707" lon="2.30112">
        <ele>94</ele>
        <time>2015-02-23T20:06:14.216Z</time>
      </trkpt>
      <trkpt lat="48.85701" lon="2.30121">
        <ele>93.8</ele>
        <time>2015-02-23T20:06:16.136Z</time>
      </trkpt>
      <trkpt lat="48.85697" lon="2.30126">
        <ele>93.7</ele>
        <time>2015-02-23T20:06:17.356Z</time>
      </trkpt>
      <trkpt lat="48.85694" lon="2.3013">
        <ele>93.8</ele>
        <time>2015-02-23T20:06:18.157Z</time>
      </trkpt>
      <trkpt lat="48.8569" lon="2.30135">
        <ele>93.7</ele>
        <time>2015-02-23T20:06:19.178Z</time>
      </trkpt>
      <trkpt lat="48.85686" lon="2.30141">
        <ele>93.6</ele>
        <time>2015-02-23T20:06:20.192Z</time>
      </trkpt>
      <trkpt lat="48.85683" lon="2.30148">
        <ele>93.3</ele>
        <time>2015-02-23T20:06:21.240Z</time>
      </trkpt>
      <trkpt lat="48.85679" lon="2.30153">
        <ele>93.2</ele>
        <time>2015-02-23T20:06:22.148Z</time>
      </trkpt>
      <trkpt lat="48.85675" lon="2.30159">
        <ele>93.1</ele>
        <time>2015-02-23T20:06:23.146Z</time>
      </trkpt>
      <trkpt lat="48.85672" lon="2.30164">
        <ele>92.9</ele>
        <time>2015-02-23T20:06:24.156Z</time>
      </trkpt>
      <trkpt lat="48.85668" lon="2.30169">
        <ele>92.7</ele>
        <time>2015-02-23T20:06:25.336Z</time>
      </trkpt>
      <trkpt lat="48.85664" lon="2.30175">
        <ele>92.7</ele>
        <time>2015-02-23T20:06:26.148Z</time>
      </trkpt>
      <trkpt lat="48.85661" lon="2.30179">
        <ele>92.5</ele>
        <time>2015-02-23T20:06:27.157Z</time>
      </trkpt>
      <trkpt lat="48.85657" lon="2.30184">
        <ele>92.3</ele>
        <time>2015-02-23T20:06:28.186Z</time>
      </trkpt>
      <trkpt lat="48.85654" lon="2.30189">
        <ele>92.1</ele>
        <time>2015-02-23T20:06:29.237Z</time>
      </trkpt>
      <trkpt lat="48.85647" lon="2.30196">
        <ele>92</ele>
        <time>2015-02-23T20:06:31.183Z</time>
      </trkpt>
      <trkpt lat="48.85643" lon="2.30199">
        <ele>91.9</ele>
        <time>2015-02-23T20:06:32.194Z</time>
      </trkpt>
      <trkpt lat="48.85636" lon="2.30206">
        <ele>91.9</ele>
        <time>2015-02-23T20:06:34.274Z</time>
      </trkpt>
      <trkpt lat="48.85632" lon="2.3021">
        <ele>91.8</ele>
        <time>2015-02-23T20:06:35.206Z</time>
      </trkpt>
      <trkpt lat="48.85629" lon="2.30214">
        <ele>91.7</ele>
        <time>2015-02-23T20:06:36.182Z</time>
      </trkpt>
      <trkpt lat="48.85625" lon="2.30221">
        <ele>91.3</ele>
        <time>2015-02-23T20:06:37.202Z</time>
      </trkpt>
      <trkpt lat="48.85619" lon="2.30231">
        <ele>91.6</ele>
        <time>2015-02-23T20:06:39.233Z</time>
      </trkpt>
      <trkpt lat="48.85617" lon="2.30235">
        <ele>91.4</ele>
        <time>2015-02-23T20:06:40.260Z</time>
      </trkpt>
      <trkpt lat="48.85612" lon="2.30243">
        <ele>91.1</ele>
        <time>2015-02-23T20:06:42.166Z</time>
      </trkpt>
      <trkpt lat="48.85608" lon="2.30248">
        <ele>91.1</ele>
        <time>2015-02-23T20:06:43.200Z</time>
      </trkpt>
      <trkpt lat="48.85603" lon="2.30256">
        <ele>91.2</ele>
        <time>2015-02-23T20:06:45.219Z</time>
      </trkpt>
      <trkpt lat="48.856" lon="2.30259">
        <ele>91.2</ele>
        <time>2015-02-23T20:06:46.228Z</time>
      </trkpt>
      <trkpt lat="48.85595" lon="2.30266">
        <ele>91</ele>
        <time>2015-02-23T20:06:48.128Z</time>
      </trkpt>
      <trkpt lat="48.85592" lon="2.30271">
        <ele>91.1</ele>
        <time>2015-02-23T20:06:49.200Z</time>
      </trkpt>
      <trkpt lat="48.85586" lon="2.30281">
        <ele>91.1</ele>
        <time>2015-02-23T20:06:51.209Z</time>
      </trkpt>
      <trkpt lat="48.85582" lon="2.30285">
        <ele>91.1</ele>
        <time>2015-02-23T20:06:52.229Z</time>
      </trkpt>
      <trkpt lat="48.85575" lon="2.30291">
        <ele>91.1</ele>
        <time>2015-02-23T20:06:54.151Z</time>
      </trkpt>
      <trkpt lat="48.85571" lon="2.30294">
        <ele>91.1</ele>
        <time>2015-02-23T20:06:55.206Z</time>
      </trkpt>
      <trkpt lat="48.85564" lon="2.30303">
        <ele>90.8</ele>
        <time>2015-02-23T20:06:57.146Z</time>
      </trkpt>
      <trkpt lat="48.85561" lon="2.30309">
        <ele>90.4</ele>
        <time>2015-02-23T20:06:58.166Z</time>
      </trkpt>
      <trkpt lat="48.85556" lon="2.30315">
        <ele>89.9</ele>
        <time>2015-02-23T20:06:59.211Z</time>
      </trkpt>
      <trkpt lat="48.85553" lon="2.3032">
        <ele>89.6</ele>
        <time>2015-02-23T20:07:00.234Z</time>
      </trkpt>
      <trkpt lat="48.85549" lon="2.30326">
        <ele>89.5</ele>
        <time>2015-02-23T20:07:01.263Z</time>
      </trkpt>
      <trkpt lat="48.85545" lon="2.3033">
        <ele>89.3</ele>
        <time>2015-02-23T20:07:02.146Z</time>
      </trkpt>
      <trkpt lat="48.85542" lon="2.30336">
        <ele>89.3</ele>
        <time>2015-02-23T20:07:03.158Z</time>
      </trkpt>
      <trkpt lat="48.85539" lon="2.30341">
        <ele>89.8</ele>
        <time>2015-02-23T20:07:04.256Z</time>
      </trkpt>
      <trkpt lat="48.85533" lon="2.30351">
        <ele>89.7</ele>
        <time>2015-02-23T20:07:06.147Z</time>
      </trkpt>
      <trkpt lat="48.85531" lon="2.30356">
        <ele>89.8</ele>
        <time>2015-02-23T20:07:07.203Z</time>
      </trkpt>
      <trkpt lat="48.85527" lon="2.30365">
        <ele>90.1</ele>
        <time>2015-02-23T20:07:09.144Z</time>
      </trkpt>
      <trkpt lat="48.85526" lon="2.30369">
        <ele>90</ele>
        <time>2015-02-23T20:07:10.161Z</time>
      </trkpt>
      <trkpt lat="48.85522" lon="2.3038">
        <ele>89.6</ele>
        <time>2015-02-23T20:07:12.210Z</time>
      </trkpt>
      <trkpt lat="48.85519" lon="2.30386">
        <ele>89.3</ele>
        <time>2015-02-23T20:07:13.221Z</time>
      </trkpt>
      <trkpt lat="48.85515" lon="2.30391">
        <ele>89.4</ele>
        <time>2015-02-23T20:07:14.141Z</time>
      </trkpt>
      <trkpt lat="48.85511" lon="2.30397">
        <ele>89.4</ele>
        <time>2015-02-23T20:07:15.309Z</time>
      </trkpt>
      <trkpt lat="48.85507" lon="2.30402">
        <ele>89.4</ele>
        <time>2015-02-23T20:07:16.164Z</time>
      </trkpt>
      <trkpt lat="48.85502" lon="2.30408">
        <ele>89.4</ele>
        <time>2015-02-23T20:07:17.180Z</time>
      </trkpt>
      <trkpt lat="48.85498" lon="2.30413">
        <ele>89.4</ele>
        <time>2015-02-23T20:07:18.184Z</time>
      </trkpt>
      <trkpt lat="48.85495" lon="2.30418">
        <ele>89.5</ele>
        <time>2015-02-23T20:07:19.191Z</time>
      </trkpt>
      <trkpt lat="48.85491" lon="2.30423">
        <ele>89.6</ele>
        <time>2015-02-23T20:07:20.351Z</time>
      </trkpt>
      <trkpt lat="48.85487" lon="2.30428">
        <ele>89.7</ele>
        <time>2015-02-23T20:07:21.193Z</time>
      </trkpt>
      <trkpt lat="48.85484" lon="2.30433">
        <ele>89.9</ele>
        <time>2015-02-23T20:07:22.209Z</time>
      </trkpt>
      <trkpt lat="48.8548" lon="2.30438">
        <ele>90.1</ele>
        <time>2015-02-23T20:07:23.214Z</time>
      </trkpt>
      <trkpt lat="48.85476" lon="2.30443">
        <ele>90.1</ele>
        <time>2015-02-23T20:07:24.117Z</time>
      </trkpt>
      <trkpt lat="48.85473" lon="2.30447">
        <ele>90.1</ele>
        <time>2015-02-23T20:07:25.187Z</time>
      </trkpt>
      <trkpt lat="48.85466" lon="2.30456">
        <ele>90</ele>
        <time>2015-02-23T20:07:27.184Z</time>
      </trkpt>
      <trkpt lat="48.85464" lon="2.3046">
        <ele>89.7</ele>
        <time>2015-02-23T20:07:28.187Z</time>
      </trkpt>
      <trkpt lat="48.8546" lon="2.30468">
        <ele>89.2</ele>
        <time>2015-02-23T20:07:30.254Z</time>
      </trkpt>
      <trkpt lat="48.85458" lon="2.30472">
        <ele>89</ele>
        <time>2015-02-23T20:07:31.275Z</time>
      </trkpt>
      <trkpt lat="48.85454" lon="2.3048">
        <ele>88.3</ele>
        <time>2015-02-23T20:07:34.150Z</time>
      </trkpt>
      <trkpt lat="48.85454" lon="2.30485">
        <ele>87.3</ele>
        <time>2015-02-23T20:07:35.153Z</time>
      </trkpt>
      <trkpt lat="48.8545" lon="2.30497">
        <ele>86</ele>
        <time>2015-02-23T20:07:39.155Z</time>
      </trkpt>
      <trkpt lat="48.8545" lon="2.30499">
        <ele>86.1</ele>
        <time>2015-02-23T20:07:40.170Z</time>
      </trkpt>
      <trkpt lat="48.85444" lon="2.30506">
        <ele>86.6</ele>
        <time>2015-02-23T20:07:44.151Z</time>
      </trkpt>
      <trkpt lat="48.85442" lon="2.30509">
        <ele>86.4</ele>
        <time>2015-02-23T20:07:45.163Z</time>
      </trkpt>
      <trkpt lat="48.85436" lon="2.30518">
        <ele>85.6</ele>
        <time>2015-02-23T20:07:49.280Z</time>
      </trkpt>
      <trkpt lat="48.85434" lon="2.3052">
        <ele>85.7</ele>
        <time>2015-02-23T20:07:50.250Z</time>
      </trkpt>
      <trkpt lat="48.85428" lon="2.30525">
        <ele>86.8</ele>
        <time>2015-02-23T20:07:53.216Z</time>
      </trkpt>
      <trkpt lat="48.85426" lon="2.30528">
        <ele>87.1</ele>
        <time>2015-02-23T20:07:54.247Z</time>
      </trkpt>
      <trkpt lat="48.85421" lon="2.30537">
        <ele>87.4</ele>
        <time>2015-02-23T20:07:57.161Z</time>
      </trkpt>
      <trkpt lat="48.85419" lon="2.30541">
        <ele>86.4</ele>
        <time>2015-02-23T20:07:58.174Z</time>
      </trkpt>
      <trkpt lat="48.85417" lon="2.30551">
        <ele>85.5</ele>
        <time>2015-02-23T20:08:01.203Z</time>
      </trkpt>
      <trkpt lat="48.85417" lon="2.30555">
        <ele>84.9</ele>
        <time>2015-02-23T20:08:02.195Z</time>
      </trkpt>
      <trkpt lat="48.85415" lon="2.30566">
        <ele>84.9</ele>
        <time>2015-02-23T20:08:05.152Z</time>
      </trkpt>
      <trkpt lat="48.85414" lon="2.3057">
        <ele>85</ele>
        <time>2015-02-23T20:08:06.171Z</time>
      </trkpt>
      <trkpt lat="48.85412" lon="2.3058">
        <ele>85</ele>
        <time>2015-02-23T20:08:09.169Z</time>
      </trkpt>
      <trkpt lat="48.85411" lon="2.30583">
        <ele>85.1</ele>
        <time>2015-02-23T20:08:10.157Z</time>
      </trkpt>
      <trkpt lat="48.85409" lon="2.30594">
        <ele>85.2</ele>
        <time>2015-02-23T20:08:13.197Z</time>
      </trkpt>
      <trkpt lat="48.85409" lon="2.30597">
        <ele>85.3</ele>
        <time>2015-02-23T20:08:14.216Z</time>
      </trkpt>
      <trkpt lat="48.85407" lon="2.3061">
        <ele>85.6</ele>
        <time>2015-02-23T20:08:18.196Z</time>
      </trkpt>
      <trkpt lat="48.85406" lon="2.30612">
        <ele>85.6</ele>
        <time>2015-02-23T20:08:19.210Z</time>
      </trkpt>
      <trkpt lat="48.85406" lon="2.30624">
        <ele>86.4</ele>
        <time>2015-02-23T20:08:24.218Z</time>
      </trkpt>
      <trkpt lat="48.85406" lon="2.30626">
        <ele>86.3</ele>
        <time>2015-02-23T20:08:25.267Z</time>
      </trkpt>
      <trkpt lat="48.85407" lon="2.30638">
        <ele>86.9</ele>
        <time>2015-02-23T20:08:30.225Z</time>
      </trkpt>
      <trkpt lat="48.85407" lon="2.30641">
        <ele>87</ele>
        <time>2015-02-23T20:08:31.240Z</time>
      </trkpt>
      <trkpt lat="48.85406" lon="2.30652">
        <ele>87.2</ele>
        <time>2015-02-23T20:08:34.146Z</time>
      </trkpt>
      <trkpt lat="48.85406" lon="2.30656">
        <ele>87.1</ele>
        <time>2015-02-23T20:08:35.149Z</time>
      </trkpt>
      <trkpt lat="48.85407" lon="2.30665">
        <ele>86.9</ele>
        <time>2015-02-23T20:08:37.218Z</time>
      </trkpt>
      <trkpt lat="48.85408" lon="2.3067">
        <ele>86.8</ele>
        <time>2015-02-23T20:08:38.134Z</time>
      </trkpt>
      <trkpt lat="48.85408" lon="2.3068">
        <ele>86.6</ele>
        <time>2015-02-23T20:08:40.181Z</time>
      </trkpt>
      <trkpt lat="48.85409" lon="2.30686">
        <ele>86.3</ele>
        <time>2015-02-23T20:08:41.206Z</time>
      </trkpt>
      <trkpt lat="48.85411" lon="2.30697">
        <ele>85.7</ele>
        <time>2015-02-23T20:08:43.246Z</time>
      </trkpt>
      <trkpt lat="48.85411" lon="2.30702">
        <ele>85.5</ele>
        <time>2015-02-23T20:08:44.154Z</time>
      </trkpt>
      <trkpt lat="48.85411" lon="2.30713">
        <ele>85</ele>
        <time>2015-02-23T20:08:46.185Z</time>
      </trkpt>
      <trkpt lat="48.85411" lon="2.30718">
        <ele>84.9</ele>
        <time>2015-02-23T20:08:47.195Z</time>
      </trkpt>
      <trkpt lat="48.85409" lon="2.3073">
        <ele>85</ele>
        <time>2015-02-23T20:08:49.244Z</time>
      </trkpt>
      <trkpt lat="48.85407" lon="2.30736">
        <ele>84.8</ele>
        <time>2015-02-23T20:08:50.261Z</time>
      </trkpt>
      <trkpt lat="48.85404" lon="2.30747">
        <ele>84.6</ele>
        <time>2015-02-23T20:08:52.151Z</time>
      </trkpt>
      <trkpt lat="48.85402" lon="2.30753">
        <ele>84.6</ele>
        <time>2015-02-23T20:08:53.180Z</time>
      </trkpt>
      <trkpt lat="48.85399" lon="2.30765">
        <ele>84.6</ele>
        <time>2015-02-23T20:08:55.275Z</time>
      </trkpt>
      <trkpt lat="48.85398" lon="2.30771">
        <ele>84.6</ele>
        <time>2015-02-23T20:08:56.158Z</time>
      </trkpt>
      <trkpt lat="48.85395" lon="2.30783">
        <ele>84.6</ele>
        <time>2015-02-23T20:08:58.195Z</time>
      </trkpt>
      <trkpt lat="48.85394" lon="2.3079">
        <ele>84.8</ele>
        <time>2015-02-23T20:08:59.208Z</time>
      </trkpt>
      <trkpt lat="48.85392" lon="2.30797">
        <ele>85</ele>
        <time>2015-02-23T20:09:00.158Z</time>
      </trkpt>
      <trkpt lat="48.85389" lon="2.30805">
        <ele>85.5</ele>
        <time>2015-02-23T20:09:01.193Z</time>
      </trkpt>
      <trkpt lat="48.85388" lon="2.30812">
        <ele>85.6</ele>
        <time>2015-02-23T20:09:02.239Z</time>
      </trkpt>
      <trkpt lat="48.85387" lon="2.30818">
        <ele>85.9</ele>
        <time>2015-02-23T20:09:03.214Z</time>
      </trkpt>
      <trkpt lat="48.85385" lon="2.30825">
        <ele>86.3</ele>
        <time>2015-02-23T20:09:04.234Z</time>
      </trkpt>
      <trkpt lat="48.85386" lon="2.30832">
        <ele>86.4</ele>
        <time>2015-02-23T20:09:05.158Z</time>
      </trkpt>
      <trkpt lat="48.85385" lon="2.30838">
        <ele>86.4</ele>
        <time>2015-02-23T20:09:06.196Z</time>
      </trkpt>
      <trkpt lat="48.85384" lon="2.30846">
        <ele>86.4</ele>
        <time>2015-02-23T20:09:07.210Z</time>
      </trkpt>
      <trkpt lat="48.85381" lon="2.30853">
        <ele>86.5</ele>
        <time>2015-02-23T20:09:08.146Z</time>
      </trkpt>
      <trkpt lat="48.85381" lon="2.30861">
        <ele>86.4</ele>
        <time>2015-02-23T20:09:09.154Z</time>
      </trkpt>
      <trkpt lat="48.8538" lon="2.3087">
        <ele>86.3</ele>
        <time>2015-02-23T20:09:10.164Z</time>
      </trkpt>
      <trkpt lat="48.85379" lon="2.30877">
        <ele>86.4</ele>
        <time>2015-02-23T20:09:11.167Z</time>
      </trkpt>
      <trkpt lat="48.8538" lon="2.30884">
        <ele>86.5</ele>
        <time>2015-02-23T20:09:12.200Z</time>
      </trkpt>
      <trkpt lat="48.85383" lon="2.30892">
        <ele>86.7</ele>
        <time>2015-02-23T20:09:13.235Z</time>
      </trkpt>
      <trkpt lat="48.85384" lon="2.30899">
        <ele>86.7</ele>
        <time>2015-02-23T20:09:14.148Z</time>
      </trkpt>
      <trkpt lat="48.85385" lon="2.30905">
        <ele>86.7</ele>
        <time>2015-02-23T20:09:15.154Z</time>
      </trkpt>
      <trkpt lat="48.85387" lon="2.30912">
        <ele>86.4</ele>
        <time>2015-02-23T20:09:16.158Z</time>
      </trkpt>
      <trkpt lat="48.85388" lon="2.30919">
        <ele>86</ele>
        <time>2015-02-23T20:09:17.217Z</time>
      </trkpt>
      <trkpt lat="48.8539" lon="2.30931">
        <ele>85.2</ele>
        <time>2015-02-23T20:09:19.191Z</time>
      </trkpt>
      <trkpt lat="48.8539" lon="2.30937">
        <ele>84.9</ele>
        <time>2015-02-23T20:09:20.199Z</time>
      </trkpt>
      <trkpt lat="48.85385" lon="2.30944">
        <ele>84.9</ele>
        <time>2015-02-23T20:09:23.134Z</time>
      </trkpt>
      <trkpt lat="48.85382" lon="2.30945">
        <ele>85.3</ele>
        <time>2015-02-23T20:09:24.168Z</time>
      </trkpt>
      <trkpt lat="48.85375" lon="2.30945">
        <ele>84.9</ele>
        <time>2015-02-23T20:09:28.231Z</time>
      </trkpt>
      <trkpt lat="48.85372" lon="2.30945">
        <ele>84.8</ele>
        <time>2015-02-23T20:09:29.198Z</time>
      </trkpt>
      <trkpt lat="48.85365" lon="2.30944">
        <ele>84.8</ele>
        <time>2015-02-23T20:09:31.277Z</time>
      </trkpt>
      <trkpt lat="48.85361" lon="2.30943">
        <ele>84.9</ele>
        <time>2015-02-23T20:09:32.151Z</time>
      </trkpt>
      <trkpt lat="48.85353" lon="2.30946">
        <ele>85.2</ele>
        <time>2015-02-23T20:09:35.171Z</time>
      </trkpt>
      <trkpt lat="48.85351" lon="2.30952">
        <ele>85</ele>
        <time>2015-02-23T20:09:36.191Z</time>
      </trkpt>
      <trkpt lat="48.85348" lon="2.30962">
        <ele>85.2</ele>
        <time>2015-02-23T20:09:38.159Z</time>
      </trkpt>
      <trkpt lat="48.85347" lon="2.30966">
        <ele>85.4</ele>
        <time>2015-02-23T20:09:39.174Z</time>
      </trkpt>
      <trkpt lat="48.85343" lon="2.30977">
        <ele>85.4</ele>
        <time>2015-02-23T20:09:42.205Z</time>
      </trkpt>
      <trkpt lat="48.85342" lon="2.3098">
        <ele>85.6</ele>
        <time>2015-02-23T20:09:43.214Z</time>
      </trkpt>
      <trkpt lat="48.85337" lon="2.30988">
        <ele>85.5</ele>
        <time>2015-02-23T20:09:46.188Z</time>
      </trkpt>
      <trkpt lat="48.85335" lon="2.30989">
        <ele>85.7</ele>
        <time>2015-02-23T20:09:47.199Z</time>
      </trkpt>
      <trkpt lat="48.85329" lon="2.30993">
        <ele>86</ele>
        <time>2015-02-23T20:09:50.154Z</time>
      </trkpt>
      <trkpt lat="48.85326" lon="2.30995">
        <ele>86.1</ele>
        <time>2015-02-23T20:09:51.148Z</time>
      </trkpt>
      <trkpt lat="48.85319" lon="2.30998">
        <ele>86.5</ele>
        <time>2015-02-23T20:09:54.143Z</time>
      </trkpt>
      <trkpt lat="48.85317" lon="2.31001">
        <ele>86.6</ele>
        <time>2015-02-23T20:09:55.183Z</time>
      </trkpt>
      <trkpt lat="48.8531" lon="2.31007">
        <ele>86.8</ele>
        <time>2015-02-23T20:09:58.215Z</time>
      </trkpt>
      <trkpt lat="48.85307" lon="2.31009">
        <ele>86.9</ele>
        <time>2015-02-23T20:09:59.166Z</time>
      </trkpt>
      <trkpt lat="48.85299" lon="2.31015">
        <ele>87.4</ele>
        <time>2015-02-23T20:10:02.180Z</time>
      </trkpt>
      <trkpt lat="48.85295" lon="2.31017">
        <ele>87.5</ele>
        <time>2015-02-23T20:10:03.317Z</time>
      </trkpt>
      <trkpt lat="48.85291" lon="2.31019">
        <ele>87.6</ele>
        <time>2015-02-23T20:10:04.154Z</time>
      </trkpt>
      <trkpt lat="48.85287" lon="2.31024">
        <ele>87.5</ele>
        <time>2015-02-23T20:10:05.165Z</time>
      </trkpt>
      <trkpt lat="48.85281" lon="2.3103">
        <ele>87.5</ele>
        <time>2015-02-23T20:10:07.176Z</time>
      </trkpt>
      <trkpt lat="48.85278" lon="2.31033">
        <ele>87.5</ele>
        <time>2015-02-23T20:10:08.183Z</time>
      </trkpt>
      <trkpt lat="48.85271" lon="2.31038">
        <ele>87.6</ele>
        <time>2015-02-23T20:10:10.140Z</time>
      </trkpt>
      <trkpt lat="48.85267" lon="2.3104">
        <ele>87.5</ele>
        <time>2015-02-23T20:10:11.166Z</time>
      </trkpt>
      <trkpt lat="48.85259" lon="2.31043">
        <ele>87.7</ele>
        <time>2015-02-23T20:10:13.169Z</time>
      </trkpt>
      <trkpt lat="48.85254" lon="2.31043">
        <ele>87.6</ele>
        <time>2015-02-23T20:10:14.171Z</time>
      </trkpt>
      <trkpt lat="48.85246" lon="2.31042">
        <ele>87.7</ele>
        <time>2015-02-23T20:10:16.289Z</time>
      </trkpt>
      <trkpt lat="48.85242" lon="2.31043">
        <ele>88.1</ele>
        <time>2015-02-23T20:10:17.161Z</time>
      </trkpt>
      <trkpt lat="48.85239" lon="2.31055">
        <ele>88.8</ele>
        <time>2015-02-23T20:10:20.214Z</time>
      </trkpt>
      <trkpt lat="48.85238" lon="2.3106">
        <ele>89.2</ele>
        <time>2015-02-23T20:10:21.217Z</time>
      </trkpt>
      <trkpt lat="48.8524" lon="2.31074">
        <ele>90.1</ele>
        <time>2015-02-23T20:10:24.157Z</time>
      </trkpt>
      <trkpt lat="48.85242" lon="2.31077">
        <ele>90</ele>
        <time>2015-02-23T20:10:25.203Z</time>
      </trkpt>
      <trkpt lat="48.85249" lon="2.31086">
        <ele>90.3</ele>
        <time>2015-02-23T20:10:28.157Z</time>
      </trkpt>
      <trkpt lat="48.85252" lon="2.31088">
        <ele>90.1</ele>
        <time>2015-02-23T20:10:29.174Z</time>
      </trkpt>
      <trkpt lat="48.8526" lon="2.31091">
        <ele>90.1</ele>
        <time>2015-02-23T20:10:31.185Z</time>
      </trkpt>
      <trkpt lat="48.85263" lon="2.31093">
        <ele>90.2</ele>
        <time>2015-02-23T20:10:32.178Z</time>
      </trkpt>
      <trkpt lat="48.8527" lon="2.31096">
        <ele>90.4</ele>
        <time>2015-02-23T20:10:34.206Z</time>
      </trkpt>
      <trkpt lat="48.85273" lon="2.31099">
        <ele>90.9</ele>
        <time>2015-02-23T20:10:35.222Z</time>
      </trkpt>
      <trkpt lat="48.8528" lon="2.31103">
        <ele>91.7</ele>
        <time>2015-02-23T20:10:37.184Z</time>
      </trkpt>
      <trkpt lat="48.85283" lon="2.31105">
        <ele>91.9</ele>
        <time>2015-02-23T20:10:38.186Z</time>
      </trkpt>
      <trkpt lat="48.85289" lon="2.31112">
        <ele>92.1</ele>
        <time>2015-02-23T20:10:40.217Z</time>
      </trkpt>
      <trkpt lat="48.85292" lon="2.31116">
        <ele>92.1</ele>
        <time>2015-02-23T20:10:41.230Z</time>
      </trkpt>
      <trkpt lat="48.85298" lon="2.31124">
        <ele>92.2</ele>
        <time>2015-02-23T20:10:43.183Z</time>
      </trkpt>
      <trkpt lat="48.85301" lon="2.31128">
        <ele>92.4</ele>
        <time>2015-02-23T20:10:44.186Z</time>
      </trkpt>
      <trkpt lat="48.85307" lon="2.31134">
        <ele>92.4</ele>
        <time>2015-02-23T20:10:46.154Z</time>
      </trkpt>
      <trkpt lat="48.8531" lon="2.31138">
        <ele>92.5</ele>
        <time>2015-02-23T20:10:47.166Z</time>
      </trkpt>
      <trkpt lat="48.85317" lon="2.31146">
        <ele>91.8</ele>
        <time>2015-02-23T20:10:49.226Z</time>
      </trkpt>
      <trkpt lat="48.8532" lon="2.31149">
        <ele>91.7</ele>
        <time>2015-02-23T20:10:50.161Z</time>
      </trkpt>
      <trkpt lat="48.85323" lon="2.31162">
        <ele>91.4</ele>
        <time>2015-02-23T20:10:53.158Z</time>
      </trkpt>
      <trkpt lat="48.85322" lon="2.31165">
        <ele>91.3</ele>
        <time>2015-02-23T20:10:54.166Z</time>
      </trkpt>
      <trkpt lat="48.85319" lon="2.31175">
        <ele>90.5</ele>
        <time>2015-02-23T20:10:57.161Z</time>
      </trkpt>
      <trkpt lat="48.85318" lon="2.31178">
        <ele>90</ele>
        <time>2015-02-23T20:10:58.169Z</time>
      </trkpt>
      <trkpt lat="48.85312" lon="2.31185">
        <ele>89.3</ele>
        <time>2015-02-23T20:11:02.179Z</time>
      </trkpt>
      <trkpt lat="48.85309" lon="2.31186">
        <ele>88.8</ele>
        <time>2015-02-23T20:11:03.189Z</time>
      </trkpt>
      <trkpt lat="48.853" lon="2.31188">
        <ele>87.1</ele>
        <time>2015-02-23T20:11:06.124Z</time>
      </trkpt>
      <trkpt lat="48.85297" lon="2.31188">
        <ele>86.9</ele>
        <time>2015-02-23T20:11:07.199Z</time>
      </trkpt>
      <trkpt lat="48.85288" lon="2.31187">
        <ele>86.6</ele>
        <time>2015-02-23T20:11:10.124Z</time>
      </trkpt>
      <trkpt lat="48.85285" lon="2.31188">
        <ele>86.5</ele>
        <time>2015-02-23T20:11:11.151Z</time>
      </trkpt>
      <trkpt lat="48.85277" lon="2.31187">
        <ele>86.3</ele>
        <time>2015-02-23T20:11:14.201Z</time>
      </trkpt>
      <trkpt lat="48.85274" lon="2.31187">
        <ele>86.4</ele>
        <time>2015-02-23T20:11:15.229Z</time>
      </trkpt>
      <trkpt lat="48.85266" lon="2.31185">
        <ele>86.4</ele>
        <time>2015-02-23T20:11:18.233Z</time>
      </trkpt>
      <trkpt lat="48.85262" lon="2.31185">
        <ele>86.2</ele>
        <time>2015-02-23T20:11:19.267Z</time>
      </trkpt>
      <trkpt lat="48.85255" lon="2.31184">
        <ele>86.3</ele>
        <time>2015-02-23T20:11:21.151Z</time>
      </trkpt>
      <trkpt lat="48.85252" lon="2.31183">
        <ele>86.4</ele>
        <time>2015-02-23T20:11:22.154Z</time>
      </trkpt>
      <trkpt lat="48.85244" lon="2.31182">
        <ele>86.5</ele>
        <time>2015-02-23T20:11:24.186Z</time>
      </trkpt>
      <trkpt lat="48.85239" lon="2.31183">
        <ele>86.5</ele>
        <time>2015-02-23T20:11:25.194Z</time>
      </trkpt>
      <trkpt lat="48.8523" lon="2.31182">
        <ele>87</ele>
        <time>2015-02-23T20:11:27.145Z</time>
      </trkpt>
      <trkpt lat="48.85226" lon="2.31181">
        <ele>86.9</ele>
        <time>2015-02-23T20:11:28.161Z</time>
      </trkpt>
      <trkpt lat="48.85217" lon="2.31179">
        <ele>86.7</ele>
        <time>2015-02-23T20:11:30.173Z</time>
      </trkpt>
      <trkpt lat="48.85213" lon="2.31178">
        <ele>86.6</ele>
        <time>2015-02-23T20:11:31.192Z</time>
      </trkpt>
      <trkpt lat="48.85205" lon="2.31176">
        <ele>86.3</ele>
        <time>2015-02-23T20:11:33.221Z</time>
      </trkpt>
      <trkpt lat="48.852" lon="2.31175">
        <ele>86.2</ele>
        <time>2015-02-23T20:11:34.232Z</time>
      </trkpt>
      <trkpt lat="48.85192" lon="2.31176">
        <ele>86.1</ele>
        <time>2015-02-23T20:11:36.150Z</time>
      </trkpt>
      <trkpt lat="48.85187" lon="2.31177">
        <ele>86.1</ele>
        <time>2015-02-23T20:11:37.196Z</time>
      </trkpt>
      <trkpt lat="48.85182" lon="2.31178">
        <ele>86.1</ele>
        <time>2015-02-23T20:11:38.142Z</time>
      </trkpt>
      <trkpt lat="48.85177" lon="2.31178">
        <ele>86.2</ele>
        <time>2015-02-23T20:11:39.137Z</time>
      </trkpt>
      <trkpt lat="48.85168" lon="2.31179">
        <ele>86.5</ele>
        <time>2015-02-23T20:11:41.152Z</time>
      </trkpt>
      <trkpt lat="48.85163" lon="2.31179">
        <ele>86.6</ele>
        <time>2015-02-23T20:11:42.170Z</time>
      </trkpt>
      <trkpt lat="48.85154" lon="2.31179">
        <ele>86.8</ele>
        <time>2015-02-23T20:11:44.221Z</time>
      </trkpt>
      <trkpt lat="48.8515" lon="2.31178">
        <ele>86.9</ele>
        <time>2015-02-23T20:11:45.154Z</time>
      </trkpt>
      <trkpt lat="48.85145" lon="2.31178">
        <ele>87</ele>
        <time>2015-02-23T20:11:46.145Z</time>
      </trkpt>
      <trkpt lat="48.8514" lon="2.31178">
        <ele>86.9</ele>
        <time>2015-02-23T20:11:47.145Z</time>
      </trkpt>
      <trkpt lat="48.85135" lon="2.31178">
        <ele>86.8</ele>
        <time>2015-02-23T20:11:48.159Z</time>
      </trkpt>
      <trkpt lat="48.8513" lon="2.31178">
        <ele>86.8</ele>
        <time>2015-02-23T20:11:49.195Z</time>
      </trkpt>
      <trkpt lat="48.85125" lon="2.31178">
        <ele>86.7</ele>
        <time>2015-02-23T20:11:50.146Z</time>
      </trkpt>
      <trkpt lat="48.85121" lon="2.31177">
        <ele>86.7</ele>
        <time>2015-02-23T20:11:51.152Z</time>
      </trkpt>
      <trkpt lat="48.85116" lon="2.31176">
        <ele>86.7</ele>
        <time>2015-02-23T20:11:52.172Z</time>
      </trkpt>
      <trkpt lat="48.85111" lon="2.31174">
        <ele>86.6</ele>
        <time>2015-02-23T20:11:53.202Z</time>
      </trkpt>
      <trkpt lat="48.85107" lon="2.31173">
        <ele>86.7</ele>
        <time>2015-02-23T20:11:54.219Z</time>
      </trkpt>
      <trkpt lat="48.85102" lon="2.31172">
        <ele>86.7</ele>
        <time>2015-02-23T20:11:55.258Z</time>
      </trkpt>
      <trkpt lat="48.85098" lon="2.31171">
        <ele>86.7</ele>
        <time>2015-02-23T20:11:56.148Z</time>
      </trkpt>
      <trkpt lat="48.85093" lon="2.3117">
        <ele>86.8</ele>
        <time>2015-02-23T20:11:57.148Z</time>
      </trkpt>
      <trkpt lat="48.85088" lon="2.31171">
        <ele>87.1</ele>
        <time>2015-02-23T20:11:58.159Z</time>
      </trkpt>
      <trkpt lat="48.85083" lon="2.31173">
        <ele>87.1</ele>
        <time>2015-02-23T20:11:59.167Z</time>
      </trkpt>
      <trkpt lat="48.85079" lon="2.31175">
        <ele>87.2</ele>
        <time>2015-02-23T20:12:00.203Z</time>
      </trkpt>
      <trkpt lat="48.85075" lon="2.31178">
        <ele>87.2</ele>
        <time>2015-02-23T20:12:01.241Z</time>
      </trkpt>
      <trkpt lat="48.85071" lon="2.31182">
        <ele>87.3</ele>
        <time>2015-02-23T20:12:02.144Z</time>
      </trkpt>
      <trkpt lat="48.85066" lon="2.31187">
        <ele>87.6</ele>
        <time>2015-02-23T20:12:03.153Z</time>
      </trkpt>
      <trkpt lat="48.85063" lon="2.31192">
        <ele>87.4</ele>
        <time>2015-02-23T20:12:04.159Z</time>
      </trkpt>
      <trkpt lat="48.85059" lon="2.31197">
        <ele>87.4</ele>
        <time>2015-02-23T20:12:05.215Z</time>
      </trkpt>
      <trkpt lat="48.85055" lon="2.31201">
        <ele>87.4</ele>
        <time>2015-02-23T20:12:06.157Z</time>
      </trkpt>
      <trkpt lat="48.85052" lon="2.31206">
        <ele>87.4</ele>
        <time>2015-02-23T20:12:07.192Z</time>
      </trkpt>
      <trkpt lat="48.85046" lon="2.31214">
        <ele>87.3</ele>
        <time>2015-02-23T20:12:09.203Z</time>
      </trkpt>
      <trkpt lat="48.85043" lon="2.31218">
        <ele>87.3</ele>
        <time>2015-02-23T20:12:10.215Z</time>
      </trkpt>
      <trkpt lat="48.85036" lon="2.31226">
        <ele>87.3</ele>
        <time>2015-02-23T20:12:12.162Z</time>
      </trkpt>
      <trkpt lat="48.85033" lon="2.3123">
        <ele>87.2</ele>
        <time>2015-02-23T20:12:13.187Z</time>
      </trkpt>
      <trkpt lat="48.85027" lon="2.31237">
        <ele>87.1</ele>
        <time>2015-02-23T20:12:15.235Z</time>
      </trkpt>
      <trkpt lat="48.85024" lon="2.31242">
        <ele>86.9</ele>
        <time>2015-02-23T20:12:16.199Z</time>
      </trkpt>
      <trkpt lat="48.85018" lon="2.3125">
        <ele>86.8</ele>
        <time>2015-02-23T20:12:18.142Z</time>
      </trkpt>
      <trkpt lat="48.85016" lon="2.31254">
        <ele>86.7</ele>
        <time>2015-02-23T20:12:19.198Z</time>
      </trkpt>
      <trkpt lat="48.85012" lon="2.31262">
        <ele>86.2</ele>
        <time>2015-02-23T20:12:21.155Z</time>
      </trkpt>
      <trkpt lat="48.85009" lon="2.31265">
        <ele>86.2</ele>
        <time>2015-02-23T20:12:22.182Z</time>
      </trkpt>
      <trkpt lat="48.85003" lon="2.31271">
        <ele>86.4</ele>
        <time>2015-02-23T20:12:24.197Z</time>
      </trkpt>
      <trkpt lat="48.84999" lon="2.31273">
        <ele>86.8</ele>
        <time>2015-02-23T20:12:25.240Z</time>
      </trkpt>
      <trkpt lat="48.84992" lon="2.31276">
        <ele>87.1</ele>
        <time>2015-02-23T20:12:27.150Z</time>
      </trkpt>
      <trkpt lat="48.84989" lon="2.31278">
        <ele>87.1</ele>
        <time>2015-02-23T20:12:28.275Z</time>
      </trkpt>
      <trkpt lat="48.84983" lon="2.31284">
        <ele>87.9</ele>
        <time>2015-02-23T20:12:31.249Z</time>
      </trkpt>
      <trkpt lat="48.8498" lon="2.31287">
        <ele>88.1</ele>
        <time>2015-02-23T20:12:32.258Z</time>
      </trkpt>
      <trkpt lat="48.84974" lon="2.31295">
        <ele>88.1</ele>
        <time>2015-02-23T20:12:34.148Z</time>
      </trkpt>
      <trkpt lat="48.84971" lon="2.31299">
        <ele>88.1</ele>
        <time>2015-02-23T20:12:35.188Z</time>
      </trkpt>
      <trkpt lat="48.84968" lon="2.31305">
        <ele>87.9</ele>
        <time>2015-02-23T20:12:36.149Z</time>
      </trkpt>
      <trkpt lat="48.84964" lon="2.31311">
        <ele>87.7</ele>
        <time>2015-02-23T20:12:37.160Z</time>
      </trkpt>
      <trkpt lat="48.84961" lon="2.31317">
        <ele>87.7</ele>
        <time>2015-02-23T20:12:38.177Z</time>
      </trkpt>
      <trkpt lat="48.84958" lon="2.31323">
        <ele>87.6</ele>
        <time>2015-02-23T20:12:39.271Z</time>
      </trkpt>
      <trkpt lat="48.84953" lon="2.31333">
        <ele>87.8</ele>
        <time>2015-02-23T20:12:41.751Z</time>
      </trkpt>
      <trkpt lat="48.84949" lon="2.31338">
        <ele>88</ele>
        <time>2015-02-23T20:12:42.161Z</time>
      </trkpt>
      <trkpt lat="48.84946" lon="2.31342">
        <ele>88.3</ele>
        <time>2015-02-23T20:12:43.169Z</time>
      </trkpt>
      <trkpt lat="48.84943" lon="2.31347">
        <ele>88.6</ele>
        <time>2015-02-23T20:12:44.206Z</time>
      </trkpt>
      <trkpt lat="48.84936" lon="2.31355">
        <ele>89.2</ele>
        <time>2015-02-23T20:12:46.141Z</time>
      </trkpt>
      <trkpt lat="48.84933" lon="2.31362">
        <ele>89.3</ele>
        <time>2015-02-23T20:12:47.157Z</time>
      </trkpt>
      <trkpt lat="48.8493" lon="2.31369">
        <ele>89.5</ele>
        <time>2015-02-23T20:12:48.182Z</time>
      </trkpt>
      <trkpt lat="48.84927" lon="2.31373">
        <ele>89.9</ele>
        <time>2015-02-23T20:12:49.188Z</time>
      </trkpt>
      <trkpt lat="48.84918" lon="2.31376">
        <ele>90.7</ele>
        <time>2015-02-23T20:12:51.202Z</time>
      </trkpt>
      <trkpt lat="48.84914" lon="2.31376">
        <ele>91.3</ele>
        <time>2015-02-23T20:12:52.242Z</time>
      </trkpt>
      <trkpt lat="48.84906" lon="2.31377">
        <ele>92.1</ele>
        <time>2015-02-23T20:12:54.158Z</time>
      </trkpt>
      <trkpt lat="48.84902" lon="2.31379">
        <ele>92.6</ele>
        <time>2015-02-23T20:12:55.220Z</time>
      </trkpt>
      <trkpt lat="48.84897" lon="2.31381">
        <ele>93.1</ele>
        <time>2015-02-23T20:12:56.220Z</time>
      </trkpt>
      <trkpt lat="48.84891" lon="2.31386">
        <ele>93.1</ele>
        <time>2015-02-23T20:12:57.156Z</time>
      </trkpt>
      <trkpt lat="48.84885" lon="2.31392">
        <ele>93.2</ele>
        <time>2015-02-23T20:12:58.253Z</time>
      </trkpt>
      <trkpt lat="48.84878" lon="2.31397">
        <ele>93.5</ele>
        <time>2015-02-23T20:12:59.153Z</time>
      </trkpt>
      <trkpt lat="48.84874" lon="2.314">
        <ele>93.8</ele>
        <time>2015-02-23T20:13:00.159Z</time>
      </trkpt>
      <trkpt lat="48.8487" lon="2.31403">
        <ele>93.9</ele>
        <time>2015-02-23T20:13:01.248Z</time>
      </trkpt>
      <trkpt lat="48.84865" lon="2.31406">
        <ele>94</ele>
        <time>2015-02-23T20:13:02.153Z</time>
      </trkpt>
      <trkpt lat="48.84861" lon="2.31408">
        <ele>94.2</ele>
        <time>2015-02-23T20:13:03.151Z</time>
      </trkpt>
      <trkpt lat="48.84857" lon="2.31411">
        <ele>94.3</ele>
        <time>2015-02-23T20:13:04.171Z</time>
      </trkpt>
      <trkpt lat="48.84852" lon="2.31413">
        <ele>94.7</ele>
        <time>2015-02-23T20:13:05.207Z</time>
      </trkpt>
      <trkpt lat="48.84847" lon="2.31414">
        <ele>95.4</ele>
        <time>2015-02-23T20:13:06.156Z</time>
      </trkpt>
      <trkpt lat="48.84842" lon="2.31417">
        <ele>95.8</ele>
        <time>2015-02-23T20:13:07.200Z</time>
      </trkpt>
      <trkpt lat="48.84835" lon="2.31421">
        <ele>96</ele>
        <time>2015-02-23T20:13:09.216Z</time>
      </trkpt>
      <trkpt lat="48.84831" lon="2.31423">
        <ele>96.2</ele>
        <time>2015-02-23T20:13:10.245Z</time>
      </trkpt>
      <trkpt lat="48.84824" lon="2.31427">
        <ele>96.2</ele>
        <time>2015-02-23T20:13:12.144Z</time>
      </trkpt>
      <trkpt lat="48.8482" lon="2.31429">
        <ele>96.3</ele>
        <time>2015-02-23T20:13:13.190Z</time>
      </trkpt>
      <trkpt lat="48.84812" lon="2.31436">
        <ele>97.3</ele>
        <time>2015-02-23T20:13:15.200Z</time>
      </trkpt>
      <trkpt lat="48.84809" lon="2.31439">
        <ele>98.1</ele>
        <time>2015-02-23T20:13:16.204Z</time>
      </trkpt>
      <trkpt lat="48.84802" lon="2.31445">
        <ele>99.4</ele>
        <time>2015-02-23T20:13:18.143Z</time>
      </trkpt>
      <trkpt lat="48.84799" lon="2.31448">
        <ele>99.7</ele>
        <time>2015-02-23T20:13:19.194Z</time>
      </trkpt>
      <trkpt lat="48.84792" lon="2.31455">
        <ele>100.3</ele>
        <time>2015-02-23T20:13:22.213Z</time>
      </trkpt>
      <trkpt lat="48.84789" lon="2.31457">
        <ele>100.3</ele>
        <time>2015-02-23T20:13:23.153Z</time>
      </trkpt>
      <trkpt lat="48.84782" lon="2.31461">
        <ele>100.5</ele>
        <time>2015-02-23T20:13:26.306Z</time>
      </trkpt>
      <trkpt lat="48.8478" lon="2.31462">
        <ele>100.5</ele>
        <time>2015-02-23T20:13:27.154Z</time>
      </trkpt>
      <trkpt lat="48.84774" lon="2.31466">
        <ele>100.4</ele>
        <time>2015-02-23T20:13:29.189Z</time>
      </trkpt>
      <trkpt lat="48.84771" lon="2.31468">
        <ele>100.3</ele>
        <time>2015-02-23T20:13:30.219Z</time>
      </trkpt>
      <trkpt lat="48.84764" lon="2.31473">
        <ele>100.1</ele>
        <time>2015-02-23T20:13:32.138Z</time>
      </trkpt>
      <trkpt lat="48.84761" lon="2.31475">
        <ele>99.9</ele>
        <time>2015-02-23T20:13:33.160Z</time>
      </trkpt>
      <trkpt lat="48.84755" lon="2.31479">
        <ele>99.8</ele>
        <time>2015-02-23T20:13:35.192Z</time>
      </trkpt>
      <trkpt lat="48.84751" lon="2.31481">
        <ele>99.8</ele>
        <time>2015-02-23T20:13:36.199Z</time>
      </trkpt>
      <trkpt lat="48.84744" lon="2.31484">
        <ele>99.5</ele>
        <time>2015-02-23T20:13:38.143Z</time>
      </trkpt>
      <trkpt lat="48.84741" lon="2.31485">
        <ele>99.7</ele>
        <time>2015-02-23T20:13:39.153Z</time>
      </trkpt>
      <trkpt lat="48.84733" lon="2.31488">
        <ele>99.7</ele>
        <time>2015-02-23T20:13:41.163Z</time>
      </trkpt>
      <trkpt lat="48.8473" lon="2.31491">
        <ele>99.8</ele>
        <time>2015-02-23T20:13:42.169Z</time>
      </trkpt>
      <trkpt lat="48.84722" lon="2.31496">
        <ele>99.5</ele>
        <time>2015-02-23T20:13:44.199Z</time>
      </trkpt>
      <trkpt lat="48.84719" lon="2.31498">
        <ele>99.4</ele>
        <time>2015-02-23T20:13:45.210Z</time>
      </trkpt>
      <trkpt lat="48.84711" lon="2.31503">
        <ele>99.7</ele>
        <time>2015-02-23T20:13:47.142Z</time>
      </trkpt>
      <trkpt lat="48.84707" lon="2.31505">
        <ele>99.5</ele>
        <time>2015-02-23T20:13:48.154Z</time>
      </trkpt>
      <trkpt lat="48.84699" lon="2.31508">
        <ele>99.2</ele>
        <time>2015-02-23T20:13:50.145Z</time>
      </trkpt>
      <trkpt lat="48.84695" lon="2.3151">
        <ele>99.1</ele>
        <time>2015-02-23T20:13:51.160Z</time>
      </trkpt>
      <trkpt lat="48.84689" lon="2.31513">
        <ele>98.7</ele>
        <time>2015-02-23T20:13:53.239Z</time>
      </trkpt>
      <trkpt lat="48.84685" lon="2.31514">
        <ele>98.8</ele>
        <time>2015-02-23T20:13:54.266Z</time>
      </trkpt>
      <trkpt lat="48.84679" lon="2.31517">
        <ele>98.7</ele>
        <time>2015-02-23T20:13:56.188Z</time>
      </trkpt>
      <trkpt lat="48.84676" lon="2.31518">
        <ele>99.1</ele>
        <time>2015-02-23T20:13:57.208Z</time>
      </trkpt>
      <trkpt lat="48.8467" lon="2.31521">
        <ele>99.6</ele>
        <time>2015-02-23T20:13:59.174Z</time>
      </trkpt>
      <trkpt lat="48.84666" lon="2.31523">
        <ele>100.1</ele>
        <time>2015-02-23T20:14:00.174Z</time>
      </trkpt>
      <trkpt lat="48.84657" lon="2.31526">
        <ele>102.4</ele>
        <time>2015-02-23T20:14:02.121Z</time>
      </trkpt>
      <trkpt lat="48.84654" lon="2.31528">
        <ele>102.9</ele>
        <time>2015-02-23T20:14:03.153Z</time>
      </trkpt>
      <trkpt lat="48.84649" lon="2.31538">
        <ele>104.6</ele>
        <time>2015-02-23T20:14:07.183Z</time>
      </trkpt>
      <trkpt lat="48.84648" lon="2.31536">
        <ele>104.5</ele>
        <time>2015-02-23T20:14:08.129Z</time>
      </trkpt>
      <trkpt lat="48.84647" lon="2.31536">
        <ele>104.3</ele>
        <time>2015-02-23T20:14:23.170Z</time>
      </trkpt>
      <trkpt lat="48.84644" lon="2.3154">
        <ele>104.2</ele>
        <time>2015-02-23T20:14:24.198Z</time>
      </trkpt>
      <trkpt lat="48.8464" lon="2.31529">
        <ele>104.3</ele>
        <time>2015-02-23T20:14:28.188Z</time>
      </trkpt>
      <trkpt lat="48.84638" lon="2.31525">
        <ele>104.2</ele>
        <time>2015-02-23T20:14:29.195Z</time>
      </trkpt>
      <trkpt lat="48.84635" lon="2.31517">
        <ele>104.3</ele>
        <time>2015-02-23T20:14:31.191Z</time>
      </trkpt>
      <trkpt lat="48.84633" lon="2.31512">
        <ele>104.1</ele>
        <time>2015-02-23T20:14:32.195Z</time>
      </trkpt>
      <trkpt lat="48.84631" lon="2.31503">
        <ele>103.6</ele>
        <time>2015-02-23T20:14:34.209Z</time>
      </trkpt>
      <trkpt lat="48.8463" lon="2.31498">
        <ele>103.5</ele>
        <time>2015-02-23T20:14:35.193Z</time>
      </trkpt>
      <trkpt lat="48.84627" lon="2.31487">
        <ele>103.3</ele>
        <time>2015-02-23T20:14:37.264Z</time>
      </trkpt>
      <trkpt lat="48.84626" lon="2.31481">
        <ele>103.2</ele>
        <time>2015-02-23T20:14:38.155Z</time>
      </trkpt>
      <trkpt lat="48.84623" lon="2.3147">
        <ele>103</ele>
        <time>2015-02-23T20:14:40.196Z</time>
      </trkpt>
      <trkpt lat="48.84622" lon="2.31463">
        <ele>103</ele>
        <time>2015-02-23T20:14:41.205Z</time>
      </trkpt>
      <trkpt lat="48.8462" lon="2.3145">
        <ele>102.9</ele>
        <time>2015-02-23T20:14:43.253Z</time>
      </trkpt>
      <trkpt lat="48.84618" lon="2.31445">
        <ele>102.8</ele>
        <time>2015-02-23T20:14:44.151Z</time>
      </trkpt>
      <trkpt lat="48.84615" lon="2.31434">
        <ele>102.8</ele>
        <time>2015-02-23T20:14:46.212Z</time>
      </trkpt>
      <trkpt lat="48.84614" lon="2.31429">
        <ele>102.7</ele>
        <time>2015-02-23T20:14:47.217Z</time>
      </trkpt>
      <trkpt lat="48.84611" lon="2.3142">
        <ele>102.5</ele>
        <time>2015-02-23T20:14:49.177Z</time>
      </trkpt>
      <trkpt lat="48.8461" lon="2.31415">
        <ele>102.4</ele>
        <time>2015-02-23T20:14:50.178Z</time>
      </trkpt>
      <trkpt lat="48.84607" lon="2.31406">
        <ele>102.2</ele>
        <time>2015-02-23T20:14:52.135Z</time>
      </trkpt>
      <trkpt lat="48.84607" lon="2.31402">
        <ele>102.2</ele>
        <time>2015-02-23T20:14:53.243Z</time>
      </trkpt>
      <trkpt lat="48.84604" lon="2.31392">
        <ele>101.8</ele>
        <time>2015-02-23T20:14:55.178Z</time>
      </trkpt>
      <trkpt lat="48.84603" lon="2.31387">
        <ele>101.5</ele>
        <time>2015-02-23T20:14:56.234Z</time>
      </trkpt>
      <trkpt lat="48.846" lon="2.31377">
        <ele>101.3</ele>
        <time>2015-02-23T20:14:58.144Z</time>
      </trkpt>
      <trkpt lat="48.84597" lon="2.31373">
        <ele>101.6</ele>
        <time>2015-02-23T20:14:59.186Z</time>
      </trkpt>
      <trkpt lat="48.84592" lon="2.31366">
        <ele>102.1</ele>
        <time>2015-02-23T20:15:01.185Z</time>
      </trkpt>
      <trkpt lat="48.84589" lon="2.31363">
        <ele>102.3</ele>
        <time>2015-02-23T20:15:02.263Z</time>
      </trkpt>
      <trkpt lat="48.84583" lon="2.31354">
        <ele>102.8</ele>
        <time>2015-02-23T20:15:04.135Z</time>
      </trkpt>
      <trkpt lat="48.84581" lon="2.31348">
        <ele>102.9</ele>
        <time>2015-02-23T20:15:05.201Z</time>
      </trkpt>
      <trkpt lat="48.84577" lon="2.31336">
        <ele>103.1</ele>
        <time>2015-02-23T20:15:07.179Z</time>
      </trkpt>
      <trkpt lat="48.84575" lon="2.31329">
        <ele>103.1</ele>
        <time>2015-02-23T20:15:08.191Z</time>
      </trkpt>
      <trkpt lat="48.84573" lon="2.31322">
        <ele>103.1</ele>
        <time>2015-02-23T20:15:09.217Z</time>
      </trkpt>
      <trkpt lat="48.84572" lon="2.31316">
        <ele>103.1</ele>
        <time>2015-02-23T20:15:10.221Z</time>
      </trkpt>
      <trkpt lat="48.84569" lon="2.31304">
        <ele>103.2</ele>
        <time>2015-02-23T20:15:12.271Z</time>
      </trkpt>
      <trkpt lat="48.84567" lon="2.31297">
        <ele>103.3</ele>
        <time>2015-02-23T20:15:13.185Z</time>
      </trkpt>
      <trkpt lat="48.84564" lon="2.31285">
        <ele>103.6</ele>
        <time>2015-02-23T20:15:15.140Z</time>
      </trkpt>
      <trkpt lat="48.84563" lon="2.31279">
        <ele>103.7</ele>
        <time>2015-02-23T20:15:16.151Z</time>
      </trkpt>
      <trkpt lat="48.84561" lon="2.31268">
        <ele>103.5</ele>
        <time>2015-02-23T20:15:18.178Z</time>
      </trkpt>
      <trkpt lat="48.84559" lon="2.31263">
        <ele>103.2</ele>
        <time>2015-02-23T20:15:19.201Z</time>
      </trkpt>
      <trkpt lat="48.84557" lon="2.31253">
        <ele>103</ele>
        <time>2015-02-23T20:15:21.115Z</time>
      </trkpt>
      <trkpt lat="48.84555" lon="2.31249">
        <ele>103</ele>
        <time>2015-02-23T20:15:22.152Z</time>
      </trkpt>
      <trkpt lat="48.84552" lon="2.31239">
        <ele>102.8</ele>
        <time>2015-02-23T20:15:24.221Z</time>
      </trkpt>
      <trkpt lat="48.8455" lon="2.31233">
        <ele>102.9</ele>
        <time>2015-02-23T20:15:25.241Z</time>
      </trkpt>
      <trkpt lat="48.84546" lon="2.31224">
        <ele>103.3</ele>
        <time>2015-02-23T20:15:27.148Z</time>
      </trkpt>
      <trkpt lat="48.84544" lon="2.31219">
        <ele>103.4</ele>
        <time>2015-02-23T20:15:28.169Z</time>
      </trkpt>
      <trkpt lat="48.84541" lon="2.31209">
        <ele>103.4</ele>
        <time>2015-02-23T20:15:30.210Z</time>
      </trkpt>
      <trkpt lat="48.8454" lon="2.31204">
        <ele>103</ele>
        <time>2015-02-23T20:15:31.221Z</time>
      </trkpt>
      <trkpt lat="48.84538" lon="2.31194">
        <ele>102.8</ele>
        <time>2015-02-23T20:15:33.141Z</time>
      </trkpt>
      <trkpt lat="48.84538" lon="2.31189">
        <ele>102.2</ele>
        <time>2015-02-23T20:15:34.161Z</time>
      </trkpt>
      <trkpt lat="48.84537" lon="2.31179">
        <ele>101.2</ele>
        <time>2015-02-23T20:15:36.238Z</time>
      </trkpt>
      <trkpt lat="48.84536" lon="2.31174">
        <ele>101.2</ele>
        <time>2015-02-23T20:15:37.251Z</time>
      </trkpt>
      <trkpt lat="48.84534" lon="2.31163">
        <ele>100.5</ele>
        <time>2015-02-23T20:15:40.148Z</time>
      </trkpt>
      <trkpt lat="48.84533" lon="2.31159">
        <ele>100.1</ele>
        <time>2015-02-23T20:15:41.166Z</time>
      </trkpt>
      <trkpt lat="48.84531" lon="2.31146">
        <ele>99.1</ele>
        <time>2015-02-23T20:15:45.137Z</time>
      </trkpt>
      <trkpt lat="48.84531" lon="2.31142">
        <ele>99.2</ele>
        <time>2015-02-23T20:15:46.146Z</time>
      </trkpt>
      <trkpt lat="48.84527" lon="2.3113">
        <ele>98.9</ele>
        <time>2015-02-23T20:15:49.162Z</time>
      </trkpt>
      <trkpt lat="48.84526" lon="2.31126">
        <ele>98.6</ele>
        <time>2015-02-23T20:15:50.181Z</time>
      </trkpt>
      <trkpt lat="48.84522" lon="2.31114">
        <ele>98.4</ele>
        <time>2015-02-23T20:15:53.240Z</time>
      </trkpt>
      <trkpt lat="48.84521" lon="2.3111">
        <ele>98</ele>
        <time>2015-02-23T20:15:54.152Z</time>
      </trkpt>
      <trkpt lat="48.84516" lon="2.311">
        <ele>96.4</ele>
        <time>2015-02-23T20:16:02.214Z</time>
      </trkpt>
      <trkpt lat="48.84515" lon="2.31099">
        <ele>96</ele>
        <time>2015-02-23T20:16:03.433Z</time>
      </trkpt>
      <trkpt lat="48.8451" lon="2.31088">
        <ele>94.3</ele>
        <time>2015-02-23T20:16:12.192Z</time>
      </trkpt>
      <trkpt lat="48.8451" lon="2.31086">
        <ele>94.2</ele>
        <time>2015-02-23T20:16:13.196Z</time>
      </trkpt>
      <trkpt lat="48.84508" lon="2.31074">
        <ele>92.9</ele>
        <time>2015-02-23T20:16:19.191Z</time>
      </trkpt>
      <trkpt lat="48.84506" lon="2.31073">
        <ele>92.2</ele>
        <time>2015-02-23T20:16:20.213Z</time>
      </trkpt>
      <trkpt lat="48.845" lon="2.31063">
        <ele>92.7</ele>
        <time>2015-02-23T20:16:24.203Z</time>
      </trkpt>
      <trkpt lat="48.84498" lon="2.3106">
        <ele>92.7</ele>
        <time>2015-02-23T20:16:25.259Z</time>
      </trkpt>
      <trkpt lat="48.84494" lon="2.31049">
        <ele>92</ele>
        <time>2015-02-23T20:16:28.153Z</time>
      </trkpt>
      <trkpt lat="48.84492" lon="2.31043">
        <ele>91.7</ele>
        <time>2015-02-23T20:16:29.166Z</time>
      </trkpt>
      <trkpt lat="48.8449" lon="2.31033">
        <ele>91.5</ele>
        <time>2015-02-23T20:16:31.201Z</time>
      </trkpt>
      <trkpt lat="48.84489" lon="2.31028">
        <ele>91.4</ele>
        <time>2015-02-23T20:16:32.282Z</time>
      </trkpt>
      <trkpt lat="48.84486" lon="2.3102">
        <ele>91.8</ele>
        <time>2015-02-23T20:16:34.141Z</time>
      </trkpt>
      <trkpt lat="48.84484" lon="2.31015">
        <ele>91.8</ele>
        <time>2015-02-23T20:16:35.152Z</time>
      </trkpt>
      <trkpt lat="48.84482" lon="2.31006">
        <ele>91.6</ele>
        <time>2015-02-23T20:16:37.270Z</time>
      </trkpt>
      <trkpt lat="48.8448" lon="2.31001">
        <ele>91.5</ele>
        <time>2015-02-23T20:16:38.152Z</time>
      </trkpt>
      <trkpt lat="48.84477" lon="2.30992">
        <ele>91</ele>
        <time>2015-02-23T20:16:40.233Z</time>
      </trkpt>
      <trkpt lat="48.84476" lon="2.30987">
        <ele>90.9</ele>
        <time>2015-02-23T20:16:41.296Z</time>
      </trkpt>
      <trkpt lat="48.84473" lon="2.30978">
        <ele>90.7</ele>
        <time>2015-02-23T20:16:43.171Z</time>
      </trkpt>
      <trkpt lat="48.84471" lon="2.30973">
        <ele>90.7</ele>
        <time>2015-02-23T20:16:44.178Z</time>
      </trkpt>
      <trkpt lat="48.84469" lon="2.30963">
        <ele>90.6</ele>
        <time>2015-02-23T20:16:46.132Z</time>
      </trkpt>
      <trkpt lat="48.84468" lon="2.30958">
        <ele>90.6</ele>
        <time>2015-02-23T20:16:47.145Z</time>
      </trkpt>
      <trkpt lat="48.84465" lon="2.30948">
        <ele>90.6</ele>
        <time>2015-02-23T20:16:49.275Z</time>
      </trkpt>
      <trkpt lat="48.84464" lon="2.30943">
        <ele>90.9</ele>
        <time>2015-02-23T20:16:50.171Z</time>
      </trkpt>
      <trkpt lat="48.84461" lon="2.30933">
        <ele>91</ele>
        <time>2015-02-23T20:16:52.215Z</time>
      </trkpt>
      <trkpt lat="48.84459" lon="2.30928">
        <ele>91</ele>
        <time>2015-02-23T20:16:53.276Z</time>
      </trkpt>
      <trkpt lat="48.84453" lon="2.3092">
        <ele>91.1</ele>
        <time>2015-02-23T20:16:56.181Z</time>
      </trkpt>
      <trkpt lat="48.84452" lon="2.30918">
        <ele>91.2</ele>
        <time>2015-02-23T20:16:57.192Z</time>
      </trkpt>
      <trkpt lat="48.84446" lon="2.30924">
        <ele>91.3</ele>
        <time>2015-02-23T20:17:02.139Z</time>
      </trkpt>
      <trkpt lat="48.84444" lon="2.30926">
        <ele>91.3</ele>
        <time>2015-02-23T20:17:03.171Z</time>
      </trkpt>
      <trkpt lat="48.84436" lon="2.30929">
        <ele>91</ele>
        <time>2015-02-23T20:17:07.185Z</time>
      </trkpt>
      <trkpt lat="48.84433" lon="2.30931">
        <ele>90.9</ele>
        <time>2015-02-23T20:17:08.180Z</time>
      </trkpt>
      <trkpt lat="48.84428" lon="2.30935">
        <ele>90.6</ele>
        <time>2015-02-23T20:17:10.194Z</time>
      </trkpt>
      <trkpt lat="48.84425" lon="2.30937">
        <ele>90.4</ele>
        <time>2015-02-23T20:17:11.195Z</time>
      </trkpt>
      <trkpt lat="48.84418" lon="2.30943">
        <ele>89.7</ele>
        <time>2015-02-23T20:17:13.168Z</time>
      </trkpt>
      <trkpt lat="48.84415" lon="2.30945">
        <ele>89.5</ele>
        <time>2015-02-23T20:17:14.167Z</time>
      </trkpt>
      <trkpt lat="48.84409" lon="2.3095">
        <ele>89</ele>
        <time>2015-02-23T20:17:16.141Z</time>
      </trkpt>
      <trkpt lat="48.84406" lon="2.30953">
        <ele>88.7</ele>
        <time>2015-02-23T20:17:17.276Z</time>
      </trkpt>
      <trkpt lat="48.84399" lon="2.3096">
        <ele>88.3</ele>
        <time>2015-02-23T20:17:19.212Z</time>
      </trkpt>
      <trkpt lat="48.84394" lon="2.30961">
        <ele>88.4</ele>
        <time>2015-02-23T20:17:20.261Z</time>
      </trkpt>
      <trkpt lat="48.84387" lon="2.30963">
        <ele>88.6</ele>
        <time>2015-02-23T20:17:22.195Z</time>
      </trkpt>
      <trkpt lat="48.84384" lon="2.30964">
        <ele>88.8</ele>
        <time>2015-02-23T20:17:23.194Z</time>
      </trkpt>
      <trkpt lat="48.84377" lon="2.30967">
        <ele>89</ele>
        <time>2015-02-23T20:17:25.214Z</time>
      </trkpt>
      <trkpt lat="48.84374" lon="2.30969">
        <ele>89</ele>
        <time>2015-02-23T20:17:26.241Z</time>
      </trkpt>
      <trkpt lat="48.84367" lon="2.30972">
        <ele>89.4</ele>
        <time>2015-02-23T20:17:28.140Z</time>
      </trkpt>
      <trkpt lat="48.84364" lon="2.30973">
        <ele>89.7</ele>
        <time>2015-02-23T20:17:29.172Z</time>
      </trkpt>
      <trkpt lat="48.84358" lon="2.30975">
        <ele>90</ele>
        <time>2015-02-23T20:17:31.203Z</time>
      </trkpt>
      <trkpt lat="48.84355" lon="2.30977">
        <ele>90</ele>
        <time>2015-02-23T20:17:32.212Z</time>
      </trkpt>
      <trkpt lat="48.84347" lon="2.30983">
        <ele>90.4</ele>
        <time>2015-02-23T20:17:35.184Z</time>
      </trkpt>
      <trkpt lat="48.84344" lon="2.30985">
        <ele>90.5</ele>
        <time>2015-02-23T20:17:36.225Z</time>
      </trkpt>
      <trkpt lat="48.84338" lon="2.3099">
        <ele>90.7</ele>
        <time>2015-02-23T20:17:38.133Z</time>
      </trkpt>
      <trkpt lat="48.84335" lon="2.30993">
        <ele>90.9</ele>
        <time>2015-02-23T20:17:39.268Z</time>
      </trkpt>
      <trkpt lat="48.84329" lon="2.30999">
        <ele>91</ele>
        <time>2015-02-23T20:17:41.140Z</time>
      </trkpt>
      <trkpt lat="48.84327" lon="2.31001">
        <ele>91.1</ele>
        <time>2015-02-23T20:17:42.268Z</time>
      </trkpt>
      <trkpt lat="48.84322" lon="2.31006">
        <ele>91.4</ele>
        <time>2015-02-23T20:17:44.233Z</time>
      </trkpt>
      <trkpt lat="48.84319" lon="2.31008">
        <ele>91.3</ele>
        <time>2015-02-23T20:17:45.121Z</time>
      </trkpt>
      <trkpt lat="48.84313" lon="2.31011">
        <ele>91.4</ele>
        <time>2015-02-23T20:17:47.968Z</time>
      </trkpt>
      <trkpt lat="48.8431" lon="2.31013">
        <ele>91.5</ele>
        <time>2015-02-23T20:17:48.145Z</time>
      </trkpt>
      <trkpt lat="48.84304" lon="2.31018">
        <ele>91.8</ele>
        <time>2015-02-23T20:17:51.144Z</time>
      </trkpt>
      <trkpt lat="48.84301" lon="2.3102">
        <ele>91.9</ele>
        <time>2015-02-23T20:17:52.204Z</time>
      </trkpt>
      <trkpt lat="48.84295" lon="2.31023">
        <ele>91.9</ele>
        <time>2015-02-23T20:17:54.218Z</time>
      </trkpt>
      <trkpt lat="48.84292" lon="2.31024">
        <ele>91.9</ele>
        <time>2015-02-23T20:17:55.228Z</time>
      </trkpt>
      <trkpt lat="48.84285" lon="2.31027">
        <ele>92</ele>
        <time>2015-02-23T20:17:57.238Z</time>
      </trkpt>
      <trkpt lat="48.84282" lon="2.3103">
        <ele>92.1</ele>
        <time>2015-02-23T20:17:58.106Z</time>
      </trkpt>
      <trkpt lat="48.84275" lon="2.31037">
        <ele>92.4</ele>
        <time>2015-02-23T20:18:00.141Z</time>
      </trkpt>
      <trkpt lat="48.84272" lon="2.31039">
        <ele>92.5</ele>
        <time>2015-02-23T20:18:01.163Z</time>
      </trkpt>
      <trkpt lat="48.84268" lon="2.31042">
        <ele>92.7</ele>
        <time>2015-02-23T20:18:02.178Z</time>
      </trkpt>
      <trkpt lat="48.84264" lon="2.31047">
        <ele>94</ele>
        <time>2015-02-23T20:18:03.241Z</time>
      </trkpt>
      <trkpt lat="48.8426" lon="2.31052">
        <ele>95.4</ele>
        <time>2015-02-23T20:18:04.138Z</time>
      </trkpt>
      <trkpt lat="48.84255" lon="2.31056">
        <ele>97</ele>
        <time>2015-02-23T20:18:05.144Z</time>
      </trkpt>
      <trkpt lat="48.84249" lon="2.31059">
        <ele>98.6</ele>
        <time>2015-02-23T20:18:06.157Z</time>
      </trkpt>
      <trkpt lat="48.84245" lon="2.31061">
        <ele>99.8</ele>
        <time>2015-02-23T20:18:07.164Z</time>
      </trkpt>
      <trkpt lat="48.84239" lon="2.3106">
        <ele>101.5</ele>
        <time>2015-02-23T20:18:11.166Z</time>
      </trkpt>
      <trkpt lat="48.8424" lon="2.31059">
        <ele>101.6</ele>
        <time>2015-02-23T20:18:12.161Z</time>
      </trkpt>
      <trkpt lat="48.8424" lon="2.31059">
        <ele>101.6</ele>
        <time>2015-02-23T20:18:37.230Z</time>
      </trkpt>
      <trkpt lat="48.84235" lon="2.31063">
        <ele>104.2</ele>
        <time>2015-02-23T20:18:38.128Z</time>
      </trkpt>
      <trkpt lat="48.84228" lon="2.31059">
        <ele>104.5</ele>
        <time>2015-02-23T20:18:41.849Z</time>
      </trkpt>
      <trkpt lat="48.84226" lon="2.31056">
        <ele>104.4</ele>
        <time>2015-02-23T20:18:42.158Z</time>
      </trkpt>
      <trkpt lat="48.84221" lon="2.3105">
        <ele>104.5</ele>
        <time>2015-02-23T20:18:45.205Z</time>
      </trkpt>
      <trkpt lat="48.8422" lon="2.31046">
        <ele>104.5</ele>
        <time>2015-02-23T20:18:46.218Z</time>
      </trkpt>
      <trkpt lat="48.84217" lon="2.3104">
        <ele>104.3</ele>
        <time>2015-02-23T20:18:48.125Z</time>
      </trkpt>
      <trkpt lat="48.84215" lon="2.31035">
        <ele>103.9</ele>
        <time>2015-02-23T20:18:49.204Z</time>
      </trkpt>
      <trkpt lat="48.84212" lon="2.31025">
        <ele>103.5</ele>
        <time>2015-02-23T20:18:52.062Z</time>
      </trkpt>
      <trkpt lat="48.8421" lon="2.3102">
        <ele>103.2</ele>
        <time>2015-02-23T20:18:52.112Z</time>
      </trkpt>
      <trkpt lat="48.84208" lon="2.31009">
        <ele>102.9</ele>
        <time>2015-02-23T20:18:54.115Z</time>
      </trkpt>
      <trkpt lat="48.84206" lon="2.31005">
        <ele>102.8</ele>
        <time>2015-02-23T20:18:55.153Z</time>
      </trkpt>
      <trkpt lat="48.84204" lon="2.30994">
        <ele>102.3</ele>
        <time>2015-02-23T20:18:57.165Z</time>
      </trkpt>
      <trkpt lat="48.84203" lon="2.30988">
        <ele>102.3</ele>
        <time>2015-02-23T20:18:58.184Z</time>
      </trkpt>
      <trkpt lat="48.84201" lon="2.30977">
        <ele>102</ele>
        <time>2015-02-23T20:19:00.163Z</time>
      </trkpt>
      <trkpt lat="48.842" lon="2.30972">
        <ele>101.7</ele>
        <time>2015-02-23T20:19:01.209Z</time>
      </trkpt>
      <trkpt lat="48.84198" lon="2.30961">
        <ele>101.4</ele>
        <time>2015-02-23T20:19:03.135Z</time>
      </trkpt>
      <trkpt lat="48.84197" lon="2.30955">
        <ele>101.3</ele>
        <time>2015-02-23T20:19:04.140Z</time>
      </trkpt>
      <trkpt lat="48.84195" lon="2.30945">
        <ele>101.4</ele>
        <time>2015-02-23T20:19:06.166Z</time>
      </trkpt>
      <trkpt lat="48.84194" lon="2.3094">
        <ele>101.5</ele>
        <time>2015-02-23T20:19:07.207Z</time>
      </trkpt>
      <trkpt lat="48.84193" lon="2.30929">
        <ele>101.7</ele>
        <time>2015-02-23T20:19:09.156Z</time>
      </trkpt>
      <trkpt lat="48.84192" lon="2.30924">
        <ele>101.7</ele>
        <time>2015-02-23T20:19:10.159Z</time>
      </trkpt>
      <trkpt lat="48.84189" lon="2.30914">
        <ele>101.9</ele>
        <time>2015-02-23T20:19:12.621Z</time>
      </trkpt>
      <trkpt lat="48.84188" lon="2.30908">
        <ele>102.3</ele>
        <time>2015-02-23T20:19:13.202Z</time>
      </trkpt>
      <trkpt lat="48.84184" lon="2.30898">
        <ele>102.6</ele>
        <time>2015-02-23T20:19:15.226Z</time>
      </trkpt>
      <trkpt lat="48.84183" lon="2.30893">
        <ele>102.9</ele>
        <time>2015-02-23T20:19:16.243Z</time>
      </trkpt>
      <trkpt lat="48.84179" lon="2.30883">
        <ele>102.8</ele>
        <time>2015-02-23T20:19:18.146Z</time>
      </trkpt>
      <trkpt lat="48.84177" lon="2.30878">
        <ele>102.7</ele>
        <time>2015-02-23T20:19:19.228Z</time>
      </trkpt>
      <trkpt lat="48.84173" lon="2.30867">
        <ele>102.5</ele>
        <time>2015-02-23T20:19:21.709Z</time>
      </trkpt>
      <trkpt lat="48.84171" lon="2.30862">
        <ele>102.4</ele>
        <time>2015-02-23T20:19:22.174Z</time>
      </trkpt>
      <trkpt lat="48.84167" lon="2.30853">
        <ele>102</ele>
        <time>2015-02-23T20:19:24.141Z</time>
      </trkpt>
      <trkpt lat="48.84165" lon="2.30848">
        <ele>101.8</ele>
        <time>2015-02-23T20:19:25.164Z</time>
      </trkpt>
      <trkpt lat="48.84162" lon="2.30836">
        <ele>101.5</ele>
        <time>2015-02-23T20:19:27.226Z</time>
      </trkpt>
      <trkpt lat="48.84161" lon="2.30831">
        <ele>101.4</ele>
        <time>2015-02-23T20:19:28.341Z</time>
      </trkpt>
      <trkpt lat="48.84157" lon="2.30822">
        <ele>101.1</ele>
        <time>2015-02-23T20:19:30.181Z</time>
      </trkpt>
      <trkpt lat="48.84155" lon="2.30817">
        <ele>101</ele>
        <time>2015-02-23T20:19:31.329Z</time>
      </trkpt>
      <trkpt lat="48.8415" lon="2.30809">
        <ele>101</ele>
        <time>2015-02-23T20:19:33.152Z</time>
      </trkpt>
      <trkpt lat="48.84146" lon="2.30806">
        <ele>100.9</ele>
        <time>2015-02-23T20:19:34.162Z</time>
      </trkpt>
      <trkpt lat="48.84137" lon="2.30804">
        <ele>100.9</ele>
        <time>2015-02-23T20:19:38.232Z</time>
      </trkpt>
      <trkpt lat="48.84134" lon="2.30804">
        <ele>100.9</ele>
        <time>2015-02-23T20:19:39.143Z</time>
      </trkpt>
      <trkpt lat="48.84127" lon="2.30807">
        <ele>101.1</ele>
        <time>2015-02-23T20:19:42.115Z</time>
      </trkpt>
      <trkpt lat="48.84126" lon="2.30808">
        <ele>101.3</ele>
        <time>2015-02-23T20:19:43.184Z</time>
      </trkpt>
      <trkpt lat="48.84117" lon="2.30813">
        <ele>101.1</ele>
        <time>2015-02-23T20:19:47.110Z</time>
      </trkpt>
      <trkpt lat="48.84115" lon="2.30814">
        <ele>100.8</ele>
        <time>2015-02-23T20:19:48.221Z</time>
      </trkpt>
      <trkpt lat="48.84108" lon="2.30822">
        <ele>99.8</ele>
        <time>2015-02-23T20:19:52.148Z</time>
      </trkpt>
      <trkpt lat="48.84105" lon="2.30825">
        <ele>99.7</ele>
        <time>2015-02-23T20:19:53.168Z</time>
      </trkpt>
      <trkpt lat="48.841" lon="2.30829">
        <ele>99.2</ele>
        <time>2015-02-23T20:19:55.199Z</time>
      </trkpt>
      <trkpt lat="48.84096" lon="2.30831">
        <ele>98.5</ele>
        <time>2015-02-23T20:19:56.220Z</time>
      </trkpt>
      <trkpt lat="48.84088" lon="2.30838">
        <ele>97.2</ele>
        <time>2015-02-23T20:19:58.130Z</time>
      </trkpt>
      <trkpt lat="48.84085" lon="2.30842">
        <ele>96.6</ele>
        <time>2015-02-23T20:19:59.136Z</time>
      </trkpt>
      <trkpt lat="48.84079" lon="2.3085">
        <ele>96.3</ele>
        <time>2015-02-23T20:20:01.172Z</time>
      </trkpt>
      <trkpt lat="48.84076" lon="2.30854">
        <ele>96</ele>
        <time>2015-02-23T20:20:02.316Z</time>
      </trkpt>
      <trkpt lat="48.84069" lon="2.30859">
        <ele>96</ele>
        <time>2015-02-23T20:20:04.252Z</time>
      </trkpt>
      <trkpt lat="48.84066" lon="2.30861">
        <ele>96.1</ele>
        <time>2015-02-23T20:20:05.195Z</time>
      </trkpt>
      <trkpt lat="48.8406" lon="2.30865">
        <ele>96.4</ele>
        <time>2015-02-23T20:20:07.223Z</time>
      </trkpt>
      <trkpt lat="48.84057" lon="2.30867">
        <ele>96.5</ele>
        <time>2015-02-23T20:20:08.135Z</time>
      </trkpt>
      <trkpt lat="48.84051" lon="2.3087">
        <ele>97.2</ele>
        <time>2015-02-23T20:20:10.149Z</time>
      </trkpt>
      <trkpt lat="48.84048" lon="2.30872">
        <ele>97.8</ele>
        <time>2015-02-23T20:20:11.173Z</time>
      </trkpt>
      <trkpt lat="48.84042" lon="2.30876">
        <ele>98.9</ele>
        <time>2015-02-23T20:20:13.180Z</time>
      </trkpt>
      <trkpt lat="48.84039" lon="2.30878">
        <ele>99.5</ele>
        <time>2015-02-23T20:20:14.176Z</time>
      </trkpt>
      <trkpt lat="48.84033" lon="2.30882">
        <ele>100.3</ele>
        <time>2015-02-23T20:20:16.521Z</time>
      </trkpt>
      <trkpt lat="48.8403" lon="2.30884">
        <ele>100.5</ele>
        <time>2015-02-23T20:20:17.147Z</time>
      </trkpt>
      <trkpt lat="48.84023" lon="2.30888">
        <ele>101.5</ele>
        <time>2015-02-23T20:20:20.181Z</time>
      </trkpt>
      <trkpt lat="48.84021" lon="2.30889">
        <ele>101.5</ele>
        <time>2015-02-23T20:20:21.215Z</time>
      </trkpt>
      <trkpt lat="48.84012" lon="2.30892">
        <ele>102.3</ele>
        <time>2015-02-23T20:20:24.144Z</time>
      </trkpt>
      <trkpt lat="48.84009" lon="2.30894">
        <ele>102.6</ele>
        <time>2015-02-23T20:20:25.149Z</time>
      </trkpt>
      <trkpt lat="48.84002" lon="2.30901">
        <ele>102.7</ele>
        <time>2015-02-23T20:20:28.802Z</time>
      </trkpt>
      <trkpt lat="48.83998" lon="2.30904">
        <ele>102.8</ele>
        <time>2015-02-23T20:20:29.223Z</time>
      </trkpt>
      <trkpt lat="48.83995" lon="2.30908">
        <ele>101.9</ele>
        <time>2015-02-23T20:20:30.238Z</time>
      </trkpt>
      <trkpt lat="48.83991" lon="2.30912">
        <ele>101.3</ele>
        <time>2015-02-23T20:20:31.242Z</time>
      </trkpt>
      <trkpt lat="48.83985" lon="2.3092">
        <ele>100.4</ele>
        <time>2015-02-23T20:20:33.151Z</time>
      </trkpt>
      <trkpt lat="48.83982" lon="2.30923">
        <ele>100.6</ele>
        <time>2015-02-23T20:20:34.208Z</time>
      </trkpt>
      <trkpt lat="48.83976" lon="2.30931">
        <ele>100.1</ele>
        <time>2015-02-23T20:20:37.069Z</time>
      </trkpt>
      <trkpt lat="48.83974" lon="2.30933">
        <ele>100.2</ele>
        <time>2015-02-23T20:20:37.132Z</time>
      </trkpt>
      <trkpt lat="48.83967" lon="2.30941">
        <ele>100</ele>
        <time>2015-02-23T20:20:40.186Z</time>
      </trkpt>
      <trkpt lat="48.83966" lon="2.30944">
        <ele>99.8</ele>
        <time>2015-02-23T20:20:41.201Z</time>
      </trkpt>
      <trkpt lat="48.83961" lon="2.30954">
        <ele>99.8</ele>
        <time>2015-02-23T20:20:46.137Z</time>
      </trkpt>
      <trkpt lat="48.83959" lon="2.30955">
        <ele>99.9</ele>
        <time>2015-02-23T20:20:47.168Z</time>
      </trkpt>
      <trkpt lat="48.83954" lon="2.30953">
        <ele>101.2</ele>
        <time>2015-02-23T20:20:54.226Z</time>
      </trkpt>
      <trkpt lat="48.83954" lon="2.30953">
        <ele>101.5</ele>
        <time>2015-02-23T20:20:55.272Z</time>
      </trkpt>
      <trkpt lat="48.83954" lon="2.30953">
        <ele>101.5</ele>
        <time>2015-02-23T20:21:00.128Z</time>
      </trkpt>
      <trkpt lat="48.83955" lon="2.30955">
        <ele>102.4</ele>
        <time>2015-02-23T20:21:01.207Z</time>
      </trkpt>
      <trkpt lat="48.83955" lon="2.30955">
        <ele>103</ele>
        <time>2015-02-23T20:21:03.136Z</time>
      </trkpt>
      <trkpt lat="48.83955" lon="2.30956">
        <ele>103.3</ele>
        <time>2015-02-23T20:21:04.140Z</time>
      </trkpt>
      <trkpt lat="48.83955" lon="2.30956">
        <ele>103.3</ele>
        <time>2015-02-23T20:21:05.169Z</time>
      </trkpt>
      <trkpt lat="48.83955" lon="2.30955">
        <ele>103.3</ele>
        <time>2015-02-23T20:21:06.174Z</time>
      </trkpt>
      <trkpt lat="48.83955" lon="2.30956">
        <ele>103.6</ele>
        <time>2015-02-23T20:21:07.842Z</time>
      </trkpt>
      <trkpt lat="48.83955" lon="2.30957">
        <ele>104</ele>
        <time>2015-02-23T20:21:08.195Z</time>
      </trkpt>
      <trkpt lat="48.83956" lon="2.30957">
        <ele>104.3</ele>
        <time>2015-02-23T20:21:16.535Z</time>
      </trkpt>
      <trkpt lat="48.83954" lon="2.30958">
        <ele>105.8</ele>
        <time>2015-02-23T20:21:17.202Z</time>
      </trkpt>
      <trkpt lat="48.83949" lon="2.30967">
        <ele>104.9</ele>
        <time>2015-02-23T20:21:21.698Z</time>
      </trkpt>
      <trkpt lat="48.83947" lon="2.3097">
        <ele>104.8</ele>
        <time>2015-02-23T20:21:22.138Z</time>
      </trkpt>
      <trkpt lat="48.83942" lon="2.30975">
        <ele>104.7</ele>
        <time>2015-02-23T20:21:24.160Z</time>
      </trkpt>
      <trkpt lat="48.8394" lon="2.30979">
        <ele>104.6</ele>
        <time>2015-02-23T20:21:25.367Z</time>
      </trkpt>
      <trkpt lat="48.83934" lon="2.30989">
        <ele>104.4</ele>
        <time>2015-02-23T20:21:28.216Z</time>
      </trkpt>
      <trkpt lat="48.83932" lon="2.30992">
        <ele>104.2</ele>
        <time>2015-02-23T20:21:29.225Z</time>
      </trkpt>
      <trkpt lat="48.83927" lon="2.30999">
        <ele>104.2</ele>
        <time>2015-02-23T20:21:31.862Z</time>
      </trkpt>
      <trkpt lat="48.83925" lon="2.31002">
        <ele>104.2</ele>
        <time>2015-02-23T20:21:32.192Z</time>
      </trkpt>
      <trkpt lat="48.8392" lon="2.31008">
        <ele>104.4</ele>
        <time>2015-02-23T20:21:34.206Z</time>
      </trkpt>
      <trkpt lat="48.83918" lon="2.31011">
        <ele>104.3</ele>
        <time>2015-02-23T20:21:35.218Z</time>
      </trkpt>
      <trkpt lat="48.83914" lon="2.31019">
        <ele>104.4</ele>
        <time>2015-02-23T20:21:37.246Z</time>
      </trkpt>
      <trkpt lat="48.83911" lon="2.31023">
        <ele>104.4</ele>
        <time>2015-02-23T20:21:38.137Z</time>
      </trkpt>
      <trkpt lat="48.83908" lon="2.31033">
        <ele>104.2</ele>
        <time>2015-02-23T20:21:40.163Z</time>
      </trkpt>
      <trkpt lat="48.83907" lon="2.31039">
        <ele>104</ele>
        <time>2015-02-23T20:21:41.169Z</time>
      </trkpt>
      <trkpt lat="48.83905" lon="2.31048">
        <ele>103.9</ele>
        <time>2015-02-23T20:21:43.179Z</time>
      </trkpt>
      <trkpt lat="48.83904" lon="2.31053">
        <ele>103.7</ele>
        <time>2015-02-23T20:21:44.186Z</time>
      </trkpt>
      <trkpt lat="48.839" lon="2.31064">
        <ele>103.5</ele>
        <time>2015-02-23T20:21:47.344Z</time>
      </trkpt>
      <trkpt lat="48.83899" lon="2.31067">
        <ele>103.6</ele>
        <time>2015-02-23T20:21:48.161Z</time>
      </trkpt>
      <trkpt lat="48.83895" lon="2.31076">
        <ele>103.8</ele>
        <time>2015-02-23T20:21:51.232Z</time>
      </trkpt>
      <trkpt lat="48.83893" lon="2.31078">
        <ele>103.8</ele>
        <time>2015-02-23T20:21:52.249Z</time>
      </trkpt>
      <trkpt lat="48.83887" lon="2.31087">
        <ele>103.8</ele>
        <time>2015-02-23T20:21:55.177Z</time>
      </trkpt>
      <trkpt lat="48.83885" lon="2.31091">
        <ele>103.9</ele>
        <time>2015-02-23T20:21:56.179Z</time>
      </trkpt>
      <trkpt lat="48.8388" lon="2.31101">
        <ele>104.5</ele>
        <time>2015-02-23T20:21:59.200Z</time>
      </trkpt>
      <trkpt lat="48.83879" lon="2.31104">
        <ele>104.6</ele>
        <time>2015-02-23T20:22:00.290Z</time>
      </trkpt>
      <trkpt lat="48.83876" lon="2.31111">
        <ele>105.5</ele>
        <time>2015-02-23T20:22:02.979Z</time>
      </trkpt>
      <trkpt lat="48.83875" lon="2.31116">
        <ele>106.2</ele>
        <time>2015-02-23T20:22:03.134Z</time>
      </trkpt>
      <trkpt lat="48.83871" lon="2.31125">
        <ele>107.4</ele>
        <time>2015-02-23T20:22:05.168Z</time>
      </trkpt>
      <trkpt lat="48.83868" lon="2.31132">
        <ele>108.8</ele>
        <time>2015-02-23T20:22:06.244Z</time>
      </trkpt>
      <trkpt lat="48.83862" lon="2.31141">
        <ele>110.2</ele>
        <time>2015-02-23T20:22:09.288Z</time>
      </trkpt>
      <trkpt lat="48.83861" lon="2.31143">
        <ele>109.7</ele>
        <time>2015-02-23T20:22:10.328Z</time>
      </trkpt>
      <trkpt lat="48.8386" lon="2.31144">
        <ele>109.6</ele>
        <time>2015-02-23T20:22:11.185Z</time>
      </trkpt>
      <trkpt lat="48.8386" lon="2.31145">
        <ele>109.8</ele>
        <time>2015-02-23T20:22:12.194Z</time>
      </trkpt>
      <trkpt lat="48.83859" lon="2.31146">
        <ele>109.9</ele>
        <time>2015-02-23T20:22:24.181Z</time>
      </trkpt>
      <trkpt lat="48.83857" lon="2.31151">
        <ele>110.7</ele>
        <time>2015-02-23T20:22:25.234Z</time>
      </trkpt>
      <trkpt lat="48.83857" lon="2.31162">
        <ele>112.4</ele>
        <time>2015-02-23T20:22:30.277Z</time>
      </trkpt>
      <trkpt lat="48.83857" lon="2.31165">
        <ele>112.4</ele>
        <time>2015-02-23T20:22:31.284Z</time>
      </trkpt>
      <trkpt lat="48.83855" lon="2.31175">
        <ele>112</ele>
        <time>2015-02-23T20:22:34.154Z</time>
      </trkpt>
      <trkpt lat="48.83855" lon="2.31178">
        <ele>111.9</ele>
        <time>2015-02-23T20:22:35.284Z</time>
      </trkpt>
      <trkpt lat="48.83853" lon="2.31189">
        <ele>111.9</ele>
        <time>2015-02-23T20:22:38.193Z</time>
      </trkpt>
      <trkpt lat="48.83854" lon="2.31192">
        <ele>111.7</ele>
        <time>2015-02-23T20:22:39.205Z</time>
      </trkpt>
      <trkpt lat="48.83853" lon="2.31205">
        <ele>111.7</ele>
        <time>2015-02-23T20:22:43.245Z</time>
      </trkpt>
      <trkpt lat="48.83853" lon="2.31209">
        <ele>111.5</ele>
        <time>2015-02-23T20:22:44.137Z</time>
      </trkpt>
      <trkpt lat="48.83853" lon="2.31221">
        <ele>112.2</ele>
        <time>2015-02-23T20:22:47.182Z</time>
      </trkpt>
      <trkpt lat="48.83854" lon="2.31225">
        <ele>112.3</ele>
        <time>2015-02-23T20:22:48.198Z</time>
      </trkpt>
      <trkpt lat="48.83854" lon="2.31237">
        <ele>112</ele>
        <time>2015-02-23T20:22:52.108Z</time>
      </trkpt>
      <trkpt lat="48.83854" lon="2.3124">
        <ele>112.1</ele>
        <time>2015-02-23T20:22:53.135Z</time>
      </trkpt>
      <trkpt lat="48.83853" lon="2.31251">
        <ele>111.9</ele>
        <time>2015-02-23T20:22:57.074Z</time>
      </trkpt>
      <trkpt lat="48.83853" lon="2.31256">
        <ele>111.7</ele>
        <time>2015-02-23T20:22:57.149Z</time>
      </trkpt>
      <trkpt lat="48.83854" lon="2.31266">
        <ele>111.6</ele>
        <time>2015-02-23T20:22:59.176Z</time>
      </trkpt>
      <trkpt lat="48.83855" lon="2.31271">
        <ele>111.5</ele>
        <time>2015-02-23T20:23:00.196Z</time>
      </trkpt>
      <trkpt lat="48.83855" lon="2.31281">
        <ele>111.5</ele>
        <time>2015-02-23T20:23:02.160Z</time>
      </trkpt>
      <trkpt lat="48.83855" lon="2.31285">
        <ele>111.7</ele>
        <time>2015-02-23T20:23:03.158Z</time>
      </trkpt>
      <trkpt lat="48.83856" lon="2.31299">
        <ele>112.2</ele>
        <time>2015-02-23T20:23:07.297Z</time>
      </trkpt>
      <trkpt lat="48.83857" lon="2.31304">
        <ele>112.4</ele>
        <time>2015-02-23T20:23:07.340Z</time>
      </trkpt>
      <trkpt lat="48.83858" lon="2.31314">
        <ele>112.9</ele>
        <time>2015-02-23T20:23:09.163Z</time>
      </trkpt>
      <trkpt lat="48.83859" lon="2.3132">
        <ele>113.1</ele>
        <time>2015-02-23T20:23:10.184Z</time>
      </trkpt>
      <trkpt lat="48.83859" lon="2.3133">
        <ele>113.5</ele>
        <time>2015-02-23T20:23:12.441Z</time>
      </trkpt>
      <trkpt lat="48.83859" lon="2.31335">
        <ele>113.6</ele>
        <time>2015-02-23T20:23:13.162Z</time>
      </trkpt>
      <trkpt lat="48.83857" lon="2.31346">
        <ele>113.7</ele>
        <time>2015-02-23T20:23:15.328Z</time>
      </trkpt>
      <trkpt lat="48.83857" lon="2.31352">
        <ele>114.4</ele>
        <time>2015-02-23T20:23:16.112Z</time>
      </trkpt>
      <trkpt lat="48.83857" lon="2.3136">
        <ele>115.7</ele>
        <time>2015-02-23T20:23:17.128Z</time>
      </trkpt>
      <trkpt lat="48.83857" lon="2.3137">
        <ele>117</ele>
        <time>2015-02-23T20:23:18.222Z</time>
      </trkpt>
      <trkpt lat="48.83859" lon="2.31379">
        <ele>118.7</ele>
        <time>2015-02-23T20:23:19.242Z</time>
      </trkpt>
      <trkpt lat="48.83859" lon="2.31385">
        <ele>119.4</ele>
        <time>2015-02-23T20:23:20.122Z</time>
      </trkpt>
      <trkpt lat="48.83858" lon="2.31397">
        <ele>120.5</ele>
        <time>2015-02-23T20:23:23.101Z</time>
      </trkpt>
      <trkpt lat="48.83857" lon="2.314">
        <ele>120.9</ele>
        <time>2015-02-23T20:23:24.126Z</time>
      </trkpt>
      <trkpt lat="48.83855" lon="2.31411">
        <ele>121.4</ele>
        <time>2015-02-23T20:23:27.193Z</time>
      </trkpt>
      <trkpt lat="48.83854" lon="2.31415">
        <ele>121.6</ele>
        <time>2015-02-23T20:23:28.157Z</time>
      </trkpt>
      <trkpt lat="48.83852" lon="2.31426">
        <ele>122.2</ele>
        <time>2015-02-23T20:23:31.709Z</time>
      </trkpt>
      <trkpt lat="48.83852" lon="2.3143">
        <ele>122.2</ele>
        <time>2015-02-23T20:23:32.213Z</time>
      </trkpt>
      <trkpt lat="48.83852" lon="2.3144">
        <ele>122.6</ele>
        <time>2015-02-23T20:23:34.125Z</time>
      </trkpt>
      <trkpt lat="48.83847" lon="2.31449">
        <ele>124.8</ele>
        <time>2015-02-23T20:23:35.152Z</time>
      </trkpt>
      <trkpt lat="48.83842" lon="2.31457">
        <ele>126.8</ele>
        <time>2015-02-23T20:23:37.077Z</time>
      </trkpt>
      <trkpt lat="48.83842" lon="2.3146">
        <ele>127</ele>
        <time>2015-02-23T20:23:37.197Z</time>
      </trkpt>
      <trkpt lat="48.83841" lon="2.31473">
        <ele>127.9</ele>
        <time>2015-02-23T20:23:42.198Z</time>
      </trkpt>
      <trkpt lat="48.83841" lon="2.31475">
        <ele>128.3</ele>
        <time>2015-02-23T20:23:42.243Z</time>
      </trkpt>
      <trkpt lat="48.83842" lon="2.31476">
        <ele>129.6</ele>
        <time>2015-02-23T20:23:44.184Z</time>
      </trkpt>
      <trkpt lat="48.83844" lon="2.31477">
        <ele>130.7</ele>
        <time>2015-02-23T20:23:45.186Z</time>
      </trkpt>
      <trkpt lat="48.83844" lon="2.31478">
        <ele>131.5</ele>
        <time>2015-02-23T20:23:59.148Z</time>
      </trkpt>
      <trkpt lat="48.83843" lon="2.31482">
        <ele>134.3</ele>
        <time>2015-02-23T20:24:00.138Z</time>
      </trkpt>
      <trkpt lat="48.83849" lon="2.31489">
        <ele>134.7</ele>
        <time>2015-02-23T20:24:05.209Z</time>
      </trkpt>
      <trkpt lat="48.8385" lon="2.3149">
        <ele>135</ele>
        <time>2015-02-23T20:24:06.226Z</time>
      </trkpt>
      <trkpt lat="48.83855" lon="2.315">
        <ele>134.8</ele>
        <time>2015-02-23T20:24:10.170Z</time>
      </trkpt>
      <trkpt lat="48.83856" lon="2.31503">
        <ele>134.6</ele>
        <time>2015-02-23T20:24:11.195Z</time>
      </trkpt>
      <trkpt lat="48.83852" lon="2.31512">
        <ele>133.8</ele>
        <time>2015-02-23T20:24:13.162Z</time>
      </trkpt>
      <trkpt lat="48.8385" lon="2.31516">
        <ele>133.4</ele>
        <time>2015-02-23T20:24:14.166Z</time>
      </trkpt>
      <trkpt lat="48.83849" lon="2.31525">
        <ele>132.4</ele>
        <time>2015-02-23T20:24:16.557Z</time>
      </trkpt>
      <trkpt lat="48.83848" lon="2.31529">
        <ele>132.2</ele>
        <time>2015-02-23T20:24:17.168Z</time>
      </trkpt>
      <trkpt lat="48.83846" lon="2.31541">
        <ele>132.3</ele>
        <time>2015-02-23T20:24:19.175Z</time>
      </trkpt>
      <trkpt lat="48.83845" lon="2.31548">
        <ele>132.7</ele>
        <time>2015-02-23T20:24:20.188Z</time>
      </trkpt>
      <trkpt lat="48.83842" lon="2.31554">
        <ele>133.2</ele>
        <time>2015-02-23T20:24:21.630Z</time>
      </trkpt>
      <trkpt lat="48.83838" lon="2.3156">
        <ele>133.1</ele>
        <time>2015-02-23T20:24:22.204Z</time>
      </trkpt>
      <trkpt lat="48.83833" lon="2.31571">
        <ele>133</ele>
        <time>2015-02-23T20:24:24.157Z</time>
      </trkpt>
      <trkpt lat="48.83832" lon="2.31577">
        <ele>133.1</ele>
        <time>2015-02-23T20:24:25.175Z</time>
      </trkpt>
      <trkpt lat="48.83831" lon="2.31588">
        <ele>133.5</ele>
        <time>2015-02-23T20:24:27.114Z</time>
      </trkpt>
      <trkpt lat="48.83832" lon="2.31591">
        <ele>133.4</ele>
        <time>2015-02-23T20:24:28.133Z</time>
      </trkpt>
      <trkpt lat="48.83829" lon="2.316">
        <ele>132.9</ele>
        <time>2015-02-23T20:24:30.187Z</time>
      </trkpt>
      <trkpt lat="48.83828" lon="2.31603">
        <ele>132.7</ele>
        <time>2015-02-23T20:24:31.209Z</time>
      </trkpt>
      <trkpt lat="48.83833" lon="2.31607">
        <ele>133</ele>
        <time>2015-02-23T20:24:34.115Z</time>
      </trkpt>
      <trkpt lat="48.83837" lon="2.31607">
        <ele>133</ele>
        <time>2015-02-23T20:24:35.138Z</time>
      </trkpt>
      <trkpt lat="48.83837" lon="2.3162">
        <ele>134.5</ele>
        <time>2015-02-23T20:24:38.163Z</time>
      </trkpt>
      <trkpt lat="48.83835" lon="2.31625">
        <ele>135</ele>
        <time>2015-02-23T20:24:39.182Z</time>
      </trkpt>
      <trkpt lat="48.83833" lon="2.31637">
        <ele>135.5</ele>
        <time>2015-02-23T20:24:42.115Z</time>
      </trkpt>
      <trkpt lat="48.83833" lon="2.3164">
        <ele>135.3</ele>
        <time>2015-02-23T20:24:43.187Z</time>
      </trkpt>
      <trkpt lat="48.83838" lon="2.31648">
        <ele>134.6</ele>
        <time>2015-02-23T20:24:47.035Z</time>
      </trkpt>
      <trkpt lat="48.83844" lon="2.31648">
        <ele>133.8</ele>
        <time>2015-02-23T20:24:47.121Z</time>
      </trkpt>
      <trkpt lat="48.83851" lon="2.31648">
        <ele>133.3</ele>
        <time>2015-02-23T20:24:48.133Z</time>
      </trkpt>
      <trkpt lat="48.83856" lon="2.31649">
        <ele>132.7</ele>
        <time>2015-02-23T20:24:49.224Z</time>
      </trkpt>
      <trkpt lat="48.83865" lon="2.31653">
        <ele>131.7</ele>
        <time>2015-02-23T20:24:52.072Z</time>
      </trkpt>
      <trkpt lat="48.83871" lon="2.31656">
        <ele>129.3</ele>
        <time>2015-02-23T20:24:52.160Z</time>
      </trkpt>
      <trkpt lat="48.83878" lon="2.31659">
        <ele>127.8</ele>
        <time>2015-02-23T20:24:53.175Z</time>
      </trkpt>
      <trkpt lat="48.83884" lon="2.31662">
        <ele>127.8</ele>
        <time>2015-02-23T20:24:54.188Z</time>
      </trkpt>
      <trkpt lat="48.83891" lon="2.31669">
        <ele>129</ele>
        <time>2015-02-23T20:24:58.149Z</time>
      </trkpt>
      <trkpt lat="48.83891" lon="2.31671">
        <ele>129.3</ele>
        <time>2015-02-23T20:24:59.145Z</time>
      </trkpt>
      <trkpt lat="48.83891" lon="2.31671">
        <ele>129.2</ele>
        <time>2015-02-23T20:25:00.189Z</time>
      </trkpt>
      <trkpt lat="48.83892" lon="2.31671">
        <ele>129</ele>
        <time>2015-02-23T20:25:01.237Z</time>
      </trkpt>
      <trkpt lat="48.83892" lon="2.3167">
        <ele>129</ele>
        <time>2015-02-23T20:25:02.144Z</time>
      </trkpt>
      <trkpt lat="48.83884" lon="2.31665">
        <ele>128.4</ele>
        <time>2015-02-23T20:25:11.187Z</time>
      </trkpt>
      <trkpt lat="48.83883" lon="2.31666">
        <ele>128.4</ele>
        <time>2015-02-23T20:25:12.199Z</time>
      </trkpt>
      <trkpt lat="48.83879" lon="2.31673">
        <ele>128.1</ele>
        <time>2015-02-23T20:25:14.242Z</time>
      </trkpt>
      <trkpt lat="48.83876" lon="2.31676">
        <ele>127.9</ele>
        <time>2015-02-23T20:25:15.139Z</time>
      </trkpt>
      <trkpt lat="48.8387" lon="2.31683">
        <ele>127.1</ele>
        <time>2015-02-23T20:25:17.176Z</time>
      </trkpt>
      <trkpt lat="48.83866" lon="2.31687">
        <ele>126.6</ele>
        <time>2015-02-23T20:25:18.193Z</time>
      </trkpt>
      <trkpt lat="48.8386" lon="2.31694">
        <ele>126.7</ele>
        <time>2015-02-23T20:25:20.232Z</time>
      </trkpt>
      <trkpt lat="48.83856" lon="2.31698">
        <ele>126.8</ele>
        <time>2015-02-23T20:25:21.132Z</time>
      </trkpt>
      <trkpt lat="48.8385" lon="2.31704">
        <ele>127.3</ele>
        <time>2015-02-23T20:25:23.140Z</time>
      </trkpt>
      <trkpt lat="48.83847" lon="2.31706">
        <ele>128.2</ele>
        <time>2015-02-23T20:25:24.154Z</time>
      </trkpt>
      <trkpt lat="48.8384" lon="2.31712">
        <ele>129.2</ele>
        <time>2015-02-23T20:25:26.718Z</time>
      </trkpt>
      <trkpt lat="48.83837" lon="2.31715">
        <ele>129.5</ele>
        <time>2015-02-23T20:25:27.226Z</time>
      </trkpt>
      <trkpt lat="48.83833" lon="2.31721">
        <ele>130.7</ele>
        <time>2015-02-23T20:25:29.170Z</time>
      </trkpt>
      <trkpt lat="48.83831" lon="2.31726">
        <ele>132.3</ele>
        <time>2015-02-23T20:25:30.172Z</time>
      </trkpt>
      <trkpt lat="48.83828" lon="2.31734">
        <ele>134.1</ele>
        <time>2015-02-23T20:25:31.761Z</time>
      </trkpt>
      <trkpt lat="48.83824" lon="2.31741">
        <ele>135.6</ele>
        <time>2015-02-23T20:25:32.221Z</time>
      </trkpt>
      <trkpt lat="48.8382" lon="2.31749">
        <ele>136.6</ele>
        <time>2015-02-23T20:25:34.246Z</time>
      </trkpt>
      <trkpt lat="48.83817" lon="2.31752">
        <ele>136.5</ele>
        <time>2015-02-23T20:25:35.322Z</time>
      </trkpt>
      <trkpt lat="48.83812" lon="2.31758">
        <ele>136.1</ele>
        <time>2015-02-23T20:25:37.187Z</time>
      </trkpt>
      <trkpt lat="48.83809" lon="2.31759">
        <ele>136.1</ele>
        <time>2015-02-23T20:25:38.195Z</time>
      </trkpt>
      <trkpt lat="48.83802" lon="2.31763">
        <ele>135.6</ele>
        <time>2015-02-23T20:25:41.894Z</time>
      </trkpt>
      <trkpt lat="48.83799" lon="2.31765">
        <ele>135.7</ele>
        <time>2015-02-23T20:25:42.146Z</time>
      </trkpt>
      <trkpt lat="48.83792" lon="2.3177">
        <ele>135.9</ele>
        <time>2015-02-23T20:25:44.157Z</time>
      </trkpt>
      <trkpt lat="48.8379" lon="2.31773">
        <ele>136.2</ele>
        <time>2015-02-23T20:25:45.184Z</time>
      </trkpt>
      <trkpt lat="48.83784" lon="2.31781">
        <ele>136.6</ele>
        <time>2015-02-23T20:25:47.121Z</time>
      </trkpt>
      <trkpt lat="48.83781" lon="2.31783">
        <ele>136.7</ele>
        <time>2015-02-23T20:25:48.145Z</time>
      </trkpt>
      <trkpt lat="48.83776" lon="2.31788">
        <ele>136.7</ele>
        <time>2015-02-23T20:25:50.195Z</time>
      </trkpt>
      <trkpt lat="48.83774" lon="2.31791">
        <ele>136.6</ele>
        <time>2015-02-23T20:25:51.267Z</time>
      </trkpt>
      <trkpt lat="48.83769" lon="2.318">
        <ele>136.2</ele>
        <time>2015-02-23T20:25:54.143Z</time>
      </trkpt>
      <trkpt lat="48.83767" lon="2.31801">
        <ele>135.8</ele>
        <time>2015-02-23T20:25:55.217Z</time>
      </trkpt>
      <trkpt lat="48.8376" lon="2.31807">
        <ele>135.2</ele>
        <time>2015-02-23T20:25:58.143Z</time>
      </trkpt>
      <trkpt lat="48.83758" lon="2.31809">
        <ele>135.1</ele>
        <time>2015-02-23T20:25:59.151Z</time>
      </trkpt>
      <trkpt lat="48.83752" lon="2.31815">
        <ele>135.2</ele>
        <time>2015-02-23T20:26:01.233Z</time>
      </trkpt>
      <trkpt lat="48.83749" lon="2.31817">
        <ele>135.1</ele>
        <time>2015-02-23T20:26:02.130Z</time>
      </trkpt>
      <trkpt lat="48.83741" lon="2.31822">
        <ele>135</ele>
        <time>2015-02-23T20:26:05.252Z</time>
      </trkpt>
      <trkpt lat="48.83739" lon="2.31822">
        <ele>135.3</ele>
        <time>2015-02-23T20:26:06.134Z</time>
      </trkpt>
      <trkpt lat="48.83737" lon="2.31821">
        <ele>136.8</ele>
        <time>2015-02-23T20:26:15.176Z</time>
      </trkpt>
      <trkpt lat="48.83737" lon="2.31821">
        <ele>136.8</ele>
        <time>2015-02-23T20:26:16.133Z</time>
      </trkpt>
      <trkpt lat="48.83737" lon="2.3182">
        <ele>137</ele>
        <time>2015-02-23T20:26:18.184Z</time>
      </trkpt>
      <trkpt lat="48.83735" lon="2.31821">
        <ele>137.1</ele>
        <time>2015-02-23T20:26:19.204Z</time>
      </trkpt>
      <trkpt lat="48.83728" lon="2.31816">
        <ele>138.8</ele>
        <time>2015-02-23T20:26:24.162Z</time>
      </trkpt>
      <trkpt lat="48.83726" lon="2.31815">
        <ele>139</ele>
        <time>2015-02-23T20:26:25.174Z</time>
      </trkpt>
      <trkpt lat="48.8372" lon="2.31807">
        <ele>136.8</ele>
        <time>2015-02-23T20:26:30.165Z</time>
      </trkpt>
      <trkpt lat="48.83718" lon="2.31806">
        <ele>136.9</ele>
        <time>2015-02-23T20:26:31.197Z</time>
      </trkpt>
      <trkpt lat="48.8371" lon="2.31805">
        <ele>137</ele>
        <time>2015-02-23T20:26:34.106Z</time>
      </trkpt>
      <trkpt lat="48.83707" lon="2.31806">
        <ele>137</ele>
        <time>2015-02-23T20:26:35.160Z</time>
      </trkpt>
      <trkpt lat="48.83699" lon="2.3181">
        <ele>136.9</ele>
        <time>2015-02-23T20:26:38.206Z</time>
      </trkpt>
      <trkpt lat="48.83696" lon="2.31811">
        <ele>136.9</ele>
        <time>2015-02-23T20:26:39.107Z</time>
      </trkpt>
      <trkpt lat="48.83692" lon="2.31822">
        <ele>132.5</ele>
        <time>2015-02-23T20:26:43.171Z</time>
      </trkpt>
      <trkpt lat="48.83693" lon="2.31826">
        <ele>131.1</ele>
        <time>2015-02-23T20:26:44.170Z</time>
      </trkpt>
      <trkpt lat="48.83693" lon="2.31832">
        <ele>130</ele>
        <time>2015-02-23T20:26:45.231Z</time>
      </trkpt>
      <trkpt lat="48.83694" lon="2.31839">
        <ele>128.3</ele>
        <time>2015-02-23T20:26:46.150Z</time>
      </trkpt>
      <trkpt lat="48.83695" lon="2.31846">
        <ele>128</ele>
        <time>2015-02-23T20:26:47.138Z</time>
      </trkpt>
      <trkpt lat="48.83697" lon="2.31853">
        <ele>127.4</ele>
        <time>2015-02-23T20:26:48.134Z</time>
      </trkpt>
      <trkpt lat="48.83701" lon="2.31864">
        <ele>126.7</ele>
        <time>2015-02-23T20:26:50.165Z</time>
      </trkpt>
      <trkpt lat="48.83705" lon="2.31868">
        <ele>126.5</ele>
        <time>2015-02-23T20:26:51.210Z</time>
      </trkpt>
      <trkpt lat="48.83712" lon="2.31873">
        <ele>126.2</ele>
        <time>2015-02-23T20:26:53.129Z</time>
      </trkpt>
      <trkpt lat="48.83716" lon="2.31874">
        <ele>126.2</ele>
        <time>2015-02-23T20:26:54.144Z</time>
      </trkpt>
      <trkpt lat="48.83721" lon="2.31875">
        <ele>125.7</ele>
        <time>2015-02-23T20:26:55.177Z</time>
      </trkpt>
      <trkpt lat="48.83726" lon="2.31874">
        <ele>125.3</ele>
        <time>2015-02-23T20:26:56.190Z</time>
      </trkpt>
      <trkpt lat="48.83734" lon="2.31871">
        <ele>124.8</ele>
        <time>2015-02-23T20:26:58.141Z</time>
      </trkpt>
      <trkpt lat="48.83738" lon="2.31868">
        <ele>124.6</ele>
        <time>2015-02-23T20:26:59.152Z</time>
      </trkpt>
      <trkpt lat="48.83744" lon="2.31866">
        <ele>124.5</ele>
        <time>2015-02-23T20:27:01.234Z</time>
      </trkpt>
      <trkpt lat="48.83747" lon="2.31866">
        <ele>124.4</ele>
        <time>2015-02-23T20:27:02.147Z</time>
      </trkpt>
      <trkpt lat="48.8375" lon="2.31865">
        <ele>124.1</ele>
        <time>2015-02-23T20:27:05.149Z</time>
      </trkpt>
      <trkpt lat="48.8375" lon="2.31866">
        <ele>124.2</ele>
        <time>2015-02-23T20:27:06.136Z</time>
      </trkpt>
      <trkpt lat="48.8375" lon="2.31866">
        <ele>124.3</ele>
        <time>2015-02-23T20:27:07.178Z</time>
      </trkpt>
      <trkpt lat="48.83754" lon="2.31868">
        <ele>125.1</ele>
        <time>2015-02-23T20:27:18.272Z</time>
      </trkpt>
      <trkpt lat="48.83754" lon="2.31869">
        <ele>125.6</ele>
        <time>2015-02-23T20:27:19.180Z</time>
      </trkpt>
      <trkpt lat="48.83754" lon="2.3187">
        <ele>126</ele>
        <time>2015-02-23T20:27:26.212Z</time>
      </trkpt>
      <trkpt lat="48.83755" lon="2.31874">
        <ele>128.6</ele>
        <time>2015-02-23T20:27:27.135Z</time>
      </trkpt>
      <trkpt lat="48.83747" lon="2.31874">
        <ele>128.4</ele>
        <time>2015-02-23T20:27:39.185Z</time>
      </trkpt>
      <trkpt lat="48.83746" lon="2.31875">
        <ele>128</ele>
        <time>2015-02-23T20:27:40.202Z</time>
      </trkpt>
      <trkpt lat="48.83741" lon="2.31884">
        <ele>127.6</ele>
        <time>2015-02-23T20:27:46.147Z</time>
      </trkpt>
      <trkpt lat="48.8374" lon="2.31886">
        <ele>127.7</ele>
        <time>2015-02-23T20:27:47.161Z</time>
      </trkpt>
      <trkpt lat="48.83733" lon="2.31891">
        <ele>127.1</ele>
        <time>2015-02-23T20:27:50.140Z</time>
      </trkpt>
      <trkpt lat="48.8373" lon="2.31892">
        <ele>127</ele>
        <time>2015-02-23T20:27:51.211Z</time>
      </trkpt>
      <trkpt lat="48.83723" lon="2.31891">
        <ele>127</ele>
        <time>2015-02-23T20:27:53.127Z</time>
      </trkpt>
      <trkpt lat="48.83697" lon="2.31872">
        <ele>126.2</ele>
        <time>2015-02-23T20:28:00.134Z</time>
      </trkpt>
      <trkpt lat="48.83692" lon="2.31865">
        <ele>126</ele>
        <time>2015-02-23T20:28:02.210Z</time>
      </trkpt>
      <trkpt lat="48.83689" lon="2.31863">
        <ele>126</ele>
        <time>2015-02-23T20:28:03.167Z</time>
      </trkpt>
      <trkpt lat="48.8368" lon="2.31862">
        <ele>125.7</ele>
        <time>2015-02-23T20:28:11.139Z</time>
      </trkpt>
      <trkpt lat="48.83679" lon="2.31863">
        <ele>125.6</ele>
        <time>2015-02-23T20:28:12.382Z</time>
      </trkpt>
      <trkpt lat="48.83672" lon="2.31865">
        <ele>125.3</ele>
        <time>2015-02-23T20:28:15.211Z</time>
      </trkpt>
      <trkpt lat="48.8367" lon="2.31867">
        <ele>125.1</ele>
        <time>2015-02-23T20:28:16.162Z</time>
      </trkpt>
      <trkpt lat="48.83661" lon="2.3187">
        <ele>125.1</ele>
        <time>2015-02-23T20:28:20.129Z</time>
      </trkpt>
      <trkpt lat="48.83659" lon="2.31871">
        <ele>125</ele>
        <time>2015-02-23T20:28:21.165Z</time>
      </trkpt>
      <trkpt lat="48.83652" lon="2.31874">
        <ele>124.9</ele>
        <time>2015-02-23T20:28:23.149Z</time>
      </trkpt>
      <trkpt lat="48.83648" lon="2.31875">
        <ele>124.8</ele>
        <time>2015-02-23T20:28:24.169Z</time>
      </trkpt>
      <trkpt lat="48.8364" lon="2.31878">
        <ele>124.6</ele>
        <time>2015-02-23T20:28:27.226Z</time>
      </trkpt>
      <trkpt lat="48.83638" lon="2.31879">
        <ele>124.5</ele>
        <time>2015-02-23T20:28:28.132Z</time>
      </trkpt>
      <trkpt lat="48.83632" lon="2.31885">
        <ele>124.3</ele>
        <time>2015-02-23T20:28:31.270Z</time>
      </trkpt>
      <trkpt lat="48.8363" lon="2.31887">
        <ele>124.1</ele>
        <time>2015-02-23T20:28:32.130Z</time>
      </trkpt>
      <trkpt lat="48.83625" lon="2.31891">
        <ele>122.9</ele>
        <time>2015-02-23T20:28:33.178Z</time>
      </trkpt>
      <trkpt lat="48.83621" lon="2.31894">
        <ele>121.7</ele>
        <time>2015-02-23T20:28:34.177Z</time>
      </trkpt>
      <trkpt lat="48.83614" lon="2.31899">
        <ele>120.4</ele>
        <time>2015-02-23T20:28:36.188Z</time>
      </trkpt>
      <trkpt lat="48.83611" lon="2.31901">
        <ele>120.1</ele>
        <time>2015-02-23T20:28:37.194Z</time>
      </trkpt>
      <trkpt lat="48.83603" lon="2.31905">
        <ele>119.9</ele>
        <time>2015-02-23T20:28:41.129Z</time>
      </trkpt>
      <trkpt lat="48.83601" lon="2.31906">
        <ele>120</ele>
        <time>2015-02-23T20:28:42.192Z</time>
      </trkpt>
      <trkpt lat="48.83598" lon="2.31907">
        <ele>120.3</ele>
        <time>2015-02-23T20:28:46.251Z</time>
      </trkpt>
      <trkpt lat="48.83599" lon="2.31907">
        <ele>120.5</ele>
        <time>2015-02-23T20:28:47.134Z</time>
      </trkpt>
      <trkpt lat="48.83599" lon="2.31907">
        <ele>120.7</ele>
        <time>2015-02-23T20:29:09.209Z</time>
      </trkpt>
      <trkpt lat="48.836" lon="2.31901">
        <ele>120</ele>
        <time>2015-02-23T20:29:10.127Z</time>
      </trkpt>
      <trkpt lat="48.83597" lon="2.31888">
        <ele>120.5</ele>
        <time>2015-02-23T20:29:16.123Z</time>
      </trkpt>
      <trkpt lat="48.83596" lon="2.31887">
        <ele>120.6</ele>
        <time>2015-02-23T20:29:17.141Z</time>
      </trkpt>
      <trkpt lat="48.83591" lon="2.31879">
        <ele>120.9</ele>
        <time>2015-02-23T20:29:21.165Z</time>
      </trkpt>
      <trkpt lat="48.8359" lon="2.31877">
        <ele>120.9</ele>
        <time>2015-02-23T20:29:22.215Z</time>
      </trkpt>
      <trkpt lat="48.83585" lon="2.31868">
        <ele>121</ele>
        <time>2015-02-23T20:29:25.250Z</time>
      </trkpt>
      <trkpt lat="48.83583" lon="2.31865">
        <ele>121</ele>
        <time>2015-02-23T20:29:26.137Z</time>
      </trkpt>
      <trkpt lat="48.83577" lon="2.3186">
        <ele>121.1</ele>
        <time>2015-02-23T20:29:28.123Z</time>
      </trkpt>
      <trkpt lat="48.83574" lon="2.31858">
        <ele>121.1</ele>
        <time>2015-02-23T20:29:29.301Z</time>
      </trkpt>
      <trkpt lat="48.8357" lon="2.3185">
        <ele>121.1</ele>
        <time>2015-02-23T20:29:31.167Z</time>
      </trkpt>
      <trkpt lat="48.83568" lon="2.31846">
        <ele>121</ele>
        <time>2015-02-23T20:29:32.163Z</time>
      </trkpt>
      <trkpt lat="48.83563" lon="2.31835">
        <ele>120.9</ele>
        <time>2015-02-23T20:29:35.114Z</time>
      </trkpt>
      <trkpt lat="48.83562" lon="2.31831">
        <ele>120.7</ele>
        <time>2015-02-23T20:29:36.116Z</time>
      </trkpt>
      <trkpt lat="48.83558" lon="2.31821">
        <ele>120.4</ele>
        <time>2015-02-23T20:29:38.183Z</time>
      </trkpt>
      <trkpt lat="48.83556" lon="2.31817">
        <ele>120.2</ele>
        <time>2015-02-23T20:29:39.111Z</time>
      </trkpt>
      <trkpt lat="48.83552" lon="2.31809">
        <ele>120</ele>
        <time>2015-02-23T20:29:41.132Z</time>
      </trkpt>
      <trkpt lat="48.8355" lon="2.31806">
        <ele>119.9</ele>
        <time>2015-02-23T20:29:42.160Z</time>
      </trkpt>
      <trkpt lat="48.83544" lon="2.31796">
        <ele>121.1</ele>
        <time>2015-02-23T20:29:44.107Z</time>
      </trkpt>
      <trkpt lat="48.83541" lon="2.31791">
        <ele>121.8</ele>
        <time>2015-02-23T20:29:45.119Z</time>
      </trkpt>
      <trkpt lat="48.83533" lon="2.31787">
        <ele>121.7</ele>
        <time>2015-02-23T20:29:48.192Z</time>
      </trkpt>
      <trkpt lat="48.83529" lon="2.31789">
        <ele>120.8</ele>
        <time>2015-02-23T20:29:49.235Z</time>
      </trkpt>
      <trkpt lat="48.83522" lon="2.31794">
        <ele>119.8</ele>
        <time>2015-02-23T20:29:51.149Z</time>
      </trkpt>
      <trkpt lat="48.83518" lon="2.31797">
        <ele>119.4</ele>
        <time>2015-02-23T20:29:52.164Z</time>
      </trkpt>
      <trkpt lat="48.83511" lon="2.31804">
        <ele>118.8</ele>
        <time>2015-02-23T20:29:55.332Z</time>
      </trkpt>
      <trkpt lat="48.83509" lon="2.31807">
        <ele>118.6</ele>
        <time>2015-02-23T20:29:56.094Z</time>
      </trkpt>
      <trkpt lat="48.83504" lon="2.31813">
        <ele>118.3</ele>
        <time>2015-02-23T20:29:58.120Z</time>
      </trkpt>
      <trkpt lat="48.83501" lon="2.31818">
        <ele>118.1</ele>
        <time>2015-02-23T20:29:59.172Z</time>
      </trkpt>
      <trkpt lat="48.83495" lon="2.31825">
        <ele>117.7</ele>
        <time>2015-02-23T20:30:01.143Z</time>
      </trkpt>
      <trkpt lat="48.83492" lon="2.31829">
        <ele>117.6</ele>
        <time>2015-02-23T20:30:02.200Z</time>
      </trkpt>
      <trkpt lat="48.83487" lon="2.31837">
        <ele>117.1</ele>
        <time>2015-02-23T20:30:04.151Z</time>
      </trkpt>
      <trkpt lat="48.83484" lon="2.3184">
        <ele>117.1</ele>
        <time>2015-02-23T20:30:05.404Z</time>
      </trkpt>
      <trkpt lat="48.83479" lon="2.31849">
        <ele>116.3</ele>
        <time>2015-02-23T20:30:08.228Z</time>
      </trkpt>
      <trkpt lat="48.83477" lon="2.3185">
        <ele>116.2</ele>
        <time>2015-02-23T20:30:09.134Z</time>
      </trkpt>
      <trkpt lat="48.8347" lon="2.31854">
        <ele>116.8</ele>
        <time>2015-02-23T20:30:12.231Z</time>
      </trkpt>
      <trkpt lat="48.83468" lon="2.31856">
        <ele>116.9</ele>
        <time>2015-02-23T20:30:13.241Z</time>
      </trkpt>
      <trkpt lat="48.83462" lon="2.31864">
        <ele>117.1</ele>
        <time>2015-02-23T20:30:16.189Z</time>
      </trkpt>
      <trkpt lat="48.83461" lon="2.31866">
        <ele>117.2</ele>
        <time>2015-02-23T20:30:17.194Z</time>
      </trkpt>
      <trkpt lat="48.83456" lon="2.31873">
        <ele>117.5</ele>
        <time>2015-02-23T20:30:20.169Z</time>
      </trkpt>
      <trkpt lat="48.83455" lon="2.31877">
        <ele>117.7</ele>
        <time>2015-02-23T20:30:21.201Z</time>
      </trkpt>
      <trkpt lat="48.8345" lon="2.31887">
        <ele>117.6</ele>
        <time>2015-02-23T20:30:25.164Z</time>
      </trkpt>
      <trkpt lat="48.83448" lon="2.31888">
        <ele>117.8</ele>
        <time>2015-02-23T20:30:26.177Z</time>
      </trkpt>
      <trkpt lat="48.83441" lon="2.31887">
        <ele>118.6</ele>
        <time>2015-02-23T20:30:43.184Z</time>
      </trkpt>
      <trkpt lat="48.83439" lon="2.31886">
        <ele>118.6</ele>
        <time>2015-02-23T20:30:44.193Z</time>
      </trkpt>
      <trkpt lat="48.83434" lon="2.31876">
        <ele>118.7</ele>
        <time>2015-02-23T20:30:49.161Z</time>
      </trkpt>
      <trkpt lat="48.83433" lon="2.31873">
        <ele>118.8</ele>
        <time>2015-02-23T20:30:50.178Z</time>
      </trkpt>
      <trkpt lat="48.83427" lon="2.31864">
        <ele>118.9</ele>
        <time>2015-02-23T20:30:55.232Z</time>
      </trkpt>
      <trkpt lat="48.83424" lon="2.31863">
        <ele>119.3</ele>
        <time>2015-02-23T20:30:56.132Z</time>
      </trkpt>
      <trkpt lat="48.83417" lon="2.31868">
        <ele>122.1</ele>
        <time>2015-02-23T20:31:08.169Z</time>
      </trkpt>
      <trkpt lat="48.83417" lon="2.31873">
        <ele>121.7</ele>
        <time>2015-02-23T20:31:09.327Z</time>
      </trkpt>
      <trkpt lat="48.83415" lon="2.31885">
        <ele>120.9</ele>
        <time>2015-02-23T20:31:12.165Z</time>
      </trkpt>
      <trkpt lat="48.83413" lon="2.31889">
        <ele>120.7</ele>
        <time>2015-02-23T20:31:13.230Z</time>
      </trkpt>
      <trkpt lat="48.8341" lon="2.31897">
        <ele>120.2</ele>
        <time>2015-02-23T20:31:15.188Z</time>
      </trkpt>
      <trkpt lat="48.83408" lon="2.31901">
        <ele>120.3</ele>
        <time>2015-02-23T20:31:16.209Z</time>
      </trkpt>
      <trkpt lat="48.83403" lon="2.3191">
        <ele>120.5</ele>
        <time>2015-02-23T20:31:18.119Z</time>
      </trkpt>
      <trkpt lat="48.83401" lon="2.31914">
        <ele>120.4</ele>
        <time>2015-02-23T20:31:19.170Z</time>
      </trkpt>
      <trkpt lat="48.83395" lon="2.31922">
        <ele>120.6</ele>
        <time>2015-02-23T20:31:21.210Z</time>
      </trkpt>
      <trkpt lat="48.83394" lon="2.31924">
        <ele>120.6</ele>
        <time>2015-02-23T20:31:22.149Z</time>
      </trkpt>
      <trkpt lat="48.834" lon="2.31934">
        <ele>119.8</ele>
        <time>2015-02-23T20:31:27.154Z</time>
      </trkpt>
      <trkpt lat="48.83401" lon="2.31935">
        <ele>119.9</ele>
        <time>2015-02-23T20:31:28.183Z</time>
      </trkpt>
      <trkpt lat="48.83406" lon="2.31945">
        <ele>116.8</ele>
        <time>2015-02-23T20:31:45.127Z</time>
      </trkpt>
      <trkpt lat="48.83406" lon="2.31947">
        <ele>116.5</ele>
        <time>2015-02-23T20:31:46.140Z</time>
      </trkpt>
      <trkpt lat="48.83401" lon="2.31956">
        <ele>115</ele>
        <time>2015-02-23T20:31:50.149Z</time>
      </trkpt>
      <trkpt lat="48.83399" lon="2.31959">
        <ele>114.5</ele>
        <time>2015-02-23T20:31:51.150Z</time>
      </trkpt>
      <trkpt lat="48.83393" lon="2.31968">
        <ele>113.6</ele>
        <time>2015-02-23T20:31:54.221Z</time>
      </trkpt>
      <trkpt lat="48.83391" lon="2.31972">
        <ele>113.5</ele>
        <time>2015-02-23T20:31:55.237Z</time>
      </trkpt>
      <trkpt lat="48.83386" lon="2.31981">
        <ele>113.3</ele>
        <time>2015-02-23T20:31:57.130Z</time>
      </trkpt>
      <trkpt lat="48.83384" lon="2.31985">
        <ele>113.1</ele>
        <time>2015-02-23T20:31:58.149Z</time>
      </trkpt>
      <trkpt lat="48.83381" lon="2.31996">
        <ele>113</ele>
        <time>2015-02-23T20:32:01.229Z</time>
      </trkpt>
      <trkpt lat="48.83379" lon="2.31999">
        <ele>112.9</ele>
        <time>2015-02-23T20:32:02.118Z</time>
      </trkpt>
      <trkpt lat="48.83375" lon="2.32009">
        <ele>113</ele>
        <time>2015-02-23T20:32:06.149Z</time>
      </trkpt>
      <trkpt lat="48.83374" lon="2.32012">
        <ele>113.3</ele>
        <time>2015-02-23T20:32:07.169Z</time>
      </trkpt>
      <trkpt lat="48.8337" lon="2.32021">
        <ele>113.8</ele>
        <time>2015-02-23T20:32:10.212Z</time>
      </trkpt>
      <trkpt lat="48.83368" lon="2.32026">
        <ele>113.9</ele>
        <time>2015-02-23T20:32:11.144Z</time>
      </trkpt>
      <trkpt lat="48.83366" lon="2.32038">
        <ele>113.7</ele>
        <time>2015-02-23T20:32:14.160Z</time>
      </trkpt>
      <trkpt lat="48.83368" lon="2.32041">
        <ele>113.6</ele>
        <time>2015-02-23T20:32:15.130Z</time>
      </trkpt>
      <trkpt lat="48.83374" lon="2.3205">
        <ele>113.8</ele>
        <time>2015-02-23T20:32:18.163Z</time>
      </trkpt>
      <trkpt lat="48.83376" lon="2.32052">
        <ele>113.6</ele>
        <time>2015-02-23T20:32:19.194Z</time>
      </trkpt>
      <trkpt lat="48.83381" lon="2.3206">
        <ele>113.4</ele>
        <time>2015-02-23T20:32:22.265Z</time>
      </trkpt>
      <trkpt lat="48.83382" lon="2.32063">
        <ele>113.2</ele>
        <time>2015-02-23T20:32:23.131Z</time>
      </trkpt>
      <trkpt lat="48.83385" lon="2.32072">
        <ele>113.6</ele>
        <time>2015-02-23T20:32:26.163Z</time>
      </trkpt>
      <trkpt lat="48.83388" lon="2.32088">
        <ele>113.9</ele>
        <time>2015-02-23T20:32:32.216Z</time>
      </trkpt>
      <trkpt lat="48.83389" lon="2.321">
        <ele>114.1</ele>
        <time>2015-02-23T20:32:36.156Z</time>
      </trkpt>
      <trkpt lat="48.8339" lon="2.32103">
        <ele>114.3</ele>
        <time>2015-02-23T20:32:37.182Z</time>
      </trkpt>
      <trkpt lat="48.83396" lon="2.3211">
        <ele>115.1</ele>
        <time>2015-02-23T20:32:40.125Z</time>
      </trkpt>
      <trkpt lat="48.83398" lon="2.32109">
        <ele>115.4</ele>
        <time>2015-02-23T20:32:41.140Z</time>
      </trkpt>
      <trkpt lat="48.83404" lon="2.32116">
        <ele>116.3</ele>
        <time>2015-02-23T20:32:44.198Z</time>
      </trkpt>
      <trkpt lat="48.83405" lon="2.3212">
        <ele>116.7</ele>
        <time>2015-02-23T20:32:45.121Z</time>
      </trkpt>
      <trkpt lat="48.83406" lon="2.32125">
        <ele>116.7</ele>
        <time>2015-02-23T20:32:46.139Z</time>
      </trkpt>
      <trkpt lat="48.83408" lon="2.32135">
        <ele>116.6</ele>
        <time>2015-02-23T20:32:47.167Z</time>
      </trkpt>
      <trkpt lat="48.83411" lon="2.32146">
        <ele>116.4</ele>
        <time>2015-02-23T20:32:50.196Z</time>
      </trkpt>
      <trkpt lat="48.83412" lon="2.32148">
        <ele>116.5</ele>
        <time>2015-02-23T20:32:51.109Z</time>
      </trkpt>
      <trkpt lat="48.83417" lon="2.32156">
        <ele>117.2</ele>
        <time>2015-02-23T20:32:55.233Z</time>
      </trkpt>
      <trkpt lat="48.83418" lon="2.32159">
        <ele>117.8</ele>
        <time>2015-02-23T20:32:56.127Z</time>
      </trkpt>
      <trkpt lat="48.83418" lon="2.32172">
        <ele>118</ele>
        <time>2015-02-23T20:33:02.168Z</time>
      </trkpt>
      <trkpt lat="48.8342" lon="2.32173">
        <ele>117.7</ele>
        <time>2015-02-23T20:33:03.188Z</time>
      </trkpt>
      <trkpt lat="48.83423" lon="2.32178">
        <ele>117.4</ele>
        <time>2015-02-23T20:33:05.250Z</time>
      </trkpt>
      <trkpt lat="48.8343" lon="2.32182">
        <ele>116.6</ele>
        <time>2015-02-23T20:33:06.137Z</time>
      </trkpt>
      <trkpt lat="48.83429" lon="2.32195">
        <ele>119.2</ele>
        <time>2015-02-23T20:33:13.183Z</time>
      </trkpt>
      <trkpt lat="48.83426" lon="2.32196">
        <ele>119.4</ele>
        <time>2015-02-23T20:33:14.226Z</time>
      </trkpt>
      <trkpt lat="48.83421" lon="2.322">
        <ele>119.6</ele>
        <time>2015-02-23T20:33:16.145Z</time>
      </trkpt>
      <trkpt lat="48.83418" lon="2.32203">
        <ele>119.5</ele>
        <time>2015-02-23T20:33:17.168Z</time>
      </trkpt>
      <trkpt lat="48.83413" lon="2.32211">
        <ele>119.6</ele>
        <time>2015-02-23T20:33:19.185Z</time>
      </trkpt>
      <trkpt lat="48.83411" lon="2.32215">
        <ele>119.6</ele>
        <time>2015-02-23T20:33:20.200Z</time>
      </trkpt>
      <trkpt lat="48.83405" lon="2.32224">
        <ele>119.8</ele>
        <time>2015-02-23T20:33:22.135Z</time>
      </trkpt>
      <trkpt lat="48.83403" lon="2.32228">
        <ele>119.8</ele>
        <time>2015-02-23T20:33:23.147Z</time>
      </trkpt>
      <trkpt lat="48.83398" lon="2.32237">
        <ele>119.8</ele>
        <time>2015-02-23T20:33:25.181Z</time>
      </trkpt>
      <trkpt lat="48.83396" lon="2.32241">
        <ele>119.8</ele>
        <time>2015-02-23T20:33:26.203Z</time>
      </trkpt>
      <trkpt lat="48.83391" lon="2.32249">
        <ele>119.9</ele>
        <time>2015-02-23T20:33:28.141Z</time>
      </trkpt>
      <trkpt lat="48.83389" lon="2.32253">
        <ele>119.8</ele>
        <time>2015-02-23T20:33:29.219Z</time>
      </trkpt>
      <trkpt lat="48.83384" lon="2.32258">
        <ele>119.7</ele>
        <time>2015-02-23T20:33:31.219Z</time>
      </trkpt>
      <trkpt lat="48.83382" lon="2.32264">
        <ele>119.6</ele>
        <time>2015-02-23T20:33:32.096Z</time>
      </trkpt>
      <trkpt lat="48.83377" lon="2.32275">
        <ele>119.6</ele>
        <time>2015-02-23T20:33:34.164Z</time>
      </trkpt>
      <trkpt lat="48.83374" lon="2.3228">
        <ele>119.6</ele>
        <time>2015-02-23T20:33:35.168Z</time>
      </trkpt>
      <trkpt lat="48.8337" lon="2.32284">
        <ele>119.4</ele>
        <time>2015-02-23T20:33:36.204Z</time>
      </trkpt>
      <trkpt lat="48.83366" lon="2.3229">
        <ele>119.3</ele>
        <time>2015-02-23T20:33:37.217Z</time>
      </trkpt>
      <trkpt lat="48.83363" lon="2.32295">
        <ele>119.2</ele>
        <time>2015-02-23T20:33:38.160Z</time>
      </trkpt>
      <trkpt lat="48.8336" lon="2.32301">
        <ele>119</ele>
        <time>2015-02-23T20:33:39.149Z</time>
      </trkpt>
      <trkpt lat="48.83357" lon="2.32307">
        <ele>119</ele>
        <time>2015-02-23T20:33:40.166Z</time>
      </trkpt>
      <trkpt lat="48.83355" lon="2.32318">
        <ele>119.2</ele>
        <time>2015-02-23T20:33:41.208Z</time>
      </trkpt>
      <trkpt lat="48.83353" lon="2.32326">
        <ele>119.2</ele>
        <time>2015-02-23T20:33:42.124Z</time>
      </trkpt>
      <trkpt lat="48.8335" lon="2.32333">
        <ele>119.3</ele>
        <time>2015-02-23T20:33:43.155Z</time>
      </trkpt>
      <trkpt lat="48.83345" lon="2.32343">
        <ele>119.4</ele>
        <time>2015-02-23T20:33:45.173Z</time>
      </trkpt>
      <trkpt lat="48.83342" lon="2.32347">
        <ele>119.5</ele>
        <time>2015-02-23T20:33:46.180Z</time>
      </trkpt>
      <trkpt lat="48.83339" lon="2.32352">
        <ele>119.6</ele>
        <time>2015-02-23T20:33:47.215Z</time>
      </trkpt>
      <trkpt lat="48.83336" lon="2.32358">
        <ele>119.8</ele>
        <time>2015-02-23T20:33:48.114Z</time>
      </trkpt>
      <trkpt lat="48.83333" lon="2.32363">
        <ele>119.9</ele>
        <time>2015-02-23T20:33:49.147Z</time>
      </trkpt>
      <trkpt lat="48.83329" lon="2.32368">
        <ele>120.1</ele>
        <time>2015-02-23T20:33:50.194Z</time>
      </trkpt>
      <trkpt lat="48.83326" lon="2.32373">
        <ele>120.2</ele>
        <time>2015-02-23T20:33:51.216Z</time>
      </trkpt>
      <trkpt lat="48.83323" lon="2.32378">
        <ele>120.1</ele>
        <time>2015-02-23T20:33:52.208Z</time>
      </trkpt>
      <trkpt lat="48.8332" lon="2.32383">
        <ele>120.1</ele>
        <time>2015-02-23T20:33:53.187Z</time>
      </trkpt>
      <trkpt lat="48.83317" lon="2.32389">
        <ele>120.1</ele>
        <time>2015-02-23T20:33:54.193Z</time>
      </trkpt>
      <trkpt lat="48.83314" lon="2.32396">
        <ele>119.1</ele>
        <time>2015-02-23T20:33:55.203Z</time>
      </trkpt>
      <trkpt lat="48.83313" lon="2.32403">
        <ele>118.7</ele>
        <time>2015-02-23T20:33:56.106Z</time>
      </trkpt>
      <trkpt lat="48.83315" lon="2.32416">
        <ele>118.1</ele>
        <time>2015-02-23T20:33:57.150Z</time>
      </trkpt>
      <trkpt lat="48.83314" lon="2.32426">
        <ele>117.7</ele>
        <time>2015-02-23T20:33:58.165Z</time>
      </trkpt>
      <trkpt lat="48.83313" lon="2.32433">
        <ele>117.6</ele>
        <time>2015-02-23T20:33:59.198Z</time>
      </trkpt>
      <trkpt lat="48.8331" lon="2.32439">
        <ele>116.9</ele>
        <time>2015-02-23T20:34:00.207Z</time>
      </trkpt>
      <trkpt lat="48.83305" lon="2.32449">
        <ele>116.2</ele>
        <time>2015-02-23T20:34:04.157Z</time>
      </trkpt>
      <trkpt lat="48.83306" lon="2.32451">
        <ele>116.3</ele>
        <time>2015-02-23T20:34:05.167Z</time>
      </trkpt>
      <trkpt lat="48.83305" lon="2.32459">
        <ele>115.5</ele>
        <time>2015-02-23T20:34:09.155Z</time>
      </trkpt>
      <trkpt lat="48.83305" lon="2.32461">
        <ele>114.9</ele>
        <time>2015-02-23T20:34:10.275Z</time>
      </trkpt>
      <trkpt lat="48.83305" lon="2.32463">
        <ele>114.6</ele>
        <time>2015-02-23T20:34:17.108Z</time>
      </trkpt>
      <trkpt lat="48.83305" lon="2.32469">
        <ele>115</ele>
        <time>2015-02-23T20:34:18.123Z</time>
      </trkpt>
      <trkpt lat="48.83303" lon="2.32481">
        <ele>113.4</ele>
        <time>2015-02-23T20:34:24.168Z</time>
      </trkpt>
      <trkpt lat="48.83301" lon="2.32484">
        <ele>113.4</ele>
        <time>2015-02-23T20:34:25.146Z</time>
      </trkpt>
      <trkpt lat="48.83294" lon="2.3249">
        <ele>113.3</ele>
        <time>2015-02-23T20:34:28.199Z</time>
      </trkpt>
      <trkpt lat="48.83291" lon="2.32491">
        <ele>113.5</ele>
        <time>2015-02-23T20:34:29.223Z</time>
      </trkpt>
      <trkpt lat="48.83283" lon="2.32496">
        <ele>113.9</ele>
        <time>2015-02-23T20:34:32.151Z</time>
      </trkpt>
      <trkpt lat="48.8328" lon="2.32497">
        <ele>114.3</ele>
        <time>2015-02-23T20:34:33.162Z</time>
      </trkpt>
      <trkpt lat="48.83272" lon="2.32499">
        <ele>115</ele>
        <time>2015-02-23T20:34:35.214Z</time>
      </trkpt>
      <trkpt lat="48.83269" lon="2.32501">
        <ele>115.2</ele>
        <time>2015-02-23T20:34:36.121Z</time>
      </trkpt>
      <trkpt lat="48.83263" lon="2.32507">
        <ele>115.5</ele>
        <time>2015-02-23T20:34:39.177Z</time>
      </trkpt>
      <trkpt lat="48.83261" lon="2.32509">
        <ele>115.5</ele>
        <time>2015-02-23T20:34:40.359Z</time>
      </trkpt>
      <trkpt lat="48.83257" lon="2.32521">
        <ele>114.7</ele>
        <time>2015-02-23T20:34:44.168Z</time>
      </trkpt>
      <trkpt lat="48.83256" lon="2.32524">
        <ele>114.5</ele>
        <time>2015-02-23T20:34:45.174Z</time>
      </trkpt>
      <trkpt lat="48.83255" lon="2.32538">
        <ele>113.5</ele>
        <time>2015-02-23T20:34:50.279Z</time>
      </trkpt>
      <trkpt lat="48.83255" lon="2.3254">
        <ele>113.8</ele>
        <time>2015-02-23T20:34:51.124Z</time>
      </trkpt>
      <trkpt lat="48.83251" lon="2.3255">
        <ele>114.2</ele>
        <time>2015-02-23T20:34:55.204Z</time>
      </trkpt>
      <trkpt lat="48.8325" lon="2.32553">
        <ele>114.3</ele>
        <time>2015-02-23T20:34:56.130Z</time>
      </trkpt>
      <trkpt lat="48.83248" lon="2.32566">
        <ele>114.5</ele>
        <time>2015-02-23T20:35:00.183Z</time>
      </trkpt>
      <trkpt lat="48.83248" lon="2.32569">
        <ele>114.5</ele>
        <time>2015-02-23T20:35:01.174Z</time>
      </trkpt>
      <trkpt lat="48.83243" lon="2.32579">
        <ele>113.9</ele>
        <time>2015-02-23T20:35:04.129Z</time>
      </trkpt>
      <trkpt lat="48.83242" lon="2.32583">
        <ele>114.1</ele>
        <time>2015-02-23T20:35:05.147Z</time>
      </trkpt>
      <trkpt lat="48.83239" lon="2.32594">
        <ele>114.3</ele>
        <time>2015-02-23T20:35:08.210Z</time>
      </trkpt>
      <trkpt lat="48.83238" lon="2.32598">
        <ele>114.2</ele>
        <time>2015-02-23T20:35:09.224Z</time>
      </trkpt>
      <trkpt lat="48.83236" lon="2.32611">
        <ele>114</ele>
        <time>2015-02-23T20:35:12.129Z</time>
      </trkpt>
      <trkpt lat="48.83234" lon="2.32615">
        <ele>114.1</ele>
        <time>2015-02-23T20:35:13.187Z</time>
      </trkpt>
      <trkpt lat="48.83231" lon="2.32627">
        <ele>114.2</ele>
        <time>2015-02-23T20:35:16.202Z</time>
      </trkpt>
      <trkpt lat="48.8323" lon="2.3263">
        <ele>114.3</ele>
        <time>2015-02-23T20:35:17.351Z</time>
      </trkpt>
      <trkpt lat="48.83226" lon="2.32642">
        <ele>113.7</ele>
        <time>2015-02-23T20:35:20.218Z</time>
      </trkpt>
      <trkpt lat="48.83225" lon="2.32646">
        <ele>113.7</ele>
        <time>2015-02-23T20:35:21.132Z</time>
      </trkpt>
      <trkpt lat="48.83225" lon="2.32657">
        <ele>113.7</ele>
        <time>2015-02-23T20:35:24.171Z</time>
      </trkpt>
      <trkpt lat="48.83224" lon="2.32662">
        <ele>113.7</ele>
        <time>2015-02-23T20:35:25.184Z</time>
      </trkpt>
      <trkpt lat="48.83222" lon="2.32672">
        <ele>113.9</ele>
        <time>2015-02-23T20:35:27.114Z</time>
      </trkpt>
      <trkpt lat="48.83221" lon="2.32676">
        <ele>113.6</ele>
        <time>2015-02-23T20:35:28.112Z</time>
      </trkpt>
      <trkpt lat="48.83219" lon="2.32685">
        <ele>113.4</ele>
        <time>2015-02-23T20:35:30.161Z</time>
      </trkpt>
      <trkpt lat="48.83219" lon="2.3269">
        <ele>113.3</ele>
        <time>2015-02-23T20:35:31.198Z</time>
      </trkpt>
      <trkpt lat="48.83216" lon="2.32702">
        <ele>113.9</ele>
        <time>2015-02-23T20:35:34.174Z</time>
      </trkpt>
      <trkpt lat="48.83215" lon="2.32706">
        <ele>114</ele>
        <time>2015-02-23T20:35:35.186Z</time>
      </trkpt>
      <trkpt lat="48.83213" lon="2.32717">
        <ele>114</ele>
        <time>2015-02-23T20:35:37.224Z</time>
      </trkpt>
      <trkpt lat="48.83212" lon="2.32722">
        <ele>114.1</ele>
        <time>2015-02-23T20:35:38.131Z</time>
      </trkpt>
      <trkpt lat="48.83209" lon="2.32733">
        <ele>114.6</ele>
        <time>2015-02-23T20:35:41.145Z</time>
      </trkpt>
      <trkpt lat="48.83207" lon="2.32737">
        <ele>114.8</ele>
        <time>2015-02-23T20:35:42.150Z</time>
      </trkpt>
      <trkpt lat="48.83203" lon="2.32747">
        <ele>115.4</ele>
        <time>2015-02-23T20:35:45.190Z</time>
      </trkpt>
      <trkpt lat="48.83202" lon="2.32751">
        <ele>115.4</ele>
        <time>2015-02-23T20:35:46.203Z</time>
      </trkpt>
      <trkpt lat="48.83198" lon="2.32763">
        <ele>115.9</ele>
        <time>2015-02-23T20:35:49.171Z</time>
      </trkpt>
      <trkpt lat="48.83197" lon="2.32767">
        <ele>116.1</ele>
        <time>2015-02-23T20:35:50.170Z</time>
      </trkpt>
      <trkpt lat="48.83194" lon="2.32775">
        <ele>116.1</ele>
        <time>2015-02-23T20:35:52.203Z</time>
      </trkpt>
      <trkpt lat="48.83192" lon="2.3278">
        <ele>116</ele>
        <time>2015-02-23T20:35:53.216Z</time>
      </trkpt>
      <trkpt lat="48.83189" lon="2.32788">
        <ele>116.1</ele>
        <time>2015-02-23T20:35:55.153Z</time>
      </trkpt>
      <trkpt lat="48.83188" lon="2.32792">
        <ele>116.1</ele>
        <time>2015-02-23T20:35:56.161Z</time>
      </trkpt>
      <trkpt lat="48.83186" lon="2.32801">
        <ele>116</ele>
        <time>2015-02-23T20:35:58.208Z</time>
      </trkpt>
      <trkpt lat="48.83185" lon="2.32805">
        <ele>116.1</ele>
        <time>2015-02-23T20:35:59.225Z</time>
      </trkpt>
      <trkpt lat="48.83183" lon="2.32815">
        <ele>116.7</ele>
        <time>2015-02-23T20:36:02.168Z</time>
      </trkpt>
      <trkpt lat="48.83181" lon="2.32818">
        <ele>116.9</ele>
        <time>2015-02-23T20:36:03.172Z</time>
      </trkpt>
      <trkpt lat="48.83179" lon="2.3283">
        <ele>117.3</ele>
        <time>2015-02-23T20:36:06.137Z</time>
      </trkpt>
      <trkpt lat="48.83178" lon="2.32833">
        <ele>117.4</ele>
        <time>2015-02-23T20:36:07.161Z</time>
      </trkpt>
      <trkpt lat="48.83176" lon="2.32842">
        <ele>117.8</ele>
        <time>2015-02-23T20:36:09.117Z</time>
      </trkpt>
      <trkpt lat="48.83175" lon="2.32846">
        <ele>117.9</ele>
        <time>2015-02-23T20:36:10.110Z</time>
      </trkpt>
      <trkpt lat="48.83171" lon="2.32858">
        <ele>118.2</ele>
        <time>2015-02-23T20:36:13.259Z</time>
      </trkpt>
      <trkpt lat="48.8317" lon="2.32862">
        <ele>118.2</ele>
        <time>2015-02-23T20:36:14.131Z</time>
      </trkpt>
      <trkpt lat="48.83166" lon="2.32872">
        <ele>118.7</ele>
        <time>2015-02-23T20:36:17.181Z</time>
      </trkpt>
      <trkpt lat="48.83164" lon="2.32875">
        <ele>118.7</ele>
        <time>2015-02-23T20:36:18.204Z</time>
      </trkpt>
      <trkpt lat="48.8316" lon="2.32887">
        <ele>119.2</ele>
        <time>2015-02-23T20:36:21.148Z</time>
      </trkpt>
      <trkpt lat="48.83159" lon="2.32892">
        <ele>119.5</ele>
        <time>2015-02-23T20:36:22.162Z</time>
      </trkpt>
      <trkpt lat="48.83155" lon="2.32902">
        <ele>120.2</ele>
        <time>2015-02-23T20:36:25.209Z</time>
      </trkpt>
      <trkpt lat="48.83154" lon="2.32905">
        <ele>120.2</ele>
        <time>2015-02-23T20:36:26.213Z</time>
      </trkpt>
      <trkpt lat="48.83151" lon="2.32917">
        <ele>120.1</ele>
        <time>2015-02-23T20:36:29.133Z</time>
      </trkpt>
      <trkpt lat="48.83151" lon="2.32921">
        <ele>120.1</ele>
        <time>2015-02-23T20:36:30.203Z</time>
      </trkpt>
      <trkpt lat="48.83151" lon="2.32932">
        <ele>119.7</ele>
        <time>2015-02-23T20:36:32.136Z</time>
      </trkpt>
      <trkpt lat="48.8315" lon="2.32937">
        <ele>119.6</ele>
        <time>2015-02-23T20:36:33.199Z</time>
      </trkpt>
      <trkpt lat="48.83148" lon="2.32949">
        <ele>118.7</ele>
        <time>2015-02-23T20:36:35.121Z</time>
      </trkpt>
      <trkpt lat="48.83147" lon="2.32954">
        <ele>118.4</ele>
        <time>2015-02-23T20:36:36.133Z</time>
      </trkpt>
      <trkpt lat="48.83145" lon="2.32966">
        <ele>117.5</ele>
        <time>2015-02-23T20:36:39.177Z</time>
      </trkpt>
      <trkpt lat="48.83144" lon="2.32968">
        <ele>117.4</ele>
        <time>2015-02-23T20:36:40.191Z</time>
      </trkpt>
      <trkpt lat="48.83145" lon="2.32973">
        <ele>117.5</ele>
        <time>2015-02-23T20:36:43.167Z</time>
      </trkpt>
      <trkpt lat="48.83146" lon="2.32974">
        <ele>117.5</ele>
        <time>2015-02-23T20:36:44.092Z</time>
      </trkpt>
      <trkpt lat="48.83146" lon="2.32974">
        <ele>117.4</ele>
        <time>2015-02-23T20:37:10.098Z</time>
      </trkpt>
      <trkpt lat="48.83148" lon="2.32978">
        <ele>117.6</ele>
        <time>2015-02-23T20:37:11.127Z</time>
      </trkpt>
      <trkpt lat="48.8314" lon="2.32982">
        <ele>118.6</ele>
        <time>2015-02-23T20:37:17.187Z</time>
      </trkpt>
      <trkpt lat="48.83136" lon="2.32982">
        <ele>118.7</ele>
        <time>2015-02-23T20:37:18.210Z</time>
      </trkpt>
      <trkpt lat="48.83128" lon="2.32983">
        <ele>119.8</ele>
        <time>2015-02-23T20:37:24.093Z</time>
      </trkpt>
      <trkpt lat="48.83127" lon="2.32985">
        <ele>120.3</ele>
        <time>2015-02-23T20:37:25.163Z</time>
      </trkpt>
      <trkpt lat="48.83122" lon="2.32991">
        <ele>120.6</ele>
        <time>2015-02-23T20:37:28.209Z</time>
      </trkpt>
      <trkpt lat="48.83121" lon="2.32994">
        <ele>120.9</ele>
        <time>2015-02-23T20:37:29.174Z</time>
      </trkpt>
      <trkpt lat="48.83116" lon="2.33003">
        <ele>121.2</ele>
        <time>2015-02-23T20:37:31.287Z</time>
      </trkpt>
      <trkpt lat="48.83114" lon="2.33009">
        <ele>121.3</ele>
        <time>2015-02-23T20:37:32.282Z</time>
      </trkpt>
      <trkpt lat="48.8311" lon="2.3302">
        <ele>121.6</ele>
        <time>2015-02-23T20:37:34.124Z</time>
      </trkpt>
      <trkpt lat="48.83107" lon="2.33025">
        <ele>121.8</ele>
        <time>2015-02-23T20:37:35.146Z</time>
      </trkpt>
      <trkpt lat="48.83101" lon="2.33034">
        <ele>121.9</ele>
        <time>2015-02-23T20:37:37.204Z</time>
      </trkpt>
      <trkpt lat="48.83099" lon="2.3304">
        <ele>122.1</ele>
        <time>2015-02-23T20:37:38.112Z</time>
      </trkpt>
      <trkpt lat="48.83095" lon="2.33052">
        <ele>122.5</ele>
        <time>2015-02-23T20:37:40.117Z</time>
      </trkpt>
      <trkpt lat="48.83092" lon="2.33058">
        <ele>122.6</ele>
        <time>2015-02-23T20:37:41.140Z</time>
      </trkpt>
      <trkpt lat="48.83088" lon="2.33069">
        <ele>122.5</ele>
        <time>2015-02-23T20:37:43.169Z</time>
      </trkpt>
      <trkpt lat="48.83085" lon="2.33076">
        <ele>122.8</ele>
        <time>2015-02-23T20:37:44.178Z</time>
      </trkpt>
      <trkpt lat="48.83081" lon="2.33087">
        <ele>123</ele>
        <time>2015-02-23T20:37:46.103Z</time>
      </trkpt>
      <trkpt lat="48.83079" lon="2.33092">
        <ele>123</ele>
        <time>2015-02-23T20:37:47.114Z</time>
      </trkpt>
      <trkpt lat="48.83074" lon="2.33103">
        <ele>123.2</ele>
        <time>2015-02-23T20:37:49.170Z</time>
      </trkpt>
      <trkpt lat="48.83072" lon="2.33109">
        <ele>123.1</ele>
        <time>2015-02-23T20:37:50.189Z</time>
      </trkpt>
      <trkpt lat="48.8307" lon="2.33116">
        <ele>123</ele>
        <time>2015-02-23T20:37:51.129Z</time>
      </trkpt>
      <trkpt lat="48.83069" lon="2.33126">
        <ele>122</ele>
        <time>2015-02-23T20:37:52.143Z</time>
      </trkpt>
      <trkpt lat="48.83068" lon="2.33137">
        <ele>120.9</ele>
        <time>2015-02-23T20:37:53.155Z</time>
      </trkpt>
      <trkpt lat="48.83067" lon="2.33146">
        <ele>120.4</ele>
        <time>2015-02-23T20:37:54.181Z</time>
      </trkpt>
      <trkpt lat="48.83066" lon="2.33153">
        <ele>120.3</ele>
        <time>2015-02-23T20:37:55.137Z</time>
      </trkpt>
      <trkpt lat="48.83065" lon="2.3316">
        <ele>120.2</ele>
        <time>2015-02-23T20:37:56.131Z</time>
      </trkpt>
      <trkpt lat="48.83063" lon="2.33167">
        <ele>120</ele>
        <time>2015-02-23T20:37:57.163Z</time>
      </trkpt>
      <trkpt lat="48.83063" lon="2.33174">
        <ele>119.8</ele>
        <time>2015-02-23T20:37:58.176Z</time>
      </trkpt>
      <trkpt lat="48.83063" lon="2.33181">
        <ele>119.6</ele>
        <time>2015-02-23T20:37:59.100Z</time>
      </trkpt>
      <trkpt lat="48.83061" lon="2.33189">
        <ele>119.5</ele>
        <time>2015-02-23T20:38:00.108Z</time>
      </trkpt>
      <trkpt lat="48.8306" lon="2.33196">
        <ele>119.5</ele>
        <time>2015-02-23T20:38:01.152Z</time>
      </trkpt>
      <trkpt lat="48.83058" lon="2.33204">
        <ele>119.3</ele>
        <time>2015-02-23T20:38:02.156Z</time>
      </trkpt>
      <trkpt lat="48.83058" lon="2.33211">
        <ele>119.1</ele>
        <time>2015-02-23T20:38:03.174Z</time>
      </trkpt>
      <trkpt lat="48.83058" lon="2.33218">
        <ele>118.7</ele>
        <time>2015-02-23T20:38:04.091Z</time>
      </trkpt>
      <trkpt lat="48.8306" lon="2.33226">
        <ele>118.4</ele>
        <time>2015-02-23T20:38:05.086Z</time>
      </trkpt>
      <trkpt lat="48.83062" lon="2.33234">
        <ele>118.2</ele>
        <time>2015-02-23T20:38:06.131Z</time>
      </trkpt>
      <trkpt lat="48.83062" lon="2.33241">
        <ele>118</ele>
        <time>2015-02-23T20:38:07.140Z</time>
      </trkpt>
      <trkpt lat="48.83063" lon="2.33249">
        <ele>117.9</ele>
        <time>2015-02-23T20:38:08.148Z</time>
      </trkpt>
      <trkpt lat="48.83064" lon="2.33256">
        <ele>117.8</ele>
        <time>2015-02-23T20:38:09.161Z</time>
      </trkpt>
      <trkpt lat="48.83065" lon="2.33263">
        <ele>117.7</ele>
        <time>2015-02-23T20:38:10.127Z</time>
      </trkpt>
      <trkpt lat="48.83066" lon="2.33276">
        <ele>117.4</ele>
        <time>2015-02-23T20:38:12.076Z</time>
      </trkpt>
      <trkpt lat="48.83066" lon="2.33282">
        <ele>117.3</ele>
        <time>2015-02-23T20:38:13.133Z</time>
      </trkpt>
      <trkpt lat="48.83068" lon="2.33292">
        <ele>116.6</ele>
        <time>2015-02-23T20:38:15.089Z</time>
      </trkpt>
      <trkpt lat="48.83069" lon="2.33296">
        <ele>116</ele>
        <time>2015-02-23T20:38:16.112Z</time>
      </trkpt>
      <trkpt lat="48.8307" lon="2.33306">
        <ele>116.2</ele>
        <time>2015-02-23T20:38:18.107Z</time>
      </trkpt>
      <trkpt lat="48.83069" lon="2.33312">
        <ele>116.6</ele>
        <time>2015-02-23T20:38:19.169Z</time>
      </trkpt>
      <trkpt lat="48.8307" lon="2.33323">
        <ele>116.9</ele>
        <time>2015-02-23T20:38:21.188Z</time>
      </trkpt>
      <trkpt lat="48.83073" lon="2.33326">
        <ele>116.9</ele>
        <time>2015-02-23T20:38:22.187Z</time>
      </trkpt>
      <trkpt lat="48.83077" lon="2.33335">
        <ele>117.1</ele>
        <time>2015-02-23T20:38:24.179Z</time>
      </trkpt>
      <trkpt lat="48.83078" lon="2.33339">
        <ele>117.3</ele>
        <time>2015-02-23T20:38:25.255Z</time>
      </trkpt>
      <trkpt lat="48.83076" lon="2.33352">
        <ele>117.1</ele>
        <time>2015-02-23T20:38:32.115Z</time>
      </trkpt>
      <trkpt lat="48.83077" lon="2.33355">
        <ele>117.4</ele>
        <time>2015-02-23T20:38:33.130Z</time>
      </trkpt>
      <trkpt lat="48.8308" lon="2.33367">
        <ele>117.4</ele>
        <time>2015-02-23T20:38:38.229Z</time>
      </trkpt>
      <trkpt lat="48.83081" lon="2.3337">
        <ele>117.5</ele>
        <time>2015-02-23T20:38:39.125Z</time>
      </trkpt>
      <trkpt lat="48.83079" lon="2.33381">
        <ele>118.4</ele>
        <time>2015-02-23T20:38:42.176Z</time>
      </trkpt>
      <trkpt lat="48.8308" lon="2.33385">
        <ele>118.6</ele>
        <time>2015-02-23T20:38:43.183Z</time>
      </trkpt>
      <trkpt lat="48.83083" lon="2.33395">
        <ele>118.8</ele>
        <time>2015-02-23T20:38:46.211Z</time>
      </trkpt>
      <trkpt lat="48.83084" lon="2.33399">
        <ele>118.7</ele>
        <time>2015-02-23T20:38:47.123Z</time>
      </trkpt>
      <trkpt lat="48.83085" lon="2.33411">
        <ele>118.5</ele>
        <time>2015-02-23T20:38:50.177Z</time>
      </trkpt>
      <trkpt lat="48.83085" lon="2.33416">
        <ele>118.2</ele>
        <time>2015-02-23T20:38:51.199Z</time>
      </trkpt>
      <trkpt lat="48.83084" lon="2.33425">
        <ele>118</ele>
        <time>2015-02-23T20:38:53.166Z</time>
      </trkpt>
      <trkpt lat="48.83081" lon="2.33431">
        <ele>117.8</ele>
        <time>2015-02-23T20:38:54.259Z</time>
      </trkpt>
      <trkpt lat="48.83082" lon="2.33441">
        <ele>117.7</ele>
        <time>2015-02-23T20:39:03.166Z</time>
      </trkpt>
      <trkpt lat="48.83086" lon="2.33445">
        <ele>117.9</ele>
        <time>2015-02-23T20:39:04.181Z</time>
      </trkpt>
      <trkpt lat="48.83092" lon="2.33451">
        <ele>118</ele>
        <time>2015-02-23T20:39:06.132Z</time>
      </trkpt>
      <trkpt lat="48.83094" lon="2.33453">
        <ele>118</ele>
        <time>2015-02-23T20:39:07.207Z</time>
      </trkpt>
      <trkpt lat="48.83102" lon="2.33456">
        <ele>119.6</ele>
        <time>2015-02-23T20:39:11.166Z</time>
      </trkpt>
      <trkpt lat="48.83103" lon="2.33457">
        <ele>119.8</ele>
        <time>2015-02-23T20:39:12.314Z</time>
      </trkpt>
      <trkpt lat="48.83104" lon="2.33468">
        <ele>120.2</ele>
        <time>2015-02-23T20:39:17.186Z</time>
      </trkpt>
      <trkpt lat="48.83103" lon="2.33471">
        <ele>120.2</ele>
        <time>2015-02-23T20:39:18.217Z</time>
      </trkpt>
      <trkpt lat="48.83099" lon="2.33478">
        <ele>120.4</ele>
        <time>2015-02-23T20:39:20.172Z</time>
      </trkpt>
      <trkpt lat="48.83097" lon="2.33483">
        <ele>120.3</ele>
        <time>2015-02-23T20:39:21.212Z</time>
      </trkpt>
      <trkpt lat="48.83093" lon="2.33491">
        <ele>120.1</ele>
        <time>2015-02-23T20:39:23.089Z</time>
      </trkpt>
      <trkpt lat="48.8309" lon="2.33494">
        <ele>120.4</ele>
        <time>2015-02-23T20:39:24.148Z</time>
      </trkpt>
      <trkpt lat="48.83086" lon="2.33505">
        <ele>120.3</ele>
        <time>2015-02-23T20:39:27.175Z</time>
      </trkpt>
      <trkpt lat="48.83085" lon="2.3351">
        <ele>120.3</ele>
        <time>2015-02-23T20:39:28.185Z</time>
      </trkpt>
      <trkpt lat="48.83082" lon="2.33522">
        <ele>120.2</ele>
        <time>2015-02-23T20:39:31.171Z</time>
      </trkpt>
      <trkpt lat="48.83081" lon="2.33526">
        <ele>120.6</ele>
        <time>2015-02-23T20:39:32.259Z</time>
      </trkpt>
      <trkpt lat="48.83077" lon="2.33538">
        <ele>121.3</ele>
        <time>2015-02-23T20:39:35.192Z</time>
      </trkpt>
      <trkpt lat="48.83076" lon="2.33543">
        <ele>121.1</ele>
        <time>2015-02-23T20:39:36.142Z</time>
      </trkpt>
      <trkpt lat="48.83076" lon="2.33556">
        <ele>119.7</ele>
        <time>2015-02-23T20:39:38.139Z</time>
      </trkpt>
      <trkpt lat="48.83078" lon="2.33566">
        <ele>118.9</ele>
        <time>2015-02-23T20:39:39.154Z</time>
      </trkpt>
      <trkpt lat="48.83076" lon="2.33576">
        <ele>118.3</ele>
        <time>2015-02-23T20:39:41.089Z</time>
      </trkpt>
      <trkpt lat="48.83075" lon="2.33581">
        <ele>117.8</ele>
        <time>2015-02-23T20:39:42.103Z</time>
      </trkpt>
      <trkpt lat="48.83074" lon="2.33589">
        <ele>117.3</ele>
        <time>2015-02-23T20:39:44.121Z</time>
      </trkpt>
      <trkpt lat="48.83073" lon="2.33594">
        <ele>117.1</ele>
        <time>2015-02-23T20:39:45.136Z</time>
      </trkpt>
      <trkpt lat="48.83072" lon="2.33603">
        <ele>116.8</ele>
        <time>2015-02-23T20:39:47.091Z</time>
      </trkpt>
      <trkpt lat="48.83073" lon="2.33608">
        <ele>116.4</ele>
        <time>2015-02-23T20:39:48.107Z</time>
      </trkpt>
      <trkpt lat="48.83074" lon="2.33618">
        <ele>115.9</ele>
        <time>2015-02-23T20:39:50.141Z</time>
      </trkpt>
      <trkpt lat="48.83076" lon="2.33624">
        <ele>115.6</ele>
        <time>2015-02-23T20:39:51.158Z</time>
      </trkpt>
      <trkpt lat="48.83077" lon="2.33636">
        <ele>115.2</ele>
        <time>2015-02-23T20:39:53.192Z</time>
      </trkpt>
      <trkpt lat="48.83078" lon="2.33643">
        <ele>115.1</ele>
        <time>2015-02-23T20:39:54.097Z</time>
      </trkpt>
      <trkpt lat="48.8308" lon="2.33649">
        <ele>115.2</ele>
        <time>2015-02-23T20:39:55.134Z</time>
      </trkpt>
      <trkpt lat="48.8308" lon="2.33657">
        <ele>115.3</ele>
        <time>2015-02-23T20:39:56.141Z</time>
      </trkpt>
      <trkpt lat="48.83082" lon="2.33665">
        <ele>114.7</ele>
        <time>2015-02-23T20:39:57.174Z</time>
      </trkpt>
      <trkpt lat="48.83084" lon="2.33671">
        <ele>114.9</ele>
        <time>2015-02-23T20:39:58.173Z</time>
      </trkpt>
      <trkpt lat="48.83085" lon="2.33677">
        <ele>115.1</ele>
        <time>2015-02-23T20:39:59.190Z</time>
      </trkpt>
      <trkpt lat="48.83088" lon="2.33685">
        <ele>115.3</ele>
        <time>2015-02-23T20:40:00.235Z</time>
      </trkpt>
      <trkpt lat="48.8309" lon="2.33693">
        <ele>115.2</ele>
        <time>2015-02-23T20:40:01.170Z</time>
      </trkpt>
      <trkpt lat="48.83091" lon="2.33701">
        <ele>115.2</ele>
        <time>2015-02-23T20:40:02.167Z</time>
      </trkpt>
      <trkpt lat="48.83093" lon="2.3371">
        <ele>115.1</ele>
        <time>2015-02-23T20:40:03.184Z</time>
      </trkpt>
      <trkpt lat="48.83094" lon="2.33718">
        <ele>114.9</ele>
        <time>2015-02-23T20:40:04.197Z</time>
      </trkpt>
      <trkpt lat="48.83096" lon="2.33725">
        <ele>114.8</ele>
        <time>2015-02-23T20:40:05.096Z</time>
      </trkpt>
      <trkpt lat="48.83099" lon="2.33734">
        <ele>114.4</ele>
        <time>2015-02-23T20:40:06.095Z</time>
      </trkpt>
      <trkpt lat="48.831" lon="2.33743">
        <ele>114.4</ele>
        <time>2015-02-23T20:40:07.148Z</time>
      </trkpt>
      <trkpt lat="48.83101" lon="2.3375">
        <ele>114.4</ele>
        <time>2015-02-23T20:40:08.166Z</time>
      </trkpt>
      <trkpt lat="48.83104" lon="2.33755">
        <ele>114.7</ele>
        <time>2015-02-23T20:40:09.180Z</time>
      </trkpt>
      <trkpt lat="48.83104" lon="2.33763">
        <ele>114.7</ele>
        <time>2015-02-23T20:40:10.099Z</time>
      </trkpt>
      <trkpt lat="48.83108" lon="2.33773">
        <ele>113.6</ele>
        <time>2015-02-23T20:40:12.118Z</time>
      </trkpt>
      <trkpt lat="48.83111" lon="2.33778">
        <ele>113.3</ele>
        <time>2015-02-23T20:40:13.132Z</time>
      </trkpt>
      <trkpt lat="48.83115" lon="2.33783">
        <ele>113.5</ele>
        <time>2015-02-23T20:40:14.168Z</time>
      </trkpt>
      <trkpt lat="48.83125" lon="2.33779">
        <ele>112.9</ele>
        <time>2015-02-23T20:40:15.187Z</time>
      </trkpt>
      <trkpt lat="48.83132" lon="2.33778">
        <ele>113.1</ele>
        <time>2015-02-23T20:40:16.116Z</time>
      </trkpt>
      <trkpt lat="48.83139" lon="2.33774">
        <ele>112.9</ele>
        <time>2015-02-23T20:40:17.113Z</time>
      </trkpt>
      <trkpt lat="48.83144" lon="2.33771">
        <ele>112.7</ele>
        <time>2015-02-23T20:40:18.122Z</time>
      </trkpt>
      <trkpt lat="48.83148" lon="2.33768">
        <ele>112.4</ele>
        <time>2015-02-23T20:40:19.213Z</time>
      </trkpt>
      <trkpt lat="48.83151" lon="2.3376">
        <ele>112.5</ele>
        <time>2015-02-23T20:40:21.099Z</time>
      </trkpt>
      <trkpt lat="48.83152" lon="2.33755">
        <ele>112.9</ele>
        <time>2015-02-23T20:40:22.112Z</time>
      </trkpt>
      <trkpt lat="48.83155" lon="2.33746">
        <ele>113.4</ele>
        <time>2015-02-23T20:40:24.137Z</time>
      </trkpt>
      <trkpt lat="48.83156" lon="2.33741">
        <ele>113.9</ele>
        <time>2015-02-23T20:40:25.150Z</time>
      </trkpt>
      <trkpt lat="48.83157" lon="2.3373">
        <ele>114.8</ele>
        <time>2015-02-23T20:40:27.116Z</time>
      </trkpt>
      <trkpt lat="48.83159" lon="2.33727">
        <ele>115</ele>
        <time>2015-02-23T20:40:28.129Z</time>
      </trkpt>
      <trkpt lat="48.83163" lon="2.33719">
        <ele>115.2</ele>
        <time>2015-02-23T20:40:31.189Z</time>
      </trkpt>
      <trkpt lat="48.83163" lon="2.33715">
        <ele>114.9</ele>
        <time>2015-02-23T20:40:32.210Z</time>
      </trkpt>
      <trkpt lat="48.83164" lon="2.33702">
        <ele>114.5</ele>
        <time>2015-02-23T20:40:35.186Z</time>
      </trkpt>
      <trkpt lat="48.83165" lon="2.33697">
        <ele>114.4</ele>
        <time>2015-02-23T20:40:36.206Z</time>
      </trkpt>
      <trkpt lat="48.83169" lon="2.33691">
        <ele>114.6</ele>
        <time>2015-02-23T20:40:38.123Z</time>
      </trkpt>
      <trkpt lat="48.83171" lon="2.33687">
        <ele>114.6</ele>
        <time>2015-02-23T20:40:39.118Z</time>
      </trkpt>
      <trkpt lat="48.83175" lon="2.33678">
        <ele>114.8</ele>
        <time>2015-02-23T20:40:41.123Z</time>
      </trkpt>
      <trkpt lat="48.83177" lon="2.33672">
        <ele>115</ele>
        <time>2015-02-23T20:40:42.154Z</time>
      </trkpt>
      <trkpt lat="48.8318" lon="2.3366">
        <ele>115.5</ele>
        <time>2015-02-23T20:40:44.155Z</time>
      </trkpt>
      <trkpt lat="48.83181" lon="2.33654">
        <ele>115.7</ele>
        <time>2015-02-23T20:40:45.160Z</time>
      </trkpt>
      <trkpt lat="48.83184" lon="2.33642">
        <ele>116.1</ele>
        <time>2015-02-23T20:40:47.185Z</time>
      </trkpt>
      <trkpt lat="48.83186" lon="2.33637">
        <ele>116.5</ele>
        <time>2015-02-23T20:40:48.200Z</time>
      </trkpt>
      <trkpt lat="48.83189" lon="2.33628">
        <ele>117.1</ele>
        <time>2015-02-23T20:40:50.131Z</time>
      </trkpt>
      <trkpt lat="48.83191" lon="2.33624">
        <ele>117.4</ele>
        <time>2015-02-23T20:40:51.134Z</time>
      </trkpt>
      <trkpt lat="48.83193" lon="2.33611">
        <ele>118.7</ele>
        <time>2015-02-23T20:40:53.135Z</time>
      </trkpt>
      <trkpt lat="48.83192" lon="2.33601">
        <ele>120.1</ele>
        <time>2015-02-23T20:40:54.271Z</time>
      </trkpt>
      <trkpt lat="48.83192" lon="2.33592">
        <ele>121.3</ele>
        <time>2015-02-23T20:40:55.147Z</time>
      </trkpt>
      <trkpt lat="48.83192" lon="2.33586">
        <ele>122</ele>
        <time>2015-02-23T20:40:56.148Z</time>
      </trkpt>
      <trkpt lat="48.83194" lon="2.33576">
        <ele>122.8</ele>
        <time>2015-02-23T20:40:58.176Z</time>
      </trkpt>
      <trkpt lat="48.83195" lon="2.33571">
        <ele>123.6</ele>
        <time>2015-02-23T20:40:59.188Z</time>
      </trkpt>
      <trkpt lat="48.83198" lon="2.3356">
        <ele>124.1</ele>
        <time>2015-02-23T20:41:02.103Z</time>
      </trkpt>
      <trkpt lat="48.83198" lon="2.33557">
        <ele>123.8</ele>
        <time>2015-02-23T20:41:03.120Z</time>
      </trkpt>
      <trkpt lat="48.83202" lon="2.33545">
        <ele>123.5</ele>
        <time>2015-02-23T20:41:08.203Z</time>
      </trkpt>
      <trkpt lat="48.83203" lon="2.33542">
        <ele>123.8</ele>
        <time>2015-02-23T20:41:09.213Z</time>
      </trkpt>
      <trkpt lat="48.83207" lon="2.3353">
        <ele>127.3</ele>
        <time>2015-02-23T20:41:16.680Z</time>
      </trkpt>
      <trkpt lat="48.83207" lon="2.3353">
        <ele>127.6</ele>
        <time>2015-02-23T20:41:17.238Z</time>
      </trkpt>
      <trkpt lat="48.83209" lon="2.33535">
        <ele>132</ele>
        <time>2015-02-23T20:42:29.105Z</time>
      </trkpt>
      <trkpt lat="48.83209" lon="2.33536">
        <ele>132.2</ele>
        <time>2015-02-23T20:42:30.696Z</time>
      </trkpt>
      <trkpt lat="48.83209" lon="2.33535">
        <ele>132.4</ele>
        <time>2015-02-23T20:42:31.170Z</time>
      </trkpt>
      <trkpt lat="48.83209" lon="2.33534">
        <ele>132.7</ele>
        <time>2015-02-23T20:42:32.182Z</time>
      </trkpt>
      <trkpt lat="48.83209" lon="2.33534">
        <ele>132.8</ele>
        <time>2015-02-23T20:42:33.101Z</time>
      </trkpt>
      <trkpt lat="48.83209" lon="2.33534">
        <ele>133</ele>
        <time>2015-02-23T20:43:01.194Z</time>
      </trkpt>
      <trkpt lat="48.83205" lon="2.33532">
        <ele>132.8</ele>
        <time>2015-02-23T20:43:02.213Z</time>
      </trkpt>
      <trkpt lat="48.83204" lon="2.33532">
        <ele>132.8</ele>
        <time>2015-02-23T20:43:03.112Z</time>
      </trkpt>
      <trkpt lat="48.83204" lon="2.33531">
        <ele>132.8</ele>
        <time>2015-02-23T20:43:04.180Z</time>
      </trkpt>
      <trkpt lat="48.83204" lon="2.33531">
        <ele>133</ele>
        <time>2015-02-23T20:43:05.106Z</time>
      </trkpt>
      <trkpt lat="48.83212" lon="2.3353">
        <ele>132.9</ele>
        <time>2015-02-23T20:43:26.735Z</time>
      </trkpt>
      <trkpt lat="48.83213" lon="2.33531">
        <ele>132.6</ele>
        <time>2015-02-23T20:43:27.106Z</time>
      </trkpt>
      <trkpt lat="48.8322" lon="2.33536">
        <ele>131.9</ele>
        <time>2015-02-23T20:43:30.182Z</time>
      </trkpt>
      <trkpt lat="48.83223" lon="2.33538">
        <ele>131.8</ele>
        <time>2015-02-23T20:43:31.143Z</time>
      </trkpt>
      <trkpt lat="48.83228" lon="2.33543">
        <ele>131.2</ele>
        <time>2015-02-23T20:43:33.159Z</time>
      </trkpt>
      <trkpt lat="48.83231" lon="2.33545">
        <ele>130.8</ele>
        <time>2015-02-23T20:43:34.169Z</time>
      </trkpt>
      <trkpt lat="48.83238" lon="2.3355">
        <ele>130.5</ele>
        <time>2015-02-23T20:43:36.962Z</time>
      </trkpt>
      <trkpt lat="48.83241" lon="2.33553">
        <ele>130.2</ele>
        <time>2015-02-23T20:43:37.200Z</time>
      </trkpt>
      <trkpt lat="48.83248" lon="2.33558">
        <ele>129.8</ele>
        <time>2015-02-23T20:43:39.117Z</time>
      </trkpt>
      <trkpt lat="48.83251" lon="2.33561">
        <ele>129.6</ele>
        <time>2015-02-23T20:43:40.145Z</time>
      </trkpt>
      <trkpt lat="48.83257" lon="2.33566">
        <ele>129.3</ele>
        <time>2015-02-23T20:43:42.168Z</time>
      </trkpt>
      <trkpt lat="48.8326" lon="2.33569">
        <ele>129.1</ele>
        <time>2015-02-23T20:43:43.192Z</time>
      </trkpt>
      <trkpt lat="48.83266" lon="2.33573">
        <ele>129</ele>
        <time>2015-02-23T20:43:45.106Z</time>
      </trkpt>
      <trkpt lat="48.83269" lon="2.33576">
        <ele>129</ele>
        <time>2015-02-23T20:43:46.153Z</time>
      </trkpt>
      <trkpt lat="48.83277" lon="2.33579">
        <ele>129</ele>
        <time>2015-02-23T20:43:48.074Z</time>
      </trkpt>
      <trkpt lat="48.8328" lon="2.3358">
        <ele>128.8</ele>
        <time>2015-02-23T20:43:49.112Z</time>
      </trkpt>
      <trkpt lat="48.83286" lon="2.33585">
        <ele>128.5</ele>
        <time>2015-02-23T20:43:51.153Z</time>
      </trkpt>
      <trkpt lat="48.83289" lon="2.33587">
        <ele>128.3</ele>
        <time>2015-02-23T20:43:52.155Z</time>
      </trkpt>
      <trkpt lat="48.83295" lon="2.33591">
        <ele>127.8</ele>
        <time>2015-02-23T20:43:54.203Z</time>
      </trkpt>
      <trkpt lat="48.83298" lon="2.33593">
        <ele>127.6</ele>
        <time>2015-02-23T20:43:55.144Z</time>
      </trkpt>
      <trkpt lat="48.83304" lon="2.33594">
        <ele>127.5</ele>
        <time>2015-02-23T20:43:57.359Z</time>
      </trkpt>
      <trkpt lat="48.83308" lon="2.33595">
        <ele>127.6</ele>
        <time>2015-02-23T20:43:58.235Z</time>
      </trkpt>
      <trkpt lat="48.83315" lon="2.33599">
        <ele>127.4</ele>
        <time>2015-02-23T20:44:00.145Z</time>
      </trkpt>
      <trkpt lat="48.8332" lon="2.33601">
        <ele>127.6</ele>
        <time>2015-02-23T20:44:01.281Z</time>
      </trkpt>
      <trkpt lat="48.83327" lon="2.33605">
        <ele>127.9</ele>
        <time>2015-02-23T20:44:03.222Z</time>
      </trkpt>
      <trkpt lat="48.83331" lon="2.33604">
        <ele>127.8</ele>
        <time>2015-02-23T20:44:04.225Z</time>
      </trkpt>
      <trkpt lat="48.83338" lon="2.33598">
        <ele>127.4</ele>
        <time>2015-02-23T20:44:07.575Z</time>
      </trkpt>
      <trkpt lat="48.8334" lon="2.33595">
        <ele>127.2</ele>
        <time>2015-02-23T20:44:08.206Z</time>
      </trkpt>
      <trkpt lat="48.83342" lon="2.33584">
        <ele>126.3</ele>
        <time>2015-02-23T20:44:11.165Z</time>
      </trkpt>
      <trkpt lat="48.83343" lon="2.33579">
        <ele>125.9</ele>
        <time>2015-02-23T20:44:12.181Z</time>
      </trkpt>
      <trkpt lat="48.83345" lon="2.33568">
        <ele>125.4</ele>
        <time>2015-02-23T20:44:14.110Z</time>
      </trkpt>
      <trkpt lat="48.83346" lon="2.33563">
        <ele>125.2</ele>
        <time>2015-02-23T20:44:15.152Z</time>
      </trkpt>
      <trkpt lat="48.83349" lon="2.33553">
        <ele>124.7</ele>
        <time>2015-02-23T20:44:17.188Z</time>
      </trkpt>
      <trkpt lat="48.8335" lon="2.33548">
        <ele>124.4</ele>
        <time>2015-02-23T20:44:18.187Z</time>
      </trkpt>
      <trkpt lat="48.83354" lon="2.33536">
        <ele>123.9</ele>
        <time>2015-02-23T20:44:20.105Z</time>
      </trkpt>
      <trkpt lat="48.83355" lon="2.3353">
        <ele>123.7</ele>
        <time>2015-02-23T20:44:21.225Z</time>
      </trkpt>
      <trkpt lat="48.83359" lon="2.3352">
        <ele>123.7</ele>
        <time>2015-02-23T20:44:23.124Z</time>
      </trkpt>
      <trkpt lat="48.83361" lon="2.33514">
        <ele>123.5</ele>
        <time>2015-02-23T20:44:24.154Z</time>
      </trkpt>
      <trkpt lat="48.83365" lon="2.33502">
        <ele>123.1</ele>
        <time>2015-02-23T20:44:26.779Z</time>
      </trkpt>
      <trkpt lat="48.83367" lon="2.33496">
        <ele>122.9</ele>
        <time>2015-02-23T20:44:27.134Z</time>
      </trkpt>
      <trkpt lat="48.83369" lon="2.33486">
        <ele>122.5</ele>
        <time>2015-02-23T20:44:29.167Z</time>
      </trkpt>
      <trkpt lat="48.83371" lon="2.3348">
        <ele>122.2</ele>
        <time>2015-02-23T20:44:30.184Z</time>
      </trkpt>
      <trkpt lat="48.83374" lon="2.33469">
        <ele>121.9</ele>
        <time>2015-02-23T20:44:32.115Z</time>
      </trkpt>
      <trkpt lat="48.83375" lon="2.33463">
        <ele>121.8</ele>
        <time>2015-02-23T20:44:33.151Z</time>
      </trkpt>
      <trkpt lat="48.83378" lon="2.33454">
        <ele>121.8</ele>
        <time>2015-02-23T20:44:35.121Z</time>
      </trkpt>
      <trkpt lat="48.8338" lon="2.3345">
        <ele>122.1</ele>
        <time>2015-02-23T20:44:36.145Z</time>
      </trkpt>
      <trkpt lat="48.83382" lon="2.33442">
        <ele>121.9</ele>
        <time>2015-02-23T20:44:38.195Z</time>
      </trkpt>
      <trkpt lat="48.83383" lon="2.33437">
        <ele>121.9</ele>
        <time>2015-02-23T20:44:39.205Z</time>
      </trkpt>
      <trkpt lat="48.83386" lon="2.33429">
        <ele>121.8</ele>
        <time>2015-02-23T20:44:41.928Z</time>
      </trkpt>
      <trkpt lat="48.83387" lon="2.33424">
        <ele>121.9</ele>
        <time>2015-02-23T20:44:42.158Z</time>
      </trkpt>
      <trkpt lat="48.83391" lon="2.33413">
        <ele>121.8</ele>
        <time>2015-02-23T20:44:44.134Z</time>
      </trkpt>
      <trkpt lat="48.83393" lon="2.33407">
        <ele>121.8</ele>
        <time>2015-02-23T20:44:45.131Z</time>
      </trkpt>
      <trkpt lat="48.83397" lon="2.33399">
        <ele>121.9</ele>
        <time>2015-02-23T20:44:47.177Z</time>
      </trkpt>
      <trkpt lat="48.83399" lon="2.33394">
        <ele>122</ele>
        <time>2015-02-23T20:44:48.096Z</time>
      </trkpt>
      <trkpt lat="48.83402" lon="2.33386">
        <ele>122.1</ele>
        <time>2015-02-23T20:44:50.195Z</time>
      </trkpt>
      <trkpt lat="48.83403" lon="2.33382">
        <ele>122</ele>
        <time>2015-02-23T20:44:51.230Z</time>
      </trkpt>
      <trkpt lat="48.83405" lon="2.33372">
        <ele>121.7</ele>
        <time>2015-02-23T20:44:53.162Z</time>
      </trkpt>
      <trkpt lat="48.83406" lon="2.33368">
        <ele>121.7</ele>
        <time>2015-02-23T20:44:54.166Z</time>
      </trkpt>
      <trkpt lat="48.83408" lon="2.33355">
        <ele>121.6</ele>
        <time>2015-02-23T20:44:57.389Z</time>
      </trkpt>
      <trkpt lat="48.83408" lon="2.3335">
        <ele>121.7</ele>
        <time>2015-02-23T20:44:58.332Z</time>
      </trkpt>
      <trkpt lat="48.83408" lon="2.33337">
        <ele>124.7</ele>
        <time>2015-02-23T20:45:04.122Z</time>
      </trkpt>
      <trkpt lat="48.83407" lon="2.33337">
        <ele>125.1</ele>
        <time>2015-02-23T20:45:05.151Z</time>
      </trkpt>
      <trkpt lat="48.83408" lon="2.33337">
        <ele>125.3</ele>
        <time>2015-02-23T20:45:06.184Z</time>
      </trkpt>
      <trkpt lat="48.83407" lon="2.33346">
        <ele>126.2</ele>
        <time>2015-02-23T20:45:15.190Z</time>
      </trkpt>
      <trkpt lat="48.83407" lon="2.33346">
        <ele>126.4</ele>
        <time>2015-02-23T20:45:16.142Z</time>
      </trkpt>
      <trkpt lat="48.83408" lon="2.33344">
        <ele>126.9</ele>
        <time>2015-02-23T20:45:31.848Z</time>
      </trkpt>
      <trkpt lat="48.83412" lon="2.33333">
        <ele>130.8</ele>
        <time>2015-02-23T20:45:32.196Z</time>
      </trkpt>
      <trkpt lat="48.83412" lon="2.33333">
        <ele>130.8</ele>
        <time>2015-02-23T20:45:33.207Z</time>
      </trkpt>
      <trkpt lat="48.83412" lon="2.33333">
        <ele>131</ele>
        <time>2015-02-23T20:45:34.109Z</time>
      </trkpt>
      <trkpt lat="48.83412" lon="2.33332">
        <ele>131.1</ele>
        <time>2015-02-23T20:45:50.202Z</time>
      </trkpt>
      <trkpt lat="48.83411" lon="2.33326">
        <ele>134.3</ele>
        <time>2015-02-23T20:45:51.225Z</time>
      </trkpt>
      <trkpt lat="48.83409" lon="2.33333">
        <ele>136.1</ele>
        <time>2015-02-23T20:45:59.197Z</time>
      </trkpt>
      <trkpt lat="48.83409" lon="2.33333">
        <ele>136.2</ele>
        <time>2015-02-23T20:46:00.089Z</time>
      </trkpt>
      <trkpt lat="48.83409" lon="2.33333">
        <ele>136.6</ele>
        <time>2015-02-23T20:46:01.158Z</time>
      </trkpt>
      <trkpt lat="48.8341" lon="2.33334">
        <ele>136.4</ele>
        <time>2015-02-23T20:46:09.113Z</time>
      </trkpt>
      <trkpt lat="48.8341" lon="2.33334">
        <ele>136.9</ele>
        <time>2015-02-23T20:46:10.143Z</time>
      </trkpt>
      <trkpt lat="48.8341" lon="2.33334">
        <ele>137.4</ele>
        <time>2015-02-23T20:46:13.184Z</time>
      </trkpt>
      <trkpt lat="48.83408" lon="2.33334">
        <ele>137.9</ele>
        <time>2015-02-23T20:46:14.206Z</time>
      </trkpt>
      <trkpt lat="48.8341" lon="2.33323">
        <ele>139.8</ele>
        <time>2015-02-23T20:46:44.129Z</time>
      </trkpt>
      <trkpt lat="48.83411" lon="2.33321">
        <ele>139.8</ele>
        <time>2015-02-23T20:46:45.173Z</time>
      </trkpt>
      <trkpt lat="48.83416" lon="2.33313">
        <ele>140.1</ele>
        <time>2015-02-23T20:46:49.170Z</time>
      </trkpt>
      <trkpt lat="48.83418" lon="2.33311">
        <ele>140.2</ele>
        <time>2015-02-23T20:46:50.201Z</time>
      </trkpt>
      <trkpt lat="48.83424" lon="2.33304">
        <ele>140.4</ele>
        <time>2015-02-23T20:46:54.130Z</time>
      </trkpt>
      <trkpt lat="48.83426" lon="2.33303">
        <ele>140.6</ele>
        <time>2015-02-23T20:46:55.160Z</time>
      </trkpt>
      <trkpt lat="48.83433" lon="2.33295">
        <ele>137.6</ele>
        <time>2015-02-23T20:47:05.218Z</time>
      </trkpt>
      <trkpt lat="48.83433" lon="2.33294">
        <ele>137.2</ele>
        <time>2015-02-23T20:47:06.123Z</time>
      </trkpt>
      <trkpt lat="48.83441" lon="2.33288">
        <ele>135.9</ele>
        <time>2015-02-23T20:47:13.172Z</time>
      </trkpt>
      <trkpt lat="48.83443" lon="2.33287">
        <ele>135.7</ele>
        <time>2015-02-23T20:47:14.167Z</time>
      </trkpt>
      <trkpt lat="48.83451" lon="2.33283">
        <ele>134.8</ele>
        <time>2015-02-23T20:47:19.152Z</time>
      </trkpt>
      <trkpt lat="48.83453" lon="2.33282">
        <ele>134.4</ele>
        <time>2015-02-23T20:47:20.122Z</time>
      </trkpt>
      <trkpt lat="48.83461" lon="2.33278">
        <ele>135.4</ele>
        <time>2015-02-23T20:47:26.842Z</time>
      </trkpt>
      <trkpt lat="48.83461" lon="2.33277">
        <ele>135.7</ele>
        <time>2015-02-23T20:47:27.214Z</time>
      </trkpt>
      <trkpt lat="48.83461" lon="2.33274">
        <ele>135.8</ele>
        <time>2015-02-23T20:47:29.098Z</time>
      </trkpt>
      <trkpt lat="48.83461" lon="2.33273">
        <ele>135.6</ele>
        <time>2015-02-23T20:47:30.120Z</time>
      </trkpt>
      <trkpt lat="48.83462" lon="2.33273">
        <ele>135.6</ele>
        <time>2015-02-23T20:47:31.203Z</time>
      </trkpt>
      <trkpt lat="48.83469" lon="2.33279">
        <ele>134.8</ele>
        <time>2015-02-23T20:47:38.255Z</time>
      </trkpt>
      <trkpt lat="48.8347" lon="2.3328">
        <ele>134.9</ele>
        <time>2015-02-23T20:47:39.098Z</time>
      </trkpt>
      <trkpt lat="48.83478" lon="2.33283">
        <ele>134.2</ele>
        <time>2015-02-23T20:47:44.169Z</time>
      </trkpt>
      <trkpt lat="48.83479" lon="2.33286">
        <ele>132.7</ele>
        <time>2015-02-23T20:47:45.180Z</time>
      </trkpt>
      <trkpt lat="48.83486" lon="2.33292">
        <ele>129.2</ele>
        <time>2015-02-23T20:47:49.147Z</time>
      </trkpt>
      <trkpt lat="48.83487" lon="2.33294">
        <ele>129.2</ele>
        <time>2015-02-23T20:47:50.159Z</time>
      </trkpt>
      <trkpt lat="48.83493" lon="2.33297">
        <ele>128.9</ele>
        <time>2015-02-23T20:47:54.079Z</time>
      </trkpt>
      <trkpt lat="48.83496" lon="2.33298">
        <ele>128.8</ele>
        <time>2015-02-23T20:47:55.149Z</time>
      </trkpt>
      <trkpt lat="48.83501" lon="2.33299">
        <ele>128.3</ele>
        <time>2015-02-23T20:47:57.161Z</time>
      </trkpt>
      <trkpt lat="48.83504" lon="2.33303">
        <ele>126.4</ele>
        <time>2015-02-23T20:47:58.176Z</time>
      </trkpt>
      <trkpt lat="48.83511" lon="2.33311">
        <ele>123.1</ele>
        <time>2015-02-23T20:48:00.127Z</time>
      </trkpt>
      <trkpt lat="48.83513" lon="2.33313">
        <ele>123</ele>
        <time>2015-02-23T20:48:01.133Z</time>
      </trkpt>
      <trkpt lat="48.8352" lon="2.33321">
        <ele>123</ele>
        <time>2015-02-23T20:48:04.106Z</time>
      </trkpt>
      <trkpt lat="48.83522" lon="2.33323">
        <ele>122.9</ele>
        <time>2015-02-23T20:48:05.145Z</time>
      </trkpt>
      <trkpt lat="48.83524" lon="2.33328">
        <ele>122.1</ele>
        <time>2015-02-23T20:48:06.710Z</time>
      </trkpt>
      <trkpt lat="48.83528" lon="2.33333">
        <ele>120.8</ele>
        <time>2015-02-23T20:48:07.109Z</time>
      </trkpt>
      <trkpt lat="48.83532" lon="2.33338">
        <ele>119.9</ele>
        <time>2015-02-23T20:48:08.074Z</time>
      </trkpt>
      <trkpt lat="48.83537" lon="2.33342">
        <ele>119</ele>
        <time>2015-02-23T20:48:09.104Z</time>
      </trkpt>
      <trkpt lat="48.83542" lon="2.33346">
        <ele>118.4</ele>
        <time>2015-02-23T20:48:10.391Z</time>
      </trkpt>
      <trkpt lat="48.83546" lon="2.3335">
        <ele>117.8</ele>
        <time>2015-02-23T20:48:11.133Z</time>
      </trkpt>
      <trkpt lat="48.83551" lon="2.33355">
        <ele>117.5</ele>
        <time>2015-02-23T20:48:12.231Z</time>
      </trkpt>
      <trkpt lat="48.83554" lon="2.33358">
        <ele>117.5</ele>
        <time>2015-02-23T20:48:13.146Z</time>
      </trkpt>
      <trkpt lat="48.8356" lon="2.33364">
        <ele>117.7</ele>
        <time>2015-02-23T20:48:15.166Z</time>
      </trkpt>
      <trkpt lat="48.83563" lon="2.33368">
        <ele>116.9</ele>
        <time>2015-02-23T20:48:16.203Z</time>
      </trkpt>
      <trkpt lat="48.83567" lon="2.33372">
        <ele>116.5</ele>
        <time>2015-02-23T20:48:17.073Z</time>
      </trkpt>
      <trkpt lat="48.83571" lon="2.33376">
        <ele>116</ele>
        <time>2015-02-23T20:48:18.099Z</time>
      </trkpt>
      <trkpt lat="48.83575" lon="2.3338">
        <ele>115.5</ele>
        <time>2015-02-23T20:48:19.160Z</time>
      </trkpt>
      <trkpt lat="48.83578" lon="2.33384">
        <ele>115</ele>
        <time>2015-02-23T20:48:20.159Z</time>
      </trkpt>
      <trkpt lat="48.83585" lon="2.33392">
        <ele>114.1</ele>
        <time>2015-02-23T20:48:22.140Z</time>
      </trkpt>
      <trkpt lat="48.83589" lon="2.33395">
        <ele>114.2</ele>
        <time>2015-02-23T20:48:23.099Z</time>
      </trkpt>
      <trkpt lat="48.83596" lon="2.33403">
        <ele>113.7</ele>
        <time>2015-02-23T20:48:25.137Z</time>
      </trkpt>
      <trkpt lat="48.836" lon="2.33407">
        <ele>113.5</ele>
        <time>2015-02-23T20:48:26.143Z</time>
      </trkpt>
      <trkpt lat="48.83606" lon="2.33415">
        <ele>113.1</ele>
        <time>2015-02-23T20:48:28.183Z</time>
      </trkpt>
      <trkpt lat="48.8361" lon="2.33419">
        <ele>112.9</ele>
        <time>2015-02-23T20:48:29.201Z</time>
      </trkpt>
      <trkpt lat="48.83614" lon="2.33423">
        <ele>112.6</ele>
        <time>2015-02-23T20:48:30.126Z</time>
      </trkpt>
      <trkpt lat="48.83618" lon="2.33427">
        <ele>112.2</ele>
        <time>2015-02-23T20:48:31.178Z</time>
      </trkpt>
      <trkpt lat="48.83622" lon="2.33431">
        <ele>111.9</ele>
        <time>2015-02-23T20:48:32.149Z</time>
      </trkpt>
      <trkpt lat="48.83627" lon="2.33435">
        <ele>111.6</ele>
        <time>2015-02-23T20:48:33.167Z</time>
      </trkpt>
      <trkpt lat="48.83632" lon="2.33439">
        <ele>111.4</ele>
        <time>2015-02-23T20:48:34.278Z</time>
      </trkpt>
      <trkpt lat="48.83636" lon="2.33443">
        <ele>111.1</ele>
        <time>2015-02-23T20:48:35.102Z</time>
      </trkpt>
      <trkpt lat="48.83641" lon="2.33447">
        <ele>110.9</ele>
        <time>2015-02-23T20:48:36.824Z</time>
      </trkpt>
      <trkpt lat="48.83646" lon="2.3345">
        <ele>110.5</ele>
        <time>2015-02-23T20:48:37.137Z</time>
      </trkpt>
      <trkpt lat="48.83651" lon="2.33455">
        <ele>110.2</ele>
        <time>2015-02-23T20:48:38.150Z</time>
      </trkpt>
      <trkpt lat="48.83656" lon="2.33459">
        <ele>110.1</ele>
        <time>2015-02-23T20:48:39.161Z</time>
      </trkpt>
      <trkpt lat="48.83661" lon="2.33464">
        <ele>110</ele>
        <time>2015-02-23T20:48:40.169Z</time>
      </trkpt>
      <trkpt lat="48.83665" lon="2.33469">
        <ele>109.8</ele>
        <time>2015-02-23T20:48:41.220Z</time>
      </trkpt>
      <trkpt lat="48.8367" lon="2.33473">
        <ele>109.5</ele>
        <time>2015-02-23T20:48:42.111Z</time>
      </trkpt>
      <trkpt lat="48.83675" lon="2.33478">
        <ele>109.2</ele>
        <time>2015-02-23T20:48:43.151Z</time>
      </trkpt>
      <trkpt lat="48.8368" lon="2.33483">
        <ele>109</ele>
        <time>2015-02-23T20:48:44.163Z</time>
      </trkpt>
      <trkpt lat="48.83686" lon="2.33488">
        <ele>108.8</ele>
        <time>2015-02-23T20:48:45.173Z</time>
      </trkpt>
      <trkpt lat="48.83691" lon="2.33493">
        <ele>108.5</ele>
        <time>2015-02-23T20:48:46.098Z</time>
      </trkpt>
      <trkpt lat="48.83696" lon="2.33498">
        <ele>108.3</ele>
        <time>2015-02-23T20:48:47.101Z</time>
      </trkpt>
      <trkpt lat="48.83702" lon="2.33503">
        <ele>108.1</ele>
        <time>2015-02-23T20:48:48.097Z</time>
      </trkpt>
      <trkpt lat="48.83707" lon="2.33508">
        <ele>108</ele>
        <time>2015-02-23T20:48:49.156Z</time>
      </trkpt>
      <trkpt lat="48.83712" lon="2.33513">
        <ele>108</ele>
        <time>2015-02-23T20:48:50.100Z</time>
      </trkpt>
      <trkpt lat="48.83717" lon="2.33517">
        <ele>107.8</ele>
        <time>2015-02-23T20:48:51.097Z</time>
      </trkpt>
      <trkpt lat="48.83723" lon="2.33522">
        <ele>107.9</ele>
        <time>2015-02-23T20:48:52.103Z</time>
      </trkpt>
      <trkpt lat="48.83728" lon="2.33527">
        <ele>107.8</ele>
        <time>2015-02-23T20:48:53.107Z</time>
      </trkpt>
      <trkpt lat="48.83733" lon="2.33532">
        <ele>107.8</ele>
        <time>2015-02-23T20:48:54.118Z</time>
      </trkpt>
      <trkpt lat="48.83738" lon="2.33536">
        <ele>107.4</ele>
        <time>2015-02-23T20:48:55.133Z</time>
      </trkpt>
      <trkpt lat="48.83744" lon="2.33542">
        <ele>107.1</ele>
        <time>2015-02-23T20:48:56.144Z</time>
      </trkpt>
      <trkpt lat="48.83749" lon="2.33546">
        <ele>107.1</ele>
        <time>2015-02-23T20:48:57.146Z</time>
      </trkpt>
      <trkpt lat="48.83754" lon="2.33552">
        <ele>107</ele>
        <time>2015-02-23T20:48:58.156Z</time>
      </trkpt>
      <trkpt lat="48.83759" lon="2.33557">
        <ele>106.9</ele>
        <time>2015-02-23T20:48:59.168Z</time>
      </trkpt>
      <trkpt lat="48.83764" lon="2.33562">
        <ele>106.7</ele>
        <time>2015-02-23T20:49:00.212Z</time>
      </trkpt>
      <trkpt lat="48.83769" lon="2.33567">
        <ele>106.8</ele>
        <time>2015-02-23T20:49:01.219Z</time>
      </trkpt>
      <trkpt lat="48.83774" lon="2.33573">
        <ele>106.7</ele>
        <time>2015-02-23T20:49:02.179Z</time>
      </trkpt>
      <trkpt lat="48.83779" lon="2.33578">
        <ele>106.5</ele>
        <time>2015-02-23T20:49:03.145Z</time>
      </trkpt>
      <trkpt lat="48.83784" lon="2.33583">
        <ele>107</ele>
        <time>2015-02-23T20:49:04.169Z</time>
      </trkpt>
      <trkpt lat="48.83789" lon="2.33589">
        <ele>107.2</ele>
        <time>2015-02-23T20:49:05.175Z</time>
      </trkpt>
      <trkpt lat="48.83793" lon="2.33594">
        <ele>107</ele>
        <time>2015-02-23T20:49:06.108Z</time>
      </trkpt>
      <trkpt lat="48.83798" lon="2.33599">
        <ele>106.8</ele>
        <time>2015-02-23T20:49:07.154Z</time>
      </trkpt>
      <trkpt lat="48.83802" lon="2.33604">
        <ele>106.9</ele>
        <time>2015-02-23T20:49:08.182Z</time>
      </trkpt>
      <trkpt lat="48.83807" lon="2.33609">
        <ele>106.8</ele>
        <time>2015-02-23T20:49:09.201Z</time>
      </trkpt>
      <trkpt lat="48.83812" lon="2.33614">
        <ele>106.9</ele>
        <time>2015-02-23T20:49:10.124Z</time>
      </trkpt>
      <trkpt lat="48.83816" lon="2.33619">
        <ele>106.7</ele>
        <time>2015-02-23T20:49:11.120Z</time>
      </trkpt>
      <trkpt lat="48.83821" lon="2.33624">
        <ele>106.7</ele>
        <time>2015-02-23T20:49:12.131Z</time>
      </trkpt>
      <trkpt lat="48.83826" lon="2.33628">
        <ele>106.8</ele>
        <time>2015-02-23T20:49:13.148Z</time>
      </trkpt>
      <trkpt lat="48.8383" lon="2.33633">
        <ele>106.8</ele>
        <time>2015-02-23T20:49:14.160Z</time>
      </trkpt>
      <trkpt lat="48.83835" lon="2.33638">
        <ele>106.7</ele>
        <time>2015-02-23T20:49:15.179Z</time>
      </trkpt>
      <trkpt lat="48.83839" lon="2.33643">
        <ele>106.9</ele>
        <time>2015-02-23T20:49:16.184Z</time>
      </trkpt>
      <trkpt lat="48.83843" lon="2.33649">
        <ele>107.1</ele>
        <time>2015-02-23T20:49:17.191Z</time>
      </trkpt>
      <trkpt lat="48.83848" lon="2.33654">
        <ele>107.2</ele>
        <time>2015-02-23T20:49:18.202Z</time>
      </trkpt>
      <trkpt lat="48.83853" lon="2.33659">
        <ele>107.1</ele>
        <time>2015-02-23T20:49:19.209Z</time>
      </trkpt>
      <trkpt lat="48.83858" lon="2.33664">
        <ele>107.2</ele>
        <time>2015-02-23T20:49:20.145Z</time>
      </trkpt>
      <trkpt lat="48.83862" lon="2.33669">
        <ele>107.3</ele>
        <time>2015-02-23T20:49:21.126Z</time>
      </trkpt>
      <trkpt lat="48.83867" lon="2.33672">
        <ele>107.6</ele>
        <time>2015-02-23T20:49:22.167Z</time>
      </trkpt>
      <trkpt lat="48.83873" lon="2.33674">
        <ele>107.5</ele>
        <time>2015-02-23T20:49:23.179Z</time>
      </trkpt>
      <trkpt lat="48.83878" lon="2.33676">
        <ele>107.5</ele>
        <time>2015-02-23T20:49:24.209Z</time>
      </trkpt>
      <trkpt lat="48.83883" lon="2.33678">
        <ele>107.5</ele>
        <time>2015-02-23T20:49:25.220Z</time>
      </trkpt>
      <trkpt lat="48.83888" lon="2.33681">
        <ele>107.4</ele>
        <time>2015-02-23T20:49:26.115Z</time>
      </trkpt>
      <trkpt lat="48.83894" lon="2.33682">
        <ele>107.5</ele>
        <time>2015-02-23T20:49:27.111Z</time>
      </trkpt>
      <trkpt lat="48.839" lon="2.33681">
        <ele>107.5</ele>
        <time>2015-02-23T20:49:28.128Z</time>
      </trkpt>
      <trkpt lat="48.83905" lon="2.3368">
        <ele>107.5</ele>
        <time>2015-02-23T20:49:29.154Z</time>
      </trkpt>
      <trkpt lat="48.83913" lon="2.33679">
        <ele>107.6</ele>
        <time>2015-02-23T20:49:31.151Z</time>
      </trkpt>
      <trkpt lat="48.83918" lon="2.33679">
        <ele>107.6</ele>
        <time>2015-02-23T20:49:32.174Z</time>
      </trkpt>
      <trkpt lat="48.83923" lon="2.33678">
        <ele>107.8</ele>
        <time>2015-02-23T20:49:33.200Z</time>
      </trkpt>
      <trkpt lat="48.83927" lon="2.33678">
        <ele>108</ele>
        <time>2015-02-23T20:49:34.095Z</time>
      </trkpt>
      <trkpt lat="48.83935" lon="2.33675">
        <ele>108.2</ele>
        <time>2015-02-23T20:49:37.146Z</time>
      </trkpt>
      <trkpt lat="48.83938" lon="2.33675">
        <ele>108.1</ele>
        <time>2015-02-23T20:49:38.155Z</time>
      </trkpt>
      <trkpt lat="48.83945" lon="2.3368">
        <ele>107.8</ele>
        <time>2015-02-23T20:49:43.235Z</time>
      </trkpt>
      <trkpt lat="48.83947" lon="2.33682">
        <ele>107.2</ele>
        <time>2015-02-23T20:49:44.160Z</time>
      </trkpt>
      <trkpt lat="48.83952" lon="2.33694">
        <ele>105.5</ele>
        <time>2015-02-23T20:49:47.153Z</time>
      </trkpt>
      <trkpt lat="48.83951" lon="2.33697">
        <ele>105.3</ele>
        <time>2015-02-23T20:49:48.171Z</time>
      </trkpt>
      <trkpt lat="48.8395" lon="2.33709">
        <ele>105.1</ele>
        <time>2015-02-23T20:49:52.151Z</time>
      </trkpt>
      <trkpt lat="48.83949" lon="2.33712">
        <ele>104.9</ele>
        <time>2015-02-23T20:49:53.188Z</time>
      </trkpt>
      <trkpt lat="48.83944" lon="2.33721">
        <ele>104.5</ele>
        <time>2015-02-23T20:49:56.187Z</time>
      </trkpt>
      <trkpt lat="48.83942" lon="2.33724">
        <ele>104.2</ele>
        <time>2015-02-23T20:49:57.168Z</time>
      </trkpt>
      <trkpt lat="48.83939" lon="2.33737">
        <ele>104</ele>
        <time>2015-02-23T20:50:01.213Z</time>
      </trkpt>
      <trkpt lat="48.83939" lon="2.33739">
        <ele>104</ele>
        <time>2015-02-23T20:50:02.123Z</time>
      </trkpt>
      <trkpt lat="48.83937" lon="2.33752">
        <ele>104.1</ele>
        <time>2015-02-23T20:50:05.193Z</time>
      </trkpt>
      <trkpt lat="48.83936" lon="2.33757">
        <ele>104.1</ele>
        <time>2015-02-23T20:50:06.120Z</time>
      </trkpt>
      <trkpt lat="48.83933" lon="2.33769">
        <ele>104.2</ele>
        <time>2015-02-23T20:50:08.147Z</time>
      </trkpt>
      <trkpt lat="48.83932" lon="2.33775">
        <ele>104.3</ele>
        <time>2015-02-23T20:50:09.152Z</time>
      </trkpt>
      <trkpt lat="48.83929" lon="2.33787">
        <ele>104.6</ele>
        <time>2015-02-23T20:50:11.093Z</time>
      </trkpt>
      <trkpt lat="48.83928" lon="2.33793">
        <ele>104.5</ele>
        <time>2015-02-23T20:50:12.129Z</time>
      </trkpt>
      <trkpt lat="48.83926" lon="2.33805">
        <ele>104.7</ele>
        <time>2015-02-23T20:50:14.171Z</time>
      </trkpt>
      <trkpt lat="48.83924" lon="2.33812">
        <ele>105</ele>
        <time>2015-02-23T20:50:15.182Z</time>
      </trkpt>
      <trkpt lat="48.83923" lon="2.33818">
        <ele>105.2</ele>
        <time>2015-02-23T20:50:16.194Z</time>
      </trkpt>
      <trkpt lat="48.83921" lon="2.33825">
        <ele>105.3</ele>
        <time>2015-02-23T20:50:17.201Z</time>
      </trkpt>
      <trkpt lat="48.83919" lon="2.33832">
        <ele>105.4</ele>
        <time>2015-02-23T20:50:18.166Z</time>
      </trkpt>
      <trkpt lat="48.83918" lon="2.33838">
        <ele>105.7</ele>
        <time>2015-02-23T20:50:19.226Z</time>
      </trkpt>
      <trkpt lat="48.83916" lon="2.33846">
        <ele>105.6</ele>
        <time>2015-02-23T20:50:20.172Z</time>
      </trkpt>
      <trkpt lat="48.83914" lon="2.33853">
        <ele>105.7</ele>
        <time>2015-02-23T20:50:21.240Z</time>
      </trkpt>
      <trkpt lat="48.83913" lon="2.3386">
        <ele>105.9</ele>
        <time>2015-02-23T20:50:22.121Z</time>
      </trkpt>
      <trkpt lat="48.83912" lon="2.33867">
        <ele>106.3</ele>
        <time>2015-02-23T20:50:23.132Z</time>
      </trkpt>
      <trkpt lat="48.8391" lon="2.33873">
        <ele>106.7</ele>
        <time>2015-02-23T20:50:24.150Z</time>
      </trkpt>
      <trkpt lat="48.83909" lon="2.3388">
        <ele>107.1</ele>
        <time>2015-02-23T20:50:25.167Z</time>
      </trkpt>
      <trkpt lat="48.83906" lon="2.33891">
        <ele>107.5</ele>
        <time>2015-02-23T20:50:27.148Z</time>
      </trkpt>
      <trkpt lat="48.83905" lon="2.33897">
        <ele>107.6</ele>
        <time>2015-02-23T20:50:28.182Z</time>
      </trkpt>
      <trkpt lat="48.83902" lon="2.33907">
        <ele>107.7</ele>
        <time>2015-02-23T20:50:30.213Z</time>
      </trkpt>
      <trkpt lat="48.83901" lon="2.33914">
        <ele>108.3</ele>
        <time>2015-02-23T20:50:31.137Z</time>
      </trkpt>
      <trkpt lat="48.83899" lon="2.33927">
        <ele>109</ele>
        <time>2015-02-23T20:50:33.113Z</time>
      </trkpt>
      <trkpt lat="48.83897" lon="2.33932">
        <ele>109.1</ele>
        <time>2015-02-23T20:50:34.140Z</time>
      </trkpt>
      <trkpt lat="48.83895" lon="2.33941">
        <ele>109.3</ele>
        <time>2015-02-23T20:50:36.092Z</time>
      </trkpt>
      <trkpt lat="48.83894" lon="2.33946">
        <ele>109.4</ele>
        <time>2015-02-23T20:50:37.147Z</time>
      </trkpt>
      <trkpt lat="48.83892" lon="2.33955">
        <ele>109.8</ele>
        <time>2015-02-23T20:50:39.172Z</time>
      </trkpt>
      <trkpt lat="48.83891" lon="2.3396">
        <ele>109.9</ele>
        <time>2015-02-23T20:50:40.181Z</time>
      </trkpt>
      <trkpt lat="48.83888" lon="2.33969">
        <ele>110.2</ele>
        <time>2015-02-23T20:50:42.115Z</time>
      </trkpt>
      <trkpt lat="48.83887" lon="2.33973">
        <ele>110.3</ele>
        <time>2015-02-23T20:50:43.139Z</time>
      </trkpt>
      <trkpt lat="48.83884" lon="2.33982">
        <ele>110.6</ele>
        <time>2015-02-23T20:50:45.150Z</time>
      </trkpt>
      <trkpt lat="48.83883" lon="2.33987">
        <ele>110.7</ele>
        <time>2015-02-23T20:50:46.164Z</time>
      </trkpt>
      <trkpt lat="48.83881" lon="2.33998">
        <ele>111.1</ele>
        <time>2015-02-23T20:50:48.108Z</time>
      </trkpt>
      <trkpt lat="48.8388" lon="2.34004">
        <ele>111.2</ele>
        <time>2015-02-23T20:50:49.164Z</time>
      </trkpt>
      <trkpt lat="48.83878" lon="2.34017">
        <ele>111.2</ele>
        <time>2015-02-23T20:50:51.112Z</time>
      </trkpt>
      <trkpt lat="48.83877" lon="2.34023">
        <ele>111.2</ele>
        <time>2015-02-23T20:50:52.163Z</time>
      </trkpt>
      <trkpt lat="48.83874" lon="2.34035">
        <ele>110.9</ele>
        <time>2015-02-23T20:50:54.109Z</time>
      </trkpt>
      <trkpt lat="48.83872" lon="2.34041">
        <ele>110.9</ele>
        <time>2015-02-23T20:50:55.164Z</time>
      </trkpt>
      <trkpt lat="48.83871" lon="2.34048">
        <ele>110.9</ele>
        <time>2015-02-23T20:50:56.191Z</time>
      </trkpt>
      <trkpt lat="48.83869" lon="2.34056">
        <ele>110.7</ele>
        <time>2015-02-23T20:50:57.099Z</time>
      </trkpt>
      <trkpt lat="48.83867" lon="2.34063">
        <ele>110.7</ele>
        <time>2015-02-23T20:50:58.113Z</time>
      </trkpt>
      <trkpt lat="48.83866" lon="2.34073">
        <ele>110</ele>
        <time>2015-02-23T20:50:59.115Z</time>
      </trkpt>
      <trkpt lat="48.83864" lon="2.34081">
        <ele>110</ele>
        <time>2015-02-23T20:51:00.186Z</time>
      </trkpt>
      <trkpt lat="48.83862" lon="2.34088">
        <ele>109.9</ele>
        <time>2015-02-23T20:51:01.200Z</time>
      </trkpt>
      <trkpt lat="48.8386" lon="2.34096">
        <ele>109.9</ele>
        <time>2015-02-23T20:51:02.105Z</time>
      </trkpt>
      <trkpt lat="48.83859" lon="2.34103">
        <ele>109.7</ele>
        <time>2015-02-23T20:51:03.102Z</time>
      </trkpt>
      <trkpt lat="48.83857" lon="2.3411">
        <ele>109.5</ele>
        <time>2015-02-23T20:51:04.116Z</time>
      </trkpt>
      <trkpt lat="48.83856" lon="2.34118">
        <ele>109.3</ele>
        <time>2015-02-23T20:51:05.125Z</time>
      </trkpt>
      <trkpt lat="48.83855" lon="2.34125">
        <ele>109.2</ele>
        <time>2015-02-23T20:51:06.145Z</time>
      </trkpt>
      <trkpt lat="48.83853" lon="2.34132">
        <ele>109.1</ele>
        <time>2015-02-23T20:51:07.163Z</time>
      </trkpt>
      <trkpt lat="48.83851" lon="2.3414">
        <ele>109</ele>
        <time>2015-02-23T20:51:08.113Z</time>
      </trkpt>
      <trkpt lat="48.83849" lon="2.34148">
        <ele>109</ele>
        <time>2015-02-23T20:51:09.102Z</time>
      </trkpt>
      <trkpt lat="48.83847" lon="2.34157">
        <ele>109</ele>
        <time>2015-02-23T20:51:10.119Z</time>
      </trkpt>
      <trkpt lat="48.83845" lon="2.34165">
        <ele>109.1</ele>
        <time>2015-02-23T20:51:11.132Z</time>
      </trkpt>
      <trkpt lat="48.83843" lon="2.34173">
        <ele>109.1</ele>
        <time>2015-02-23T20:51:12.139Z</time>
      </trkpt>
      <trkpt lat="48.83841" lon="2.34182">
        <ele>109.1</ele>
        <time>2015-02-23T20:51:13.145Z</time>
      </trkpt>
      <trkpt lat="48.8384" lon="2.3419">
        <ele>109.1</ele>
        <time>2015-02-23T20:51:14.160Z</time>
      </trkpt>
      <trkpt lat="48.83839" lon="2.34198">
        <ele>109.1</ele>
        <time>2015-02-23T20:51:15.176Z</time>
      </trkpt>
      <trkpt lat="48.83838" lon="2.34207">
        <ele>109.1</ele>
        <time>2015-02-23T20:51:16.082Z</time>
      </trkpt>
      <trkpt lat="48.83837" lon="2.34215">
        <ele>109</ele>
        <time>2015-02-23T20:51:17.106Z</time>
      </trkpt>
      <trkpt lat="48.83835" lon="2.34224">
        <ele>109.3</ele>
        <time>2015-02-23T20:51:18.115Z</time>
      </trkpt>
      <trkpt lat="48.83834" lon="2.34233">
        <ele>109.3</ele>
        <time>2015-02-23T20:51:19.134Z</time>
      </trkpt>
      <trkpt lat="48.83832" lon="2.34243">
        <ele>109.5</ele>
        <time>2015-02-23T20:51:20.319Z</time>
      </trkpt>
      <trkpt lat="48.8383" lon="2.34252">
        <ele>109.7</ele>
        <time>2015-02-23T20:51:21.143Z</time>
      </trkpt>
      <trkpt lat="48.83828" lon="2.3426">
        <ele>109.6</ele>
        <time>2015-02-23T20:51:22.204Z</time>
      </trkpt>
      <trkpt lat="48.83826" lon="2.34269">
        <ele>109.7</ele>
        <time>2015-02-23T20:51:23.095Z</time>
      </trkpt>
      <trkpt lat="48.83825" lon="2.34277">
        <ele>109.6</ele>
        <time>2015-02-23T20:51:24.112Z</time>
      </trkpt>
      <trkpt lat="48.83823" lon="2.34285">
        <ele>109.6</ele>
        <time>2015-02-23T20:51:25.148Z</time>
      </trkpt>
      <trkpt lat="48.83821" lon="2.34292">
        <ele>109.3</ele>
        <time>2015-02-23T20:51:26.164Z</time>
      </trkpt>
      <trkpt lat="48.83819" lon="2.34299">
        <ele>109.1</ele>
        <time>2015-02-23T20:51:27.115Z</time>
      </trkpt>
      <trkpt lat="48.83817" lon="2.34306">
        <ele>109.3</ele>
        <time>2015-02-23T20:51:28.132Z</time>
      </trkpt>
      <trkpt lat="48.83815" lon="2.34312">
        <ele>109.2</ele>
        <time>2015-02-23T20:51:29.157Z</time>
      </trkpt>
      <trkpt lat="48.83812" lon="2.34324">
        <ele>109.1</ele>
        <time>2015-02-23T20:51:31.219Z</time>
      </trkpt>
      <trkpt lat="48.83812" lon="2.3433">
        <ele>108.9</ele>
        <time>2015-02-23T20:51:32.109Z</time>
      </trkpt>
      <trkpt lat="48.83809" lon="2.3434">
        <ele>109</ele>
        <time>2015-02-23T20:51:34.129Z</time>
      </trkpt>
      <trkpt lat="48.83808" lon="2.34345">
        <ele>109.2</ele>
        <time>2015-02-23T20:51:35.216Z</time>
      </trkpt>
      <trkpt lat="48.83805" lon="2.34356">
        <ele>109.3</ele>
        <time>2015-02-23T20:51:37.153Z</time>
      </trkpt>
      <trkpt lat="48.83804" lon="2.34361">
        <ele>109.4</ele>
        <time>2015-02-23T20:51:38.152Z</time>
      </trkpt>
      <trkpt lat="48.83801" lon="2.34372">
        <ele>109.4</ele>
        <time>2015-02-23T20:51:40.198Z</time>
      </trkpt>
      <trkpt lat="48.83799" lon="2.34379">
        <ele>109.7</ele>
        <time>2015-02-23T20:51:41.123Z</time>
      </trkpt>
      <trkpt lat="48.83797" lon="2.34391">
        <ele>109.5</ele>
        <time>2015-02-23T20:51:43.149Z</time>
      </trkpt>
      <trkpt lat="48.83796" lon="2.34397">
        <ele>109.2</ele>
        <time>2015-02-23T20:51:44.155Z</time>
      </trkpt>
      <trkpt lat="48.83795" lon="2.34404">
        <ele>109.1</ele>
        <time>2015-02-23T20:51:45.179Z</time>
      </trkpt>
      <trkpt lat="48.83794" lon="2.34412">
        <ele>108.9</ele>
        <time>2015-02-23T20:51:46.208Z</time>
      </trkpt>
      <trkpt lat="48.83793" lon="2.34418">
        <ele>108.7</ele>
        <time>2015-02-23T20:51:47.125Z</time>
      </trkpt>
      <trkpt lat="48.83792" lon="2.34425">
        <ele>108.5</ele>
        <time>2015-02-23T20:51:48.122Z</time>
      </trkpt>
      <trkpt lat="48.83791" lon="2.34432">
        <ele>108.6</ele>
        <time>2015-02-23T20:51:49.153Z</time>
      </trkpt>
      <trkpt lat="48.83789" lon="2.34439">
        <ele>108.7</ele>
        <time>2015-02-23T20:51:50.165Z</time>
      </trkpt>
      <trkpt lat="48.83788" lon="2.34446">
        <ele>108.6</ele>
        <time>2015-02-23T20:51:51.128Z</time>
      </trkpt>
      <trkpt lat="48.83786" lon="2.34454">
        <ele>108.8</ele>
        <time>2015-02-23T20:51:52.134Z</time>
      </trkpt>
      <trkpt lat="48.83785" lon="2.34461">
        <ele>108.7</ele>
        <time>2015-02-23T20:51:53.168Z</time>
      </trkpt>
      <trkpt lat="48.83784" lon="2.34468">
        <ele>108.9</ele>
        <time>2015-02-23T20:51:54.126Z</time>
      </trkpt>
      <trkpt lat="48.83782" lon="2.3448">
        <ele>109</ele>
        <time>2015-02-23T20:51:56.224Z</time>
      </trkpt>
      <trkpt lat="48.83781" lon="2.34486">
        <ele>109.1</ele>
        <time>2015-02-23T20:51:57.113Z</time>
      </trkpt>
      <trkpt lat="48.83778" lon="2.34499">
        <ele>109.2</ele>
        <time>2015-02-23T20:51:59.189Z</time>
      </trkpt>
      <trkpt lat="48.83776" lon="2.34506">
        <ele>109.1</ele>
        <time>2015-02-23T20:52:00.102Z</time>
      </trkpt>
      <trkpt lat="48.83775" lon="2.34513">
        <ele>109</ele>
        <time>2015-02-23T20:52:01.134Z</time>
      </trkpt>
      <trkpt lat="48.83774" lon="2.3452">
        <ele>108.9</ele>
        <time>2015-02-23T20:52:02.199Z</time>
      </trkpt>
      <trkpt lat="48.83773" lon="2.34527">
        <ele>109.1</ele>
        <time>2015-02-23T20:52:03.100Z</time>
      </trkpt>
      <trkpt lat="48.83772" lon="2.34534">
        <ele>109.4</ele>
        <time>2015-02-23T20:52:04.101Z</time>
      </trkpt>
      <trkpt lat="48.83769" lon="2.34546">
        <ele>109.6</ele>
        <time>2015-02-23T20:52:06.113Z</time>
      </trkpt>
      <trkpt lat="48.83768" lon="2.34551">
        <ele>109.6</ele>
        <time>2015-02-23T20:52:07.225Z</time>
      </trkpt>
      <trkpt lat="48.83765" lon="2.34562">
        <ele>109.4</ele>
        <time>2015-02-23T20:52:09.104Z</time>
      </trkpt>
      <trkpt lat="48.83763" lon="2.34568">
        <ele>109.3</ele>
        <time>2015-02-23T20:52:10.128Z</time>
      </trkpt>
      <trkpt lat="48.83761" lon="2.34575">
        <ele>109.2</ele>
        <time>2015-02-23T20:52:11.151Z</time>
      </trkpt>
      <trkpt lat="48.8376" lon="2.34582">
        <ele>108.8</ele>
        <time>2015-02-23T20:52:12.156Z</time>
      </trkpt>
      <trkpt lat="48.83756" lon="2.34595">
        <ele>109</ele>
        <time>2015-02-23T20:52:14.102Z</time>
      </trkpt>
      <trkpt lat="48.83755" lon="2.34601">
        <ele>109.2</ele>
        <time>2015-02-23T20:52:15.104Z</time>
      </trkpt>
      <trkpt lat="48.83753" lon="2.34608">
        <ele>109.3</ele>
        <time>2015-02-23T20:52:16.123Z</time>
      </trkpt>
      <trkpt lat="48.83752" lon="2.34614">
        <ele>109.3</ele>
        <time>2015-02-23T20:52:17.139Z</time>
      </trkpt>
      <trkpt lat="48.8375" lon="2.34621">
        <ele>109.5</ele>
        <time>2015-02-23T20:52:18.163Z</time>
      </trkpt>
      <trkpt lat="48.83748" lon="2.34628">
        <ele>109.7</ele>
        <time>2015-02-23T20:52:19.171Z</time>
      </trkpt>
      <trkpt lat="48.83746" lon="2.34634">
        <ele>109.9</ele>
        <time>2015-02-23T20:52:20.074Z</time>
      </trkpt>
      <trkpt lat="48.83744" lon="2.34641">
        <ele>110</ele>
        <time>2015-02-23T20:52:21.084Z</time>
      </trkpt>
      <trkpt lat="48.83742" lon="2.34649">
        <ele>110</ele>
        <time>2015-02-23T20:52:22.113Z</time>
      </trkpt>
      <trkpt lat="48.8374" lon="2.34656">
        <ele>110.1</ele>
        <time>2015-02-23T20:52:23.131Z</time>
      </trkpt>
      <trkpt lat="48.83738" lon="2.34664">
        <ele>110.2</ele>
        <time>2015-02-23T20:52:24.085Z</time>
      </trkpt>
      <trkpt lat="48.83737" lon="2.34671">
        <ele>110.2</ele>
        <time>2015-02-23T20:52:25.119Z</time>
      </trkpt>
      <trkpt lat="48.83735" lon="2.3468">
        <ele>109.8</ele>
        <time>2015-02-23T20:52:26.182Z</time>
      </trkpt>
      <trkpt lat="48.83734" lon="2.34688">
        <ele>109.7</ele>
        <time>2015-02-23T20:52:27.153Z</time>
      </trkpt>
      <trkpt lat="48.83733" lon="2.34696">
        <ele>109.6</ele>
        <time>2015-02-23T20:52:28.168Z</time>
      </trkpt>
      <trkpt lat="48.83732" lon="2.34704">
        <ele>109.6</ele>
        <time>2015-02-23T20:52:29.063Z</time>
      </trkpt>
      <trkpt lat="48.8373" lon="2.34712">
        <ele>109.7</ele>
        <time>2015-02-23T20:52:30.108Z</time>
      </trkpt>
      <trkpt lat="48.83729" lon="2.3472">
        <ele>109.5</ele>
        <time>2015-02-23T20:52:31.151Z</time>
      </trkpt>
      <trkpt lat="48.83727" lon="2.34728">
        <ele>109.4</ele>
        <time>2015-02-23T20:52:32.096Z</time>
      </trkpt>
      <trkpt lat="48.83727" lon="2.34735">
        <ele>109.5</ele>
        <time>2015-02-23T20:52:33.121Z</time>
      </trkpt>
      <trkpt lat="48.83726" lon="2.34743">
        <ele>109.6</ele>
        <time>2015-02-23T20:52:34.143Z</time>
      </trkpt>
      <trkpt lat="48.83725" lon="2.34751">
        <ele>109.7</ele>
        <time>2015-02-23T20:52:35.225Z</time>
      </trkpt>
      <trkpt lat="48.83725" lon="2.34758">
        <ele>109.6</ele>
        <time>2015-02-23T20:52:36.144Z</time>
      </trkpt>
      <trkpt lat="48.83724" lon="2.34766">
        <ele>109.7</ele>
        <time>2015-02-23T20:52:37.155Z</time>
      </trkpt>
      <trkpt lat="48.83724" lon="2.34773">
        <ele>109.5</ele>
        <time>2015-02-23T20:52:38.061Z</time>
      </trkpt>
      <trkpt lat="48.83724" lon="2.34782">
        <ele>109.4</ele>
        <time>2015-02-23T20:52:39.081Z</time>
      </trkpt>
      <trkpt lat="48.83723" lon="2.3479">
        <ele>109.4</ele>
        <time>2015-02-23T20:52:40.093Z</time>
      </trkpt>
      <trkpt lat="48.83723" lon="2.34798">
        <ele>109.3</ele>
        <time>2015-02-23T20:52:41.109Z</time>
      </trkpt>
      <trkpt lat="48.83722" lon="2.34807">
        <ele>109.5</ele>
        <time>2015-02-23T20:52:42.143Z</time>
      </trkpt>
      <trkpt lat="48.83722" lon="2.34815">
        <ele>109.4</ele>
        <time>2015-02-23T20:52:43.164Z</time>
      </trkpt>
      <trkpt lat="48.83721" lon="2.34822">
        <ele>109.2</ele>
        <time>2015-02-23T20:52:44.060Z</time>
      </trkpt>
      <trkpt lat="48.83721" lon="2.3483">
        <ele>109.3</ele>
        <time>2015-02-23T20:52:45.121Z</time>
      </trkpt>
      <trkpt lat="48.8372" lon="2.34838">
        <ele>109.4</ele>
        <time>2015-02-23T20:52:46.178Z</time>
      </trkpt>
      <trkpt lat="48.83719" lon="2.34846">
        <ele>109.4</ele>
        <time>2015-02-23T20:52:47.183Z</time>
      </trkpt>
      <trkpt lat="48.83719" lon="2.34854">
        <ele>109.4</ele>
        <time>2015-02-23T20:52:48.071Z</time>
      </trkpt>
      <trkpt lat="48.83718" lon="2.34862">
        <ele>109.4</ele>
        <time>2015-02-23T20:52:49.124Z</time>
      </trkpt>
      <trkpt lat="48.83717" lon="2.3487">
        <ele>109.4</ele>
        <time>2015-02-23T20:52:50.134Z</time>
      </trkpt>
      <trkpt lat="48.83716" lon="2.34878">
        <ele>109.5</ele>
        <time>2015-02-23T20:52:51.145Z</time>
      </trkpt>
      <trkpt lat="48.83715" lon="2.34886">
        <ele>109.3</ele>
        <time>2015-02-23T20:52:52.178Z</time>
      </trkpt>
      <trkpt lat="48.83715" lon="2.34894">
        <ele>109.2</ele>
        <time>2015-02-23T20:52:53.101Z</time>
      </trkpt>
      <trkpt lat="48.83714" lon="2.34902">
        <ele>109</ele>
        <time>2015-02-23T20:52:54.113Z</time>
      </trkpt>
      <trkpt lat="48.83714" lon="2.3491">
        <ele>108.7</ele>
        <time>2015-02-23T20:52:55.150Z</time>
      </trkpt>
      <trkpt lat="48.83713" lon="2.34918">
        <ele>108.4</ele>
        <time>2015-02-23T20:52:56.179Z</time>
      </trkpt>
      <trkpt lat="48.83713" lon="2.34925">
        <ele>108.3</ele>
        <time>2015-02-23T20:52:57.094Z</time>
      </trkpt>
      <trkpt lat="48.83713" lon="2.34932">
        <ele>108.1</ele>
        <time>2015-02-23T20:52:58.108Z</time>
      </trkpt>
      <trkpt lat="48.83713" lon="2.34939">
        <ele>108.1</ele>
        <time>2015-02-23T20:52:59.131Z</time>
      </trkpt>
      <trkpt lat="48.83712" lon="2.34946">
        <ele>107.8</ele>
        <time>2015-02-23T20:53:00.149Z</time>
      </trkpt>
      <trkpt lat="48.8371" lon="2.34953">
        <ele>107.7</ele>
        <time>2015-02-23T20:53:01.195Z</time>
      </trkpt>
      <trkpt lat="48.83709" lon="2.34961">
        <ele>107.5</ele>
        <time>2015-02-23T20:53:02.085Z</time>
      </trkpt>
      <trkpt lat="48.83708" lon="2.34968">
        <ele>107.2</ele>
        <time>2015-02-23T20:53:03.089Z</time>
      </trkpt>
      <trkpt lat="48.83707" lon="2.34975">
        <ele>107</ele>
        <time>2015-02-23T20:53:04.099Z</time>
      </trkpt>
      <trkpt lat="48.83706" lon="2.34982">
        <ele>106.8</ele>
        <time>2015-02-23T20:53:05.129Z</time>
      </trkpt>
      <trkpt lat="48.83705" lon="2.34989">
        <ele>106.5</ele>
        <time>2015-02-23T20:53:06.093Z</time>
      </trkpt>
      <trkpt lat="48.83704" lon="2.34996">
        <ele>106.3</ele>
        <time>2015-02-23T20:53:07.166Z</time>
      </trkpt>
      <trkpt lat="48.83703" lon="2.35009">
        <ele>105.9</ele>
        <time>2015-02-23T20:53:09.083Z</time>
      </trkpt>
      <trkpt lat="48.83702" lon="2.35016">
        <ele>105.8</ele>
        <time>2015-02-23T20:53:10.100Z</time>
      </trkpt>
      <trkpt lat="48.83701" lon="2.35023">
        <ele>105.8</ele>
        <time>2015-02-23T20:53:11.162Z</time>
      </trkpt>
      <trkpt lat="48.837" lon="2.3503">
        <ele>105.7</ele>
        <time>2015-02-23T20:53:12.167Z</time>
      </trkpt>
      <trkpt lat="48.83699" lon="2.35037">
        <ele>105.6</ele>
        <time>2015-02-23T20:53:13.186Z</time>
      </trkpt>
      <trkpt lat="48.83699" lon="2.35044">
        <ele>105.7</ele>
        <time>2015-02-23T20:53:14.094Z</time>
      </trkpt>
      <trkpt lat="48.83698" lon="2.35056">
        <ele>105.3</ele>
        <time>2015-02-23T20:53:16.105Z</time>
      </trkpt>
      <trkpt lat="48.83697" lon="2.35062">
        <ele>105.3</ele>
        <time>2015-02-23T20:53:17.173Z</time>
      </trkpt>
      <trkpt lat="48.83695" lon="2.35074">
        <ele>104.9</ele>
        <time>2015-02-23T20:53:19.130Z</time>
      </trkpt>
      <trkpt lat="48.83694" lon="2.3508">
        <ele>104.6</ele>
        <time>2015-02-23T20:53:20.162Z</time>
      </trkpt>
      <trkpt lat="48.83692" lon="2.35091">
        <ele>104.7</ele>
        <time>2015-02-23T20:53:22.086Z</time>
      </trkpt>
      <trkpt lat="48.8369" lon="2.35096">
        <ele>104.6</ele>
        <time>2015-02-23T20:53:23.098Z</time>
      </trkpt>
      <trkpt lat="48.83685" lon="2.35104">
        <ele>104.6</ele>
        <time>2015-02-23T20:53:25.129Z</time>
      </trkpt>
      <trkpt lat="48.83683" lon="2.35108">
        <ele>104.6</ele>
        <time>2015-02-23T20:53:26.139Z</time>
      </trkpt>
      <trkpt lat="48.83675" lon="2.35113">
        <ele>105</ele>
        <time>2015-02-23T20:53:29.106Z</time>
      </trkpt>
      <trkpt lat="48.83674" lon="2.35115">
        <ele>104.7</ele>
        <time>2015-02-23T20:53:30.139Z</time>
      </trkpt>
      <trkpt lat="48.83669" lon="2.35121">
        <ele>104.3</ele>
        <time>2015-02-23T20:53:32.081Z</time>
      </trkpt>
      <trkpt lat="48.83666" lon="2.35124">
        <ele>104.3</ele>
        <time>2015-02-23T20:53:33.094Z</time>
      </trkpt>
      <trkpt lat="48.83662" lon="2.35132">
        <ele>104</ele>
        <time>2015-02-23T20:53:35.122Z</time>
      </trkpt>
      <trkpt lat="48.83662" lon="2.35136">
        <ele>103.8</ele>
        <time>2015-02-23T20:53:36.224Z</time>
      </trkpt>
      <trkpt lat="48.83664" lon="2.35149">
        <ele>102.5</ele>
        <time>2015-02-23T20:53:39.157Z</time>
      </trkpt>
      <trkpt lat="48.83665" lon="2.35153">
        <ele>102.3</ele>
        <time>2015-02-23T20:53:40.174Z</time>
      </trkpt>
      <trkpt lat="48.83669" lon="2.35164">
        <ele>102.4</ele>
        <time>2015-02-23T20:53:44.123Z</time>
      </trkpt>
      <trkpt lat="48.8367" lon="2.35166">
        <ele>102.2</ele>
        <time>2015-02-23T20:53:45.134Z</time>
      </trkpt>
      <trkpt lat="48.83674" lon="2.35177">
        <ele>101.2</ele>
        <time>2015-02-23T20:53:52.149Z</time>
      </trkpt>
      <trkpt lat="48.83675" lon="2.35179">
        <ele>101.1</ele>
        <time>2015-02-23T20:53:53.161Z</time>
      </trkpt>
      <trkpt lat="48.83678" lon="2.3519">
        <ele>100.9</ele>
        <time>2015-02-23T20:53:57.150Z</time>
      </trkpt>
      <trkpt lat="48.8368" lon="2.35194">
        <ele>100.7</ele>
        <time>2015-02-23T20:53:58.167Z</time>
      </trkpt>
      <trkpt lat="48.83684" lon="2.35205">
        <ele>100.2</ele>
        <time>2015-02-23T20:54:01.148Z</time>
      </trkpt>
      <trkpt lat="48.83686" lon="2.35209">
        <ele>100.1</ele>
        <time>2015-02-23T20:54:02.179Z</time>
      </trkpt>
      <trkpt lat="48.8369" lon="2.3522">
        <ele>100</ele>
        <time>2015-02-23T20:54:05.136Z</time>
      </trkpt>
      <trkpt lat="48.8369" lon="2.35224">
        <ele>99.9</ele>
        <time>2015-02-23T20:54:06.165Z</time>
      </trkpt>
      <trkpt lat="48.83691" lon="2.35234">
        <ele>99.3</ele>
        <time>2015-02-23T20:54:08.187Z</time>
      </trkpt>
      <trkpt lat="48.83692" lon="2.3524">
        <ele>99</ele>
        <time>2015-02-23T20:54:09.207Z</time>
      </trkpt>
      <trkpt lat="48.83695" lon="2.35252">
        <ele>98.7</ele>
        <time>2015-02-23T20:54:11.108Z</time>
      </trkpt>
      <trkpt lat="48.83697" lon="2.35257">
        <ele>98.4</ele>
        <time>2015-02-23T20:54:12.111Z</time>
      </trkpt>
      <trkpt lat="48.83699" lon="2.35263">
        <ele>98.2</ele>
        <time>2015-02-23T20:54:13.145Z</time>
      </trkpt>
      <trkpt lat="48.83702" lon="2.35269">
        <ele>98.1</ele>
        <time>2015-02-23T20:54:14.144Z</time>
      </trkpt>
      <trkpt lat="48.83706" lon="2.3528">
        <ele>97.3</ele>
        <time>2015-02-23T20:54:16.117Z</time>
      </trkpt>
      <trkpt lat="48.83709" lon="2.35286">
        <ele>97.2</ele>
        <time>2015-02-23T20:54:17.132Z</time>
      </trkpt>
      <trkpt lat="48.83713" lon="2.35296">
        <ele>97</ele>
        <time>2015-02-23T20:54:19.173Z</time>
      </trkpt>
      <trkpt lat="48.83715" lon="2.35301">
        <ele>96.8</ele>
        <time>2015-02-23T20:54:20.151Z</time>
      </trkpt>
      <trkpt lat="48.83719" lon="2.35309">
        <ele>96.3</ele>
        <time>2015-02-23T20:54:22.119Z</time>
      </trkpt>
      <trkpt lat="48.83721" lon="2.35314">
        <ele>96.3</ele>
        <time>2015-02-23T20:54:23.144Z</time>
      </trkpt>
      <trkpt lat="48.83723" lon="2.35324">
        <ele>96.1</ele>
        <time>2015-02-23T20:54:25.171Z</time>
      </trkpt>
      <trkpt lat="48.83725" lon="2.35329">
        <ele>96</ele>
        <time>2015-02-23T20:54:26.208Z</time>
      </trkpt>
      <trkpt lat="48.83728" lon="2.3534">
        <ele>96</ele>
        <time>2015-02-23T20:54:28.119Z</time>
      </trkpt>
      <trkpt lat="48.83729" lon="2.35345">
        <ele>95.9</ele>
        <time>2015-02-23T20:54:29.130Z</time>
      </trkpt>
      <trkpt lat="48.83732" lon="2.35357">
        <ele>95.8</ele>
        <time>2015-02-23T20:54:31.155Z</time>
      </trkpt>
      <trkpt lat="48.83734" lon="2.35363">
        <ele>95.8</ele>
        <time>2015-02-23T20:54:32.202Z</time>
      </trkpt>
      <trkpt lat="48.83736" lon="2.35369">
        <ele>95.8</ele>
        <time>2015-02-23T20:54:33.099Z</time>
      </trkpt>
      <trkpt lat="48.83739" lon="2.35375">
        <ele>95.6</ele>
        <time>2015-02-23T20:54:34.107Z</time>
      </trkpt>
      <trkpt lat="48.83741" lon="2.35381">
        <ele>95.4</ele>
        <time>2015-02-23T20:54:35.109Z</time>
      </trkpt>
      <trkpt lat="48.83743" lon="2.35387">
        <ele>95.4</ele>
        <time>2015-02-23T20:54:36.118Z</time>
      </trkpt>
      <trkpt lat="48.83745" lon="2.35392">
        <ele>95.2</ele>
        <time>2015-02-23T20:54:37.138Z</time>
      </trkpt>
      <trkpt lat="48.83747" lon="2.35399">
        <ele>94.8</ele>
        <time>2015-02-23T20:54:38.159Z</time>
      </trkpt>
      <trkpt lat="48.83749" lon="2.35405">
        <ele>94.8</ele>
        <time>2015-02-23T20:54:39.177Z</time>
      </trkpt>
      <trkpt lat="48.83751" lon="2.35412">
        <ele>94.7</ele>
        <time>2015-02-23T20:54:40.091Z</time>
      </trkpt>
      <trkpt lat="48.83755" lon="2.35424">
        <ele>94.6</ele>
        <time>2015-02-23T20:54:42.190Z</time>
      </trkpt>
      <trkpt lat="48.83757" lon="2.35429">
        <ele>94.5</ele>
        <time>2015-02-23T20:54:43.207Z</time>
      </trkpt>
      <trkpt lat="48.8376" lon="2.35435">
        <ele>94.5</ele>
        <time>2015-02-23T20:54:44.168Z</time>
      </trkpt>
      <trkpt lat="48.83762" lon="2.35442">
        <ele>94.4</ele>
        <time>2015-02-23T20:54:45.180Z</time>
      </trkpt>
      <trkpt lat="48.83763" lon="2.35448">
        <ele>94.4</ele>
        <time>2015-02-23T20:54:46.092Z</time>
      </trkpt>
      <trkpt lat="48.83765" lon="2.35455">
        <ele>94.3</ele>
        <time>2015-02-23T20:54:47.110Z</time>
      </trkpt>
      <trkpt lat="48.83767" lon="2.35462">
        <ele>94.3</ele>
        <time>2015-02-23T20:54:48.141Z</time>
      </trkpt>
      <trkpt lat="48.83768" lon="2.35468">
        <ele>94.2</ele>
        <time>2015-02-23T20:54:49.171Z</time>
      </trkpt>
      <trkpt lat="48.8377" lon="2.35475">
        <ele>94.1</ele>
        <time>2015-02-23T20:54:50.090Z</time>
      </trkpt>
      <trkpt lat="48.83772" lon="2.35482">
        <ele>93.9</ele>
        <time>2015-02-23T20:54:51.093Z</time>
      </trkpt>
      <trkpt lat="48.83773" lon="2.35489">
        <ele>93.8</ele>
        <time>2015-02-23T20:54:52.097Z</time>
      </trkpt>
      <trkpt lat="48.83775" lon="2.35495">
        <ele>93.8</ele>
        <time>2015-02-23T20:54:53.102Z</time>
      </trkpt>
      <trkpt lat="48.83779" lon="2.35506">
        <ele>93.8</ele>
        <time>2015-02-23T20:54:55.220Z</time>
      </trkpt>
      <trkpt lat="48.83781" lon="2.35512">
        <ele>93.6</ele>
        <time>2015-02-23T20:54:56.105Z</time>
      </trkpt>
      <trkpt lat="48.83783" lon="2.35522">
        <ele>93.6</ele>
        <time>2015-02-23T20:54:58.140Z</time>
      </trkpt>
      <trkpt lat="48.83784" lon="2.35527">
        <ele>93.7</ele>
        <time>2015-02-23T20:54:59.147Z</time>
      </trkpt>
      <trkpt lat="48.83787" lon="2.35536">
        <ele>93.5</ele>
        <time>2015-02-23T20:55:01.183Z</time>
      </trkpt>
      <trkpt lat="48.83788" lon="2.3554">
        <ele>93.5</ele>
        <time>2015-02-23T20:55:02.076Z</time>
      </trkpt>
      <trkpt lat="48.83791" lon="2.3555">
        <ele>93.2</ele>
        <time>2015-02-23T20:55:04.111Z</time>
      </trkpt>
      <trkpt lat="48.83793" lon="2.35555">
        <ele>93.2</ele>
        <time>2015-02-23T20:55:05.125Z</time>
      </trkpt>
      <trkpt lat="48.83796" lon="2.35566">
        <ele>93.1</ele>
        <time>2015-02-23T20:55:07.171Z</time>
      </trkpt>
      <trkpt lat="48.83798" lon="2.35572">
        <ele>93.1</ele>
        <time>2015-02-23T20:55:08.179Z</time>
      </trkpt>
      <trkpt lat="48.83802" lon="2.35584">
        <ele>92.8</ele>
        <time>2015-02-23T20:55:10.107Z</time>
      </trkpt>
      <trkpt lat="48.83804" lon="2.3559">
        <ele>92.7</ele>
        <time>2015-02-23T20:55:11.206Z</time>
      </trkpt>
      <trkpt lat="48.83808" lon="2.35601">
        <ele>92.6</ele>
        <time>2015-02-23T20:55:13.135Z</time>
      </trkpt>
      <trkpt lat="48.8381" lon="2.35606">
        <ele>92.6</ele>
        <time>2015-02-23T20:55:14.163Z</time>
      </trkpt>
      <trkpt lat="48.83814" lon="2.35617">
        <ele>92.4</ele>
        <time>2015-02-23T20:55:16.080Z</time>
      </trkpt>
      <trkpt lat="48.83815" lon="2.35622">
        <ele>92.3</ele>
        <time>2015-02-23T20:55:17.091Z</time>
      </trkpt>
      <trkpt lat="48.83819" lon="2.35633">
        <ele>92.2</ele>
        <time>2015-02-23T20:55:19.138Z</time>
      </trkpt>
      <trkpt lat="48.83821" lon="2.35638">
        <ele>91.9</ele>
        <time>2015-02-23T20:55:20.149Z</time>
      </trkpt>
      <trkpt lat="48.83825" lon="2.35648">
        <ele>91.6</ele>
        <time>2015-02-23T20:55:22.103Z</time>
      </trkpt>
      <trkpt lat="48.83827" lon="2.35654">
        <ele>91.3</ele>
        <time>2015-02-23T20:55:23.125Z</time>
      </trkpt>
      <trkpt lat="48.83832" lon="2.35665">
        <ele>91.1</ele>
        <time>2015-02-23T20:55:25.176Z</time>
      </trkpt>
      <trkpt lat="48.83833" lon="2.3567">
        <ele>91</ele>
        <time>2015-02-23T20:55:26.091Z</time>
      </trkpt>
      <trkpt lat="48.83835" lon="2.35681">
        <ele>90.8</ele>
        <time>2015-02-23T20:55:28.139Z</time>
      </trkpt>
      <trkpt lat="48.83835" lon="2.35687">
        <ele>90.8</ele>
        <time>2015-02-23T20:55:29.150Z</time>
      </trkpt>
      <trkpt lat="48.83833" lon="2.35699">
        <ele>91.1</ele>
        <time>2015-02-23T20:55:32.235Z</time>
      </trkpt>
      <trkpt lat="48.83833" lon="2.35701">
        <ele>91.2</ele>
        <time>2015-02-23T20:55:33.365Z</time>
      </trkpt>
      <trkpt lat="48.83827" lon="2.35707">
        <ele>91.9</ele>
        <time>2015-02-23T20:55:37.190Z</time>
      </trkpt>
      <trkpt lat="48.83824" lon="2.35709">
        <ele>91.8</ele>
        <time>2015-02-23T20:55:38.103Z</time>
      </trkpt>
      <trkpt lat="48.83818" lon="2.35713">
        <ele>91.7</ele>
        <time>2015-02-23T20:55:40.161Z</time>
      </trkpt>
      <trkpt lat="48.83816" lon="2.35714">
        <ele>91.9</ele>
        <time>2015-02-23T20:55:41.103Z</time>
      </trkpt>
      <trkpt lat="48.83808" lon="2.3572">
        <ele>92.8</ele>
        <time>2015-02-23T20:55:45.115Z</time>
      </trkpt>
      <trkpt lat="48.83805" lon="2.35722">
        <ele>92.8</ele>
        <time>2015-02-23T20:55:46.137Z</time>
      </trkpt>
      <trkpt lat="48.83799" lon="2.35727">
        <ele>93.4</ele>
        <time>2015-02-23T20:55:48.183Z</time>
      </trkpt>
      <trkpt lat="48.83796" lon="2.3573">
        <ele>93.4</ele>
        <time>2015-02-23T20:55:49.199Z</time>
      </trkpt>
      <trkpt lat="48.8379" lon="2.35733">
        <ele>93.7</ele>
        <time>2015-02-23T20:55:51.096Z</time>
      </trkpt>
      <trkpt lat="48.83787" lon="2.35734">
        <ele>93.7</ele>
        <time>2015-02-23T20:55:52.136Z</time>
      </trkpt>
      <trkpt lat="48.83781" lon="2.35734">
        <ele>93.7</ele>
        <time>2015-02-23T20:55:54.174Z</time>
      </trkpt>
      <trkpt lat="48.83778" lon="2.35735">
        <ele>93.6</ele>
        <time>2015-02-23T20:55:55.199Z</time>
      </trkpt>
      <trkpt lat="48.83771" lon="2.3574">
        <ele>93.4</ele>
        <time>2015-02-23T20:55:58.105Z</time>
      </trkpt>
      <trkpt lat="48.8377" lon="2.35744">
        <ele>93.3</ele>
        <time>2015-02-23T20:55:59.212Z</time>
      </trkpt>
      <trkpt lat="48.83765" lon="2.35754">
        <ele>93.5</ele>
        <time>2015-02-23T20:56:01.737Z</time>
      </trkpt>
      <trkpt lat="48.83763" lon="2.35759">
        <ele>93.8</ele>
        <time>2015-02-23T20:56:02.163Z</time>
      </trkpt>
      <trkpt lat="48.83757" lon="2.35768">
        <ele>94.9</ele>
        <time>2015-02-23T20:56:04.128Z</time>
      </trkpt>
      <trkpt lat="48.83757" lon="2.35773">
        <ele>95.6</ele>
        <time>2015-02-23T20:56:05.154Z</time>
      </trkpt>
      <trkpt lat="48.83751" lon="2.35783">
        <ele>97</ele>
        <time>2015-02-23T20:56:09.214Z</time>
      </trkpt>
      <trkpt lat="48.8375" lon="2.35785">
        <ele>97.3</ele>
        <time>2015-02-23T20:56:10.158Z</time>
      </trkpt>
      <trkpt lat="48.83747" lon="2.35797">
        <ele>97.4</ele>
        <time>2015-02-23T20:56:14.146Z</time>
      </trkpt>
      <trkpt lat="48.83746" lon="2.35801">
        <ele>97.6</ele>
        <time>2015-02-23T20:56:15.134Z</time>
      </trkpt>
      <trkpt lat="48.83742" lon="2.3581">
        <ele>97.7</ele>
        <time>2015-02-23T20:56:18.115Z</time>
      </trkpt>
      <trkpt lat="48.8374" lon="2.35813">
        <ele>97.8</ele>
        <time>2015-02-23T20:56:19.130Z</time>
      </trkpt>
      <trkpt lat="48.83734" lon="2.35822">
        <ele>98</ele>
        <time>2015-02-23T20:56:22.164Z</time>
      </trkpt>
      <trkpt lat="48.83732" lon="2.35823">
        <ele>98.1</ele>
        <time>2015-02-23T20:56:23.165Z</time>
      </trkpt>
      <trkpt lat="48.83724" lon="2.35826">
        <ele>98.6</ele>
        <time>2015-02-23T20:56:26.782Z</time>
      </trkpt>
      <trkpt lat="48.83722" lon="2.35825">
        <ele>98.8</ele>
        <time>2015-02-23T20:56:27.098Z</time>
      </trkpt>
      <trkpt lat="48.83714" lon="2.35828">
        <ele>99.8</ele>
        <time>2015-02-23T20:56:30.217Z</time>
      </trkpt>
      <trkpt lat="48.83711" lon="2.3583">
        <ele>100</ele>
        <time>2015-02-23T20:56:31.243Z</time>
      </trkpt>
      <trkpt lat="48.83704" lon="2.35836">
        <ele>100.7</ele>
        <time>2015-02-23T20:56:35.126Z</time>
      </trkpt>
      <trkpt lat="48.83702" lon="2.35838">
        <ele>100.9</ele>
        <time>2015-02-23T20:56:36.140Z</time>
      </trkpt>
      <trkpt lat="48.83696" lon="2.35845">
        <ele>101.8</ele>
        <time>2015-02-23T20:56:40.096Z</time>
      </trkpt>
      <trkpt lat="48.83695" lon="2.35848">
        <ele>102</ele>
        <time>2015-02-23T20:56:41.123Z</time>
      </trkpt>
      <trkpt lat="48.83692" lon="2.35856">
        <ele>101.5</ele>
        <time>2015-02-23T20:56:43.094Z</time>
      </trkpt>
      <trkpt lat="48.83691" lon="2.35861">
        <ele>101.1</ele>
        <time>2015-02-23T20:56:44.136Z</time>
      </trkpt>
      <trkpt lat="48.83689" lon="2.35873">
        <ele>99.7</ele>
        <time>2015-02-23T20:56:47.189Z</time>
      </trkpt>
      <trkpt lat="48.83687" lon="2.35876">
        <ele>99.5</ele>
        <time>2015-02-23T20:56:48.131Z</time>
      </trkpt>
      <trkpt lat="48.83683" lon="2.35884">
        <ele>99.7</ele>
        <time>2015-02-23T20:56:51.065Z</time>
      </trkpt>
      <trkpt lat="48.83681" lon="2.35887">
        <ele>99.6</ele>
        <time>2015-02-23T20:56:52.078Z</time>
      </trkpt>
      <trkpt lat="48.83678" lon="2.35892">
        <ele>99.5</ele>
        <time>2015-02-23T20:57:13.166Z</time>
      </trkpt>
      <trkpt lat="48.83675" lon="2.35903">
        <ele>102.1</ele>
        <time>2015-02-23T20:57:14.094Z</time>
      </trkpt>
      <trkpt lat="48.83675" lon="2.35904">
        <ele>102.3</ele>
        <time>2015-02-23T20:57:15.116Z</time>
      </trkpt>
      <trkpt lat="48.83673" lon="2.35905">
        <ele>103.2</ele>
        <time>2015-02-23T20:57:16.154Z</time>
      </trkpt>
      <trkpt lat="48.83672" lon="2.35905">
        <ele>103.7</ele>
        <time>2015-02-23T20:57:28.174Z</time>
      </trkpt>
      <trkpt lat="48.83671" lon="2.35909">
        <ele>105.6</ele>
        <time>2015-02-23T20:57:29.087Z</time>
      </trkpt>
      <trkpt lat="48.83671" lon="2.35909">
        <ele>105.3</ele>
        <time>2015-02-23T20:57:30.109Z</time>
      </trkpt>
      <trkpt lat="48.83671" lon="2.35909">
        <ele>105.4</ele>
        <time>2015-02-23T20:57:36.850Z</time>
      </trkpt>
      <trkpt lat="48.83671" lon="2.35908">
        <ele>105.6</ele>
        <time>2015-02-23T20:57:37.233Z</time>
      </trkpt>
      <trkpt lat="48.83667" lon="2.35919">
        <ele>106.8</ele>
        <time>2015-02-23T20:58:07.945Z</time>
      </trkpt>
      <trkpt lat="48.83666" lon="2.3592">
        <ele>107.2</ele>
        <time>2015-02-23T20:58:08.257Z</time>
      </trkpt>
      <trkpt lat="48.83661" lon="2.3593">
        <ele>108.3</ele>
        <time>2015-02-23T20:58:13.048Z</time>
      </trkpt>
      <trkpt lat="48.83659" lon="2.35933">
        <ele>108.4</ele>
        <time>2015-02-23T20:58:13.194Z</time>
      </trkpt>
      <trkpt lat="48.83656" lon="2.35942">
        <ele>108.3</ele>
        <time>2015-02-23T20:58:16.581Z</time>
      </trkpt>
      <trkpt lat="48.83654" lon="2.35945">
        <ele>108.1</ele>
        <time>2015-02-23T20:58:17.226Z</time>
      </trkpt>
      <trkpt lat="48.83649" lon="2.35955">
        <ele>108.2</ele>
        <time>2015-02-23T20:58:21.706Z</time>
      </trkpt>
      <trkpt lat="48.83647" lon="2.35958">
        <ele>108.1</ele>
        <time>2015-02-23T20:58:22.306Z</time>
      </trkpt>
      <trkpt lat="48.83641" lon="2.35963">
        <ele>107.9</ele>
        <time>2015-02-23T20:58:25.316Z</time>
      </trkpt>
      <trkpt lat="48.83638" lon="2.35965">
        <ele>107.9</ele>
        <time>2015-02-23T20:58:26.216Z</time>
      </trkpt>
      <trkpt lat="48.83633" lon="2.35969">
        <ele>108.2</ele>
        <time>2015-02-23T20:58:28.241Z</time>
      </trkpt>
      <trkpt lat="48.83629" lon="2.35971">
        <ele>108.3</ele>
        <time>2015-02-23T20:58:29.274Z</time>
      </trkpt>
      <trkpt lat="48.83621" lon="2.35976">
        <ele>108.2</ele>
        <time>2015-02-23T20:58:32.248Z</time>
      </trkpt>
      <trkpt lat="48.83619" lon="2.35978">
        <ele>108.3</ele>
        <time>2015-02-23T20:58:33.262Z</time>
      </trkpt>
      <trkpt lat="48.83611" lon="2.35982">
        <ele>108.4</ele>
        <time>2015-02-23T20:58:36.978Z</time>
      </trkpt>
      <trkpt lat="48.83608" lon="2.35984">
        <ele>108.5</ele>
        <time>2015-02-23T20:58:37.271Z</time>
      </trkpt>
      <trkpt lat="48.83602" lon="2.35989">
        <ele>108.6</ele>
        <time>2015-02-23T20:58:39.204Z</time>
      </trkpt>
      <trkpt lat="48.83599" lon="2.35993">
        <ele>108.6</ele>
        <time>2015-02-23T20:58:40.210Z</time>
      </trkpt>
      <trkpt lat="48.83596" lon="2.36005">
        <ele>107.8</ele>
        <time>2015-02-23T20:58:43.241Z</time>
      </trkpt>
      <trkpt lat="48.83596" lon="2.3601">
        <ele>107.9</ele>
        <time>2015-02-23T20:58:44.251Z</time>
      </trkpt>
      <trkpt lat="48.83596" lon="2.36019">
        <ele>108</ele>
        <time>2015-02-23T20:58:47.280Z</time>
      </trkpt>
      <trkpt lat="48.83595" lon="2.36023">
        <ele>108.1</ele>
        <time>2015-02-23T20:58:47.330Z</time>
      </trkpt>
      <trkpt lat="48.83591" lon="2.36034">
        <ele>108.2</ele>
        <time>2015-02-23T20:58:50.254Z</time>
      </trkpt>
      <trkpt lat="48.83588" lon="2.36038">
        <ele>108.3</ele>
        <time>2015-02-23T20:58:51.258Z</time>
      </trkpt>
      <trkpt lat="48.83584" lon="2.36045">
        <ele>108.6</ele>
        <time>2015-02-23T20:58:54.176Z</time>
      </trkpt>
      <trkpt lat="48.83581" lon="2.36049">
        <ele>108.6</ele>
        <time>2015-02-23T20:58:54.280Z</time>
      </trkpt>
      <trkpt lat="48.83575" lon="2.36058">
        <ele>108.5</ele>
        <time>2015-02-23T20:58:56.171Z</time>
      </trkpt>
      <trkpt lat="48.83572" lon="2.36062">
        <ele>108.5</ele>
        <time>2015-02-23T20:58:57.202Z</time>
      </trkpt>
      <trkpt lat="48.83565" lon="2.36068">
        <ele>108.5</ele>
        <time>2015-02-23T20:58:59.313Z</time>
      </trkpt>
      <trkpt lat="48.83561" lon="2.36072">
        <ele>108.3</ele>
        <time>2015-02-23T20:59:00.245Z</time>
      </trkpt>
      <trkpt lat="48.83555" lon="2.36079">
        <ele>108.2</ele>
        <time>2015-02-23T20:59:02.190Z</time>
      </trkpt>
      <trkpt lat="48.83551" lon="2.36083">
        <ele>108.1</ele>
        <time>2015-02-23T20:59:03.224Z</time>
      </trkpt>
      <trkpt lat="48.83544" lon="2.36088">
        <ele>108.1</ele>
        <time>2015-02-23T20:59:05.264Z</time>
      </trkpt>
      <trkpt lat="48.83542" lon="2.3609">
        <ele>108.2</ele>
        <time>2015-02-23T20:59:06.321Z</time>
      </trkpt>
      <trkpt lat="48.83535" lon="2.36093">
        <ele>108.5</ele>
        <time>2015-02-23T20:59:08.190Z</time>
      </trkpt>
      <trkpt lat="48.83533" lon="2.36095">
        <ele>108.8</ele>
        <time>2015-02-23T20:59:09.206Z</time>
      </trkpt>
      <trkpt lat="48.83527" lon="2.36097">
        <ele>109.1</ele>
        <time>2015-02-23T20:59:11.268Z</time>
      </trkpt>
      <trkpt lat="48.83523" lon="2.361">
        <ele>109.4</ele>
        <time>2015-02-23T20:59:12.292Z</time>
      </trkpt>
      <trkpt lat="48.83519" lon="2.36104">
        <ele>109.6</ele>
        <time>2015-02-23T20:59:13.191Z</time>
      </trkpt>
      <trkpt lat="48.83516" lon="2.36107">
        <ele>109.6</ele>
        <time>2015-02-23T20:59:14.204Z</time>
      </trkpt>
      <trkpt lat="48.83508" lon="2.36114">
        <ele>109.5</ele>
        <time>2015-02-23T20:59:16.251Z</time>
      </trkpt>
      <trkpt lat="48.83504" lon="2.36117">
        <ele>109.5</ele>
        <time>2015-02-23T20:59:17.188Z</time>
      </trkpt>
      <trkpt lat="48.83498" lon="2.36121">
        <ele>108.6</ele>
        <time>2015-02-23T20:59:18.226Z</time>
      </trkpt>
      <trkpt lat="48.83494" lon="2.36124">
        <ele>108.6</ele>
        <time>2015-02-23T20:59:19.232Z</time>
      </trkpt>
      <trkpt lat="48.83487" lon="2.36133">
        <ele>109</ele>
        <time>2015-02-23T20:59:21.191Z</time>
      </trkpt>
      <trkpt lat="48.83484" lon="2.36138">
        <ele>108.9</ele>
        <time>2015-02-23T20:59:22.203Z</time>
      </trkpt>
      <trkpt lat="48.8348" lon="2.36144">
        <ele>109</ele>
        <time>2015-02-23T20:59:23.240Z</time>
      </trkpt>
      <trkpt lat="48.83477" lon="2.36151">
        <ele>108.7</ele>
        <time>2015-02-23T20:59:24.252Z</time>
      </trkpt>
      <trkpt lat="48.83473" lon="2.36158">
        <ele>108.6</ele>
        <time>2015-02-23T20:59:25.269Z</time>
      </trkpt>
      <trkpt lat="48.8347" lon="2.36163">
        <ele>108.7</ele>
        <time>2015-02-23T20:59:26.275Z</time>
      </trkpt>
      <trkpt lat="48.83466" lon="2.36173">
        <ele>108.3</ele>
        <time>2015-02-23T20:59:28.203Z</time>
      </trkpt>
      <trkpt lat="48.83465" lon="2.36178">
        <ele>108.2</ele>
        <time>2015-02-23T20:59:29.251Z</time>
      </trkpt>
      <trkpt lat="48.83461" lon="2.36187">
        <ele>109</ele>
        <time>2015-02-23T20:59:31.382Z</time>
      </trkpt>
      <trkpt lat="48.8346" lon="2.3619">
        <ele>109.3</ele>
        <time>2015-02-23T20:59:32.243Z</time>
      </trkpt>
      <trkpt lat="48.83455" lon="2.36199">
        <ele>110.1</ele>
        <time>2015-02-23T20:59:35.304Z</time>
      </trkpt>
      <trkpt lat="48.83453" lon="2.36201">
        <ele>110.2</ele>
        <time>2015-02-23T20:59:36.317Z</time>
      </trkpt>
      <trkpt lat="48.83448" lon="2.36207">
        <ele>110.5</ele>
        <time>2015-02-23T20:59:38.188Z</time>
      </trkpt>
      <trkpt lat="48.83446" lon="2.3621">
        <ele>110.7</ele>
        <time>2015-02-23T20:59:39.205Z</time>
      </trkpt>
      <trkpt lat="48.83439" lon="2.36217">
        <ele>111.2</ele>
        <time>2015-02-23T20:59:41.178Z</time>
      </trkpt>
      <trkpt lat="48.83435" lon="2.36221">
        <ele>111.4</ele>
        <time>2015-02-23T20:59:42.243Z</time>
      </trkpt>
      <trkpt lat="48.8343" lon="2.36225">
        <ele>111.8</ele>
        <time>2015-02-23T20:59:43.185Z</time>
      </trkpt>
      <trkpt lat="48.83426" lon="2.36229">
        <ele>112.1</ele>
        <time>2015-02-23T20:59:44.197Z</time>
      </trkpt>
      <trkpt lat="48.8342" lon="2.36236">
        <ele>112.9</ele>
        <time>2015-02-23T20:59:46.226Z</time>
      </trkpt>
      <trkpt lat="48.83415" lon="2.3624">
        <ele>113.2</ele>
        <time>2015-02-23T20:59:47.272Z</time>
      </trkpt>
      <trkpt lat="48.83411" lon="2.36244">
        <ele>113.3</ele>
        <time>2015-02-23T20:59:48.285Z</time>
      </trkpt>
      <trkpt lat="48.83407" lon="2.36247">
        <ele>113.2</ele>
        <time>2015-02-23T20:59:49.199Z</time>
      </trkpt>
      <trkpt lat="48.83404" lon="2.36256">
        <ele>112.9</ele>
        <time>2015-02-23T20:59:50.202Z</time>
      </trkpt>
      <trkpt lat="48.834" lon="2.36262">
        <ele>112.9</ele>
        <time>2015-02-23T20:59:51.245Z</time>
      </trkpt>
      <trkpt lat="48.83393" lon="2.36269">
        <ele>114.5</ele>
        <time>2015-02-23T20:59:52.178Z</time>
      </trkpt>
      <trkpt lat="48.83389" lon="2.36274">
        <ele>114.6</ele>
        <time>2015-02-23T20:59:53.194Z</time>
      </trkpt>
      <trkpt lat="48.83386" lon="2.36281">
        <ele>114.1</ele>
        <time>2015-02-23T20:59:54.245Z</time>
      </trkpt>
      <trkpt lat="48.83378" lon="2.3629">
        <ele>112.3</ele>
        <time>2015-02-23T20:59:55.258Z</time>
      </trkpt>
      <trkpt lat="48.83374" lon="2.36297">
        <ele>111.3</ele>
        <time>2015-02-23T20:59:56.190Z</time>
      </trkpt>
      <trkpt lat="48.83369" lon="2.36303">
        <ele>111</ele>
        <time>2015-02-23T20:59:57.196Z</time>
      </trkpt>
      <trkpt lat="48.83366" lon="2.36309">
        <ele>110.6</ele>
        <time>2015-02-23T20:59:58.206Z</time>
      </trkpt>
      <trkpt lat="48.83362" lon="2.36314">
        <ele>109.9</ele>
        <time>2015-02-23T20:59:59.217Z</time>
      </trkpt>
      <trkpt lat="48.83358" lon="2.36319">
        <ele>109.4</ele>
        <time>2015-02-23T21:00:00.249Z</time>
      </trkpt>
      <trkpt lat="48.83354" lon="2.36324">
        <ele>109.1</ele>
        <time>2015-02-23T21:00:01.269Z</time>
      </trkpt>
      <trkpt lat="48.83349" lon="2.36332">
        <ele>107.9</ele>
        <time>2015-02-23T21:00:03.296Z</time>
      </trkpt>
      <trkpt lat="48.83347" lon="2.36336">
        <ele>107.5</ele>
        <time>2015-02-23T21:00:04.208Z</time>
      </trkpt>
      <trkpt lat="48.83342" lon="2.36343">
        <ele>107.5</ele>
        <time>2015-02-23T21:00:06.240Z</time>
      </trkpt>
      <trkpt lat="48.83339" lon="2.36345">
        <ele>107.6</ele>
        <time>2015-02-23T21:00:07.243Z</time>
      </trkpt>
      <trkpt lat="48.83333" lon="2.36351">
        <ele>107.2</ele>
        <time>2015-02-23T21:00:10.218Z</time>
      </trkpt>
      <trkpt lat="48.83332" lon="2.36353">
        <ele>107.1</ele>
        <time>2015-02-23T21:00:11.272Z</time>
      </trkpt>
      <trkpt lat="48.83328" lon="2.36362">
        <ele>106.9</ele>
        <time>2015-02-23T21:00:14.202Z</time>
      </trkpt>
      <trkpt lat="48.83327" lon="2.36366">
        <ele>107</ele>
        <time>2015-02-23T21:00:15.218Z</time>
      </trkpt>
      <trkpt lat="48.83323" lon="2.36373">
        <ele>107.7</ele>
        <time>2015-02-23T21:00:17.268Z</time>
      </trkpt>
      <trkpt lat="48.83321" lon="2.36377">
        <ele>107.9</ele>
        <time>2015-02-23T21:00:18.282Z</time>
      </trkpt>
      <trkpt lat="48.83318" lon="2.36383">
        <ele>107.8</ele>
        <time>2015-02-23T21:00:20.224Z</time>
      </trkpt>
      <trkpt lat="48.83315" lon="2.36388">
        <ele>107.8</ele>
        <time>2015-02-23T21:00:21.236Z</time>
      </trkpt>
      <trkpt lat="48.83309" lon="2.36394">
        <ele>108.8</ele>
        <time>2015-02-23T21:00:24.260Z</time>
      </trkpt>
      <trkpt lat="48.83308" lon="2.36396">
        <ele>109</ele>
        <time>2015-02-23T21:00:25.255Z</time>
      </trkpt>
      <trkpt lat="48.83303" lon="2.36402">
        <ele>109.5</ele>
        <time>2015-02-23T21:00:27.228Z</time>
      </trkpt>
      <trkpt lat="48.833" lon="2.36405">
        <ele>109.9</ele>
        <time>2015-02-23T21:00:28.234Z</time>
      </trkpt>
      <trkpt lat="48.83294" lon="2.3641">
        <ele>110.5</ele>
        <time>2015-02-23T21:00:29.261Z</time>
      </trkpt>
      <trkpt lat="48.83291" lon="2.36414">
        <ele>110.9</ele>
        <time>2015-02-23T21:00:30.266Z</time>
      </trkpt>
      <trkpt lat="48.83284" lon="2.3642">
        <ele>111.4</ele>
        <time>2015-02-23T21:00:32.296Z</time>
      </trkpt>
      <trkpt lat="48.83282" lon="2.36423">
        <ele>111.6</ele>
        <time>2015-02-23T21:00:33.217Z</time>
      </trkpt>
      <trkpt lat="48.83278" lon="2.3643">
        <ele>112.1</ele>
        <time>2015-02-23T21:00:35.202Z</time>
      </trkpt>
      <trkpt lat="48.83276" lon="2.36436">
        <ele>112.1</ele>
        <time>2015-02-23T21:00:36.253Z</time>
      </trkpt>
      <trkpt lat="48.83273" lon="2.36442">
        <ele>111.6</ele>
        <time>2015-02-23T21:00:37.206Z</time>
      </trkpt>
      <trkpt lat="48.8327" lon="2.36449">
        <ele>111.2</ele>
        <time>2015-02-23T21:00:38.196Z</time>
      </trkpt>
      <trkpt lat="48.83265" lon="2.36454">
        <ele>111.4</ele>
        <time>2015-02-23T21:00:40.220Z</time>
      </trkpt>
      <trkpt lat="48.83262" lon="2.36456">
        <ele>111.8</ele>
        <time>2015-02-23T21:00:41.271Z</time>
      </trkpt>
      <trkpt lat="48.83255" lon="2.36461">
        <ele>112.4</ele>
        <time>2015-02-23T21:00:43.174Z</time>
      </trkpt>
      <trkpt lat="48.83253" lon="2.36465">
        <ele>113</ele>
        <time>2015-02-23T21:00:44.214Z</time>
      </trkpt>
      <trkpt lat="48.83247" lon="2.36474">
        <ele>113.3</ele>
        <time>2015-02-23T21:00:46.242Z</time>
      </trkpt>
      <trkpt lat="48.83244" lon="2.36479">
        <ele>113.3</ele>
        <time>2015-02-23T21:00:47.310Z</time>
      </trkpt>
      <trkpt lat="48.83241" lon="2.36484">
        <ele>113.4</ele>
        <time>2015-02-23T21:00:48.228Z</time>
      </trkpt>
      <trkpt lat="48.83239" lon="2.3649">
        <ele>113.1</ele>
        <time>2015-02-23T21:00:49.243Z</time>
      </trkpt>
      <trkpt lat="48.83235" lon="2.36497">
        <ele>113</ele>
        <time>2015-02-23T21:00:50.262Z</time>
      </trkpt>
      <trkpt lat="48.83232" lon="2.36502">
        <ele>113</ele>
        <time>2015-02-23T21:00:51.265Z</time>
      </trkpt>
      <trkpt lat="48.83227" lon="2.36508">
        <ele>113</ele>
        <time>2015-02-23T21:00:52.375Z</time>
      </trkpt>
      <trkpt lat="48.83223" lon="2.36514">
        <ele>113.1</ele>
        <time>2015-02-23T21:00:53.216Z</time>
      </trkpt>
      <trkpt lat="48.8322" lon="2.36519">
        <ele>113.3</ele>
        <time>2015-02-23T21:00:54.302Z</time>
      </trkpt>
      <trkpt lat="48.83216" lon="2.36524">
        <ele>113.5</ele>
        <time>2015-02-23T21:00:55.194Z</time>
      </trkpt>
      <trkpt lat="48.83212" lon="2.3653">
        <ele>113.7</ele>
        <time>2015-02-23T21:00:56.203Z</time>
      </trkpt>
      <trkpt lat="48.83207" lon="2.36535">
        <ele>113.7</ele>
        <time>2015-02-23T21:00:57.210Z</time>
      </trkpt>
      <trkpt lat="48.83203" lon="2.3654">
        <ele>113.8</ele>
        <time>2015-02-23T21:00:58.248Z</time>
      </trkpt>
      <trkpt lat="48.83198" lon="2.36545">
        <ele>113.7</ele>
        <time>2015-02-23T21:00:59.248Z</time>
      </trkpt>
      <trkpt lat="48.83194" lon="2.36552">
        <ele>113.4</ele>
        <time>2015-02-23T21:01:00.265Z</time>
      </trkpt>
      <trkpt lat="48.83189" lon="2.36563">
        <ele>112.2</ele>
        <time>2015-02-23T21:01:01.196Z</time>
      </trkpt>
      <trkpt lat="48.83184" lon="2.3657">
        <ele>112.1</ele>
        <time>2015-02-23T21:01:02.195Z</time>
      </trkpt>
      <trkpt lat="48.83179" lon="2.36576">
        <ele>111.8</ele>
        <time>2015-02-23T21:01:03.212Z</time>
      </trkpt>
      <trkpt lat="48.83175" lon="2.36582">
        <ele>111.8</ele>
        <time>2015-02-23T21:01:04.241Z</time>
      </trkpt>
      <trkpt lat="48.83171" lon="2.36588">
        <ele>111.9</ele>
        <time>2015-02-23T21:01:05.253Z</time>
      </trkpt>
      <trkpt lat="48.83167" lon="2.36594">
        <ele>111.8</ele>
        <time>2015-02-23T21:01:06.268Z</time>
      </trkpt>
      <trkpt lat="48.83163" lon="2.36604">
        <ele>110.9</ele>
        <time>2015-02-23T21:01:07.277Z</time>
      </trkpt>
      <trkpt lat="48.8316" lon="2.36609">
        <ele>110.8</ele>
        <time>2015-02-23T21:01:08.173Z</time>
      </trkpt>
      <trkpt lat="48.83155" lon="2.36614">
        <ele>110.9</ele>
        <time>2015-02-23T21:01:09.191Z</time>
      </trkpt>
      <trkpt lat="48.8315" lon="2.36619">
        <ele>111.2</ele>
        <time>2015-02-23T21:01:10.204Z</time>
      </trkpt>
      <trkpt lat="48.83145" lon="2.36623">
        <ele>111.4</ele>
        <time>2015-02-23T21:01:11.206Z</time>
      </trkpt>
      <trkpt lat="48.83139" lon="2.36626">
        <ele>111.5</ele>
        <time>2015-02-23T21:01:12.234Z</time>
      </trkpt>
      <trkpt lat="48.83135" lon="2.36628">
        <ele>111.6</ele>
        <time>2015-02-23T21:01:13.248Z</time>
      </trkpt>
      <trkpt lat="48.83128" lon="2.36633">
        <ele>111.8</ele>
        <time>2015-02-23T21:01:15.293Z</time>
      </trkpt>
      <trkpt lat="48.83126" lon="2.36637">
        <ele>112.1</ele>
        <time>2015-02-23T21:01:16.198Z</time>
      </trkpt>
      <trkpt lat="48.8312" lon="2.36644">
        <ele>112.6</ele>
        <time>2015-02-23T21:01:18.252Z</time>
      </trkpt>
      <trkpt lat="48.83117" lon="2.36648">
        <ele>112.8</ele>
        <time>2015-02-23T21:01:19.274Z</time>
      </trkpt>
      <trkpt lat="48.83111" lon="2.36654">
        <ele>112.9</ele>
        <time>2015-02-23T21:01:21.200Z</time>
      </trkpt>
      <trkpt lat="48.83108" lon="2.36656">
        <ele>113</ele>
        <time>2015-02-23T21:01:22.218Z</time>
      </trkpt>
      <trkpt lat="48.83101" lon="2.36664">
        <ele>113.3</ele>
        <time>2015-02-23T21:01:25.200Z</time>
      </trkpt>
      <trkpt lat="48.83098" lon="2.36666">
        <ele>113.6</ele>
        <time>2015-02-23T21:01:26.211Z</time>
      </trkpt>
      <trkpt lat="48.83093" lon="2.36673">
        <ele>114</ele>
        <time>2015-02-23T21:01:28.263Z</time>
      </trkpt>
      <trkpt lat="48.83091" lon="2.36677">
        <ele>114.2</ele>
        <time>2015-02-23T21:01:29.175Z</time>
      </trkpt>
      <trkpt lat="48.83085" lon="2.36686">
        <ele>114.6</ele>
        <time>2015-02-23T21:01:31.230Z</time>
      </trkpt>
      <trkpt lat="48.83082" lon="2.3669">
        <ele>114.8</ele>
        <time>2015-02-23T21:01:32.255Z</time>
      </trkpt>
      <trkpt lat="48.83077" lon="2.36697">
        <ele>115.5</ele>
        <time>2015-02-23T21:01:34.199Z</time>
      </trkpt>
      <trkpt lat="48.83075" lon="2.36702">
        <ele>115.5</ele>
        <time>2015-02-23T21:01:35.211Z</time>
      </trkpt>
      <trkpt lat="48.8307" lon="2.36713">
        <ele>115.4</ele>
        <time>2015-02-23T21:01:38.198Z</time>
      </trkpt>
      <trkpt lat="48.83067" lon="2.36717">
        <ele>115.6</ele>
        <time>2015-02-23T21:01:39.192Z</time>
      </trkpt>
      <trkpt lat="48.83061" lon="2.36726">
        <ele>114.7</ele>
        <time>2015-02-23T21:01:42.278Z</time>
      </trkpt>
      <trkpt lat="48.83059" lon="2.36728">
        <ele>114.2</ele>
        <time>2015-02-23T21:01:43.279Z</time>
      </trkpt>
      <trkpt lat="48.83051" lon="2.36734">
        <ele>112.5</ele>
        <time>2015-02-23T21:01:46.255Z</time>
      </trkpt>
      <trkpt lat="48.83049" lon="2.36737">
        <ele>112.3</ele>
        <time>2015-02-23T21:01:47.160Z</time>
      </trkpt>
      <trkpt lat="48.83045" lon="2.36748">
        <ele>112.5</ele>
        <time>2015-02-23T21:01:53.196Z</time>
      </trkpt>
      <trkpt lat="48.83044" lon="2.36751">
        <ele>112.8</ele>
        <time>2015-02-23T21:01:54.306Z</time>
      </trkpt>
      <trkpt lat="48.83045" lon="2.36762">
        <ele>112.9</ele>
        <time>2015-02-23T21:02:00.265Z</time>
      </trkpt>
      <trkpt lat="48.83047" lon="2.36763">
        <ele>112.6</ele>
        <time>2015-02-23T21:02:01.209Z</time>
      </trkpt>
      <trkpt lat="48.83047" lon="2.36764">
        <ele>112.6</ele>
        <time>2015-02-23T21:02:02.209Z</time>
      </trkpt>
      <trkpt lat="48.83047" lon="2.36764">
        <ele>112.5</ele>
        <time>2015-02-23T21:02:05.183Z</time>
      </trkpt>
      <trkpt lat="48.83045" lon="2.36765">
        <ele>112.7</ele>
        <time>2015-02-23T21:02:06.230Z</time>
      </trkpt>
      <trkpt lat="48.83045" lon="2.36764">
        <ele>112.7</ele>
        <time>2015-02-23T21:02:08.368Z</time>
      </trkpt>
      <trkpt lat="48.83047" lon="2.36762">
        <ele>112.7</ele>
        <time>2015-02-23T21:02:09.264Z</time>
      </trkpt>
      <trkpt lat="48.83053" lon="2.3676">
        <ele>112.5</ele>
        <time>2015-02-23T21:02:12.280Z</time>
      </trkpt>
      <trkpt lat="48.83056" lon="2.36759">
        <ele>112.5</ele>
        <time>2015-02-23T21:02:13.175Z</time>
      </trkpt>
      <trkpt lat="48.83063" lon="2.36755">
        <ele>112.1</ele>
        <time>2015-02-23T21:02:15.188Z</time>
      </trkpt>
      <trkpt lat="48.83069" lon="2.36753">
        <ele>112</ele>
        <time>2015-02-23T21:02:16.222Z</time>
      </trkpt>
      <trkpt lat="48.83076" lon="2.36747">
        <ele>111.8</ele>
        <time>2015-02-23T21:02:18.238Z</time>
      </trkpt>
      <trkpt lat="48.8308" lon="2.36744">
        <ele>111.7</ele>
        <time>2015-02-23T21:02:19.253Z</time>
      </trkpt>
      <trkpt lat="48.83084" lon="2.3674">
        <ele>111.7</ele>
        <time>2015-02-23T21:02:20.254Z</time>
      </trkpt>
      <trkpt lat="48.83088" lon="2.36736">
        <ele>111.6</ele>
        <time>2015-02-23T21:02:21.270Z</time>
      </trkpt>
      <trkpt lat="48.83094" lon="2.36731">
        <ele>111.4</ele>
        <time>2015-02-23T21:02:22.191Z</time>
      </trkpt>
      <trkpt lat="48.83098" lon="2.36726">
        <ele>111.4</ele>
        <time>2015-02-23T21:02:23.206Z</time>
      </trkpt>
      <trkpt lat="48.83103" lon="2.36722">
        <ele>111.4</ele>
        <time>2015-02-23T21:02:24.259Z</time>
      </trkpt>
      <trkpt lat="48.83107" lon="2.36717">
        <ele>111.3</ele>
        <time>2015-02-23T21:02:25.237Z</time>
      </trkpt>
      <trkpt lat="48.83112" lon="2.36713">
        <ele>111.2</ele>
        <time>2015-02-23T21:02:26.736Z</time>
      </trkpt>
      <trkpt lat="48.83116" lon="2.36709">
        <ele>111.2</ele>
        <time>2015-02-23T21:02:27.262Z</time>
      </trkpt>
      <trkpt lat="48.8312" lon="2.36703">
        <ele>111</ele>
        <time>2015-02-23T21:02:28.268Z</time>
      </trkpt>
      <trkpt lat="48.83124" lon="2.36698">
        <ele>111</ele>
        <time>2015-02-23T21:02:29.183Z</time>
      </trkpt>
      <trkpt lat="48.83128" lon="2.36691">
        <ele>110</ele>
        <time>2015-02-23T21:02:30.224Z</time>
      </trkpt>
      <trkpt lat="48.83131" lon="2.36686">
        <ele>109.8</ele>
        <time>2015-02-23T21:02:31.235Z</time>
      </trkpt>
      <trkpt lat="48.83134" lon="2.3668">
        <ele>109.5</ele>
        <time>2015-02-23T21:02:32.240Z</time>
      </trkpt>
      <trkpt lat="48.83132" lon="2.36672">
        <ele>106.7</ele>
        <time>2015-02-23T21:02:33.248Z</time>
      </trkpt>
      <trkpt lat="48.83134" lon="2.36666">
        <ele>106.4</ele>
        <time>2015-02-23T21:02:34.170Z</time>
      </trkpt>
      <trkpt lat="48.83137" lon="2.36661">
        <ele>106.4</ele>
        <time>2015-02-23T21:02:35.180Z</time>
      </trkpt>
      <trkpt lat="48.83141" lon="2.36656">
        <ele>106.4</ele>
        <time>2015-02-23T21:02:36.221Z</time>
      </trkpt>
      <trkpt lat="48.83145" lon="2.36652">
        <ele>106.3</ele>
        <time>2015-02-23T21:02:37.219Z</time>
      </trkpt>
      <trkpt lat="48.83154" lon="2.36652">
        <ele>106.2</ele>
        <time>2015-02-23T21:02:40.264Z</time>
      </trkpt>
      <trkpt lat="48.83156" lon="2.36655">
        <ele>106.1</ele>
        <time>2015-02-23T21:02:41.159Z</time>
      </trkpt>
      <trkpt lat="48.83162" lon="2.36664">
        <ele>105.7</ele>
        <time>2015-02-23T21:02:43.218Z</time>
      </trkpt>
      <trkpt lat="48.83165" lon="2.36668">
        <ele>105.6</ele>
        <time>2015-02-23T21:02:44.233Z</time>
      </trkpt>
      <trkpt lat="48.83168" lon="2.36678">
        <ele>104.7</ele>
        <time>2015-02-23T21:02:46.279Z</time>
      </trkpt>
      <trkpt lat="48.83171" lon="2.36684">
        <ele>104.7</ele>
        <time>2015-02-23T21:02:47.174Z</time>
      </trkpt>
      <trkpt lat="48.83174" lon="2.3669">
        <ele>104.4</ele>
        <time>2015-02-23T21:02:48.204Z</time>
      </trkpt>
      <trkpt lat="48.83178" lon="2.36695">
        <ele>104.2</ele>
        <time>2015-02-23T21:02:49.207Z</time>
      </trkpt>
      <trkpt lat="48.83181" lon="2.367">
        <ele>104.2</ele>
        <time>2015-02-23T21:02:50.237Z</time>
      </trkpt>
      <trkpt lat="48.83185" lon="2.36706">
        <ele>104</ele>
        <time>2015-02-23T21:02:51.248Z</time>
      </trkpt>
      <trkpt lat="48.83188" lon="2.36711">
        <ele>104.1</ele>
        <time>2015-02-23T21:02:52.269Z</time>
      </trkpt>
      <trkpt lat="48.83192" lon="2.36716">
        <ele>104</ele>
        <time>2015-02-23T21:02:53.185Z</time>
      </trkpt>
      <trkpt lat="48.83195" lon="2.36721">
        <ele>103.8</ele>
        <time>2015-02-23T21:02:54.276Z</time>
      </trkpt>
      <trkpt lat="48.83199" lon="2.36726">
        <ele>103.5</ele>
        <time>2015-02-23T21:02:55.177Z</time>
      </trkpt>
      <trkpt lat="48.83205" lon="2.36736">
        <ele>102.7</ele>
        <time>2015-02-23T21:02:57.253Z</time>
      </trkpt>
      <trkpt lat="48.83208" lon="2.3674">
        <ele>102.4</ele>
        <time>2015-02-23T21:02:58.266Z</time>
      </trkpt>
      <trkpt lat="48.83211" lon="2.36744">
        <ele>101.9</ele>
        <time>2015-02-23T21:02:59.159Z</time>
      </trkpt>
      <trkpt lat="48.83211" lon="2.36754">
        <ele>100.7</ele>
        <time>2015-02-23T21:03:00.188Z</time>
      </trkpt>
      <trkpt lat="48.83217" lon="2.36763">
        <ele>100.2</ele>
        <time>2015-02-23T21:03:02.214Z</time>
      </trkpt>
      <trkpt lat="48.83219" lon="2.36767">
        <ele>100</ele>
        <time>2015-02-23T21:03:03.231Z</time>
      </trkpt>
      <trkpt lat="48.83223" lon="2.36777">
        <ele>99.4</ele>
        <time>2015-02-23T21:03:05.173Z</time>
      </trkpt>
      <trkpt lat="48.83225" lon="2.36781">
        <ele>99</ele>
        <time>2015-02-23T21:03:06.193Z</time>
      </trkpt>
      <trkpt lat="48.83229" lon="2.36786">
        <ele>98.1</ele>
        <time>2015-02-23T21:03:07.210Z</time>
      </trkpt>
      <trkpt lat="48.83232" lon="2.36793">
        <ele>96.9</ele>
        <time>2015-02-23T21:03:08.229Z</time>
      </trkpt>
      <trkpt lat="48.83235" lon="2.36799">
        <ele>96.3</ele>
        <time>2015-02-23T21:03:09.174Z</time>
      </trkpt>
      <trkpt lat="48.83239" lon="2.36804">
        <ele>95.7</ele>
        <time>2015-02-23T21:03:10.203Z</time>
      </trkpt>
      <trkpt lat="48.83242" lon="2.36809">
        <ele>95.5</ele>
        <time>2015-02-23T21:03:11.218Z</time>
      </trkpt>
      <trkpt lat="48.83246" lon="2.36814">
        <ele>95.2</ele>
        <time>2015-02-23T21:03:12.228Z</time>
      </trkpt>
      <trkpt lat="48.8325" lon="2.36819">
        <ele>94.9</ele>
        <time>2015-02-23T21:03:13.246Z</time>
      </trkpt>
      <trkpt lat="48.83254" lon="2.36824">
        <ele>94.5</ele>
        <time>2015-02-23T21:03:14.164Z</time>
      </trkpt>
      <trkpt lat="48.8326" lon="2.36834">
        <ele>94</ele>
        <time>2015-02-23T21:03:16.245Z</time>
      </trkpt>
      <trkpt lat="48.83264" lon="2.36839">
        <ele>93.5</ele>
        <time>2015-02-23T21:03:17.213Z</time>
      </trkpt>
      <trkpt lat="48.83267" lon="2.36843">
        <ele>93.2</ele>
        <time>2015-02-23T21:03:18.217Z</time>
      </trkpt>
      <trkpt lat="48.8327" lon="2.36849">
        <ele>92.9</ele>
        <time>2015-02-23T21:03:19.230Z</time>
      </trkpt>
      <trkpt lat="48.83273" lon="2.36854">
        <ele>92.6</ele>
        <time>2015-02-23T21:03:20.161Z</time>
      </trkpt>
      <trkpt lat="48.83277" lon="2.36859">
        <ele>92.4</ele>
        <time>2015-02-23T21:03:21.163Z</time>
      </trkpt>
      <trkpt lat="48.83281" lon="2.36865">
        <ele>92.3</ele>
        <time>2015-02-23T21:03:22.225Z</time>
      </trkpt>
      <trkpt lat="48.83285" lon="2.3687">
        <ele>92.3</ele>
        <time>2015-02-23T21:03:23.235Z</time>
      </trkpt>
      <trkpt lat="48.8329" lon="2.36875">
        <ele>92.1</ele>
        <time>2015-02-23T21:03:24.258Z</time>
      </trkpt>
      <trkpt lat="48.83294" lon="2.36879">
        <ele>91.9</ele>
        <time>2015-02-23T21:03:25.154Z</time>
      </trkpt>
      <trkpt lat="48.83298" lon="2.36884">
        <ele>91.8</ele>
        <time>2015-02-23T21:03:26.203Z</time>
      </trkpt>
      <trkpt lat="48.83301" lon="2.3689">
        <ele>91.7</ele>
        <time>2015-02-23T21:03:27.212Z</time>
      </trkpt>
      <trkpt lat="48.83307" lon="2.36895">
        <ele>91.6</ele>
        <time>2015-02-23T21:03:28.222Z</time>
      </trkpt>
      <trkpt lat="48.83313" lon="2.369">
        <ele>91.8</ele>
        <time>2015-02-23T21:03:29.227Z</time>
      </trkpt>
      <trkpt lat="48.83319" lon="2.36904">
        <ele>91.9</ele>
        <time>2015-02-23T21:03:30.183Z</time>
      </trkpt>
      <trkpt lat="48.83325" lon="2.36907">
        <ele>91.7</ele>
        <time>2015-02-23T21:03:31.200Z</time>
      </trkpt>
      <trkpt lat="48.83331" lon="2.3691">
        <ele>91.5</ele>
        <time>2015-02-23T21:03:32.147Z</time>
      </trkpt>
      <trkpt lat="48.83336" lon="2.36914">
        <ele>91.3</ele>
        <time>2015-02-23T21:03:33.166Z</time>
      </trkpt>
      <trkpt lat="48.83341" lon="2.36917">
        <ele>91.1</ele>
        <time>2015-02-23T21:03:34.169Z</time>
      </trkpt>
      <trkpt lat="48.83342" lon="2.36924">
        <ele>91</ele>
        <time>2015-02-23T21:03:35.177Z</time>
      </trkpt>
      <trkpt lat="48.83338" lon="2.36936">
        <ele>90.8</ele>
        <time>2015-02-23T21:03:36.197Z</time>
      </trkpt>
      <trkpt lat="48.83338" lon="2.36944">
        <ele>90.7</ele>
        <time>2015-02-23T21:03:37.204Z</time>
      </trkpt>
      <trkpt lat="48.83335" lon="2.36955">
        <ele>90.5</ele>
        <time>2015-02-23T21:03:38.221Z</time>
      </trkpt>
      <trkpt lat="48.83337" lon="2.36966">
        <ele>90.6</ele>
        <time>2015-02-23T21:03:40.185Z</time>
      </trkpt>
      <trkpt lat="48.83337" lon="2.36971">
        <ele>90.7</ele>
        <time>2015-02-23T21:03:41.213Z</time>
      </trkpt>
      <trkpt lat="48.83343" lon="2.36979">
        <ele>90.6</ele>
        <time>2015-02-23T21:03:44.227Z</time>
      </trkpt>
      <trkpt lat="48.83347" lon="2.36981">
        <ele>91.3</ele>
        <time>2015-02-23T21:03:45.259Z</time>
      </trkpt>
      <trkpt lat="48.83352" lon="2.36989">
        <ele>91.5</ele>
        <time>2015-02-23T21:03:47.266Z</time>
      </trkpt>
      <trkpt lat="48.83354" lon="2.36994">
        <ele>91.3</ele>
        <time>2015-02-23T21:03:48.329Z</time>
      </trkpt>
      <trkpt lat="48.83356" lon="2.37004">
        <ele>91.4</ele>
        <time>2015-02-23T21:03:50.175Z</time>
      </trkpt>
      <trkpt lat="48.83357" lon="2.37009">
        <ele>91.9</ele>
        <time>2015-02-23T21:03:51.183Z</time>
      </trkpt>
      <trkpt lat="48.8336" lon="2.37018">
        <ele>92.2</ele>
        <time>2015-02-23T21:03:54.282Z</time>
      </trkpt>
      <trkpt lat="48.83362" lon="2.37021">
        <ele>92.5</ele>
        <time>2015-02-23T21:03:55.200Z</time>
      </trkpt>
      <trkpt lat="48.83367" lon="2.37029">
        <ele>94</ele>
        <time>2015-02-23T21:03:59.271Z</time>
      </trkpt>
      <trkpt lat="48.83368" lon="2.37031">
        <ele>94.2</ele>
        <time>2015-02-23T21:04:00.329Z</time>
      </trkpt>
      <trkpt lat="48.8336" lon="2.37028">
        <ele>92.3</ele>
        <time>2015-02-23T21:04:14.231Z</time>
      </trkpt>
      <trkpt lat="48.83358" lon="2.37029">
        <ele>92.2</ele>
        <time>2015-02-23T21:04:15.323Z</time>
      </trkpt>
      <trkpt lat="48.83352" lon="2.37035">
        <ele>92.8</ele>
        <time>2015-02-23T21:04:19.267Z</time>
      </trkpt>
      <trkpt lat="48.8335" lon="2.37037">
        <ele>92.9</ele>
        <time>2015-02-23T21:04:20.323Z</time>
      </trkpt>
      <trkpt lat="48.83342" lon="2.37042">
        <ele>94.4</ele>
        <time>2015-02-23T21:04:25.235Z</time>
      </trkpt>
      <trkpt lat="48.8334" lon="2.37042">
        <ele>94.7</ele>
        <time>2015-02-23T21:04:26.269Z</time>
      </trkpt>
      <trkpt lat="48.83332" lon="2.37046">
        <ele>95.9</ele>
        <time>2015-02-23T21:04:33.227Z</time>
      </trkpt>
      <trkpt lat="48.83331" lon="2.37046">
        <ele>96</ele>
        <time>2015-02-23T21:04:34.237Z</time>
      </trkpt>
      <trkpt lat="48.83322" lon="2.37049">
        <ele>96.5</ele>
        <time>2015-02-23T21:04:38.193Z</time>
      </trkpt>
      <trkpt lat="48.83322" lon="2.3705">
        <ele>96.6</ele>
        <time>2015-02-23T21:04:39.193Z</time>
      </trkpt>
      <trkpt lat="48.83319" lon="2.37057">
        <ele>98</ele>
        <time>2015-02-23T21:04:43.184Z</time>
      </trkpt>
      <trkpt lat="48.83316" lon="2.37063">
        <ele>98.1</ele>
        <time>2015-02-23T21:04:44.227Z</time>
      </trkpt>
      <trkpt lat="48.83312" lon="2.37071">
        <ele>98.5</ele>
        <time>2015-02-23T21:04:46.172Z</time>
      </trkpt>
      <trkpt lat="48.8331" lon="2.37075">
        <ele>98.7</ele>
        <time>2015-02-23T21:04:47.189Z</time>
      </trkpt>
      <trkpt lat="48.83304" lon="2.37083">
        <ele>99.1</ele>
        <time>2015-02-23T21:04:49.208Z</time>
      </trkpt>
      <trkpt lat="48.83301" lon="2.37087">
        <ele>99.3</ele>
        <time>2015-02-23T21:04:50.260Z</time>
      </trkpt>
      <trkpt lat="48.83298" lon="2.37093">
        <ele>99.2</ele>
        <time>2015-02-23T21:04:51.168Z</time>
      </trkpt>
      <trkpt lat="48.83292" lon="2.37106">
        <ele>97.2</ele>
        <time>2015-02-23T21:04:52.172Z</time>
      </trkpt>
      <trkpt lat="48.83285" lon="2.37119">
        <ele>95.1</ele>
        <time>2015-02-23T21:04:53.179Z</time>
      </trkpt>
      <trkpt lat="48.83279" lon="2.37129">
        <ele>94</ele>
        <time>2015-02-23T21:04:54.204Z</time>
      </trkpt>
      <trkpt lat="48.83271" lon="2.37138">
        <ele>93.5</ele>
        <time>2015-02-23T21:04:55.198Z</time>
      </trkpt>
      <trkpt lat="48.83265" lon="2.37147">
        <ele>93.6</ele>
        <time>2015-02-23T21:04:56.252Z</time>
      </trkpt>
      <trkpt lat="48.83259" lon="2.37154">
        <ele>93.5</ele>
        <time>2015-02-23T21:04:57.169Z</time>
      </trkpt>
      <trkpt lat="48.83255" lon="2.37161">
        <ele>93.4</ele>
        <time>2015-02-23T21:04:58.168Z</time>
      </trkpt>
      <trkpt lat="48.8325" lon="2.37166">
        <ele>93.3</ele>
        <time>2015-02-23T21:04:59.170Z</time>
      </trkpt>
      <trkpt lat="48.83246" lon="2.37172">
        <ele>93.1</ele>
        <time>2015-02-23T21:05:00.191Z</time>
      </trkpt>
      <trkpt lat="48.83243" lon="2.37178">
        <ele>92.8</ele>
        <time>2015-02-23T21:05:01.229Z</time>
      </trkpt>
      <trkpt lat="48.83239" lon="2.37183">
        <ele>92.7</ele>
        <time>2015-02-23T21:05:02.234Z</time>
      </trkpt>
      <trkpt lat="48.83236" lon="2.37187">
        <ele>92.4</ele>
        <time>2015-02-23T21:05:03.181Z</time>
      </trkpt>
      <trkpt lat="48.83231" lon="2.37196">
        <ele>92</ele>
        <time>2015-02-23T21:05:05.183Z</time>
      </trkpt>
      <trkpt lat="48.83228" lon="2.372">
        <ele>92</ele>
        <time>2015-02-23T21:05:06.213Z</time>
      </trkpt>
      <trkpt lat="48.83223" lon="2.37208">
        <ele>92.2</ele>
        <time>2015-02-23T21:05:08.226Z</time>
      </trkpt>
      <trkpt lat="48.8322" lon="2.37213">
        <ele>92.5</ele>
        <time>2015-02-23T21:05:09.254Z</time>
      </trkpt>
      <trkpt lat="48.83215" lon="2.37221">
        <ele>92.6</ele>
        <time>2015-02-23T21:05:11.185Z</time>
      </trkpt>
      <trkpt lat="48.83213" lon="2.37225">
        <ele>92.7</ele>
        <time>2015-02-23T21:05:12.237Z</time>
      </trkpt>
      <trkpt lat="48.83208" lon="2.37235">
        <ele>92.8</ele>
        <time>2015-02-23T21:05:14.263Z</time>
      </trkpt>
      <trkpt lat="48.83205" lon="2.3724">
        <ele>92.8</ele>
        <time>2015-02-23T21:05:15.323Z</time>
      </trkpt>
      <trkpt lat="48.83201" lon="2.37248">
        <ele>92.7</ele>
        <time>2015-02-23T21:05:17.234Z</time>
      </trkpt>
      <trkpt lat="48.83199" lon="2.37254">
        <ele>92.9</ele>
        <time>2015-02-23T21:05:18.286Z</time>
      </trkpt>
      <trkpt lat="48.83194" lon="2.37263">
        <ele>92.8</ele>
        <time>2015-02-23T21:05:20.179Z</time>
      </trkpt>
      <trkpt lat="48.83192" lon="2.37267">
        <ele>92.7</ele>
        <time>2015-02-23T21:05:21.199Z</time>
      </trkpt>
      <trkpt lat="48.83187" lon="2.37276">
        <ele>92.8</ele>
        <time>2015-02-23T21:05:23.232Z</time>
      </trkpt>
      <trkpt lat="48.83186" lon="2.3728">
        <ele>93</ele>
        <time>2015-02-23T21:05:24.240Z</time>
      </trkpt>
      <trkpt lat="48.83181" lon="2.37288">
        <ele>93.5</ele>
        <time>2015-02-23T21:05:28.245Z</time>
      </trkpt>
      <trkpt lat="48.8318" lon="2.37291">
        <ele>93.6</ele>
        <time>2015-02-23T21:05:29.262Z</time>
      </trkpt>
      <trkpt lat="48.83177" lon="2.37297">
        <ele>93.6</ele>
        <time>2015-02-23T21:05:31.192Z</time>
      </trkpt>
      <trkpt lat="48.83174" lon="2.37303">
        <ele>93.5</ele>
        <time>2015-02-23T21:05:32.198Z</time>
      </trkpt>
      <trkpt lat="48.83171" lon="2.37309">
        <ele>93.4</ele>
        <time>2015-02-23T21:05:33.250Z</time>
      </trkpt>
      <trkpt lat="48.83168" lon="2.37315">
        <ele>92.8</ele>
        <time>2015-02-23T21:05:34.169Z</time>
      </trkpt>
      <trkpt lat="48.83165" lon="2.37321">
        <ele>92.6</ele>
        <time>2015-02-23T21:05:35.179Z</time>
      </trkpt>
      <trkpt lat="48.83162" lon="2.37327">
        <ele>92.3</ele>
        <time>2015-02-23T21:05:36.205Z</time>
      </trkpt>
      <trkpt lat="48.83159" lon="2.37333">
        <ele>92.2</ele>
        <time>2015-02-23T21:05:37.216Z</time>
      </trkpt>
      <trkpt lat="48.83156" lon="2.37339">
        <ele>92</ele>
        <time>2015-02-23T21:05:38.225Z</time>
      </trkpt>
      <trkpt lat="48.83153" lon="2.37346">
        <ele>91.8</ele>
        <time>2015-02-23T21:05:39.171Z</time>
      </trkpt>
      <trkpt lat="48.83149" lon="2.37351">
        <ele>91.6</ele>
        <time>2015-02-23T21:05:40.164Z</time>
      </trkpt>
      <trkpt lat="48.83146" lon="2.37356">
        <ele>91.5</ele>
        <time>2015-02-23T21:05:41.169Z</time>
      </trkpt>
      <trkpt lat="48.83143" lon="2.37362">
        <ele>91.2</ele>
        <time>2015-02-23T21:05:42.228Z</time>
      </trkpt>
      <trkpt lat="48.83141" lon="2.37367">
        <ele>91.1</ele>
        <time>2015-02-23T21:05:43.224Z</time>
      </trkpt>
      <trkpt lat="48.83138" lon="2.37372">
        <ele>90.9</ele>
        <time>2015-02-23T21:05:44.240Z</time>
      </trkpt>
      <trkpt lat="48.83135" lon="2.37378">
        <ele>90.9</ele>
        <time>2015-02-23T21:05:45.269Z</time>
      </trkpt>
      <trkpt lat="48.83132" lon="2.37384">
        <ele>90.9</ele>
        <time>2015-02-23T21:05:46.176Z</time>
      </trkpt>
      <trkpt lat="48.83128" lon="2.37389">
        <ele>90.8</ele>
        <time>2015-02-23T21:05:47.179Z</time>
      </trkpt>
      <trkpt lat="48.83125" lon="2.37394">
        <ele>90.7</ele>
        <time>2015-02-23T21:05:48.321Z</time>
      </trkpt>
      <trkpt lat="48.8312" lon="2.37403">
        <ele>90.4</ele>
        <time>2015-02-23T21:05:50.178Z</time>
      </trkpt>
      <trkpt lat="48.83117" lon="2.37407">
        <ele>90.2</ele>
        <time>2015-02-23T21:05:51.325Z</time>
      </trkpt>
      <trkpt lat="48.83113" lon="2.37416">
        <ele>90.2</ele>
        <time>2015-02-23T21:05:53.233Z</time>
      </trkpt>
      <trkpt lat="48.83111" lon="2.3742">
        <ele>90.1</ele>
        <time>2015-02-23T21:05:54.240Z</time>
      </trkpt>
      <trkpt lat="48.83106" lon="2.37431">
        <ele>89.8</ele>
        <time>2015-02-23T21:05:57.413Z</time>
      </trkpt>
      <trkpt lat="48.83104" lon="2.37434">
        <ele>89.9</ele>
        <time>2015-02-23T21:05:58.224Z</time>
      </trkpt>
      <trkpt lat="48.83104" lon="2.37443">
        <ele>90.9</ele>
        <time>2015-02-23T21:06:40.187Z</time>
      </trkpt>
      <trkpt lat="48.83104" lon="2.37443">
        <ele>91.2</ele>
        <time>2015-02-23T21:06:41.187Z</time>
      </trkpt>
      <trkpt lat="48.83104" lon="2.37443">
        <ele>91.5</ele>
        <time>2015-02-23T21:06:47.472Z</time>
      </trkpt>
      <trkpt lat="48.83105" lon="2.37442">
        <ele>91.8</ele>
        <time>2015-02-23T21:06:48.265Z</time>
      </trkpt>
      <trkpt lat="48.83105" lon="2.37441">
        <ele>91.8</ele>
        <time>2015-02-23T21:06:52.603Z</time>
      </trkpt>
      <trkpt lat="48.83105" lon="2.37441">
        <ele>91.9</ele>
        <time>2015-02-23T21:06:53.263Z</time>
      </trkpt>
      <trkpt lat="48.83105" lon="2.37441">
        <ele>92</ele>
        <time>2015-02-23T21:06:54.279Z</time>
      </trkpt>
      <trkpt lat="48.83104" lon="2.3744">
        <ele>92.4</ele>
        <time>2015-02-23T21:06:59.260Z</time>
      </trkpt>
      <trkpt lat="48.83104" lon="2.3744">
        <ele>92.5</ele>
        <time>2015-02-23T21:07:00.279Z</time>
      </trkpt>
      <trkpt lat="48.83105" lon="2.37441">
        <ele>92.5</ele>
        <time>2015-02-23T21:07:01.181Z</time>
      </trkpt>
      <trkpt lat="48.8311" lon="2.3745">
        <ele>94</ele>
        <time>2015-02-23T21:07:31.197Z</time>
      </trkpt>
      <trkpt lat="48.8311" lon="2.37452">
        <ele>94</ele>
        <time>2015-02-23T21:07:32.227Z</time>
      </trkpt>
      <trkpt lat="48.83114" lon="2.37458">
        <ele>94.8</ele>
        <time>2015-02-23T21:07:39.234Z</time>
      </trkpt>
      <trkpt lat="48.83115" lon="2.37459">
        <ele>95</ele>
        <time>2015-02-23T21:07:40.249Z</time>
      </trkpt>
      <trkpt lat="48.83115" lon="2.37459">
        <ele>95.2</ele>
        <time>2015-02-23T21:07:42.498Z</time>
      </trkpt>
      <trkpt lat="48.83116" lon="2.3746">
        <ele>95.2</ele>
        <time>2015-02-23T21:07:43.196Z</time>
      </trkpt>
      <trkpt lat="48.83117" lon="2.37471">
        <ele>95.7</ele>
        <time>2015-02-23T21:07:47.472Z</time>
      </trkpt>
      <trkpt lat="48.83118" lon="2.37474">
        <ele>95.8</ele>
        <time>2015-02-23T21:07:48.275Z</time>
      </trkpt>
      <trkpt lat="48.83118" lon="2.37487">
        <ele>95.6</ele>
        <time>2015-02-23T21:07:53.227Z</time>
      </trkpt>
      <trkpt lat="48.83115" lon="2.37488">
        <ele>94.7</ele>
        <time>2015-02-23T21:07:54.298Z</time>
      </trkpt>
      <trkpt lat="48.83108" lon="2.37493">
        <ele>92.5</ele>
        <time>2015-02-23T21:07:57.551Z</time>
      </trkpt>
      <trkpt lat="48.83107" lon="2.37495">
        <ele>92.9</ele>
        <time>2015-02-23T21:07:58.203Z</time>
      </trkpt>
      <trkpt lat="48.83104" lon="2.37498">
        <ele>93.8</ele>
        <time>2015-02-23T21:08:00.221Z</time>
      </trkpt>
      <trkpt lat="48.83089" lon="2.37512">
        <ele>93.7</ele>
        <time>2015-02-23T21:08:06.356Z</time>
      </trkpt>
      <trkpt lat="48.83082" lon="2.37519">
        <ele>93.9</ele>
        <time>2015-02-23T21:08:09.217Z</time>
      </trkpt>
      <trkpt lat="48.83079" lon="2.37522">
        <ele>94</ele>
        <time>2015-02-23T21:08:10.237Z</time>
      </trkpt>
      <trkpt lat="48.83073" lon="2.37528">
        <ele>94.8</ele>
        <time>2015-02-23T21:08:13.195Z</time>
      </trkpt>
      <trkpt lat="48.8307" lon="2.37529">
        <ele>95.5</ele>
        <time>2015-02-23T21:08:14.218Z</time>
      </trkpt>
      <trkpt lat="48.83064" lon="2.3753">
        <ele>96.8</ele>
        <time>2015-02-23T21:08:16.733Z</time>
      </trkpt>
      <trkpt lat="48.83061" lon="2.37529">
        <ele>97.5</ele>
        <time>2015-02-23T21:08:17.285Z</time>
      </trkpt>
      <trkpt lat="48.83054" lon="2.37529">
        <ele>98.4</ele>
        <time>2015-02-23T21:08:19.174Z</time>
      </trkpt>
      <trkpt lat="48.83051" lon="2.3753">
        <ele>98.8</ele>
        <time>2015-02-23T21:08:20.221Z</time>
      </trkpt>
      <trkpt lat="48.83045" lon="2.37535">
        <ele>99.9</ele>
        <time>2015-02-23T21:08:23.284Z</time>
      </trkpt>
      <trkpt lat="48.83043" lon="2.37538">
        <ele>100.6</ele>
        <time>2015-02-23T21:08:24.292Z</time>
      </trkpt>
      <trkpt lat="48.83037" lon="2.37548">
        <ele>101</ele>
        <time>2015-02-23T21:08:26.270Z</time>
      </trkpt>
      <trkpt lat="48.8303" lon="2.37552">
        <ele>102</ele>
        <time>2015-02-23T21:08:27.177Z</time>
      </trkpt>
      <trkpt lat="48.83024" lon="2.37557">
        <ele>103</ele>
        <time>2015-02-23T21:08:29.190Z</time>
      </trkpt>
      <trkpt lat="48.83019" lon="2.37562">
        <ele>104.1</ele>
        <time>2015-02-23T21:08:30.225Z</time>
      </trkpt>
      <trkpt lat="48.83023" lon="2.37574">
        <ele>101.7</ele>
        <time>2015-02-23T21:08:34.227Z</time>
      </trkpt>
      <trkpt lat="48.83024" lon="2.37577">
        <ele>100.8</ele>
        <time>2015-02-23T21:08:35.241Z</time>
      </trkpt>
      <trkpt lat="48.83029" lon="2.37587">
        <ele>99.8</ele>
        <time>2015-02-23T21:08:38.249Z</time>
      </trkpt>
      <trkpt lat="48.83032" lon="2.37589">
        <ele>99.4</ele>
        <time>2015-02-23T21:08:39.257Z</time>
      </trkpt>
      <trkpt lat="48.83037" lon="2.37597">
        <ele>98.5</ele>
        <time>2015-02-23T21:08:42.344Z</time>
      </trkpt>
      <trkpt lat="48.83039" lon="2.376">
        <ele>98.3</ele>
        <time>2015-02-23T21:08:43.200Z</time>
      </trkpt>
      <trkpt lat="48.83044" lon="2.37606">
        <ele>98.2</ele>
        <time>2015-02-23T21:08:45.235Z</time>
      </trkpt>
      <trkpt lat="48.83047" lon="2.37609">
        <ele>98.1</ele>
        <time>2015-02-23T21:08:46.257Z</time>
      </trkpt>
      <trkpt lat="48.83052" lon="2.37617">
        <ele>97.6</ele>
        <time>2015-02-23T21:08:49.288Z</time>
      </trkpt>
      <trkpt lat="48.83053" lon="2.3762">
        <ele>97.3</ele>
        <time>2015-02-23T21:08:50.197Z</time>
      </trkpt>
      <trkpt lat="48.83059" lon="2.3763">
        <ele>97.3</ele>
        <time>2015-02-23T21:08:53.223Z</time>
      </trkpt>
      <trkpt lat="48.83061" lon="2.37633">
        <ele>97.5</ele>
        <time>2015-02-23T21:08:54.236Z</time>
      </trkpt>
      <trkpt lat="48.83067" lon="2.37638">
        <ele>97.4</ele>
        <time>2015-02-23T21:08:57.543Z</time>
      </trkpt>
      <trkpt lat="48.8307" lon="2.37639">
        <ele>97.3</ele>
        <time>2015-02-23T21:08:58.166Z</time>
      </trkpt>
      <trkpt lat="48.83072" lon="2.37652">
        <ele>97.9</ele>
        <time>2015-02-23T21:09:01.289Z</time>
      </trkpt>
      <trkpt lat="48.83074" lon="2.37655">
        <ele>98.2</ele>
        <time>2015-02-23T21:09:02.188Z</time>
      </trkpt>
      <trkpt lat="48.8308" lon="2.37664">
        <ele>100.8</ele>
        <time>2015-02-23T21:09:09.242Z</time>
      </trkpt>
      <trkpt lat="48.83081" lon="2.37666">
        <ele>101.1</ele>
        <time>2015-02-23T21:09:10.256Z</time>
      </trkpt>
      <trkpt lat="48.83085" lon="2.37676">
        <ele>101.7</ele>
        <time>2015-02-23T21:09:13.246Z</time>
      </trkpt>
      <trkpt lat="48.83087" lon="2.3768">
        <ele>101.7</ele>
        <time>2015-02-23T21:09:14.271Z</time>
      </trkpt>
      <trkpt lat="48.83092" lon="2.37687">
        <ele>101.9</ele>
        <time>2015-02-23T21:09:16.728Z</time>
      </trkpt>
      <trkpt lat="48.83093" lon="2.37691">
        <ele>102</ele>
        <time>2015-02-23T21:09:17.216Z</time>
      </trkpt>
      <trkpt lat="48.83096" lon="2.37699">
        <ele>102.3</ele>
        <time>2015-02-23T21:09:19.238Z</time>
      </trkpt>
      <trkpt lat="48.83097" lon="2.37703">
        <ele>102.4</ele>
        <time>2015-02-23T21:09:20.248Z</time>
      </trkpt>
      <trkpt lat="48.83103" lon="2.37714">
        <ele>102.7</ele>
        <time>2015-02-23T21:09:23.342Z</time>
      </trkpt>
      <trkpt lat="48.83104" lon="2.37717">
        <ele>103</ele>
        <time>2015-02-23T21:09:24.235Z</time>
      </trkpt>
      <trkpt lat="48.8311" lon="2.37727">
        <ele>103.2</ele>
        <time>2015-02-23T21:09:27.292Z</time>
      </trkpt>
      <trkpt lat="48.83115" lon="2.3773">
        <ele>103.5</ele>
        <time>2015-02-23T21:09:28.276Z</time>
      </trkpt>
      <trkpt lat="48.83118" lon="2.37736">
        <ele>103.5</ele>
        <time>2015-02-23T21:09:29.230Z</time>
      </trkpt>
      <trkpt lat="48.83122" lon="2.37741">
        <ele>103.6</ele>
        <time>2015-02-23T21:09:30.243Z</time>
      </trkpt>
      <trkpt lat="48.83126" lon="2.37745">
        <ele>103.8</ele>
        <time>2015-02-23T21:09:31.930Z</time>
      </trkpt>
      <trkpt lat="48.83129" lon="2.3775">
        <ele>104.1</ele>
        <time>2015-02-23T21:09:32.249Z</time>
      </trkpt>
      <trkpt lat="48.83132" lon="2.37755">
        <ele>104</ele>
        <time>2015-02-23T21:09:33.255Z</time>
      </trkpt>
      <trkpt lat="48.83135" lon="2.3776">
        <ele>104</ele>
        <time>2015-02-23T21:09:34.264Z</time>
      </trkpt>
      <trkpt lat="48.83139" lon="2.37765">
        <ele>104.1</ele>
        <time>2015-02-23T21:09:35.294Z</time>
      </trkpt>
      <trkpt lat="48.83142" lon="2.3777">
        <ele>104</ele>
        <time>2015-02-23T21:09:36.310Z</time>
      </trkpt>
      <trkpt lat="48.83145" lon="2.37776">
        <ele>103.8</ele>
        <time>2015-02-23T21:09:37.193Z</time>
      </trkpt>
      <trkpt lat="48.83148" lon="2.37782">
        <ele>103.7</ele>
        <time>2015-02-23T21:09:38.227Z</time>
      </trkpt>
      <trkpt lat="48.83151" lon="2.37787">
        <ele>103.6</ele>
        <time>2015-02-23T21:09:39.246Z</time>
      </trkpt>
      <trkpt lat="48.83154" lon="2.37792">
        <ele>103.5</ele>
        <time>2015-02-23T21:09:40.266Z</time>
      </trkpt>
      <trkpt lat="48.83157" lon="2.378">
        <ele>103.4</ele>
        <time>2015-02-23T21:09:42.284Z</time>
      </trkpt>
      <trkpt lat="48.83157" lon="2.37805">
        <ele>103.1</ele>
        <time>2015-02-23T21:09:43.306Z</time>
      </trkpt>
      <trkpt lat="48.8316" lon="2.37815">
        <ele>102.6</ele>
        <time>2015-02-23T21:09:45.205Z</time>
      </trkpt>
      <trkpt lat="48.83162" lon="2.37821">
        <ele>102.3</ele>
        <time>2015-02-23T21:09:46.229Z</time>
      </trkpt>
      <trkpt lat="48.83165" lon="2.37827">
        <ele>102</ele>
        <time>2015-02-23T21:09:47.261Z</time>
      </trkpt>
      <trkpt lat="48.83168" lon="2.37833">
        <ele>101.7</ele>
        <time>2015-02-23T21:09:48.271Z</time>
      </trkpt>
      <trkpt lat="48.83171" lon="2.3784">
        <ele>101.6</ele>
        <time>2015-02-23T21:09:49.166Z</time>
      </trkpt>
      <trkpt lat="48.83173" lon="2.37845">
        <ele>101.3</ele>
        <time>2015-02-23T21:09:50.193Z</time>
      </trkpt>
      <trkpt lat="48.83178" lon="2.37855">
        <ele>101.1</ele>
        <time>2015-02-23T21:09:52.148Z</time>
      </trkpt>
      <trkpt lat="48.83181" lon="2.37862">
        <ele>100.6</ele>
        <time>2015-02-23T21:09:53.229Z</time>
      </trkpt>
      <trkpt lat="48.83183" lon="2.37868">
        <ele>100.3</ele>
        <time>2015-02-23T21:09:54.259Z</time>
      </trkpt>
      <trkpt lat="48.83186" lon="2.37874">
        <ele>99.9</ele>
        <time>2015-02-23T21:09:55.270Z</time>
      </trkpt>
      <trkpt lat="48.83189" lon="2.3788">
        <ele>99.7</ele>
        <time>2015-02-23T21:09:56.180Z</time>
      </trkpt>
      <trkpt lat="48.83192" lon="2.37887">
        <ele>99.5</ele>
        <time>2015-02-23T21:09:57.185Z</time>
      </trkpt>
      <trkpt lat="48.83195" lon="2.37893">
        <ele>99.4</ele>
        <time>2015-02-23T21:09:58.199Z</time>
      </trkpt>
      <trkpt lat="48.83199" lon="2.37899">
        <ele>99.4</ele>
        <time>2015-02-23T21:09:59.213Z</time>
      </trkpt>
      <trkpt lat="48.83202" lon="2.37905">
        <ele>99.5</ele>
        <time>2015-02-23T21:10:00.325Z</time>
      </trkpt>
      <trkpt lat="48.83205" lon="2.37911">
        <ele>99.5</ele>
        <time>2015-02-23T21:10:01.183Z</time>
      </trkpt>
      <trkpt lat="48.83209" lon="2.37916">
        <ele>99.4</ele>
        <time>2015-02-23T21:10:02.189Z</time>
      </trkpt>
      <trkpt lat="48.83212" lon="2.37922">
        <ele>99.4</ele>
        <time>2015-02-23T21:10:03.206Z</time>
      </trkpt>
      <trkpt lat="48.83215" lon="2.37929">
        <ele>99.4</ele>
        <time>2015-02-23T21:10:04.230Z</time>
      </trkpt>
      <trkpt lat="48.83219" lon="2.37935">
        <ele>99.2</ele>
        <time>2015-02-23T21:10:05.262Z</time>
      </trkpt>
      <trkpt lat="48.83222" lon="2.3794">
        <ele>99.1</ele>
        <time>2015-02-23T21:10:06.274Z</time>
      </trkpt>
      <trkpt lat="48.83225" lon="2.37945">
        <ele>99</ele>
        <time>2015-02-23T21:10:07.197Z</time>
      </trkpt>
      <trkpt lat="48.83228" lon="2.37951">
        <ele>98.8</ele>
        <time>2015-02-23T21:10:08.213Z</time>
      </trkpt>
      <trkpt lat="48.83231" lon="2.37957">
        <ele>98.6</ele>
        <time>2015-02-23T21:10:09.227Z</time>
      </trkpt>
      <trkpt lat="48.83234" lon="2.37969">
        <ele>98.4</ele>
        <time>2015-02-23T21:10:11.256Z</time>
      </trkpt>
      <trkpt lat="48.83235" lon="2.37975">
        <ele>98.3</ele>
        <time>2015-02-23T21:10:12.265Z</time>
      </trkpt>
      <trkpt lat="48.83231" lon="2.37987">
        <ele>97.7</ele>
        <time>2015-02-23T21:10:16.203Z</time>
      </trkpt>
      <trkpt lat="48.83228" lon="2.37988">
        <ele>97.2</ele>
        <time>2015-02-23T21:10:17.198Z</time>
      </trkpt>
      <trkpt lat="48.83235" lon="2.37996">
        <ele>96.2</ele>
        <time>2015-02-23T21:10:37.163Z</time>
      </trkpt>
      <trkpt lat="48.83238" lon="2.38">
        <ele>95.9</ele>
        <time>2015-02-23T21:10:38.197Z</time>
      </trkpt>
      <trkpt lat="48.83243" lon="2.3801">
        <ele>95.4</ele>
        <time>2015-02-23T21:10:40.236Z</time>
      </trkpt>
      <trkpt lat="48.83246" lon="2.38016">
        <ele>95.1</ele>
        <time>2015-02-23T21:10:41.249Z</time>
      </trkpt>
      <trkpt lat="48.8325" lon="2.38027">
        <ele>94.7</ele>
        <time>2015-02-23T21:10:43.190Z</time>
      </trkpt>
      <trkpt lat="48.83253" lon="2.38032">
        <ele>94.7</ele>
        <time>2015-02-23T21:10:44.286Z</time>
      </trkpt>
      <trkpt lat="48.83255" lon="2.38038">
        <ele>94.6</ele>
        <time>2015-02-23T21:10:45.228Z</time>
      </trkpt>
      <trkpt lat="48.83257" lon="2.38044">
        <ele>94.2</ele>
        <time>2015-02-23T21:10:46.232Z</time>
      </trkpt>
      <trkpt lat="48.8326" lon="2.3805">
        <ele>94.1</ele>
        <time>2015-02-23T21:10:47.262Z</time>
      </trkpt>
      <trkpt lat="48.83263" lon="2.38056">
        <ele>93.9</ele>
        <time>2015-02-23T21:10:48.224Z</time>
      </trkpt>
      <trkpt lat="48.83266" lon="2.38062">
        <ele>93.7</ele>
        <time>2015-02-23T21:10:49.170Z</time>
      </trkpt>
      <trkpt lat="48.83269" lon="2.38068">
        <ele>93.5</ele>
        <time>2015-02-23T21:10:50.171Z</time>
      </trkpt>
      <trkpt lat="48.83272" lon="2.38074">
        <ele>93.5</ele>
        <time>2015-02-23T21:10:51.187Z</time>
      </trkpt>
      <trkpt lat="48.83275" lon="2.3808">
        <ele>93.5</ele>
        <time>2015-02-23T21:10:52.198Z</time>
      </trkpt>
      <trkpt lat="48.83278" lon="2.38086">
        <ele>93.4</ele>
        <time>2015-02-23T21:10:53.206Z</time>
      </trkpt>
      <trkpt lat="48.83281" lon="2.38091">
        <ele>93.4</ele>
        <time>2015-02-23T21:10:54.310Z</time>
      </trkpt>
      <trkpt lat="48.83285" lon="2.38097">
        <ele>93.4</ele>
        <time>2015-02-23T21:10:55.213Z</time>
      </trkpt>
      <trkpt lat="48.83288" lon="2.38102">
        <ele>93.5</ele>
        <time>2015-02-23T21:10:56.206Z</time>
      </trkpt>
      <trkpt lat="48.83291" lon="2.38108">
        <ele>93.4</ele>
        <time>2015-02-23T21:10:57.246Z</time>
      </trkpt>
      <trkpt lat="48.83294" lon="2.38113">
        <ele>93.4</ele>
        <time>2015-02-23T21:10:58.245Z</time>
      </trkpt>
      <trkpt lat="48.83297" lon="2.38119">
        <ele>93.3</ele>
        <time>2015-02-23T21:10:59.356Z</time>
      </trkpt>
      <trkpt lat="48.833" lon="2.38125">
        <ele>93.3</ele>
        <time>2015-02-23T21:11:00.230Z</time>
      </trkpt>
      <trkpt lat="48.83304" lon="2.38131">
        <ele>93.2</ele>
        <time>2015-02-23T21:11:01.264Z</time>
      </trkpt>
      <trkpt lat="48.83307" lon="2.38137">
        <ele>93.2</ele>
        <time>2015-02-23T21:11:02.229Z</time>
      </trkpt>
      <trkpt lat="48.8331" lon="2.38143">
        <ele>93</ele>
        <time>2015-02-23T21:11:03.252Z</time>
      </trkpt>
      <trkpt lat="48.83313" lon="2.38149">
        <ele>92.9</ele>
        <time>2015-02-23T21:11:04.261Z</time>
      </trkpt>
      <trkpt lat="48.83316" lon="2.38155">
        <ele>92.8</ele>
        <time>2015-02-23T21:11:05.180Z</time>
      </trkpt>
      <trkpt lat="48.83319" lon="2.38161">
        <ele>92.6</ele>
        <time>2015-02-23T21:11:06.283Z</time>
      </trkpt>
      <trkpt lat="48.83322" lon="2.38167">
        <ele>92.5</ele>
        <time>2015-02-23T21:11:07.179Z</time>
      </trkpt>
      <trkpt lat="48.83326" lon="2.38173">
        <ele>92.2</ele>
        <time>2015-02-23T21:11:08.190Z</time>
      </trkpt>
      <trkpt lat="48.83329" lon="2.38179">
        <ele>91.9</ele>
        <time>2015-02-23T21:11:09.206Z</time>
      </trkpt>
      <trkpt lat="48.83332" lon="2.38184">
        <ele>91.4</ele>
        <time>2015-02-23T21:11:10.215Z</time>
      </trkpt>
      <trkpt lat="48.83335" lon="2.3819">
        <ele>91.2</ele>
        <time>2015-02-23T21:11:11.222Z</time>
      </trkpt>
      <trkpt lat="48.83338" lon="2.38195">
        <ele>91.1</ele>
        <time>2015-02-23T21:11:12.231Z</time>
      </trkpt>
      <trkpt lat="48.83343" lon="2.38205">
        <ele>90.7</ele>
        <time>2015-02-23T21:11:14.262Z</time>
      </trkpt>
      <trkpt lat="48.83345" lon="2.38209">
        <ele>90.7</ele>
        <time>2015-02-23T21:11:15.287Z</time>
      </trkpt>
      <trkpt lat="48.8335" lon="2.38218">
        <ele>90.4</ele>
        <time>2015-02-23T21:11:17.201Z</time>
      </trkpt>
      <trkpt lat="48.83352" lon="2.38222">
        <ele>90.4</ele>
        <time>2015-02-23T21:11:18.336Z</time>
      </trkpt>
      <trkpt lat="48.83357" lon="2.38231">
        <ele>90.1</ele>
        <time>2015-02-23T21:11:20.182Z</time>
      </trkpt>
      <trkpt lat="48.8336" lon="2.38236">
        <ele>89.9</ele>
        <time>2015-02-23T21:11:21.263Z</time>
      </trkpt>
      <trkpt lat="48.83365" lon="2.38245">
        <ele>89.9</ele>
        <time>2015-02-23T21:11:23.180Z</time>
      </trkpt>
      <trkpt lat="48.83367" lon="2.3825">
        <ele>89.7</ele>
        <time>2015-02-23T21:11:24.234Z</time>
      </trkpt>
      <trkpt lat="48.83371" lon="2.38256">
        <ele>90.1</ele>
        <time>2015-02-23T21:11:26.263Z</time>
      </trkpt>
      <trkpt lat="48.83376" lon="2.38259">
        <ele>91.6</ele>
        <time>2015-02-23T21:11:27.278Z</time>
      </trkpt>
      <trkpt lat="48.83381" lon="2.38269">
        <ele>91.3</ele>
        <time>2015-02-23T21:11:30.335Z</time>
      </trkpt>
      <trkpt lat="48.83383" lon="2.38273">
        <ele>91.1</ele>
        <time>2015-02-23T21:11:31.237Z</time>
      </trkpt>
      <trkpt lat="48.83387" lon="2.38283">
        <ele>90.8</ele>
        <time>2015-02-23T21:11:33.182Z</time>
      </trkpt>
      <trkpt lat="48.83389" lon="2.38288">
        <ele>90.4</ele>
        <time>2015-02-23T21:11:34.203Z</time>
      </trkpt>
      <trkpt lat="48.8339" lon="2.38297">
        <ele>89.6</ele>
        <time>2015-02-23T21:11:36.291Z</time>
      </trkpt>
      <trkpt lat="48.83391" lon="2.38302">
        <ele>89.5</ele>
        <time>2015-02-23T21:11:37.256Z</time>
      </trkpt>
      <trkpt lat="48.83395" lon="2.38313">
        <ele>88.5</ele>
        <time>2015-02-23T21:11:40.248Z</time>
      </trkpt>
      <trkpt lat="48.83396" lon="2.38319">
        <ele>88.5</ele>
        <time>2015-02-23T21:11:41.211Z</time>
      </trkpt>
      <trkpt lat="48.83399" lon="2.38332">
        <ele>88.3</ele>
        <time>2015-02-23T21:11:43.233Z</time>
      </trkpt>
      <trkpt lat="48.834" lon="2.38338">
        <ele>88.1</ele>
        <time>2015-02-23T21:11:44.249Z</time>
      </trkpt>
      <trkpt lat="48.83403" lon="2.38344">
        <ele>88</ele>
        <time>2015-02-23T21:11:45.166Z</time>
      </trkpt>
      <trkpt lat="48.83409" lon="2.3835">
        <ele>87.8</ele>
        <time>2015-02-23T21:11:46.164Z</time>
      </trkpt>
      <trkpt lat="48.83412" lon="2.38356">
        <ele>87.7</ele>
        <time>2015-02-23T21:11:47.174Z</time>
      </trkpt>
      <trkpt lat="48.83414" lon="2.38361">
        <ele>87.6</ele>
        <time>2015-02-23T21:11:48.230Z</time>
      </trkpt>
      <trkpt lat="48.83416" lon="2.38368">
        <ele>87.4</ele>
        <time>2015-02-23T21:11:49.264Z</time>
      </trkpt>
      <trkpt lat="48.83419" lon="2.38373">
        <ele>87.3</ele>
        <time>2015-02-23T21:11:50.177Z</time>
      </trkpt>
      <trkpt lat="48.83423" lon="2.38379">
        <ele>87.3</ele>
        <time>2015-02-23T21:11:51.194Z</time>
      </trkpt>
      <trkpt lat="48.83427" lon="2.38385">
        <ele>87.2</ele>
        <time>2015-02-23T21:11:52.277Z</time>
      </trkpt>
      <trkpt lat="48.83431" lon="2.38391">
        <ele>87.1</ele>
        <time>2015-02-23T21:11:53.256Z</time>
      </trkpt>
      <trkpt lat="48.83433" lon="2.38396">
        <ele>87</ele>
        <time>2015-02-23T21:11:54.290Z</time>
      </trkpt>
      <trkpt lat="48.83436" lon="2.38409">
        <ele>86.6</ele>
        <time>2015-02-23T21:11:56.224Z</time>
      </trkpt>
      <trkpt lat="48.8344" lon="2.38414">
        <ele>86.6</ele>
        <time>2015-02-23T21:11:57.239Z</time>
      </trkpt>
      <trkpt lat="48.83443" lon="2.38421">
        <ele>86.5</ele>
        <time>2015-02-23T21:11:58.244Z</time>
      </trkpt>
      <trkpt lat="48.83446" lon="2.38426">
        <ele>86.5</ele>
        <time>2015-02-23T21:11:59.422Z</time>
      </trkpt>
      <trkpt lat="48.8345" lon="2.38431">
        <ele>86.7</ele>
        <time>2015-02-23T21:12:00.290Z</time>
      </trkpt>
      <trkpt lat="48.83453" lon="2.38436">
        <ele>86.9</ele>
        <time>2015-02-23T21:12:01.246Z</time>
      </trkpt>
      <trkpt lat="48.83457" lon="2.38447">
        <ele>87.1</ele>
        <time>2015-02-23T21:12:03.602Z</time>
      </trkpt>
      <trkpt lat="48.83459" lon="2.38453">
        <ele>87.2</ele>
        <time>2015-02-23T21:12:04.295Z</time>
      </trkpt>
      <trkpt lat="48.83462" lon="2.38458">
        <ele>87.3</ele>
        <time>2015-02-23T21:12:05.198Z</time>
      </trkpt>
      <trkpt lat="48.83465" lon="2.38464">
        <ele>87.3</ele>
        <time>2015-02-23T21:12:06.245Z</time>
      </trkpt>
      <trkpt lat="48.83469" lon="2.3847">
        <ele>87.2</ele>
        <time>2015-02-23T21:12:07.245Z</time>
      </trkpt>
      <trkpt lat="48.83475" lon="2.38475">
        <ele>86.9</ele>
        <time>2015-02-23T21:12:08.239Z</time>
      </trkpt>
      <trkpt lat="48.8348" lon="2.38482">
        <ele>86.8</ele>
        <time>2015-02-23T21:12:09.261Z</time>
      </trkpt>
      <trkpt lat="48.83487" lon="2.38488">
        <ele>86.7</ele>
        <time>2015-02-23T21:12:10.157Z</time>
      </trkpt>
      <trkpt lat="48.83494" lon="2.38494">
        <ele>86.5</ele>
        <time>2015-02-23T21:12:11.230Z</time>
      </trkpt>
      <trkpt lat="48.83499" lon="2.38499">
        <ele>86.5</ele>
        <time>2015-02-23T21:12:12.185Z</time>
      </trkpt>
      <trkpt lat="48.83504" lon="2.38505">
        <ele>86.5</ele>
        <time>2015-02-23T21:12:13.728Z</time>
      </trkpt>
      <trkpt lat="48.83507" lon="2.3851">
        <ele>86.5</ele>
        <time>2015-02-23T21:12:14.211Z</time>
      </trkpt>
      <trkpt lat="48.8351" lon="2.38516">
        <ele>86.6</ele>
        <time>2015-02-23T21:12:15.226Z</time>
      </trkpt>
      <trkpt lat="48.83514" lon="2.38523">
        <ele>86.3</ele>
        <time>2015-02-23T21:12:16.292Z</time>
      </trkpt>
      <trkpt lat="48.83519" lon="2.3853">
        <ele>86.1</ele>
        <time>2015-02-23T21:12:17.200Z</time>
      </trkpt>
      <trkpt lat="48.83525" lon="2.38537">
        <ele>86</ele>
        <time>2015-02-23T21:12:18.214Z</time>
      </trkpt>
      <trkpt lat="48.8353" lon="2.38544">
        <ele>86</ele>
        <time>2015-02-23T21:12:19.230Z</time>
      </trkpt>
      <trkpt lat="48.83536" lon="2.38551">
        <ele>85.7</ele>
        <time>2015-02-23T21:12:20.243Z</time>
      </trkpt>
      <trkpt lat="48.8354" lon="2.38557">
        <ele>85.6</ele>
        <time>2015-02-23T21:12:21.164Z</time>
      </trkpt>
      <trkpt lat="48.83546" lon="2.38562">
        <ele>85.6</ele>
        <time>2015-02-23T21:12:22.166Z</time>
      </trkpt>
      <trkpt lat="48.8355" lon="2.38568">
        <ele>85.8</ele>
        <time>2015-02-23T21:12:23.196Z</time>
      </trkpt>
      <trkpt lat="48.83554" lon="2.38573">
        <ele>85.9</ele>
        <time>2015-02-23T21:12:24.200Z</time>
      </trkpt>
      <trkpt lat="48.83558" lon="2.38577">
        <ele>85.9</ele>
        <time>2015-02-23T21:12:25.202Z</time>
      </trkpt>
      <trkpt lat="48.83563" lon="2.38581">
        <ele>86</ele>
        <time>2015-02-23T21:12:26.222Z</time>
      </trkpt>
      <trkpt lat="48.83567" lon="2.38586">
        <ele>85.7</ele>
        <time>2015-02-23T21:12:27.247Z</time>
      </trkpt>
      <trkpt lat="48.8357" lon="2.38591">
        <ele>85.5</ele>
        <time>2015-02-23T21:12:28.162Z</time>
      </trkpt>
      <trkpt lat="48.83573" lon="2.38595">
        <ele>85.5</ele>
        <time>2015-02-23T21:12:29.162Z</time>
      </trkpt>
      <trkpt lat="48.83576" lon="2.38601">
        <ele>85.5</ele>
        <time>2015-02-23T21:12:30.198Z</time>
      </trkpt>
      <trkpt lat="48.83578" lon="2.38608">
        <ele>85.3</ele>
        <time>2015-02-23T21:12:31.208Z</time>
      </trkpt>
      <trkpt lat="48.8358" lon="2.38614">
        <ele>85.3</ele>
        <time>2015-02-23T21:12:32.219Z</time>
      </trkpt>
      <trkpt lat="48.83584" lon="2.38623">
        <ele>85.4</ele>
        <time>2015-02-23T21:12:34.242Z</time>
      </trkpt>
      <trkpt lat="48.83586" lon="2.38626">
        <ele>85.4</ele>
        <time>2015-02-23T21:12:35.187Z</time>
      </trkpt>
      <trkpt lat="48.8359" lon="2.38636">
        <ele>85.5</ele>
        <time>2015-02-23T21:12:39.211Z</time>
      </trkpt>
      <trkpt lat="48.83592" lon="2.38638">
        <ele>85.2</ele>
        <time>2015-02-23T21:12:40.228Z</time>
      </trkpt>
      <trkpt lat="48.83597" lon="2.38645">
        <ele>84.3</ele>
        <time>2015-02-23T21:12:44.181Z</time>
      </trkpt>
      <trkpt lat="48.83598" lon="2.38648">
        <ele>84</ele>
        <time>2015-02-23T21:12:45.201Z</time>
      </trkpt>
      <trkpt lat="48.83603" lon="2.38654">
        <ele>83.7</ele>
        <time>2015-02-23T21:12:47.146Z</time>
      </trkpt>
      <trkpt lat="48.83604" lon="2.38658">
        <ele>83.6</ele>
        <time>2015-02-23T21:12:48.260Z</time>
      </trkpt>
      <trkpt lat="48.83606" lon="2.38669">
        <ele>83.7</ele>
        <time>2015-02-23T21:12:50.161Z</time>
      </trkpt>
      <trkpt lat="48.83607" lon="2.38675">
        <ele>83.8</ele>
        <time>2015-02-23T21:12:51.180Z</time>
      </trkpt>
      <trkpt lat="48.83609" lon="2.38686">
        <ele>84.2</ele>
        <time>2015-02-23T21:12:53.169Z</time>
      </trkpt>
      <trkpt lat="48.8361" lon="2.38691">
        <ele>84.2</ele>
        <time>2015-02-23T21:12:54.225Z</time>
      </trkpt>
      <trkpt lat="48.83614" lon="2.38703">
        <ele>84.7</ele>
        <time>2015-02-23T21:12:56.246Z</time>
      </trkpt>
      <trkpt lat="48.83616" lon="2.38708">
        <ele>84.7</ele>
        <time>2015-02-23T21:12:57.242Z</time>
      </trkpt>
      <trkpt lat="48.8362" lon="2.38718">
        <ele>84.7</ele>
        <time>2015-02-23T21:12:59.198Z</time>
      </trkpt>
      <trkpt lat="48.83621" lon="2.38724">
        <ele>84.7</ele>
        <time>2015-02-23T21:13:00.240Z</time>
      </trkpt>
      <trkpt lat="48.83625" lon="2.38734">
        <ele>84.5</ele>
        <time>2015-02-23T21:13:02.177Z</time>
      </trkpt>
      <trkpt lat="48.83627" lon="2.38739">
        <ele>84.6</ele>
        <time>2015-02-23T21:13:03.187Z</time>
      </trkpt>
      <trkpt lat="48.83632" lon="2.38748">
        <ele>84.7</ele>
        <time>2015-02-23T21:13:05.233Z</time>
      </trkpt>
      <trkpt lat="48.83635" lon="2.3875">
        <ele>85.1</ele>
        <time>2015-02-23T21:13:06.322Z</time>
      </trkpt>
      <trkpt lat="48.8364" lon="2.38758">
        <ele>86.1</ele>
        <time>2015-02-23T21:13:09.195Z</time>
      </trkpt>
      <trkpt lat="48.83643" lon="2.38762">
        <ele>86.3</ele>
        <time>2015-02-23T21:13:10.206Z</time>
      </trkpt>
      <trkpt lat="48.83647" lon="2.38769">
        <ele>86.6</ele>
        <time>2015-02-23T21:13:12.252Z</time>
      </trkpt>
      <trkpt lat="48.8365" lon="2.38774">
        <ele>86.5</ele>
        <time>2015-02-23T21:13:13.177Z</time>
      </trkpt>
      <trkpt lat="48.83653" lon="2.38779">
        <ele>86.6</ele>
        <time>2015-02-23T21:13:14.228Z</time>
      </trkpt>
      <trkpt lat="48.83655" lon="2.38785">
        <ele>86.2</ele>
        <time>2015-02-23T21:13:15.241Z</time>
      </trkpt>
      <trkpt lat="48.83657" lon="2.38792">
        <ele>85.9</ele>
        <time>2015-02-23T21:13:16.258Z</time>
      </trkpt>
      <trkpt lat="48.83657" lon="2.38799">
        <ele>85.8</ele>
        <time>2015-02-23T21:13:17.151Z</time>
      </trkpt>
      <trkpt lat="48.83653" lon="2.38811">
        <ele>86.3</ele>
        <time>2015-02-23T21:13:20.223Z</time>
      </trkpt>
      <trkpt lat="48.83653" lon="2.38813">
        <ele>86.4</ele>
        <time>2015-02-23T21:13:21.155Z</time>
      </trkpt>
      <trkpt lat="48.83654" lon="2.38822">
        <ele>86.7</ele>
        <time>2015-02-23T21:13:23.168Z</time>
      </trkpt>
      <trkpt lat="48.83655" lon="2.38827">
        <ele>86.8</ele>
        <time>2015-02-23T21:13:24.215Z</time>
      </trkpt>
      <trkpt lat="48.83656" lon="2.38838">
        <ele>87.3</ele>
        <time>2015-02-23T21:13:26.164Z</time>
      </trkpt>
      <trkpt lat="48.83658" lon="2.38845">
        <ele>88</ele>
        <time>2015-02-23T21:13:27.275Z</time>
      </trkpt>
      <trkpt lat="48.83659" lon="2.38856">
        <ele>87.9</ele>
        <time>2015-02-23T21:13:29.186Z</time>
      </trkpt>
      <trkpt lat="48.8366" lon="2.38859">
        <ele>87.9</ele>
        <time>2015-02-23T21:13:30.258Z</time>
      </trkpt>
      <trkpt lat="48.83663" lon="2.3887">
        <ele>88</ele>
        <time>2015-02-23T21:13:35.548Z</time>
      </trkpt>
      <trkpt lat="48.83663" lon="2.38872">
        <ele>87.9</ele>
        <time>2015-02-23T21:13:36.194Z</time>
      </trkpt>
      <trkpt lat="48.83664" lon="2.38885">
        <ele>88.1</ele>
        <time>2015-02-23T21:13:39.338Z</time>
      </trkpt>
      <trkpt lat="48.83664" lon="2.38891">
        <ele>88.5</ele>
        <time>2015-02-23T21:13:40.164Z</time>
      </trkpt>
      <trkpt lat="48.83666" lon="2.38903">
        <ele>88.8</ele>
        <time>2015-02-23T21:13:42.187Z</time>
      </trkpt>
      <trkpt lat="48.83666" lon="2.3891">
        <ele>88.7</ele>
        <time>2015-02-23T21:13:43.228Z</time>
      </trkpt>
      <trkpt lat="48.83668" lon="2.3892">
        <ele>88.3</ele>
        <time>2015-02-23T21:13:45.157Z</time>
      </trkpt>
      <trkpt lat="48.8367" lon="2.38924">
        <ele>88.1</ele>
        <time>2015-02-23T21:13:46.158Z</time>
      </trkpt>
      <trkpt lat="48.83677" lon="2.38932">
        <ele>87.3</ele>
        <time>2015-02-23T21:13:48.325Z</time>
      </trkpt>
      <trkpt lat="48.83684" lon="2.38939">
        <ele>85.8</ele>
        <time>2015-02-23T21:13:49.228Z</time>
      </trkpt>
      <trkpt lat="48.83686" lon="2.38949">
        <ele>84</ele>
        <time>2015-02-23T21:13:50.244Z</time>
      </trkpt>
      <trkpt lat="48.83689" lon="2.38957">
        <ele>83</ele>
        <time>2015-02-23T21:13:51.244Z</time>
      </trkpt>
      <trkpt lat="48.83691" lon="2.38966">
        <ele>82.3</ele>
        <time>2015-02-23T21:13:52.259Z</time>
      </trkpt>
      <trkpt lat="48.83694" lon="2.38974">
        <ele>81.8</ele>
        <time>2015-02-23T21:13:53.136Z</time>
      </trkpt>
      <trkpt lat="48.83697" lon="2.38983">
        <ele>81.6</ele>
        <time>2015-02-23T21:13:54.239Z</time>
      </trkpt>
      <trkpt lat="48.837" lon="2.38991">
        <ele>81.5</ele>
        <time>2015-02-23T21:13:55.202Z</time>
      </trkpt>
      <trkpt lat="48.83702" lon="2.39">
        <ele>81.4</ele>
        <time>2015-02-23T21:13:56.236Z</time>
      </trkpt>
      <trkpt lat="48.83703" lon="2.39013">
        <ele>82</ele>
        <time>2015-02-23T21:13:57.247Z</time>
      </trkpt>
      <trkpt lat="48.83704" lon="2.39022">
        <ele>82.1</ele>
        <time>2015-02-23T21:13:58.561Z</time>
      </trkpt>
      <trkpt lat="48.83706" lon="2.39033">
        <ele>82.5</ele>
        <time>2015-02-23T21:13:59.170Z</time>
      </trkpt>
      <trkpt lat="48.83708" lon="2.39043">
        <ele>82.9</ele>
        <time>2015-02-23T21:14:00.171Z</time>
      </trkpt>
      <trkpt lat="48.83709" lon="2.39051">
        <ele>83.2</ele>
        <time>2015-02-23T21:14:01.189Z</time>
      </trkpt>
      <trkpt lat="48.83712" lon="2.39064">
        <ele>83.1</ele>
        <time>2015-02-23T21:14:03.869Z</time>
      </trkpt>
      <trkpt lat="48.83713" lon="2.3907">
        <ele>83.2</ele>
        <time>2015-02-23T21:14:04.260Z</time>
      </trkpt>
      <trkpt lat="48.83716" lon="2.39083">
        <ele>83.8</ele>
        <time>2015-02-23T21:14:06.204Z</time>
      </trkpt>
      <trkpt lat="48.83718" lon="2.39089">
        <ele>84.3</ele>
        <time>2015-02-23T21:14:07.194Z</time>
      </trkpt>
      <trkpt lat="48.83721" lon="2.39101">
        <ele>85.3</ele>
        <time>2015-02-23T21:14:09.226Z</time>
      </trkpt>
      <trkpt lat="48.83723" lon="2.39106">
        <ele>85.7</ele>
        <time>2015-02-23T21:14:10.249Z</time>
      </trkpt>
      <trkpt lat="48.8373" lon="2.39115">
        <ele>86.4</ele>
        <time>2015-02-23T21:14:15.240Z</time>
      </trkpt>
      <trkpt lat="48.83732" lon="2.39114">
        <ele>86.2</ele>
        <time>2015-02-23T21:14:16.187Z</time>
      </trkpt>
      <trkpt lat="48.8374" lon="2.39108">
        <ele>85.7</ele>
        <time>2015-02-23T21:14:20.257Z</time>
      </trkpt>
      <trkpt lat="48.83743" lon="2.39106">
        <ele>85.5</ele>
        <time>2015-02-23T21:14:21.166Z</time>
      </trkpt>
      <trkpt lat="48.83748" lon="2.391">
        <ele>85.1</ele>
        <time>2015-02-23T21:14:23.197Z</time>
      </trkpt>
      <trkpt lat="48.83751" lon="2.39098">
        <ele>85</ele>
        <time>2015-02-23T21:14:24.240Z</time>
      </trkpt>
      <trkpt lat="48.83757" lon="2.39091">
        <ele>84.9</ele>
        <time>2015-02-23T21:14:27.199Z</time>
      </trkpt>
      <trkpt lat="48.8376" lon="2.39087">
        <ele>85</ele>
        <time>2015-02-23T21:14:27.243Z</time>
      </trkpt>
      <trkpt lat="48.83765" lon="2.39081">
        <ele>85</ele>
        <time>2015-02-23T21:14:29.195Z</time>
      </trkpt>
      <trkpt lat="48.83768" lon="2.39078">
        <ele>85.2</ele>
        <time>2015-02-23T21:14:30.225Z</time>
      </trkpt>
      <trkpt lat="48.83774" lon="2.39074">
        <ele>85.3</ele>
        <time>2015-02-23T21:14:32.318Z</time>
      </trkpt>
      <trkpt lat="48.83778" lon="2.39071">
        <ele>85.4</ele>
        <time>2015-02-23T21:14:33.170Z</time>
      </trkpt>
      <trkpt lat="48.83784" lon="2.39065">
        <ele>85.6</ele>
        <time>2015-02-23T21:14:35.170Z</time>
      </trkpt>
      <trkpt lat="48.83786" lon="2.39062">
        <ele>85.7</ele>
        <time>2015-02-23T21:14:36.205Z</time>
      </trkpt>
      <trkpt lat="48.83794" lon="2.39058">
        <ele>85.8</ele>
        <time>2015-02-23T21:14:38.242Z</time>
      </trkpt>
      <trkpt lat="48.83797" lon="2.39055">
        <ele>85.9</ele>
        <time>2015-02-23T21:14:39.252Z</time>
      </trkpt>
      <trkpt lat="48.83804" lon="2.3905">
        <ele>86.1</ele>
        <time>2015-02-23T21:14:41.175Z</time>
      </trkpt>
      <trkpt lat="48.83806" lon="2.39046">
        <ele>86.3</ele>
        <time>2015-02-23T21:14:42.196Z</time>
      </trkpt>
      <trkpt lat="48.83813" lon="2.39039">
        <ele>86.6</ele>
        <time>2015-02-23T21:14:44.220Z</time>
      </trkpt>
      <trkpt lat="48.83815" lon="2.39034">
        <ele>86.9</ele>
        <time>2015-02-23T21:14:45.230Z</time>
      </trkpt>
      <trkpt lat="48.83821" lon="2.39027">
        <ele>87.3</ele>
        <time>2015-02-23T21:14:47.625Z</time>
      </trkpt>
      <trkpt lat="48.83824" lon="2.39024">
        <ele>87.5</ele>
        <time>2015-02-23T21:14:48.202Z</time>
      </trkpt>
      <trkpt lat="48.8383" lon="2.39019">
        <ele>87.7</ele>
        <time>2015-02-23T21:14:50.263Z</time>
      </trkpt>
      <trkpt lat="48.83834" lon="2.39018">
        <ele>87.8</ele>
        <time>2015-02-23T21:14:51.170Z</time>
      </trkpt>
      <trkpt lat="48.83842" lon="2.39016">
        <ele>88.2</ele>
        <time>2015-02-23T21:14:53.178Z</time>
      </trkpt>
      <trkpt lat="48.83845" lon="2.39014">
        <ele>88.5</ele>
        <time>2015-02-23T21:14:54.235Z</time>
      </trkpt>
      <trkpt lat="48.8385" lon="2.39011">
        <ele>88.6</ele>
        <time>2015-02-23T21:14:55.258Z</time>
      </trkpt>
      <trkpt lat="48.83854" lon="2.39008">
        <ele>88.6</ele>
        <time>2015-02-23T21:14:56.171Z</time>
      </trkpt>
      <trkpt lat="48.83861" lon="2.39001">
        <ele>88.7</ele>
        <time>2015-02-23T21:14:58.189Z</time>
      </trkpt>
      <trkpt lat="48.83864" lon="2.38998">
        <ele>88.8</ele>
        <time>2015-02-23T21:14:59.194Z</time>
      </trkpt>
      <trkpt lat="48.83869" lon="2.38989">
        <ele>88.9</ele>
        <time>2015-02-23T21:15:01.211Z</time>
      </trkpt>
      <trkpt lat="48.83871" lon="2.38984">
        <ele>88.9</ele>
        <time>2015-02-23T21:15:02.215Z</time>
      </trkpt>
      <trkpt lat="48.83875" lon="2.38974">
        <ele>88.6</ele>
        <time>2015-02-23T21:15:05.251Z</time>
      </trkpt>
      <trkpt lat="48.83877" lon="2.38972">
        <ele>88.7</ele>
        <time>2015-02-23T21:15:06.182Z</time>
      </trkpt>
      <trkpt lat="48.8388" lon="2.38962">
        <ele>89.3</ele>
        <time>2015-02-23T21:15:09.236Z</time>
      </trkpt>
      <trkpt lat="48.83882" lon="2.38958">
        <ele>89.3</ele>
        <time>2015-02-23T21:15:10.262Z</time>
      </trkpt>
      <trkpt lat="48.83888" lon="2.38951">
        <ele>89.1</ele>
        <time>2015-02-23T21:15:14.215Z</time>
      </trkpt>
      <trkpt lat="48.83889" lon="2.38949">
        <ele>89.4</ele>
        <time>2015-02-23T21:15:15.233Z</time>
      </trkpt>
      <trkpt lat="48.83891" lon="2.38951">
        <ele>90</ele>
        <time>2015-02-23T21:15:26.852Z</time>
      </trkpt>
      <trkpt lat="48.83891" lon="2.3895">
        <ele>89.9</ele>
        <time>2015-02-23T21:15:27.194Z</time>
      </trkpt>
      <trkpt lat="48.83893" lon="2.38949">
        <ele>89.8</ele>
        <time>2015-02-23T21:15:28.211Z</time>
      </trkpt>
      <trkpt lat="48.83894" lon="2.38946">
        <ele>89.8</ele>
        <time>2015-02-23T21:15:30.258Z</time>
      </trkpt>
      <trkpt lat="48.83894" lon="2.38946">
        <ele>89.8</ele>
        <time>2015-02-23T21:15:31.286Z</time>
      </trkpt>
      <trkpt lat="48.83894" lon="2.38946">
        <ele>90</ele>
        <time>2015-02-23T21:15:36.941Z</time>
      </trkpt>
      <trkpt lat="48.83897" lon="2.38943">
        <ele>89.9</ele>
        <time>2015-02-23T21:15:37.209Z</time>
      </trkpt>
      <trkpt lat="48.83904" lon="2.38935">
        <ele>89.4</ele>
        <time>2015-02-23T21:15:42.008Z</time>
      </trkpt>
      <trkpt lat="48.83906" lon="2.38933">
        <ele>89.5</ele>
        <time>2015-02-23T21:15:42.189Z</time>
      </trkpt>
      <trkpt lat="48.83912" lon="2.38929">
        <ele>89.3</ele>
        <time>2015-02-23T21:15:45.232Z</time>
      </trkpt>
      <trkpt lat="48.83915" lon="2.38927">
        <ele>89.4</ele>
        <time>2015-02-23T21:15:46.246Z</time>
      </trkpt>
      <trkpt lat="48.83922" lon="2.38922">
        <ele>89.5</ele>
        <time>2015-02-23T21:15:49.231Z</time>
      </trkpt>
      <trkpt lat="48.83925" lon="2.38919">
        <ele>89.4</ele>
        <time>2015-02-23T21:15:50.198Z</time>
      </trkpt>
      <trkpt lat="48.83932" lon="2.38913">
        <ele>89.7</ele>
        <time>2015-02-23T21:15:52.216Z</time>
      </trkpt>
      <trkpt lat="48.83936" lon="2.38911">
        <ele>89.7</ele>
        <time>2015-02-23T21:15:53.238Z</time>
      </trkpt>
      <trkpt lat="48.83944" lon="2.38906">
        <ele>89.9</ele>
        <time>2015-02-23T21:15:55.177Z</time>
      </trkpt>
      <trkpt lat="48.83947" lon="2.38901">
        <ele>90.5</ele>
        <time>2015-02-23T21:15:56.166Z</time>
      </trkpt>
      <trkpt lat="48.83954" lon="2.38896">
        <ele>91</ele>
        <time>2015-02-23T21:15:58.200Z</time>
      </trkpt>
      <trkpt lat="48.83964" lon="2.38892">
        <ele>91.1</ele>
        <time>2015-02-23T21:16:00.224Z</time>
      </trkpt>
      <trkpt lat="48.83969" lon="2.38889">
        <ele>91.1</ele>
        <time>2015-02-23T21:16:01.248Z</time>
      </trkpt>
      <trkpt lat="48.83974" lon="2.38886">
        <ele>91.2</ele>
        <time>2015-02-23T21:16:02.284Z</time>
      </trkpt>
      <trkpt lat="48.83979" lon="2.38884">
        <ele>91.2</ele>
        <time>2015-02-23T21:16:03.157Z</time>
      </trkpt>
      <trkpt lat="48.83984" lon="2.38881">
        <ele>91.3</ele>
        <time>2015-02-23T21:16:04.158Z</time>
      </trkpt>
      <trkpt lat="48.83994" lon="2.38879">
        <ele>91.2</ele>
        <time>2015-02-23T21:16:06.218Z</time>
      </trkpt>
      <trkpt lat="48.84001" lon="2.38877">
        <ele>91.1</ele>
        <time>2015-02-23T21:16:07.167Z</time>
      </trkpt>
      <trkpt lat="48.84007" lon="2.38875">
        <ele>91</ele>
        <time>2015-02-23T21:16:08.175Z</time>
      </trkpt>
      <trkpt lat="48.8402" lon="2.38872">
        <ele>91</ele>
        <time>2015-02-23T21:16:10.222Z</time>
      </trkpt>
      <trkpt lat="48.84027" lon="2.38869">
        <ele>91</ele>
        <time>2015-02-23T21:16:11.255Z</time>
      </trkpt>
      <trkpt lat="48.84032" lon="2.38866">
        <ele>91</ele>
        <time>2015-02-23T21:16:12.276Z</time>
      </trkpt>
      <trkpt lat="48.84037" lon="2.38864">
        <ele>91.1</ele>
        <time>2015-02-23T21:16:13.157Z</time>
      </trkpt>
      <trkpt lat="48.84042" lon="2.38861">
        <ele>91.3</ele>
        <time>2015-02-23T21:16:14.155Z</time>
      </trkpt>
      <trkpt lat="48.84048" lon="2.38858">
        <ele>91.3</ele>
        <time>2015-02-23T21:16:15.184Z</time>
      </trkpt>
      <trkpt lat="48.84049" lon="2.38852">
        <ele>91.8</ele>
        <time>2015-02-23T21:16:16.200Z</time>
      </trkpt>
      <trkpt lat="48.8405" lon="2.38846">
        <ele>92.3</ele>
        <time>2015-02-23T21:16:17.227Z</time>
      </trkpt>
      <trkpt lat="48.84052" lon="2.38839">
        <ele>92.8</ele>
        <time>2015-02-23T21:16:18.237Z</time>
      </trkpt>
      <trkpt lat="48.84052" lon="2.38832">
        <ele>93.3</ele>
        <time>2015-02-23T21:16:19.154Z</time>
      </trkpt>
      <trkpt lat="48.84056" lon="2.38822">
        <ele>93.7</ele>
        <time>2015-02-23T21:16:20.157Z</time>
      </trkpt>
      <trkpt lat="48.84064" lon="2.38814">
        <ele>94.1</ele>
        <time>2015-02-23T21:16:22.160Z</time>
      </trkpt>
      <trkpt lat="48.84067" lon="2.3881">
        <ele>94.2</ele>
        <time>2015-02-23T21:16:23.175Z</time>
      </trkpt>
      <trkpt lat="48.84073" lon="2.38808">
        <ele>94.3</ele>
        <time>2015-02-23T21:16:24.185Z</time>
      </trkpt>
      <trkpt lat="48.84079" lon="2.38806">
        <ele>94.4</ele>
        <time>2015-02-23T21:16:25.196Z</time>
      </trkpt>
      <trkpt lat="48.84093" lon="2.38802">
        <ele>94.4</ele>
        <time>2015-02-23T21:16:27.206Z</time>
      </trkpt>
      <trkpt lat="48.84098" lon="2.388">
        <ele>94.5</ele>
        <time>2015-02-23T21:16:28.226Z</time>
      </trkpt>
      <trkpt lat="48.84103" lon="2.38797">
        <ele>94.7</ele>
        <time>2015-02-23T21:16:29.230Z</time>
      </trkpt>
      <trkpt lat="48.84108" lon="2.38794">
        <ele>94.9</ele>
        <time>2015-02-23T21:16:30.261Z</time>
      </trkpt>
      <trkpt lat="48.84111" lon="2.38789">
        <ele>95.1</ele>
        <time>2015-02-23T21:16:31.170Z</time>
      </trkpt>
      <trkpt lat="48.84116" lon="2.38785">
        <ele>95.2</ele>
        <time>2015-02-23T21:16:32.194Z</time>
      </trkpt>
      <trkpt lat="48.8412" lon="2.38782">
        <ele>95.3</ele>
        <time>2015-02-23T21:16:33.201Z</time>
      </trkpt>
      <trkpt lat="48.84124" lon="2.38778">
        <ele>95.4</ele>
        <time>2015-02-23T21:16:34.208Z</time>
      </trkpt>
      <trkpt lat="48.84128" lon="2.38772">
        <ele>95.5</ele>
        <time>2015-02-23T21:16:35.224Z</time>
      </trkpt>
      <trkpt lat="48.84133" lon="2.3877">
        <ele>95.6</ele>
        <time>2015-02-23T21:16:36.244Z</time>
      </trkpt>
      <trkpt lat="48.84138" lon="2.38768">
        <ele>95.8</ele>
        <time>2015-02-23T21:16:37.143Z</time>
      </trkpt>
      <trkpt lat="48.84142" lon="2.38757">
        <ele>95.8</ele>
        <time>2015-02-23T21:16:39.154Z</time>
      </trkpt>
      <trkpt lat="48.84143" lon="2.38752">
        <ele>95.9</ele>
        <time>2015-02-23T21:16:40.179Z</time>
      </trkpt>
      <trkpt lat="48.8415" lon="2.38749">
        <ele>96.3</ele>
        <time>2015-02-23T21:16:43.228Z</time>
      </trkpt>
      <trkpt lat="48.84155" lon="2.38748">
        <ele>97.1</ele>
        <time>2015-02-23T21:16:44.248Z</time>
      </trkpt>
      <trkpt lat="48.8416" lon="2.38741">
        <ele>97.4</ele>
        <time>2015-02-23T21:16:48.206Z</time>
      </trkpt>
      <trkpt lat="48.84162" lon="2.38737">
        <ele>97.4</ele>
        <time>2015-02-23T21:16:49.225Z</time>
      </trkpt>
      <trkpt lat="48.84166" lon="2.38725">
        <ele>97.7</ele>
        <time>2015-02-23T21:16:53.248Z</time>
      </trkpt>
      <trkpt lat="48.84168" lon="2.38721">
        <ele>97.6</ele>
        <time>2015-02-23T21:16:54.252Z</time>
      </trkpt>
      <trkpt lat="48.84171" lon="2.38712">
        <ele>96.9</ele>
        <time>2015-02-23T21:16:56.160Z</time>
      </trkpt>
      <trkpt lat="48.84174" lon="2.38707">
        <ele>97</ele>
        <time>2015-02-23T21:16:57.171Z</time>
      </trkpt>
      <trkpt lat="48.84178" lon="2.38703">
        <ele>97.1</ele>
        <time>2015-02-23T21:16:58.205Z</time>
      </trkpt>
      <trkpt lat="48.84183" lon="2.387">
        <ele>97.1</ele>
        <time>2015-02-23T21:16:59.222Z</time>
      </trkpt>
      <trkpt lat="48.84187" lon="2.38697">
        <ele>97</ele>
        <time>2015-02-23T21:17:00.227Z</time>
      </trkpt>
      <trkpt lat="48.84192" lon="2.38694">
        <ele>97.1</ele>
        <time>2015-02-23T21:17:01.245Z</time>
      </trkpt>
      <trkpt lat="48.84196" lon="2.3869">
        <ele>97.1</ele>
        <time>2015-02-23T21:17:02.157Z</time>
      </trkpt>
      <trkpt lat="48.842" lon="2.38686">
        <ele>97</ele>
        <time>2015-02-23T21:17:03.156Z</time>
      </trkpt>
      <trkpt lat="48.84206" lon="2.38683">
        <ele>97.1</ele>
        <time>2015-02-23T21:17:04.170Z</time>
      </trkpt>
      <trkpt lat="48.84212" lon="2.38681">
        <ele>97.2</ele>
        <time>2015-02-23T21:17:05.198Z</time>
      </trkpt>
      <trkpt lat="48.84215" lon="2.38676">
        <ele>97.3</ele>
        <time>2015-02-23T21:17:06.254Z</time>
      </trkpt>
      <trkpt lat="48.84219" lon="2.38672">
        <ele>97.5</ele>
        <time>2015-02-23T21:17:07.154Z</time>
      </trkpt>
      <trkpt lat="48.84222" lon="2.38667">
        <ele>97.6</ele>
        <time>2015-02-23T21:17:08.197Z</time>
      </trkpt>
      <trkpt lat="48.84226" lon="2.38662">
        <ele>97.6</ele>
        <time>2015-02-23T21:17:09.291Z</time>
      </trkpt>
      <trkpt lat="48.84231" lon="2.38654">
        <ele>98.1</ele>
        <time>2015-02-23T21:17:11.182Z</time>
      </trkpt>
      <trkpt lat="48.84234" lon="2.38649">
        <ele>98.2</ele>
        <time>2015-02-23T21:17:12.194Z</time>
      </trkpt>
      <trkpt lat="48.84239" lon="2.38639">
        <ele>98.5</ele>
        <time>2015-02-23T21:17:14.220Z</time>
      </trkpt>
      <trkpt lat="48.84243" lon="2.38633">
        <ele>98.7</ele>
        <time>2015-02-23T21:17:15.249Z</time>
      </trkpt>
      <trkpt lat="48.84246" lon="2.38627">
        <ele>98.8</ele>
        <time>2015-02-23T21:17:16.168Z</time>
      </trkpt>
      <trkpt lat="48.84249" lon="2.38622">
        <ele>98.9</ele>
        <time>2015-02-23T21:17:17.211Z</time>
      </trkpt>
      <trkpt lat="48.84252" lon="2.38617">
        <ele>99.1</ele>
        <time>2015-02-23T21:17:18.239Z</time>
      </trkpt>
      <trkpt lat="48.84256" lon="2.3861">
        <ele>99.3</ele>
        <time>2015-02-23T21:17:19.262Z</time>
      </trkpt>
      <trkpt lat="48.84259" lon="2.38604">
        <ele>99.4</ele>
        <time>2015-02-23T21:17:20.171Z</time>
      </trkpt>
      <trkpt lat="48.84261" lon="2.38599">
        <ele>99.5</ele>
        <time>2015-02-23T21:17:21.176Z</time>
      </trkpt>
      <trkpt lat="48.84265" lon="2.38592">
        <ele>99.6</ele>
        <time>2015-02-23T21:17:22.180Z</time>
      </trkpt>
      <trkpt lat="48.84267" lon="2.38586">
        <ele>99.6</ele>
        <time>2015-02-23T21:17:23.191Z</time>
      </trkpt>
      <trkpt lat="48.8427" lon="2.38579">
        <ele>99.5</ele>
        <time>2015-02-23T21:17:24.208Z</time>
      </trkpt>
      <trkpt lat="48.84271" lon="2.38572">
        <ele>99.4</ele>
        <time>2015-02-23T21:17:25.220Z</time>
      </trkpt>
      <trkpt lat="48.84272" lon="2.38565">
        <ele>99.4</ele>
        <time>2015-02-23T21:17:26.230Z</time>
      </trkpt>
      <trkpt lat="48.84272" lon="2.38558">
        <ele>98.9</ele>
        <time>2015-02-23T21:17:27.248Z</time>
      </trkpt>
      <trkpt lat="48.84272" lon="2.3855">
        <ele>97.7</ele>
        <time>2015-02-23T21:17:28.163Z</time>
      </trkpt>
      <trkpt lat="48.84272" lon="2.38543">
        <ele>96.8</ele>
        <time>2015-02-23T21:17:29.155Z</time>
      </trkpt>
      <trkpt lat="48.84275" lon="2.38532">
        <ele>96</ele>
        <time>2015-02-23T21:17:31.198Z</time>
      </trkpt>
      <trkpt lat="48.84276" lon="2.38526">
        <ele>96.1</ele>
        <time>2015-02-23T21:17:32.216Z</time>
      </trkpt>
      <trkpt lat="48.84276" lon="2.38519">
        <ele>95.5</ele>
        <time>2015-02-23T21:17:33.245Z</time>
      </trkpt>
      <trkpt lat="48.84275" lon="2.38505">
        <ele>94.5</ele>
        <time>2015-02-23T21:17:34.263Z</time>
      </trkpt>
      <trkpt lat="48.84277" lon="2.38498">
        <ele>95.2</ele>
        <time>2015-02-23T21:17:35.133Z</time>
      </trkpt>
      <trkpt lat="48.8428" lon="2.38492">
        <ele>95.3</ele>
        <time>2015-02-23T21:17:36.183Z</time>
      </trkpt>
      <trkpt lat="48.84283" lon="2.38487">
        <ele>95.5</ele>
        <time>2015-02-23T21:17:37.218Z</time>
      </trkpt>
      <trkpt lat="48.84286" lon="2.38482">
        <ele>95.7</ele>
        <time>2015-02-23T21:17:38.227Z</time>
      </trkpt>
      <trkpt lat="48.8429" lon="2.38477">
        <ele>95.9</ele>
        <time>2015-02-23T21:17:39.145Z</time>
      </trkpt>
      <trkpt lat="48.84292" lon="2.38471">
        <ele>96.5</ele>
        <time>2015-02-23T21:17:40.128Z</time>
      </trkpt>
      <trkpt lat="48.84294" lon="2.38463">
        <ele>97.1</ele>
        <time>2015-02-23T21:17:41.157Z</time>
      </trkpt>
      <trkpt lat="48.84295" lon="2.38455">
        <ele>97.6</ele>
        <time>2015-02-23T21:17:42.165Z</time>
      </trkpt>
      <trkpt lat="48.84297" lon="2.38447">
        <ele>98</ele>
        <time>2015-02-23T21:17:43.192Z</time>
      </trkpt>
      <trkpt lat="48.84298" lon="2.3844">
        <ele>98.3</ele>
        <time>2015-02-23T21:17:44.210Z</time>
      </trkpt>
      <trkpt lat="48.843" lon="2.38433">
        <ele>98.7</ele>
        <time>2015-02-23T21:17:45.137Z</time>
      </trkpt>
      <trkpt lat="48.84303" lon="2.38426">
        <ele>99</ele>
        <time>2015-02-23T21:17:46.158Z</time>
      </trkpt>
      <trkpt lat="48.84305" lon="2.38419">
        <ele>99.2</ele>
        <time>2015-02-23T21:17:47.173Z</time>
      </trkpt>
      <trkpt lat="48.84307" lon="2.38413">
        <ele>99.5</ele>
        <time>2015-02-23T21:17:48.238Z</time>
      </trkpt>
      <trkpt lat="48.84311" lon="2.38408">
        <ele>99.6</ele>
        <time>2015-02-23T21:17:49.171Z</time>
      </trkpt>
      <trkpt lat="48.84314" lon="2.38402">
        <ele>99.6</ele>
        <time>2015-02-23T21:17:50.160Z</time>
      </trkpt>
      <trkpt lat="48.84319" lon="2.38397">
        <ele>99.7</ele>
        <time>2015-02-23T21:17:51.177Z</time>
      </trkpt>
      <trkpt lat="48.84323" lon="2.38393">
        <ele>99.7</ele>
        <time>2015-02-23T21:17:52.184Z</time>
      </trkpt>
      <trkpt lat="48.84326" lon="2.38387">
        <ele>99.4</ele>
        <time>2015-02-23T21:17:53.191Z</time>
      </trkpt>
      <trkpt lat="48.84329" lon="2.38382">
        <ele>98.8</ele>
        <time>2015-02-23T21:17:54.280Z</time>
      </trkpt>
      <trkpt lat="48.84334" lon="2.38377">
        <ele>98.8</ele>
        <time>2015-02-23T21:17:55.159Z</time>
      </trkpt>
      <trkpt lat="48.84339" lon="2.38375">
        <ele>98.8</ele>
        <time>2015-02-23T21:17:56.161Z</time>
      </trkpt>
      <trkpt lat="48.84345" lon="2.38373">
        <ele>98.8</ele>
        <time>2015-02-23T21:17:57.191Z</time>
      </trkpt>
      <trkpt lat="48.8435" lon="2.38371">
        <ele>98.9</ele>
        <time>2015-02-23T21:17:58.208Z</time>
      </trkpt>
      <trkpt lat="48.84357" lon="2.3837">
        <ele>99</ele>
        <time>2015-02-23T21:17:59.214Z</time>
      </trkpt>
      <trkpt lat="48.84364" lon="2.38369">
        <ele>99.3</ele>
        <time>2015-02-23T21:18:00.248Z</time>
      </trkpt>
      <trkpt lat="48.84369" lon="2.38368">
        <ele>99.5</ele>
        <time>2015-02-23T21:18:01.253Z</time>
      </trkpt>
      <trkpt lat="48.84375" lon="2.38365">
        <ele>99.7</ele>
        <time>2015-02-23T21:18:02.152Z</time>
      </trkpt>
      <trkpt lat="48.8438" lon="2.3836">
        <ele>99.8</ele>
        <time>2015-02-23T21:18:03.153Z</time>
      </trkpt>
      <trkpt lat="48.84385" lon="2.38355">
        <ele>99.9</ele>
        <time>2015-02-23T21:18:04.162Z</time>
      </trkpt>
      <trkpt lat="48.8439" lon="2.38349">
        <ele>100.1</ele>
        <time>2015-02-23T21:18:05.166Z</time>
      </trkpt>
      <trkpt lat="48.84394" lon="2.38344">
        <ele>100.3</ele>
        <time>2015-02-23T21:18:06.176Z</time>
      </trkpt>
      <trkpt lat="48.84398" lon="2.38338">
        <ele>100.5</ele>
        <time>2015-02-23T21:18:07.217Z</time>
      </trkpt>
      <trkpt lat="48.84402" lon="2.38331">
        <ele>100.7</ele>
        <time>2015-02-23T21:18:08.222Z</time>
      </trkpt>
      <trkpt lat="48.84404" lon="2.38325">
        <ele>101</ele>
        <time>2015-02-23T21:18:09.229Z</time>
      </trkpt>
      <trkpt lat="48.84407" lon="2.38319">
        <ele>101.3</ele>
        <time>2015-02-23T21:18:10.146Z</time>
      </trkpt>
      <trkpt lat="48.8441" lon="2.38313">
        <ele>101.4</ele>
        <time>2015-02-23T21:18:11.144Z</time>
      </trkpt>
      <trkpt lat="48.84413" lon="2.38306">
        <ele>101.6</ele>
        <time>2015-02-23T21:18:12.191Z</time>
      </trkpt>
      <trkpt lat="48.84415" lon="2.38299">
        <ele>101.7</ele>
        <time>2015-02-23T21:18:13.207Z</time>
      </trkpt>
      <trkpt lat="48.84417" lon="2.38293">
        <ele>101.8</ele>
        <time>2015-02-23T21:18:14.217Z</time>
      </trkpt>
      <trkpt lat="48.84419" lon="2.38287">
        <ele>101.9</ele>
        <time>2015-02-23T21:18:15.126Z</time>
      </trkpt>
      <trkpt lat="48.84422" lon="2.38281">
        <ele>102</ele>
        <time>2015-02-23T21:18:16.142Z</time>
      </trkpt>
      <trkpt lat="48.84424" lon="2.38274">
        <ele>102.1</ele>
        <time>2015-02-23T21:18:17.163Z</time>
      </trkpt>
      <trkpt lat="48.84426" lon="2.38268">
        <ele>102.2</ele>
        <time>2015-02-23T21:18:18.176Z</time>
      </trkpt>
      <trkpt lat="48.84429" lon="2.38262">
        <ele>102.3</ele>
        <time>2015-02-23T21:18:19.182Z</time>
      </trkpt>
      <trkpt lat="48.84432" lon="2.38257">
        <ele>102.4</ele>
        <time>2015-02-23T21:18:20.186Z</time>
      </trkpt>
      <trkpt lat="48.84438" lon="2.38246">
        <ele>101.2</ele>
        <time>2015-02-23T21:18:22.204Z</time>
      </trkpt>
      <trkpt lat="48.84437" lon="2.38235">
        <ele>98.2</ele>
        <time>2015-02-23T21:18:24.166Z</time>
      </trkpt>
      <trkpt lat="48.84441" lon="2.3823">
        <ele>98</ele>
        <time>2015-02-23T21:18:25.204Z</time>
      </trkpt>
      <trkpt lat="48.84444" lon="2.38222">
        <ele>98.2</ele>
        <time>2015-02-23T21:18:27.324Z</time>
      </trkpt>
      <trkpt lat="48.84448" lon="2.38217">
        <ele>97.9</ele>
        <time>2015-02-23T21:18:28.156Z</time>
      </trkpt>
      <trkpt lat="48.84452" lon="2.38212">
        <ele>97.5</ele>
        <time>2015-02-23T21:18:29.168Z</time>
      </trkpt>
      <trkpt lat="48.84444" lon="2.38204">
        <ele>93</ele>
        <time>2015-02-23T21:18:30.199Z</time>
      </trkpt>
      <trkpt lat="48.84439" lon="2.38196">
        <ele>90</ele>
        <time>2015-02-23T21:18:31.220Z</time>
      </trkpt>
      <trkpt lat="48.84437" lon="2.3819">
        <ele>88.4</ele>
        <time>2015-02-23T21:18:32.232Z</time>
      </trkpt>
      <trkpt lat="48.8444" lon="2.38181">
        <ele>87.5</ele>
        <time>2015-02-23T21:18:34.142Z</time>
      </trkpt>
      <trkpt lat="48.84443" lon="2.38176">
        <ele>87.9</ele>
        <time>2015-02-23T21:18:35.165Z</time>
      </trkpt>
      <trkpt lat="48.84446" lon="2.38171">
        <ele>88.2</ele>
        <time>2015-02-23T21:18:36.180Z</time>
      </trkpt>
      <trkpt lat="48.84449" lon="2.38166">
        <ele>88.4</ele>
        <time>2015-02-23T21:18:37.180Z</time>
      </trkpt>
      <trkpt lat="48.84453" lon="2.38155">
        <ele>89.7</ele>
        <time>2015-02-23T21:18:39.238Z</time>
      </trkpt>
      <trkpt lat="48.84456" lon="2.38148">
        <ele>90.3</ele>
        <time>2015-02-23T21:18:40.168Z</time>
      </trkpt>
      <trkpt lat="48.8446" lon="2.38139">
        <ele>90.4</ele>
        <time>2015-02-23T21:18:41.169Z</time>
      </trkpt>
      <trkpt lat="48.8446" lon="2.38131">
        <ele>88.8</ele>
        <time>2015-02-23T21:18:42.193Z</time>
      </trkpt>
      <trkpt lat="48.84461" lon="2.38124">
        <ele>87.7</ele>
        <time>2015-02-23T21:18:43.229Z</time>
      </trkpt>
      <trkpt lat="48.84463" lon="2.38118">
        <ele>88.2</ele>
        <time>2015-02-23T21:18:44.240Z</time>
      </trkpt>
      <trkpt lat="48.84467" lon="2.38107">
        <ele>88.3</ele>
        <time>2015-02-23T21:18:46.170Z</time>
      </trkpt>
      <trkpt lat="48.8447" lon="2.38101">
        <ele>88.3</ele>
        <time>2015-02-23T21:18:47.175Z</time>
      </trkpt>
      <trkpt lat="48.84473" lon="2.38095">
        <ele>88.4</ele>
        <time>2015-02-23T21:18:48.208Z</time>
      </trkpt>
      <trkpt lat="48.84476" lon="2.3809">
        <ele>88.6</ele>
        <time>2015-02-23T21:18:49.216Z</time>
      </trkpt>
      <trkpt lat="48.84481" lon="2.38079">
        <ele>88.9</ele>
        <time>2015-02-23T21:18:51.153Z</time>
      </trkpt>
      <trkpt lat="48.84483" lon="2.38073">
        <ele>89.3</ele>
        <time>2015-02-23T21:18:52.168Z</time>
      </trkpt>
      <trkpt lat="48.84485" lon="2.38066">
        <ele>89.4</ele>
        <time>2015-02-23T21:18:53.243Z</time>
      </trkpt>
      <trkpt lat="48.84486" lon="2.38059">
        <ele>89.3</ele>
        <time>2015-02-23T21:18:54.246Z</time>
      </trkpt>
      <trkpt lat="48.8449" lon="2.38054">
        <ele>89.5</ele>
        <time>2015-02-23T21:18:55.133Z</time>
      </trkpt>
      <trkpt lat="48.84494" lon="2.3805">
        <ele>89.8</ele>
        <time>2015-02-23T21:18:56.170Z</time>
      </trkpt>
      <trkpt lat="48.84498" lon="2.38046">
        <ele>90.1</ele>
        <time>2015-02-23T21:18:57.178Z</time>
      </trkpt>
      <trkpt lat="48.84502" lon="2.38043">
        <ele>90.3</ele>
        <time>2015-02-23T21:18:58.205Z</time>
      </trkpt>
      <trkpt lat="48.84508" lon="2.38035">
        <ele>91</ele>
        <time>2015-02-23T21:19:00.187Z</time>
      </trkpt>
      <trkpt lat="48.84511" lon="2.38031">
        <ele>91.5</ele>
        <time>2015-02-23T21:19:01.213Z</time>
      </trkpt>
      <trkpt lat="48.84514" lon="2.38026">
        <ele>91.7</ele>
        <time>2015-02-23T21:19:02.221Z</time>
      </trkpt>
      <trkpt lat="48.84518" lon="2.38022">
        <ele>92</ele>
        <time>2015-02-23T21:19:03.241Z</time>
      </trkpt>
      <trkpt lat="48.84522" lon="2.38018">
        <ele>92.3</ele>
        <time>2015-02-23T21:19:04.158Z</time>
      </trkpt>
      <trkpt lat="48.84525" lon="2.38012">
        <ele>93</ele>
        <time>2015-02-23T21:19:05.163Z</time>
      </trkpt>
      <trkpt lat="48.84527" lon="2.38006">
        <ele>94</ele>
        <time>2015-02-23T21:19:06.187Z</time>
      </trkpt>
      <trkpt lat="48.84529" lon="2.37998">
        <ele>95.1</ele>
        <time>2015-02-23T21:19:07.192Z</time>
      </trkpt>
      <trkpt lat="48.84531" lon="2.37991">
        <ele>95.9</ele>
        <time>2015-02-23T21:19:08.211Z</time>
      </trkpt>
      <trkpt lat="48.84533" lon="2.37984">
        <ele>96.5</ele>
        <time>2015-02-23T21:19:09.239Z</time>
      </trkpt>
      <trkpt lat="48.84536" lon="2.37976">
        <ele>97.1</ele>
        <time>2015-02-23T21:19:10.154Z</time>
      </trkpt>
      <trkpt lat="48.84539" lon="2.3797">
        <ele>97.8</ele>
        <time>2015-02-23T21:19:11.170Z</time>
      </trkpt>
      <trkpt lat="48.84541" lon="2.37962">
        <ele>98.6</ele>
        <time>2015-02-23T21:19:12.184Z</time>
      </trkpt>
      <trkpt lat="48.84544" lon="2.37956">
        <ele>99.4</ele>
        <time>2015-02-23T21:19:13.189Z</time>
      </trkpt>
      <trkpt lat="48.84548" lon="2.3795">
        <ele>99.9</ele>
        <time>2015-02-23T21:19:14.133Z</time>
      </trkpt>
      <trkpt lat="48.84551" lon="2.37944">
        <ele>100.6</ele>
        <time>2015-02-23T21:19:15.153Z</time>
      </trkpt>
      <trkpt lat="48.84553" lon="2.37938">
        <ele>101.2</ele>
        <time>2015-02-23T21:19:16.164Z</time>
      </trkpt>
      <trkpt lat="48.84556" lon="2.37933">
        <ele>101.7</ele>
        <time>2015-02-23T21:19:17.183Z</time>
      </trkpt>
      <trkpt lat="48.84559" lon="2.37928">
        <ele>102.1</ele>
        <time>2015-02-23T21:19:18.196Z</time>
      </trkpt>
      <trkpt lat="48.84561" lon="2.37922">
        <ele>102.5</ele>
        <time>2015-02-23T21:19:19.206Z</time>
      </trkpt>
      <trkpt lat="48.84565" lon="2.37912">
        <ele>103.4</ele>
        <time>2015-02-23T21:19:21.134Z</time>
      </trkpt>
      <trkpt lat="48.84566" lon="2.37905">
        <ele>104</ele>
        <time>2015-02-23T21:19:22.152Z</time>
      </trkpt>
      <trkpt lat="48.84568" lon="2.37899">
        <ele>104.5</ele>
        <time>2015-02-23T21:19:23.170Z</time>
      </trkpt>
      <trkpt lat="48.84571" lon="2.37893">
        <ele>104.8</ele>
        <time>2015-02-23T21:19:24.205Z</time>
      </trkpt>
      <trkpt lat="48.84574" lon="2.37888">
        <ele>105.1</ele>
        <time>2015-02-23T21:19:25.241Z</time>
      </trkpt>
      <trkpt lat="48.84577" lon="2.37882">
        <ele>105.5</ele>
        <time>2015-02-23T21:19:26.154Z</time>
      </trkpt>
      <trkpt lat="48.8458" lon="2.37872">
        <ele>105.8</ele>
        <time>2015-02-23T21:19:28.153Z</time>
      </trkpt>
      <trkpt lat="48.84582" lon="2.37867">
        <ele>105.8</ele>
        <time>2015-02-23T21:19:29.158Z</time>
      </trkpt>
      <trkpt lat="48.84589" lon="2.37859">
        <ele>105.8</ele>
        <time>2015-02-23T21:19:31.194Z</time>
      </trkpt>
      <trkpt lat="48.84593" lon="2.37855">
        <ele>105.8</ele>
        <time>2015-02-23T21:19:32.203Z</time>
      </trkpt>
      <trkpt lat="48.846" lon="2.37848">
        <ele>105.8</ele>
        <time>2015-02-23T21:19:34.589Z</time>
      </trkpt>
      <trkpt lat="48.84603" lon="2.37844">
        <ele>105.8</ele>
        <time>2015-02-23T21:19:35.177Z</time>
      </trkpt>
      <trkpt lat="48.84611" lon="2.37838">
        <ele>105.7</ele>
        <time>2015-02-23T21:19:37.826Z</time>
      </trkpt>
      <trkpt lat="48.84615" lon="2.37835">
        <ele>105.7</ele>
        <time>2015-02-23T21:19:38.144Z</time>
      </trkpt>
      <trkpt lat="48.84619" lon="2.37827">
        <ele>104</ele>
        <time>2015-02-23T21:19:40.197Z</time>
      </trkpt>
      <trkpt lat="48.84623" lon="2.37825">
        <ele>104.1</ele>
        <time>2015-02-23T21:19:41.378Z</time>
      </trkpt>
      <trkpt lat="48.84632" lon="2.37821">
        <ele>103.9</ele>
        <time>2015-02-23T21:19:43.240Z</time>
      </trkpt>
      <trkpt lat="48.84635" lon="2.37818">
        <ele>103.9</ele>
        <time>2015-02-23T21:19:44.285Z</time>
      </trkpt>
      <trkpt lat="48.84641" lon="2.37812">
        <ele>103.7</ele>
        <time>2015-02-23T21:19:46.200Z</time>
      </trkpt>
      <trkpt lat="48.84644" lon="2.37809">
        <ele>103.7</ele>
        <time>2015-02-23T21:19:47.209Z</time>
      </trkpt>
      <trkpt lat="48.84649" lon="2.37804">
        <ele>103.8</ele>
        <time>2015-02-23T21:19:49.249Z</time>
      </trkpt>
      <trkpt lat="48.84652" lon="2.37801">
        <ele>103.8</ele>
        <time>2015-02-23T21:19:50.134Z</time>
      </trkpt>
      <trkpt lat="48.84658" lon="2.37796">
        <ele>103.8</ele>
        <time>2015-02-23T21:19:53.033Z</time>
      </trkpt>
      <trkpt lat="48.8466" lon="2.37793">
        <ele>103.8</ele>
        <time>2015-02-23T21:19:53.174Z</time>
      </trkpt>
      <trkpt lat="48.84665" lon="2.37784">
        <ele>103.7</ele>
        <time>2015-02-23T21:19:55.192Z</time>
      </trkpt>
      <trkpt lat="48.84666" lon="2.3778">
        <ele>103.7</ele>
        <time>2015-02-23T21:19:56.203Z</time>
      </trkpt>
      <trkpt lat="48.84665" lon="2.37766">
        <ele>102.2</ele>
        <time>2015-02-23T21:19:59.194Z</time>
      </trkpt>
      <trkpt lat="48.84663" lon="2.37761">
        <ele>101.1</ele>
        <time>2015-02-23T21:20:00.212Z</time>
      </trkpt>
      <trkpt lat="48.84662" lon="2.3775">
        <ele>99.8</ele>
        <time>2015-02-23T21:20:02.247Z</time>
      </trkpt>
      <trkpt lat="48.84665" lon="2.37744">
        <ele>100</ele>
        <time>2015-02-23T21:20:03.371Z</time>
      </trkpt>
      <trkpt lat="48.84667" lon="2.37738">
        <ele>100.2</ele>
        <time>2015-02-23T21:20:04.154Z</time>
      </trkpt>
      <trkpt lat="48.8467" lon="2.37731">
        <ele>100.6</ele>
        <time>2015-02-23T21:20:05.164Z</time>
      </trkpt>
      <trkpt lat="48.84672" lon="2.37724">
        <ele>100.8</ele>
        <time>2015-02-23T21:20:06.191Z</time>
      </trkpt>
      <trkpt lat="48.84675" lon="2.37718">
        <ele>101</ele>
        <time>2015-02-23T21:20:07.200Z</time>
      </trkpt>
      <trkpt lat="48.84674" lon="2.37707">
        <ele>100.6</ele>
        <time>2015-02-23T21:20:08.630Z</time>
      </trkpt>
      <trkpt lat="48.84671" lon="2.37699">
        <ele>98.7</ele>
        <time>2015-02-23T21:20:09.220Z</time>
      </trkpt>
      <trkpt lat="48.84671" lon="2.37692">
        <ele>97.8</ele>
        <time>2015-02-23T21:20:10.230Z</time>
      </trkpt>
      <trkpt lat="48.84675" lon="2.37686">
        <ele>98.3</ele>
        <time>2015-02-23T21:20:11.229Z</time>
      </trkpt>
      <trkpt lat="48.84678" lon="2.37681">
        <ele>98.7</ele>
        <time>2015-02-23T21:20:12.233Z</time>
      </trkpt>
      <trkpt lat="48.84683" lon="2.37677">
        <ele>99.2</ele>
        <time>2015-02-23T21:20:13.247Z</time>
      </trkpt>
      <trkpt lat="48.84688" lon="2.37673">
        <ele>99.5</ele>
        <time>2015-02-23T21:20:14.157Z</time>
      </trkpt>
      <trkpt lat="48.84693" lon="2.3767">
        <ele>99.8</ele>
        <time>2015-02-23T21:20:15.165Z</time>
      </trkpt>
      <trkpt lat="48.84698" lon="2.37666">
        <ele>100</ele>
        <time>2015-02-23T21:20:16.201Z</time>
      </trkpt>
      <trkpt lat="48.84704" lon="2.37662">
        <ele>100.4</ele>
        <time>2015-02-23T21:20:17.238Z</time>
      </trkpt>
      <trkpt lat="48.84709" lon="2.3766">
        <ele>100.7</ele>
        <time>2015-02-23T21:20:18.949Z</time>
      </trkpt>
      <trkpt lat="48.84713" lon="2.37656">
        <ele>101.1</ele>
        <time>2015-02-23T21:20:19.172Z</time>
      </trkpt>
      <trkpt lat="48.8472" lon="2.37648">
        <ele>102</ele>
        <time>2015-02-23T21:20:21.216Z</time>
      </trkpt>
      <trkpt lat="48.84724" lon="2.37644">
        <ele>102.3</ele>
        <time>2015-02-23T21:20:22.223Z</time>
      </trkpt>
      <trkpt lat="48.84732" lon="2.37641">
        <ele>102.3</ele>
        <time>2015-02-23T21:20:23.148Z</time>
      </trkpt>
      <trkpt lat="48.84739" lon="2.37639">
        <ele>102.6</ele>
        <time>2015-02-23T21:20:24.185Z</time>
      </trkpt>
      <trkpt lat="48.84746" lon="2.37636">
        <ele>102.8</ele>
        <time>2015-02-23T21:20:25.191Z</time>
      </trkpt>
      <trkpt lat="48.84753" lon="2.37633">
        <ele>102.9</ele>
        <time>2015-02-23T21:20:26.203Z</time>
      </trkpt>
      <trkpt lat="48.8476" lon="2.3763">
        <ele>103</ele>
        <time>2015-02-23T21:20:27.210Z</time>
      </trkpt>
      <trkpt lat="48.84767" lon="2.37627">
        <ele>103.1</ele>
        <time>2015-02-23T21:20:28.219Z</time>
      </trkpt>
      <trkpt lat="48.84774" lon="2.37626">
        <ele>103.3</ele>
        <time>2015-02-23T21:20:29.278Z</time>
      </trkpt>
      <trkpt lat="48.84783" lon="2.37624">
        <ele>103.4</ele>
        <time>2015-02-23T21:20:30.198Z</time>
      </trkpt>
      <trkpt lat="48.8479" lon="2.37622">
        <ele>103.5</ele>
        <time>2015-02-23T21:20:31.179Z</time>
      </trkpt>
      <trkpt lat="48.84795" lon="2.37619">
        <ele>103</ele>
        <time>2015-02-23T21:20:32.251Z</time>
      </trkpt>
      <trkpt lat="48.84802" lon="2.37616">
        <ele>102.9</ele>
        <time>2015-02-23T21:20:33.146Z</time>
      </trkpt>
      <trkpt lat="48.84807" lon="2.37613">
        <ele>102.9</ele>
        <time>2015-02-23T21:20:34.146Z</time>
      </trkpt>
      <trkpt lat="48.84812" lon="2.3761">
        <ele>102.7</ele>
        <time>2015-02-23T21:20:35.164Z</time>
      </trkpt>
      <trkpt lat="48.84817" lon="2.37608">
        <ele>102.4</ele>
        <time>2015-02-23T21:20:36.194Z</time>
      </trkpt>
      <trkpt lat="48.84823" lon="2.37605">
        <ele>102.1</ele>
        <time>2015-02-23T21:20:37.195Z</time>
      </trkpt>
      <trkpt lat="48.84828" lon="2.37602">
        <ele>101.9</ele>
        <time>2015-02-23T21:20:38.291Z</time>
      </trkpt>
      <trkpt lat="48.84833" lon="2.37599">
        <ele>101.7</ele>
        <time>2015-02-23T21:20:39.147Z</time>
      </trkpt>
      <trkpt lat="48.84839" lon="2.37596">
        <ele>101.4</ele>
        <time>2015-02-23T21:20:40.152Z</time>
      </trkpt>
      <trkpt lat="48.84845" lon="2.37594">
        <ele>101.2</ele>
        <time>2015-02-23T21:20:41.156Z</time>
      </trkpt>
      <trkpt lat="48.84856" lon="2.3759">
        <ele>100.4</ele>
        <time>2015-02-23T21:20:42.202Z</time>
      </trkpt>
      <trkpt lat="48.84862" lon="2.37585">
        <ele>99.8</ele>
        <time>2015-02-23T21:20:43.327Z</time>
      </trkpt>
      <trkpt lat="48.84867" lon="2.37578">
        <ele>99.2</ele>
        <time>2015-02-23T21:20:44.164Z</time>
      </trkpt>
      <trkpt lat="48.84866" lon="2.37567">
        <ele>98.3</ele>
        <time>2015-02-23T21:20:45.187Z</time>
      </trkpt>
      <trkpt lat="48.84862" lon="2.37555">
        <ele>97.7</ele>
        <time>2015-02-23T21:20:46.223Z</time>
      </trkpt>
      <trkpt lat="48.84858" lon="2.37543">
        <ele>96.8</ele>
        <time>2015-02-23T21:20:47.228Z</time>
      </trkpt>
      <trkpt lat="48.84856" lon="2.37531">
        <ele>96.1</ele>
        <time>2015-02-23T21:20:48.232Z</time>
      </trkpt>
      <trkpt lat="48.84856" lon="2.3752">
        <ele>95.6</ele>
        <time>2015-02-23T21:20:49.245Z</time>
      </trkpt>
      <trkpt lat="48.84856" lon="2.37511">
        <ele>95.1</ele>
        <time>2015-02-23T21:20:50.133Z</time>
      </trkpt>
      <trkpt lat="48.84859" lon="2.37503">
        <ele>95.1</ele>
        <time>2015-02-23T21:20:51.163Z</time>
      </trkpt>
      <trkpt lat="48.84863" lon="2.37497">
        <ele>95.4</ele>
        <time>2015-02-23T21:20:52.179Z</time>
      </trkpt>
      <trkpt lat="48.84863" lon="2.37489">
        <ele>93.9</ele>
        <time>2015-02-23T21:20:53.201Z</time>
      </trkpt>
      <trkpt lat="48.8486" lon="2.37479">
        <ele>91.5</ele>
        <time>2015-02-23T21:20:54.255Z</time>
      </trkpt>
      <trkpt lat="48.84864" lon="2.37473">
        <ele>92</ele>
        <time>2015-02-23T21:20:55.163Z</time>
      </trkpt>
      <trkpt lat="48.84868" lon="2.37467">
        <ele>92.4</ele>
        <time>2015-02-23T21:20:56.177Z</time>
      </trkpt>
      <trkpt lat="48.84871" lon="2.37462">
        <ele>93</ele>
        <time>2015-02-23T21:20:57.258Z</time>
      </trkpt>
      <trkpt lat="48.84876" lon="2.37455">
        <ele>93.3</ele>
        <time>2015-02-23T21:20:58.166Z</time>
      </trkpt>
      <trkpt lat="48.84882" lon="2.37448">
        <ele>93.6</ele>
        <time>2015-02-23T21:20:59.182Z</time>
      </trkpt>
      <trkpt lat="48.84886" lon="2.37441">
        <ele>94</ele>
        <time>2015-02-23T21:21:00.181Z</time>
      </trkpt>
      <trkpt lat="48.8489" lon="2.37435">
        <ele>94.5</ele>
        <time>2015-02-23T21:21:01.195Z</time>
      </trkpt>
      <trkpt lat="48.84895" lon="2.37427">
        <ele>94.8</ele>
        <time>2015-02-23T21:21:02.205Z</time>
      </trkpt>
      <trkpt lat="48.849" lon="2.3742">
        <ele>95.2</ele>
        <time>2015-02-23T21:21:03.259Z</time>
      </trkpt>
      <trkpt lat="48.84904" lon="2.37413">
        <ele>95.8</ele>
        <time>2015-02-23T21:21:04.149Z</time>
      </trkpt>
      <trkpt lat="48.8491" lon="2.37408">
        <ele>96.4</ele>
        <time>2015-02-23T21:21:05.152Z</time>
      </trkpt>
      <trkpt lat="48.84914" lon="2.37404">
        <ele>96.6</ele>
        <time>2015-02-23T21:21:06.186Z</time>
      </trkpt>
      <trkpt lat="48.84919" lon="2.374">
        <ele>96.9</ele>
        <time>2015-02-23T21:21:07.195Z</time>
      </trkpt>
      <trkpt lat="48.84925" lon="2.37396">
        <ele>97.1</ele>
        <time>2015-02-23T21:21:08.210Z</time>
      </trkpt>
      <trkpt lat="48.84928" lon="2.37391">
        <ele>97.2</ele>
        <time>2015-02-23T21:21:09.216Z</time>
      </trkpt>
      <trkpt lat="48.8493" lon="2.37386">
        <ele>97.5</ele>
        <time>2015-02-23T21:21:10.236Z</time>
      </trkpt>
      <trkpt lat="48.84929" lon="2.37377">
        <ele>97.8</ele>
        <time>2015-02-23T21:21:11.141Z</time>
      </trkpt>
      <trkpt lat="48.84928" lon="2.37368">
        <ele>98</ele>
        <time>2015-02-23T21:21:12.185Z</time>
      </trkpt>
      <trkpt lat="48.8493" lon="2.3736">
        <ele>98.2</ele>
        <time>2015-02-23T21:21:13.190Z</time>
      </trkpt>
      <trkpt lat="48.84923" lon="2.37348">
        <ele>95.5</ele>
        <time>2015-02-23T21:21:14.196Z</time>
      </trkpt>
      <trkpt lat="48.84916" lon="2.37334">
        <ele>92.7</ele>
        <time>2015-02-23T21:21:15.200Z</time>
      </trkpt>
      <trkpt lat="48.84893" lon="2.37312">
        <ele>88.2</ele>
        <time>2015-02-23T21:21:16.449Z</time>
      </trkpt>
      <trkpt lat="48.84886" lon="2.373">
        <ele>85.6</ele>
        <time>2015-02-23T21:21:17.170Z</time>
      </trkpt>
      <trkpt lat="48.84882" lon="2.37289">
        <ele>83.8</ele>
        <time>2015-02-23T21:21:18.182Z</time>
      </trkpt>
      <trkpt lat="48.8488" lon="2.3728">
        <ele>82.6</ele>
        <time>2015-02-23T21:21:19.286Z</time>
      </trkpt>
      <trkpt lat="48.84882" lon="2.37273">
        <ele>84.2</ele>
        <time>2015-02-23T21:21:20.133Z</time>
      </trkpt>
      <trkpt lat="48.84884" lon="2.37266">
        <ele>86.1</ele>
        <time>2015-02-23T21:21:21.145Z</time>
      </trkpt>
      <trkpt lat="48.84886" lon="2.3726">
        <ele>88</ele>
        <time>2015-02-23T21:21:22.175Z</time>
      </trkpt>
      <trkpt lat="48.84889" lon="2.37253">
        <ele>89.7</ele>
        <time>2015-02-23T21:21:23.186Z</time>
      </trkpt>
      <trkpt lat="48.84892" lon="2.37247">
        <ele>91.3</ele>
        <time>2015-02-23T21:21:24.193Z</time>
      </trkpt>
      <trkpt lat="48.84897" lon="2.37242">
        <ele>92.4</ele>
        <time>2015-02-23T21:21:25.192Z</time>
      </trkpt>
      <trkpt lat="48.84898" lon="2.37234">
        <ele>94.2</ele>
        <time>2015-02-23T21:21:26.206Z</time>
      </trkpt>
      <trkpt lat="48.84901" lon="2.37226">
        <ele>95.8</ele>
        <time>2015-02-23T21:21:27.210Z</time>
      </trkpt>
      <trkpt lat="48.84903" lon="2.37218">
        <ele>97.6</ele>
        <time>2015-02-23T21:21:28.227Z</time>
      </trkpt>
      <trkpt lat="48.84904" lon="2.37208">
        <ele>100</ele>
        <time>2015-02-23T21:21:29.153Z</time>
      </trkpt>
      <trkpt lat="48.84905" lon="2.37199">
        <ele>101.7</ele>
        <time>2015-02-23T21:21:30.205Z</time>
      </trkpt>
      <trkpt lat="48.84906" lon="2.3719">
        <ele>103.3</ele>
        <time>2015-02-23T21:21:31.194Z</time>
      </trkpt>
      <trkpt lat="48.84906" lon="2.37182">
        <ele>105</ele>
        <time>2015-02-23T21:21:32.206Z</time>
      </trkpt>
      <trkpt lat="48.84911" lon="2.37175">
        <ele>105.6</ele>
        <time>2015-02-23T21:21:33.223Z</time>
      </trkpt>
      <trkpt lat="48.84912" lon="2.37168">
        <ele>106.7</ele>
        <time>2015-02-23T21:21:34.134Z</time>
      </trkpt>
      <trkpt lat="48.84916" lon="2.37159">
        <ele>107.3</ele>
        <time>2015-02-23T21:21:35.142Z</time>
      </trkpt>
      <trkpt lat="48.8492" lon="2.37151">
        <ele>107.7</ele>
        <time>2015-02-23T21:21:36.144Z</time>
      </trkpt>
      <trkpt lat="48.84924" lon="2.37143">
        <ele>108.1</ele>
        <time>2015-02-23T21:21:37.166Z</time>
      </trkpt>
      <trkpt lat="48.84928" lon="2.37135">
        <ele>108.2</ele>
        <time>2015-02-23T21:21:38.195Z</time>
      </trkpt>
      <trkpt lat="48.84932" lon="2.37128">
        <ele>108</ele>
        <time>2015-02-23T21:21:39.203Z</time>
      </trkpt>
      <trkpt lat="48.84937" lon="2.37121">
        <ele>107.4</ele>
        <time>2015-02-23T21:21:40.214Z</time>
      </trkpt>
      <trkpt lat="48.8494" lon="2.37115">
        <ele>106.6</ele>
        <time>2015-02-23T21:21:41.215Z</time>
      </trkpt>
      <trkpt lat="48.84945" lon="2.37107">
        <ele>106.7</ele>
        <time>2015-02-23T21:21:42.231Z</time>
      </trkpt>
      <trkpt lat="48.8495" lon="2.371">
        <ele>107.1</ele>
        <time>2015-02-23T21:21:43.153Z</time>
      </trkpt>
      <trkpt lat="48.84956" lon="2.37092">
        <ele>107.5</ele>
        <time>2015-02-23T21:21:44.190Z</time>
      </trkpt>
      <trkpt lat="48.84962" lon="2.37086">
        <ele>108</ele>
        <time>2015-02-23T21:21:45.145Z</time>
      </trkpt>
      <trkpt lat="48.84967" lon="2.37077">
        <ele>109.8</ele>
        <time>2015-02-23T21:21:46.176Z</time>
      </trkpt>
      <trkpt lat="48.84972" lon="2.37069">
        <ele>110.8</ele>
        <time>2015-02-23T21:21:47.231Z</time>
      </trkpt>
      <trkpt lat="48.84976" lon="2.37064">
        <ele>111.3</ele>
        <time>2015-02-23T21:21:48.237Z</time>
      </trkpt>
      <trkpt lat="48.8498" lon="2.37061">
        <ele>111.7</ele>
        <time>2015-02-23T21:21:49.155Z</time>
      </trkpt>
      <trkpt lat="48.84986" lon="2.37058">
        <ele>111.8</ele>
        <time>2015-02-23T21:21:50.170Z</time>
      </trkpt>
      <trkpt lat="48.84992" lon="2.37056">
        <ele>111.8</ele>
        <time>2015-02-23T21:21:51.132Z</time>
      </trkpt>
      <trkpt lat="48.84998" lon="2.37052">
        <ele>111.9</ele>
        <time>2015-02-23T21:21:52.155Z</time>
      </trkpt>
      <trkpt lat="48.85002" lon="2.3705">
        <ele>111.7</ele>
        <time>2015-02-23T21:21:53.204Z</time>
      </trkpt>
      <trkpt lat="48.8501" lon="2.37047">
        <ele>110.8</ele>
        <time>2015-02-23T21:21:55.204Z</time>
      </trkpt>
      <trkpt lat="48.85015" lon="2.37045">
        <ele>110.6</ele>
        <time>2015-02-23T21:21:56.224Z</time>
      </trkpt>
      <trkpt lat="48.85022" lon="2.37041">
        <ele>110.3</ele>
        <time>2015-02-23T21:21:57.228Z</time>
      </trkpt>
      <trkpt lat="48.85028" lon="2.37037">
        <ele>110.4</ele>
        <time>2015-02-23T21:21:58.586Z</time>
      </trkpt>
      <trkpt lat="48.85033" lon="2.37034">
        <ele>110.5</ele>
        <time>2015-02-23T21:21:59.157Z</time>
      </trkpt>
      <trkpt lat="48.85039" lon="2.37032">
        <ele>111</ele>
        <time>2015-02-23T21:22:00.160Z</time>
      </trkpt>
      <trkpt lat="48.85046" lon="2.37029">
        <ele>111.2</ele>
        <time>2015-02-23T21:22:01.276Z</time>
      </trkpt>
      <trkpt lat="48.85055" lon="2.37026">
        <ele>111.7</ele>
        <time>2015-02-23T21:22:02.184Z</time>
      </trkpt>
      <trkpt lat="48.85062" lon="2.37023">
        <ele>111.7</ele>
        <time>2015-02-23T21:22:03.200Z</time>
      </trkpt>
      <trkpt lat="48.85067" lon="2.37019">
        <ele>111.8</ele>
        <time>2015-02-23T21:22:04.213Z</time>
      </trkpt>
      <trkpt lat="48.85071" lon="2.37014">
        <ele>112.4</ele>
        <time>2015-02-23T21:22:05.153Z</time>
      </trkpt>
      <trkpt lat="48.85078" lon="2.3701">
        <ele>113.1</ele>
        <time>2015-02-23T21:22:06.181Z</time>
      </trkpt>
      <trkpt lat="48.85085" lon="2.37007">
        <ele>114</ele>
        <time>2015-02-23T21:22:07.181Z</time>
      </trkpt>
      <trkpt lat="48.85094" lon="2.37005">
        <ele>114.7</ele>
        <time>2015-02-23T21:22:08.231Z</time>
      </trkpt>
      <trkpt lat="48.851" lon="2.37002">
        <ele>114.7</ele>
        <time>2015-02-23T21:22:09.148Z</time>
      </trkpt>
      <trkpt lat="48.85104" lon="2.36999">
        <ele>114.8</ele>
        <time>2015-02-23T21:22:10.164Z</time>
      </trkpt>
      <trkpt lat="48.8511" lon="2.36996">
        <ele>114.4</ele>
        <time>2015-02-23T21:22:11.181Z</time>
      </trkpt>
      <trkpt lat="48.85118" lon="2.36994">
        <ele>115</ele>
        <time>2015-02-23T21:22:12.216Z</time>
      </trkpt>
      <trkpt lat="48.85126" lon="2.36993">
        <ele>116</ele>
        <time>2015-02-23T21:22:13.220Z</time>
      </trkpt>
      <trkpt lat="48.85135" lon="2.36992">
        <ele>117.1</ele>
        <time>2015-02-23T21:22:14.231Z</time>
      </trkpt>
      <trkpt lat="48.85142" lon="2.3699">
        <ele>117.5</ele>
        <time>2015-02-23T21:22:15.253Z</time>
      </trkpt>
      <trkpt lat="48.8515" lon="2.3699">
        <ele>117.8</ele>
        <time>2015-02-23T21:22:16.169Z</time>
      </trkpt>
      <trkpt lat="48.85155" lon="2.36988">
        <ele>118.1</ele>
        <time>2015-02-23T21:22:17.163Z</time>
      </trkpt>
      <trkpt lat="48.85161" lon="2.36985">
        <ele>118.5</ele>
        <time>2015-02-23T21:22:18.194Z</time>
      </trkpt>
      <trkpt lat="48.85168" lon="2.36983">
        <ele>120.1</ele>
        <time>2015-02-23T21:22:19.201Z</time>
      </trkpt>
      <trkpt lat="48.85175" lon="2.36981">
        <ele>121.5</ele>
        <time>2015-02-23T21:22:20.207Z</time>
      </trkpt>
      <trkpt lat="48.85183" lon="2.36979">
        <ele>122.9</ele>
        <time>2015-02-23T21:22:21.155Z</time>
      </trkpt>
      <trkpt lat="48.85188" lon="2.36975">
        <ele>123.4</ele>
        <time>2015-02-23T21:22:22.157Z</time>
      </trkpt>
      <trkpt lat="48.85196" lon="2.36971">
        <ele>124.9</ele>
        <time>2015-02-23T21:22:24.204Z</time>
      </trkpt>
      <trkpt lat="48.85198" lon="2.36969">
        <ele>126</ele>
        <time>2015-02-23T21:22:25.209Z</time>
      </trkpt>
      <trkpt lat="48.85198" lon="2.36956">
        <ele>124.7</ele>
        <time>2015-02-23T21:22:29.168Z</time>
      </trkpt>
      <trkpt lat="48.85198" lon="2.36954">
        <ele>124</ele>
        <time>2015-02-23T21:22:30.285Z</time>
      </trkpt>
      <trkpt lat="48.85205" lon="2.36946">
        <ele>123.8</ele>
        <time>2015-02-23T21:22:36.226Z</time>
      </trkpt>
      <trkpt lat="48.85206" lon="2.36944">
        <ele>123.4</ele>
        <time>2015-02-23T21:22:37.251Z</time>
      </trkpt>
      <trkpt lat="48.8521" lon="2.36942">
        <ele>123.4</ele>
        <time>2015-02-23T21:22:41.177Z</time>
      </trkpt>
      <trkpt lat="48.85211" lon="2.36942">
        <ele>123.5</ele>
        <time>2015-02-23T21:22:42.219Z</time>
      </trkpt>
      <trkpt lat="48.85211" lon="2.36941">
        <ele>123.8</ele>
        <time>2015-02-23T21:22:57.174Z</time>
      </trkpt>
      <trkpt lat="48.85212" lon="2.36939">
        <ele>128.7</ele>
        <time>2015-02-23T21:22:58.190Z</time>
      </trkpt>
      <trkpt lat="48.8522" lon="2.36934">
        <ele>129.5</ele>
        <time>2015-02-23T21:23:01.153Z</time>
      </trkpt>
      <trkpt lat="48.85222" lon="2.36931">
        <ele>129.8</ele>
        <time>2015-02-23T21:23:02.196Z</time>
      </trkpt>
      <trkpt lat="48.85228" lon="2.36925">
        <ele>130.6</ele>
        <time>2015-02-23T21:23:05.277Z</time>
      </trkpt>
      <trkpt lat="48.85231" lon="2.36925">
        <ele>130.5</ele>
        <time>2015-02-23T21:23:06.295Z</time>
      </trkpt>
      <trkpt lat="48.85238" lon="2.36931">
        <ele>127.7</ele>
        <time>2015-02-23T21:23:08.161Z</time>
      </trkpt>
      <trkpt lat="48.85241" lon="2.36933">
        <ele>126.5</ele>
        <time>2015-02-23T21:23:09.177Z</time>
      </trkpt>
      <trkpt lat="48.85246" lon="2.36939">
        <ele>124.2</ele>
        <time>2015-02-23T21:24:07.182Z</time>
      </trkpt>
      <trkpt lat="48.8527" lon="2.36929">
        <ele>105.2</ele>
        <time>2015-02-23T21:24:08.168Z</time>
      </trkpt>
      <trkpt lat="48.85266" lon="2.36918">
        <ele>102.4</ele>
        <time>2015-02-23T21:24:13.246Z</time>
      </trkpt>
      <trkpt lat="48.85264" lon="2.36915">
        <ele>102.1</ele>
        <time>2015-02-23T21:24:14.168Z</time>
      </trkpt>
      <trkpt lat="48.85263" lon="2.36903">
        <ele>100.8</ele>
        <time>2015-02-23T21:24:17.203Z</time>
      </trkpt>
      <trkpt lat="48.85263" lon="2.36899">
        <ele>100.6</ele>
        <time>2015-02-23T21:24:18.224Z</time>
      </trkpt>
      <trkpt lat="48.85265" lon="2.36886">
        <ele>99.8</ele>
        <time>2015-02-23T21:24:22.193Z</time>
      </trkpt>
      <trkpt lat="48.85265" lon="2.36885">
        <ele>99.8</ele>
        <time>2015-02-23T21:24:23.197Z</time>
      </trkpt>
      <trkpt lat="48.85267" lon="2.36875">
        <ele>99.9</ele>
        <time>2015-02-23T21:24:26.179Z</time>
      </trkpt>
      <trkpt lat="48.85268" lon="2.36872">
        <ele>99.6</ele>
        <time>2015-02-23T21:24:27.220Z</time>
      </trkpt>
      <trkpt lat="48.85268" lon="2.36869">
        <ele>99.2</ele>
        <time>2015-02-23T21:24:31.172Z</time>
      </trkpt>
      <trkpt lat="48.85269" lon="2.36857">
        <ele>98.6</ele>
        <time>2015-02-23T21:24:32.183Z</time>
      </trkpt>
      <trkpt lat="48.85268" lon="2.36845">
        <ele>95.6</ele>
        <time>2015-02-23T21:24:38.223Z</time>
      </trkpt>
      <trkpt lat="48.85268" lon="2.36843">
        <ele>95</ele>
        <time>2015-02-23T21:24:39.238Z</time>
      </trkpt>
      <trkpt lat="48.85266" lon="2.3684">
        <ele>94.8</ele>
        <time>2015-02-23T21:24:53.196Z</time>
      </trkpt>
      <trkpt lat="48.85284" lon="2.36821">
        <ele>87.9</ele>
        <time>2015-02-23T21:24:54.277Z</time>
      </trkpt>
      <trkpt lat="48.85292" lon="2.36818">
        <ele>88.8</ele>
        <time>2015-02-23T21:24:57.201Z</time>
      </trkpt>
      <trkpt lat="48.85295" lon="2.36816">
        <ele>88.9</ele>
        <time>2015-02-23T21:24:58.240Z</time>
      </trkpt>
      <trkpt lat="48.85303" lon="2.36811">
        <ele>88.3</ele>
        <time>2015-02-23T21:25:04.185Z</time>
      </trkpt>
      <trkpt lat="48.85305" lon="2.36812">
        <ele>88.3</ele>
        <time>2015-02-23T21:25:05.155Z</time>
      </trkpt>
      <trkpt lat="48.85312" lon="2.36818">
        <ele>87.5</ele>
        <time>2015-02-23T21:25:09.132Z</time>
      </trkpt>
      <trkpt lat="48.85313" lon="2.36822">
        <ele>87</ele>
        <time>2015-02-23T21:25:10.125Z</time>
      </trkpt>
      <trkpt lat="48.85316" lon="2.3683">
        <ele>85.5</ele>
        <time>2015-02-23T21:26:00.167Z</time>
      </trkpt>
      <trkpt lat="48.85336" lon="2.36799">
        <ele>86</ele>
        <time>2015-02-23T21:26:01.228Z</time>
      </trkpt>
      <trkpt lat="48.85339" lon="2.36791">
        <ele>85.6</ele>
        <time>2015-02-23T21:26:04.150Z</time>
      </trkpt>
      <trkpt lat="48.8534" lon="2.36787">
        <ele>85.7</ele>
        <time>2015-02-23T21:26:05.291Z</time>
      </trkpt>
      <trkpt lat="48.85342" lon="2.36781">
        <ele>85.6</ele>
        <time>2015-02-23T21:26:06.189Z</time>
      </trkpt>
      <trkpt lat="48.85346" lon="2.36775">
        <ele>85.5</ele>
        <time>2015-02-23T21:26:07.194Z</time>
      </trkpt>
      <trkpt lat="48.85349" lon="2.36766">
        <ele>85.7</ele>
        <time>2015-02-23T21:26:09.241Z</time>
      </trkpt>
      <trkpt lat="48.8535" lon="2.36761">
        <ele>85.8</ele>
        <time>2015-02-23T21:26:10.125Z</time>
      </trkpt>
      <trkpt lat="48.85352" lon="2.36752">
        <ele>85.9</ele>
        <time>2015-02-23T21:26:12.231Z</time>
      </trkpt>
      <trkpt lat="48.85353" lon="2.36747">
        <ele>86.1</ele>
        <time>2015-02-23T21:26:13.259Z</time>
      </trkpt>
      <trkpt lat="48.85359" lon="2.36737">
        <ele>86.7</ele>
        <time>2015-02-23T21:26:15.160Z</time>
      </trkpt>
      <trkpt lat="48.85361" lon="2.36732">
        <ele>86.7</ele>
        <time>2015-02-23T21:26:17.279Z</time>
      </trkpt>
      <trkpt lat="48.85363" lon="2.36722">
        <ele>87.2</ele>
        <time>2015-02-23T21:26:20.308Z</time>
      </trkpt>
      <trkpt lat="48.85366" lon="2.36718">
        <ele>87.2</ele>
        <time>2015-02-23T21:26:21.160Z</time>
      </trkpt>
      <trkpt lat="48.85368" lon="2.36705">
        <ele>87.4</ele>
        <time>2015-02-23T21:26:24.235Z</time>
      </trkpt>
      <trkpt lat="48.85368" lon="2.36701">
        <ele>87.4</ele>
        <time>2015-02-23T21:26:25.163Z</time>
      </trkpt>
      <trkpt lat="48.85365" lon="2.3669">
        <ele>87</ele>
        <time>2015-02-23T21:26:27.241Z</time>
      </trkpt>
      <trkpt lat="48.85363" lon="2.36684">
        <ele>86</ele>
        <time>2015-02-23T21:26:28.155Z</time>
      </trkpt>
      <trkpt lat="48.85359" lon="2.36676">
        <ele>84.4</ele>
        <time>2015-02-23T21:26:29.148Z</time>
      </trkpt>
      <trkpt lat="48.85359" lon="2.36669">
        <ele>84.1</ele>
        <time>2015-02-23T21:26:30.176Z</time>
      </trkpt>
      <trkpt lat="48.8536" lon="2.36657">
        <ele>83.4</ele>
        <time>2015-02-23T21:26:32.192Z</time>
      </trkpt>
      <trkpt lat="48.85361" lon="2.36651">
        <ele>83.2</ele>
        <time>2015-02-23T21:26:33.216Z</time>
      </trkpt>
      <trkpt lat="48.85364" lon="2.36639">
        <ele>83.6</ele>
        <time>2015-02-23T21:26:35.235Z</time>
      </trkpt>
      <trkpt lat="48.85368" lon="2.36634">
        <ele>84.2</ele>
        <time>2015-02-23T21:26:36.242Z</time>
      </trkpt>
      <trkpt lat="48.85373" lon="2.36625">
        <ele>84.7</ele>
        <time>2015-02-23T21:26:38.182Z</time>
      </trkpt>
      <trkpt lat="48.85375" lon="2.3662">
        <ele>85</ele>
        <time>2015-02-23T21:26:39.158Z</time>
      </trkpt>
      <trkpt lat="48.85377" lon="2.36609">
        <ele>85.2</ele>
        <time>2015-02-23T21:26:41.209Z</time>
      </trkpt>
      <trkpt lat="48.85378" lon="2.36602">
        <ele>85.5</ele>
        <time>2015-02-23T21:26:42.263Z</time>
      </trkpt>
      <trkpt lat="48.85378" lon="2.36594">
        <ele>85.6</ele>
        <time>2015-02-23T21:26:43.142Z</time>
      </trkpt>
      <trkpt lat="48.85379" lon="2.36586">
        <ele>85.9</ele>
        <time>2015-02-23T21:26:44.255Z</time>
      </trkpt>
      <trkpt lat="48.8538" lon="2.36577">
        <ele>86.2</ele>
        <time>2015-02-23T21:26:45.149Z</time>
      </trkpt>
      <trkpt lat="48.85381" lon="2.36568">
        <ele>86.4</ele>
        <time>2015-02-23T21:26:46.159Z</time>
      </trkpt>
      <trkpt lat="48.85383" lon="2.36561">
        <ele>86.8</ele>
        <time>2015-02-23T21:26:47.340Z</time>
      </trkpt>
      <trkpt lat="48.85385" lon="2.36553">
        <ele>87.8</ele>
        <time>2015-02-23T21:26:48.184Z</time>
      </trkpt>
      <trkpt lat="48.8539" lon="2.36543">
        <ele>89.4</ele>
        <time>2015-02-23T21:26:50.206Z</time>
      </trkpt>
      <trkpt lat="48.85393" lon="2.36537">
        <ele>90.1</ele>
        <time>2015-02-23T21:26:51.221Z</time>
      </trkpt>
      <trkpt lat="48.85397" lon="2.36527">
        <ele>91.5</ele>
        <time>2015-02-23T21:26:53.143Z</time>
      </trkpt>
      <trkpt lat="48.85399" lon="2.36521">
        <ele>92.4</ele>
        <time>2015-02-23T21:26:54.189Z</time>
      </trkpt>
      <trkpt lat="48.85402" lon="2.36509">
        <ele>94.1</ele>
        <time>2015-02-23T21:26:56.218Z</time>
      </trkpt>
      <trkpt lat="48.85402" lon="2.36503">
        <ele>94.9</ele>
        <time>2015-02-23T21:26:57.250Z</time>
      </trkpt>
      <trkpt lat="48.85403" lon="2.36491">
        <ele>96.2</ele>
        <time>2015-02-23T21:26:59.152Z</time>
      </trkpt>
      <trkpt lat="48.85404" lon="2.36486">
        <ele>96.6</ele>
        <time>2015-02-23T21:27:00.192Z</time>
      </trkpt>
      <trkpt lat="48.85401" lon="2.36477">
        <ele>96.5</ele>
        <time>2015-02-23T21:27:02.311Z</time>
      </trkpt>
      <trkpt lat="48.85401" lon="2.36473">
        <ele>96.3</ele>
        <time>2015-02-23T21:27:03.239Z</time>
      </trkpt>
      <trkpt lat="48.85401" lon="2.36462">
        <ele>97</ele>
        <time>2015-02-23T21:27:06.971Z</time>
      </trkpt>
      <trkpt lat="48.85402" lon="2.36457">
        <ele>97.1</ele>
        <time>2015-02-23T21:27:07.988Z</time>
      </trkpt>
      <trkpt lat="48.85407" lon="2.36446">
        <ele>98</ele>
        <time>2015-02-23T21:27:09.889Z</time>
      </trkpt>
      <trkpt lat="48.85409" lon="2.36443">
        <ele>98.6</ele>
        <time>2015-02-23T21:27:10.911Z</time>
      </trkpt>
      <trkpt lat="48.85412" lon="2.36438">
        <ele>99.2</ele>
        <time>2015-02-23T21:27:11.922Z</time>
      </trkpt>
      <trkpt lat="48.85416" lon="2.36433">
        <ele>99.7</ele>
        <time>2015-02-23T21:27:12.925Z</time>
      </trkpt>
      <trkpt lat="48.8542" lon="2.36428">
        <ele>100.1</ele>
        <time>2015-02-23T21:27:13.960Z</time>
      </trkpt>
      <trkpt lat="48.85424" lon="2.36423">
        <ele>100.7</ele>
        <time>2015-02-23T21:27:14.945Z</time>
      </trkpt>
      <trkpt lat="48.85429" lon="2.36413">
        <ele>101.4</ele>
        <time>2015-02-23T21:27:16.952Z</time>
      </trkpt>
      <trkpt lat="48.85432" lon="2.36406">
        <ele>101.6</ele>
        <time>2015-02-23T21:27:17.936Z</time>
      </trkpt>
      <trkpt lat="48.85436" lon="2.36401">
        <ele>101.8</ele>
        <time>2015-02-23T21:27:18.967Z</time>
      </trkpt>
      <trkpt lat="48.85438" lon="2.36395">
        <ele>101.8</ele>
        <time>2015-02-23T21:27:19.981Z</time>
      </trkpt>
      <trkpt lat="48.8544" lon="2.36389">
        <ele>102</ele>
        <time>2015-02-23T21:27:20.989Z</time>
      </trkpt>
      <trkpt lat="48.85443" lon="2.36383">
        <ele>102.2</ele>
        <time>2015-02-23T21:27:21.905Z</time>
      </trkpt>
      <trkpt lat="48.85445" lon="2.36372">
        <ele>102.2</ele>
        <time>2015-02-23T21:27:23.940Z</time>
      </trkpt>
      <trkpt lat="48.85447" lon="2.36366">
        <ele>101.9</ele>
        <time>2015-02-23T21:27:24.947Z</time>
      </trkpt>
      <trkpt lat="48.85451" lon="2.36355">
        <ele>102.5</ele>
        <time>2015-02-23T21:27:27.014Z</time>
      </trkpt>
      <trkpt lat="48.85452" lon="2.36348">
        <ele>103.1</ele>
        <time>2015-02-23T21:27:27.886Z</time>
      </trkpt>
      <trkpt lat="48.85453" lon="2.36336">
        <ele>104.1</ele>
        <time>2015-02-23T21:27:29.957Z</time>
      </trkpt>
      <trkpt lat="48.85455" lon="2.36329">
        <ele>104.5</ele>
        <time>2015-02-23T21:27:30.970Z</time>
      </trkpt>
      <trkpt lat="48.85458" lon="2.36317">
        <ele>105.2</ele>
        <time>2015-02-23T21:27:32.994Z</time>
      </trkpt>
      <trkpt lat="48.85461" lon="2.36313">
        <ele>105.5</ele>
        <time>2015-02-23T21:27:33.926Z</time>
      </trkpt>
      <trkpt lat="48.85465" lon="2.36309">
        <ele>105.8</ele>
        <time>2015-02-23T21:27:34.935Z</time>
      </trkpt>
      <trkpt lat="48.85469" lon="2.36305">
        <ele>106.2</ele>
        <time>2015-02-23T21:27:35.962Z</time>
      </trkpt>
      <trkpt lat="48.85473" lon="2.363">
        <ele>107.1</ele>
        <time>2015-02-23T21:27:36.976Z</time>
      </trkpt>
      <trkpt lat="48.85478" lon="2.36295">
        <ele>107.3</ele>
        <time>2015-02-23T21:27:37.992Z</time>
      </trkpt>
      <trkpt lat="48.85482" lon="2.36285">
        <ele>107.8</ele>
        <time>2015-02-23T21:27:39.908Z</time>
      </trkpt>
      <trkpt lat="48.85483" lon="2.36279">
        <ele>108.1</ele>
        <time>2015-02-23T21:27:40.923Z</time>
      </trkpt>
      <trkpt lat="48.85485" lon="2.36268">
        <ele>108.8</ele>
        <time>2015-02-23T21:27:42.977Z</time>
      </trkpt>
      <trkpt lat="48.85486" lon="2.36262">
        <ele>109</ele>
        <time>2015-02-23T21:27:43.950Z</time>
      </trkpt>
      <trkpt lat="48.85492" lon="2.36255">
        <ele>109.2</ele>
        <time>2015-02-23T21:27:45.122Z</time>
      </trkpt>
      <trkpt lat="48.85495" lon="2.3625">
        <ele>109.4</ele>
        <time>2015-02-23T21:27:46.145Z</time>
      </trkpt>
      <trkpt lat="48.85501" lon="2.36241">
        <ele>109.7</ele>
        <time>2015-02-23T21:27:48.166Z</time>
      </trkpt>
      <trkpt lat="48.85504" lon="2.36237">
        <ele>109.6</ele>
        <time>2015-02-23T21:27:49.228Z</time>
      </trkpt>
      <trkpt lat="48.85506" lon="2.36225">
        <ele>109.8</ele>
        <time>2015-02-23T21:27:52.175Z</time>
      </trkpt>
      <trkpt lat="48.85507" lon="2.3622">
        <ele>109.9</ele>
        <time>2015-02-23T21:27:53.154Z</time>
      </trkpt>
      <trkpt lat="48.85508" lon="2.36209">
        <ele>109.8</ele>
        <time>2015-02-23T21:27:55.185Z</time>
      </trkpt>
      <trkpt lat="48.85509" lon="2.36204">
        <ele>110</ele>
        <time>2015-02-23T21:27:56.192Z</time>
      </trkpt>
      <trkpt lat="48.85511" lon="2.36195">
        <ele>110.4</ele>
        <time>2015-02-23T21:27:58.260Z</time>
      </trkpt>
      <trkpt lat="48.85514" lon="2.3619">
        <ele>110.4</ele>
        <time>2015-02-23T21:27:59.220Z</time>
      </trkpt>
      <trkpt lat="48.85516" lon="2.36181">
        <ele>110.9</ele>
        <time>2015-02-23T21:28:01.183Z</time>
      </trkpt>
      <trkpt lat="48.85519" lon="2.36176">
        <ele>111</ele>
        <time>2015-02-23T21:28:02.195Z</time>
      </trkpt>
      <trkpt lat="48.85521" lon="2.36165">
        <ele>111.5</ele>
        <time>2015-02-23T21:28:04.171Z</time>
      </trkpt>
      <trkpt lat="48.85522" lon="2.3616">
        <ele>111.7</ele>
        <time>2015-02-23T21:28:05.178Z</time>
      </trkpt>
      <trkpt lat="48.85526" lon="2.36152">
        <ele>112.2</ele>
        <time>2015-02-23T21:28:07.236Z</time>
      </trkpt>
      <trkpt lat="48.85529" lon="2.36148">
        <ele>112.4</ele>
        <time>2015-02-23T21:28:08.160Z</time>
      </trkpt>
      <trkpt lat="48.8553" lon="2.36137">
        <ele>111.9</ele>
        <time>2015-02-23T21:28:10.207Z</time>
      </trkpt>
      <trkpt lat="48.8553" lon="2.36131">
        <ele>111.8</ele>
        <time>2015-02-23T21:28:11.177Z</time>
      </trkpt>
      <trkpt lat="48.85532" lon="2.3612">
        <ele>111.9</ele>
        <time>2015-02-23T21:28:13.211Z</time>
      </trkpt>
      <trkpt lat="48.85534" lon="2.36114">
        <ele>111.7</ele>
        <time>2015-02-23T21:28:14.219Z</time>
      </trkpt>
      <trkpt lat="48.85537" lon="2.36105">
        <ele>111.2</ele>
        <time>2015-02-23T21:28:16.190Z</time>
      </trkpt>
      <trkpt lat="48.85538" lon="2.361">
        <ele>110.9</ele>
        <time>2015-02-23T21:28:17.274Z</time>
      </trkpt>
      <trkpt lat="48.85539" lon="2.36088">
        <ele>110.6</ele>
        <time>2015-02-23T21:28:19.235Z</time>
      </trkpt>
      <trkpt lat="48.8554" lon="2.36081">
        <ele>110.7</ele>
        <time>2015-02-23T21:28:20.241Z</time>
      </trkpt>
      <trkpt lat="48.85543" lon="2.36069">
        <ele>110.8</ele>
        <time>2015-02-23T21:28:22.169Z</time>
      </trkpt>
      <trkpt lat="48.85545" lon="2.36062">
        <ele>111.1</ele>
        <time>2015-02-23T21:28:23.195Z</time>
      </trkpt>
      <trkpt lat="48.85548" lon="2.3605">
        <ele>111.8</ele>
        <time>2015-02-23T21:28:25.249Z</time>
      </trkpt>
      <trkpt lat="48.85551" lon="2.36044">
        <ele>111.9</ele>
        <time>2015-02-23T21:28:26.160Z</time>
      </trkpt>
      <trkpt lat="48.85557" lon="2.36035">
        <ele>111.9</ele>
        <time>2015-02-23T21:28:28.231Z</time>
      </trkpt>
      <trkpt lat="48.85561" lon="2.36032">
        <ele>112.1</ele>
        <time>2015-02-23T21:28:29.122Z</time>
      </trkpt>
      <trkpt lat="48.85566" lon="2.36028">
        <ele>112.7</ele>
        <time>2015-02-23T21:28:30.127Z</time>
      </trkpt>
      <trkpt lat="48.8557" lon="2.36023">
        <ele>113.4</ele>
        <time>2015-02-23T21:28:31.244Z</time>
      </trkpt>
      <trkpt lat="48.85574" lon="2.36018">
        <ele>113.9</ele>
        <time>2015-02-23T21:28:32.197Z</time>
      </trkpt>
      <trkpt lat="48.85575" lon="2.36011">
        <ele>113.9</ele>
        <time>2015-02-23T21:28:33.211Z</time>
      </trkpt>
      <trkpt lat="48.85572" lon="2.36003">
        <ele>112.7</ele>
        <time>2015-02-23T21:28:34.214Z</time>
      </trkpt>
      <trkpt lat="48.85569" lon="2.35996">
        <ele>111.6</ele>
        <time>2015-02-23T21:28:35.230Z</time>
      </trkpt>
      <trkpt lat="48.85572" lon="2.35988">
        <ele>111.7</ele>
        <time>2015-02-23T21:28:36.142Z</time>
      </trkpt>
      <trkpt lat="48.85574" lon="2.3598">
        <ele>112.2</ele>
        <time>2015-02-23T21:28:37.169Z</time>
      </trkpt>
      <trkpt lat="48.85577" lon="2.35973">
        <ele>112.4</ele>
        <time>2015-02-23T21:28:38.178Z</time>
      </trkpt>
      <trkpt lat="48.8558" lon="2.35967">
        <ele>112.5</ele>
        <time>2015-02-23T21:28:39.188Z</time>
      </trkpt>
      <trkpt lat="48.85583" lon="2.35959">
        <ele>112.8</ele>
        <time>2015-02-23T21:28:40.215Z</time>
      </trkpt>
      <trkpt lat="48.85587" lon="2.3595">
        <ele>113.1</ele>
        <time>2015-02-23T21:28:41.233Z</time>
      </trkpt>
      <trkpt lat="48.85591" lon="2.35941">
        <ele>113.2</ele>
        <time>2015-02-23T21:28:42.177Z</time>
      </trkpt>
      <trkpt lat="48.85595" lon="2.35932">
        <ele>113.8</ele>
        <time>2015-02-23T21:28:43.283Z</time>
      </trkpt>
      <trkpt lat="48.856" lon="2.35924">
        <ele>114.3</ele>
        <time>2015-02-23T21:28:44.135Z</time>
      </trkpt>
      <trkpt lat="48.85605" lon="2.35915">
        <ele>114.7</ele>
        <time>2015-02-23T21:28:45.149Z</time>
      </trkpt>
      <trkpt lat="48.85608" lon="2.35906">
        <ele>115.5</ele>
        <time>2015-02-23T21:28:46.254Z</time>
      </trkpt>
      <trkpt lat="48.85613" lon="2.35896">
        <ele>115.8</ele>
        <time>2015-02-23T21:28:47.162Z</time>
      </trkpt>
      <trkpt lat="48.85616" lon="2.35885">
        <ele>116.3</ele>
        <time>2015-02-23T21:28:48.151Z</time>
      </trkpt>
      <trkpt lat="48.85619" lon="2.35875">
        <ele>117.1</ele>
        <time>2015-02-23T21:28:49.205Z</time>
      </trkpt>
      <trkpt lat="48.85621" lon="2.35865">
        <ele>117.5</ele>
        <time>2015-02-23T21:28:50.200Z</time>
      </trkpt>
      <trkpt lat="48.85624" lon="2.35857">
        <ele>117.7</ele>
        <time>2015-02-23T21:28:51.302Z</time>
      </trkpt>
      <trkpt lat="48.85627" lon="2.35848">
        <ele>117.7</ele>
        <time>2015-02-23T21:28:52.162Z</time>
      </trkpt>
      <trkpt lat="48.85628" lon="2.3584">
        <ele>117.9</ele>
        <time>2015-02-23T21:28:53.175Z</time>
      </trkpt>
      <trkpt lat="48.8563" lon="2.35833">
        <ele>118</ele>
        <time>2015-02-23T21:28:54.180Z</time>
      </trkpt>
      <trkpt lat="48.85632" lon="2.35826">
        <ele>117.9</ele>
        <time>2015-02-23T21:28:55.190Z</time>
      </trkpt>
      <trkpt lat="48.85636" lon="2.35821">
        <ele>117.4</ele>
        <time>2015-02-23T21:28:56.199Z</time>
      </trkpt>
      <trkpt lat="48.85639" lon="2.35814">
        <ele>116.7</ele>
        <time>2015-02-23T21:28:57.214Z</time>
      </trkpt>
      <trkpt lat="48.85643" lon="2.35807">
        <ele>116.1</ele>
        <time>2015-02-23T21:28:58.237Z</time>
      </trkpt>
      <trkpt lat="48.85648" lon="2.35798">
        <ele>115.8</ele>
        <time>2015-02-23T21:28:59.146Z</time>
      </trkpt>
      <trkpt lat="48.85651" lon="2.3579">
        <ele>115.7</ele>
        <time>2015-02-23T21:29:00.199Z</time>
      </trkpt>
      <trkpt lat="48.85654" lon="2.35782">
        <ele>115.9</ele>
        <time>2015-02-23T21:29:01.218Z</time>
      </trkpt>
      <trkpt lat="48.85657" lon="2.35775">
        <ele>116.4</ele>
        <time>2015-02-23T21:29:02.229Z</time>
      </trkpt>
      <trkpt lat="48.85662" lon="2.35767">
        <ele>117.1</ele>
        <time>2015-02-23T21:29:03.234Z</time>
      </trkpt>
      <trkpt lat="48.85665" lon="2.35759">
        <ele>117.3</ele>
        <time>2015-02-23T21:29:04.157Z</time>
      </trkpt>
      <trkpt lat="48.85669" lon="2.3575">
        <ele>117.8</ele>
        <time>2015-02-23T21:29:05.157Z</time>
      </trkpt>
      <trkpt lat="48.85672" lon="2.35741">
        <ele>118.5</ele>
        <time>2015-02-23T21:29:06.212Z</time>
      </trkpt>
      <trkpt lat="48.85677" lon="2.35733">
        <ele>118.8</ele>
        <time>2015-02-23T21:29:07.220Z</time>
      </trkpt>
      <trkpt lat="48.85681" lon="2.35725">
        <ele>118.9</ele>
        <time>2015-02-23T21:29:08.146Z</time>
      </trkpt>
      <trkpt lat="48.85684" lon="2.35719">
        <ele>119.2</ele>
        <time>2015-02-23T21:29:09.142Z</time>
      </trkpt>
      <trkpt lat="48.85687" lon="2.35712">
        <ele>119.2</ele>
        <time>2015-02-23T21:29:10.160Z</time>
      </trkpt>
      <trkpt lat="48.85693" lon="2.35705">
        <ele>118.9</ele>
        <time>2015-02-23T21:29:11.195Z</time>
      </trkpt>
      <trkpt lat="48.85697" lon="2.35698">
        <ele>118.3</ele>
        <time>2015-02-23T21:29:12.215Z</time>
      </trkpt>
      <trkpt lat="48.85702" lon="2.3569">
        <ele>117.9</ele>
        <time>2015-02-23T21:29:13.237Z</time>
      </trkpt>
      <trkpt lat="48.85709" lon="2.35683">
        <ele>117.5</ele>
        <time>2015-02-23T21:29:14.143Z</time>
      </trkpt>
      <trkpt lat="48.85714" lon="2.35675">
        <ele>117.2</ele>
        <time>2015-02-23T21:29:15.145Z</time>
      </trkpt>
      <trkpt lat="48.8572" lon="2.35667">
        <ele>117.1</ele>
        <time>2015-02-23T21:29:16.160Z</time>
      </trkpt>
      <trkpt lat="48.85725" lon="2.35661">
        <ele>116.7</ele>
        <time>2015-02-23T21:29:17.167Z</time>
      </trkpt>
      <trkpt lat="48.85729" lon="2.35655">
        <ele>116.6</ele>
        <time>2015-02-23T21:29:18.155Z</time>
      </trkpt>
      <trkpt lat="48.85732" lon="2.35649">
        <ele>116.7</ele>
        <time>2015-02-23T21:29:19.242Z</time>
      </trkpt>
      <trkpt lat="48.85736" lon="2.35643">
        <ele>116.9</ele>
        <time>2015-02-23T21:29:20.158Z</time>
      </trkpt>
      <trkpt lat="48.8574" lon="2.35636">
        <ele>117</ele>
        <time>2015-02-23T21:29:21.171Z</time>
      </trkpt>
      <trkpt lat="48.85742" lon="2.35628">
        <ele>116</ele>
        <time>2015-02-23T21:29:22.216Z</time>
      </trkpt>
      <trkpt lat="48.85741" lon="2.3562">
        <ele>115.6</ele>
        <time>2015-02-23T21:29:23.233Z</time>
      </trkpt>
      <trkpt lat="48.85739" lon="2.35612">
        <ele>115</ele>
        <time>2015-02-23T21:29:24.146Z</time>
      </trkpt>
      <trkpt lat="48.85738" lon="2.35603">
        <ele>115.6</ele>
        <time>2015-02-23T21:29:25.175Z</time>
      </trkpt>
      <trkpt lat="48.85738" lon="2.35594">
        <ele>116</ele>
        <time>2015-02-23T21:29:26.174Z</time>
      </trkpt>
      <trkpt lat="48.85738" lon="2.35585">
        <ele>116.1</ele>
        <time>2015-02-23T21:29:27.187Z</time>
      </trkpt>
      <trkpt lat="48.85738" lon="2.35575">
        <ele>116.6</ele>
        <time>2015-02-23T21:29:28.213Z</time>
      </trkpt>
      <trkpt lat="48.85738" lon="2.35564">
        <ele>116.9</ele>
        <time>2015-02-23T21:29:29.234Z</time>
      </trkpt>
      <trkpt lat="48.85737" lon="2.35554">
        <ele>117.1</ele>
        <time>2015-02-23T21:29:30.146Z</time>
      </trkpt>
      <trkpt lat="48.85736" lon="2.35543">
        <ele>117</ele>
        <time>2015-02-23T21:29:31.180Z</time>
      </trkpt>
      <trkpt lat="48.85735" lon="2.35533">
        <ele>117</ele>
        <time>2015-02-23T21:29:32.150Z</time>
      </trkpt>
      <trkpt lat="48.85735" lon="2.35524">
        <ele>117.2</ele>
        <time>2015-02-23T21:29:33.151Z</time>
      </trkpt>
      <trkpt lat="48.85737" lon="2.35514">
        <ele>117.2</ele>
        <time>2015-02-23T21:29:34.150Z</time>
      </trkpt>
      <trkpt lat="48.8574" lon="2.35508">
        <ele>117.3</ele>
        <time>2015-02-23T21:29:35.175Z</time>
      </trkpt>
      <trkpt lat="48.85746" lon="2.355">
        <ele>117</ele>
        <time>2015-02-23T21:29:36.198Z</time>
      </trkpt>
      <trkpt lat="48.85748" lon="2.35495">
        <ele>117</ele>
        <time>2015-02-23T21:29:37.268Z</time>
      </trkpt>
      <trkpt lat="48.85751" lon="2.35488">
        <ele>117</ele>
        <time>2015-02-23T21:29:38.239Z</time>
      </trkpt>
      <trkpt lat="48.85752" lon="2.35482">
        <ele>117.2</ele>
        <time>2015-02-23T21:29:39.188Z</time>
      </trkpt>
      <trkpt lat="48.85751" lon="2.35468">
        <ele>117.7</ele>
        <time>2015-02-23T21:29:41.231Z</time>
      </trkpt>
      <trkpt lat="48.85753" lon="2.35461">
        <ele>118</ele>
        <time>2015-02-23T21:29:42.247Z</time>
      </trkpt>
      <trkpt lat="48.85754" lon="2.35454">
        <ele>118.4</ele>
        <time>2015-02-23T21:29:43.166Z</time>
      </trkpt>
      <trkpt lat="48.85756" lon="2.35447">
        <ele>118.6</ele>
        <time>2015-02-23T21:29:44.157Z</time>
      </trkpt>
      <trkpt lat="48.85759" lon="2.35435">
        <ele>118.9</ele>
        <time>2015-02-23T21:29:46.182Z</time>
      </trkpt>
      <trkpt lat="48.85761" lon="2.3543">
        <ele>119.2</ele>
        <time>2015-02-23T21:29:47.150Z</time>
      </trkpt>
      <trkpt lat="48.85762" lon="2.35422">
        <ele>119.5</ele>
        <time>2015-02-23T21:29:48.184Z</time>
      </trkpt>
      <trkpt lat="48.8576" lon="2.35414">
        <ele>119.5</ele>
        <time>2015-02-23T21:29:49.203Z</time>
      </trkpt>
      <trkpt lat="48.85758" lon="2.35406">
        <ele>119.4</ele>
        <time>2015-02-23T21:29:50.126Z</time>
      </trkpt>
      <trkpt lat="48.85758" lon="2.35399">
        <ele>119</ele>
        <time>2015-02-23T21:29:51.144Z</time>
      </trkpt>
      <trkpt lat="48.85759" lon="2.35392">
        <ele>119.3</ele>
        <time>2015-02-23T21:29:52.162Z</time>
      </trkpt>
      <trkpt lat="48.85762" lon="2.35385">
        <ele>119.8</ele>
        <time>2015-02-23T21:29:53.164Z</time>
      </trkpt>
      <trkpt lat="48.85766" lon="2.35378">
        <ele>120.3</ele>
        <time>2015-02-23T21:29:54.200Z</time>
      </trkpt>
      <trkpt lat="48.85768" lon="2.3537">
        <ele>120.6</ele>
        <time>2015-02-23T21:29:55.230Z</time>
      </trkpt>
      <trkpt lat="48.85768" lon="2.35362">
        <ele>120.7</ele>
        <time>2015-02-23T21:29:56.237Z</time>
      </trkpt>
      <trkpt lat="48.85769" lon="2.35353">
        <ele>120.8</ele>
        <time>2015-02-23T21:29:57.241Z</time>
      </trkpt>
      <trkpt lat="48.85768" lon="2.35344">
        <ele>121.2</ele>
        <time>2015-02-23T21:29:58.169Z</time>
      </trkpt>
      <trkpt lat="48.8577" lon="2.35337">
        <ele>121.7</ele>
        <time>2015-02-23T21:29:59.170Z</time>
      </trkpt>
      <trkpt lat="48.85776" lon="2.35331">
        <ele>122.1</ele>
        <time>2015-02-23T21:30:00.182Z</time>
      </trkpt>
      <trkpt lat="48.85782" lon="2.35325">
        <ele>122.5</ele>
        <time>2015-02-23T21:30:01.211Z</time>
      </trkpt>
      <trkpt lat="48.85787" lon="2.35318">
        <ele>123</ele>
        <time>2015-02-23T21:30:02.225Z</time>
      </trkpt>
      <trkpt lat="48.85793" lon="2.35311">
        <ele>123.4</ele>
        <time>2015-02-23T21:30:03.122Z</time>
      </trkpt>
      <trkpt lat="48.85795" lon="2.35304">
        <ele>123.8</ele>
        <time>2015-02-23T21:30:04.140Z</time>
      </trkpt>
      <trkpt lat="48.858" lon="2.35297">
        <ele>123.9</ele>
        <time>2015-02-23T21:30:05.157Z</time>
      </trkpt>
      <trkpt lat="48.85801" lon="2.35289">
        <ele>123.9</ele>
        <time>2015-02-23T21:30:06.161Z</time>
      </trkpt>
      <trkpt lat="48.85802" lon="2.35281">
        <ele>123.9</ele>
        <time>2015-02-23T21:30:07.175Z</time>
      </trkpt>
      <trkpt lat="48.85801" lon="2.35272">
        <ele>122.6</ele>
        <time>2015-02-23T21:30:08.181Z</time>
      </trkpt>
      <trkpt lat="48.85796" lon="2.35261">
        <ele>120.5</ele>
        <time>2015-02-23T21:30:09.185Z</time>
      </trkpt>
      <trkpt lat="48.85784" lon="2.35249">
        <ele>116.6</ele>
        <time>2015-02-23T21:30:10.197Z</time>
      </trkpt>
      <trkpt lat="48.85768" lon="2.35236">
        <ele>113.4</ele>
        <time>2015-02-23T21:30:11.118Z</time>
      </trkpt>
      <trkpt lat="48.85754" lon="2.35224">
        <ele>110</ele>
        <time>2015-02-23T21:30:12.141Z</time>
      </trkpt>
      <trkpt lat="48.85744" lon="2.35211">
        <ele>107.3</ele>
        <time>2015-02-23T21:30:13.216Z</time>
      </trkpt>
      <trkpt lat="48.85738" lon="2.352">
        <ele>105.6</ele>
        <time>2015-02-23T21:30:14.153Z</time>
      </trkpt>
      <trkpt lat="48.85737" lon="2.35192">
        <ele>105.1</ele>
        <time>2015-02-23T21:30:15.147Z</time>
      </trkpt>
      <trkpt lat="48.85738" lon="2.35185">
        <ele>105.3</ele>
        <time>2015-02-23T21:30:16.161Z</time>
      </trkpt>
      <trkpt lat="48.85739" lon="2.35178">
        <ele>106.2</ele>
        <time>2015-02-23T21:30:17.184Z</time>
      </trkpt>
      <trkpt lat="48.85741" lon="2.35171">
        <ele>107.2</ele>
        <time>2015-02-23T21:30:18.197Z</time>
      </trkpt>
      <trkpt lat="48.85742" lon="2.35162">
        <ele>107.8</ele>
        <time>2015-02-23T21:30:19.207Z</time>
      </trkpt>
      <trkpt lat="48.85742" lon="2.35152">
        <ele>110</ele>
        <time>2015-02-23T21:30:20.218Z</time>
      </trkpt>
      <trkpt lat="48.85744" lon="2.35142">
        <ele>110.8</ele>
        <time>2015-02-23T21:30:21.229Z</time>
      </trkpt>
      <trkpt lat="48.85746" lon="2.35136">
        <ele>111.3</ele>
        <time>2015-02-23T21:30:22.244Z</time>
      </trkpt>
      <trkpt lat="48.8575" lon="2.35133">
        <ele>111.2</ele>
        <time>2015-02-23T21:30:23.154Z</time>
      </trkpt>
      <trkpt lat="48.85757" lon="2.3513">
        <ele>111.1</ele>
        <time>2015-02-23T21:30:24.154Z</time>
      </trkpt>
      <trkpt lat="48.85762" lon="2.35126">
        <ele>111</ele>
        <time>2015-02-23T21:30:25.191Z</time>
      </trkpt>
      <trkpt lat="48.85766" lon="2.35121">
        <ele>111.5</ele>
        <time>2015-02-23T21:30:26.193Z</time>
      </trkpt>
      <trkpt lat="48.85769" lon="2.35116">
        <ele>112.1</ele>
        <time>2015-02-23T21:30:27.213Z</time>
      </trkpt>
      <trkpt lat="48.85774" lon="2.3511">
        <ele>112.4</ele>
        <time>2015-02-23T21:30:28.155Z</time>
      </trkpt>
      <trkpt lat="48.85779" lon="2.35104">
        <ele>112.7</ele>
        <time>2015-02-23T21:30:29.153Z</time>
      </trkpt>
      <trkpt lat="48.85783" lon="2.35098">
        <ele>113.5</ele>
        <time>2015-02-23T21:30:30.180Z</time>
      </trkpt>
      <trkpt lat="48.85789" lon="2.35091">
        <ele>113.8</ele>
        <time>2015-02-23T21:30:31.222Z</time>
      </trkpt>
      <trkpt lat="48.85795" lon="2.35085">
        <ele>114.1</ele>
        <time>2015-02-23T21:30:32.227Z</time>
      </trkpt>
      <trkpt lat="48.85801" lon="2.3508">
        <ele>114</ele>
        <time>2015-02-23T21:30:33.243Z</time>
      </trkpt>
      <trkpt lat="48.85805" lon="2.35076">
        <ele>114.2</ele>
        <time>2015-02-23T21:30:34.139Z</time>
      </trkpt>
      <trkpt lat="48.85808" lon="2.3507">
        <ele>114</ele>
        <time>2015-02-23T21:30:35.161Z</time>
      </trkpt>
      <trkpt lat="48.85813" lon="2.35063">
        <ele>114.1</ele>
        <time>2015-02-23T21:30:36.179Z</time>
      </trkpt>
      <trkpt lat="48.85817" lon="2.35057">
        <ele>114</ele>
        <time>2015-02-23T21:30:37.240Z</time>
      </trkpt>
      <trkpt lat="48.8582" lon="2.35054">
        <ele>114.2</ele>
        <time>2015-02-23T21:30:38.142Z</time>
      </trkpt>
      <trkpt lat="48.85825" lon="2.35049">
        <ele>114.2</ele>
        <time>2015-02-23T21:30:39.145Z</time>
      </trkpt>
      <trkpt lat="48.85829" lon="2.35044">
        <ele>113.7</ele>
        <time>2015-02-23T21:30:40.148Z</time>
      </trkpt>
      <trkpt lat="48.85832" lon="2.35039">
        <ele>113.4</ele>
        <time>2015-02-23T21:30:41.172Z</time>
      </trkpt>
      <trkpt lat="48.85835" lon="2.35033">
        <ele>113.6</ele>
        <time>2015-02-23T21:30:42.181Z</time>
      </trkpt>
      <trkpt lat="48.85841" lon="2.35028">
        <ele>114.1</ele>
        <time>2015-02-23T21:30:43.194Z</time>
      </trkpt>
      <trkpt lat="48.8585" lon="2.35023">
        <ele>114.1</ele>
        <time>2015-02-23T21:30:44.201Z</time>
      </trkpt>
      <trkpt lat="48.85856" lon="2.35019">
        <ele>114</ele>
        <time>2015-02-23T21:30:45.211Z</time>
      </trkpt>
      <trkpt lat="48.8586" lon="2.35014">
        <ele>113.7</ele>
        <time>2015-02-23T21:30:46.210Z</time>
      </trkpt>
      <trkpt lat="48.85863" lon="2.35008">
        <ele>113.3</ele>
        <time>2015-02-23T21:30:47.120Z</time>
      </trkpt>
      <trkpt lat="48.85856" lon="2.34999">
        <ele>111.1</ele>
        <time>2015-02-23T21:30:48.141Z</time>
      </trkpt>
      <trkpt lat="48.85854" lon="2.34991">
        <ele>109.6</ele>
        <time>2015-02-23T21:30:49.193Z</time>
      </trkpt>
      <trkpt lat="48.85851" lon="2.34984">
        <ele>108.1</ele>
        <time>2015-02-23T21:30:50.206Z</time>
      </trkpt>
      <trkpt lat="48.85849" lon="2.34978">
        <ele>107.1</ele>
        <time>2015-02-23T21:30:51.329Z</time>
      </trkpt>
      <trkpt lat="48.85847" lon="2.34971">
        <ele>105.6</ele>
        <time>2015-02-23T21:30:52.150Z</time>
      </trkpt>
      <trkpt lat="48.85845" lon="2.34964">
        <ele>104.4</ele>
        <time>2015-02-23T21:30:53.190Z</time>
      </trkpt>
      <trkpt lat="48.85843" lon="2.34958">
        <ele>103.5</ele>
        <time>2015-02-23T21:30:54.202Z</time>
      </trkpt>
      <trkpt lat="48.85841" lon="2.34951">
        <ele>103</ele>
        <time>2015-02-23T21:30:55.212Z</time>
      </trkpt>
      <trkpt lat="48.85839" lon="2.34944">
        <ele>102.9</ele>
        <time>2015-02-23T21:30:56.220Z</time>
      </trkpt>
      <trkpt lat="48.85841" lon="2.34932">
        <ele>103.7</ele>
        <time>2015-02-23T21:30:58.246Z</time>
      </trkpt>
      <trkpt lat="48.85841" lon="2.34925">
        <ele>104.1</ele>
        <time>2015-02-23T21:30:59.249Z</time>
      </trkpt>
      <trkpt lat="48.85842" lon="2.34918">
        <ele>104.3</ele>
        <time>2015-02-23T21:31:00.174Z</time>
      </trkpt>
      <trkpt lat="48.85844" lon="2.34911">
        <ele>104.3</ele>
        <time>2015-02-23T21:31:01.236Z</time>
      </trkpt>
      <trkpt lat="48.85844" lon="2.34899">
        <ele>103.3</ele>
        <time>2015-02-23T21:31:03.163Z</time>
      </trkpt>
      <trkpt lat="48.85841" lon="2.34893">
        <ele>102</ele>
        <time>2015-02-23T21:31:04.255Z</time>
      </trkpt>
      <trkpt lat="48.85842" lon="2.34887">
        <ele>101.9</ele>
        <time>2015-02-23T21:31:05.178Z</time>
      </trkpt>
      <trkpt lat="48.85842" lon="2.34879">
        <ele>101.9</ele>
        <time>2015-02-23T21:31:06.151Z</time>
      </trkpt>
      <trkpt lat="48.85844" lon="2.34868">
        <ele>102.1</ele>
        <time>2015-02-23T21:31:08.212Z</time>
      </trkpt>
      <trkpt lat="48.85844" lon="2.34863">
        <ele>101.3</ele>
        <time>2015-02-23T21:31:09.229Z</time>
      </trkpt>
      <trkpt lat="48.85846" lon="2.34855">
        <ele>100.6</ele>
        <time>2015-02-23T21:31:11.154Z</time>
      </trkpt>
      <trkpt lat="48.85846" lon="2.3485">
        <ele>101.4</ele>
        <time>2015-02-23T21:31:12.170Z</time>
      </trkpt>
      <trkpt lat="48.85848" lon="2.34839">
        <ele>102.3</ele>
        <time>2015-02-23T21:31:14.214Z</time>
      </trkpt>
      <trkpt lat="48.85849" lon="2.34835">
        <ele>102.2</ele>
        <time>2015-02-23T21:31:15.239Z</time>
      </trkpt>
      <trkpt lat="48.85852" lon="2.34828">
        <ele>103.6</ele>
        <time>2015-02-23T21:31:27.210Z</time>
      </trkpt>
      <trkpt lat="48.85854" lon="2.3482">
        <ele>110.6</ele>
        <time>2015-02-23T21:31:28.217Z</time>
      </trkpt>
      <trkpt lat="48.85856" lon="2.34815">
        <ele>111.9</ele>
        <time>2015-02-23T21:31:29.241Z</time>
      </trkpt>
      <trkpt lat="48.85861" lon="2.34809">
        <ele>112.5</ele>
        <time>2015-02-23T21:31:30.263Z</time>
      </trkpt>
      <trkpt lat="48.85868" lon="2.34802">
        <ele>113.5</ele>
        <time>2015-02-23T21:31:32.153Z</time>
      </trkpt>
      <trkpt lat="48.85872" lon="2.34798">
        <ele>113.8</ele>
        <time>2015-02-23T21:31:33.154Z</time>
      </trkpt>
      <trkpt lat="48.85876" lon="2.34793">
        <ele>114.2</ele>
        <time>2015-02-23T21:31:34.200Z</time>
      </trkpt>
      <trkpt lat="48.8588" lon="2.34788">
        <ele>114.5</ele>
        <time>2015-02-23T21:31:35.246Z</time>
      </trkpt>
      <trkpt lat="48.85884" lon="2.34777">
        <ele>115.2</ele>
        <time>2015-02-23T21:31:37.187Z</time>
      </trkpt>
      <trkpt lat="48.85886" lon="2.34772">
        <ele>115.4</ele>
        <time>2015-02-23T21:31:38.191Z</time>
      </trkpt>
      <trkpt lat="48.8589" lon="2.34762">
        <ele>116.1</ele>
        <time>2015-02-23T21:31:40.157Z</time>
      </trkpt>
      <trkpt lat="48.85892" lon="2.34758">
        <ele>116.3</ele>
        <time>2015-02-23T21:31:41.188Z</time>
      </trkpt>
      <trkpt lat="48.85893" lon="2.34745">
        <ele>117.8</ele>
        <time>2015-02-23T21:31:44.231Z</time>
      </trkpt>
      <trkpt lat="48.85895" lon="2.34743">
        <ele>118</ele>
        <time>2015-02-23T21:31:45.158Z</time>
      </trkpt>
      <trkpt lat="48.859" lon="2.34737">
        <ele>118.1</ele>
        <time>2015-02-23T21:31:50.208Z</time>
      </trkpt>
      <trkpt lat="48.85906" lon="2.34734">
        <ele>117.7</ele>
        <time>2015-02-23T21:31:51.225Z</time>
      </trkpt>
      <trkpt lat="48.8591" lon="2.34727">
        <ele>116.4</ele>
        <time>2015-02-23T21:31:55.202Z</time>
      </trkpt>
      <trkpt lat="48.85913" lon="2.34724">
        <ele>116.5</ele>
        <time>2015-02-23T21:31:56.205Z</time>
      </trkpt>
      <trkpt lat="48.85918" lon="2.3472">
        <ele>116.8</ele>
        <time>2015-02-23T21:31:58.150Z</time>
      </trkpt>
      <trkpt lat="48.85923" lon="2.34719">
        <ele>116.5</ele>
        <time>2015-02-23T21:31:59.169Z</time>
      </trkpt>
      <trkpt lat="48.85928" lon="2.34717">
        <ele>116.4</ele>
        <time>2015-02-23T21:32:00.181Z</time>
      </trkpt>
      <trkpt lat="48.85933" lon="2.34717">
        <ele>117</ele>
        <time>2015-02-23T21:32:01.191Z</time>
      </trkpt>
      <trkpt lat="48.8594" lon="2.34715">
        <ele>117.9</ele>
        <time>2015-02-23T21:32:03.216Z</time>
      </trkpt>
      <trkpt lat="48.85942" lon="2.34714">
        <ele>118.4</ele>
        <time>2015-02-23T21:32:04.224Z</time>
      </trkpt>
    </trkseg>
  </trk>
</gpx>